# Wetter Temperatur Luftdruck Luftfeuchtigkeit Sichtweite Windgeschwindigkeit Windrichtung Zeit
1 Clouds 15 1024 41 8000 2.06 230 16:59 01.02.2023
2 Clouds 14 1025 41 8000 1.54 210 14:22 01.02.2023
3 Clouds 14 1026 44 8000 1.03 0 13:19 01.02.2023
4 Clouds 12 1027 50 8000 1.03 0 12:26 01.02.2023
5 Clouds 11 1026 54 8000 0.51 0 11:49 01.02.2023
6 Clouds 9 1025 57 10000 2.57 220 08:41 01.02.2023
7 Clouds 13 1024 47 10000 1.03 0 23:41 31.01.2023
8 Clouds 15 1024 36 10000 3.6 210 21:20 31.01.2023
9 Clouds 16 1022 31 10000 1.54 300 19:24 31.01.2023
10 Clouds 17 1021 25 10000 2.57 0 17:54 31.01.2023
11 Clouds 18 1022 25 10000 2.57 10 15:36 31.01.2023
12 Clouds 18 1022 25 10000 2.57 10 15:18 31.01.2023
13 Clouds 16 1023 36 10000 3.09 30 13:43 31.01.2023
14 Clouds 11 1024 54 10000 2.57 80 11:28 31.01.2023
15 Clouds 9 1023 61 10000 3.09 70 10:25 31.01.2023
16 Clouds 9 1023 61 10000 2.06 60 09:44 31.01.2023
17 Clouds 7 1022 65 10000 2.06 100 08:56 31.01.2023
18 Clouds 7 1021 65 10000 3.09 110 07:59 31.01.2023
19 Clouds 8 1022 66 10000 2.57 110 03:39 31.01.2023
20 Clouds 11 1021 54 10000 2.57 80 23:36 30.01.2023
21 Clouds 12 1021 54 10000 2.06 70 22:50 30.01.2023
22 Clouds 13 1021 47 10000 2.06 60 21:48 30.01.2023
23 Clouds 14 1020 41 10000 2.57 310 20:44 30.01.2023
24 Clouds 16 1019 33 10000 5.14 280 18:55 30.01.2023
25 Clouds 17 1019 31 10000 3.09 280 17:25 30.01.2023
26 Clouds 17 1019 39 10000 1.54 0 14:48 30.01.2023
27 Clouds 17 1019 39 10000 1.54 0 14:48 30.01.2023
28 Clouds 16 1019 44 10000 1.54 310 13:56 30.01.2023
29 Clouds 14 1021 58 10000 1.03 0 12:18 30.01.2023
30 Clouds 8 1021 76 10000 0.51 0 10:24 30.01.2023
31 Clouds 6 1020 81 10000 1.03 0 09:53 30.01.2023
32 Clouds 5 1019 81 10000 1.03 0 08:30 30.01.2023
33 Clouds 5 1018 81 10000 0.51 0 06:23 30.01.2023
34 Clouds 8 1019 66 10000 3.09 90 00:55 30.01.2023
35 Clouds 9 1019 57 10000 1.54 80 23:32 29.01.2023
36 Clouds 10 1019 53 10000 1.54 70 22:36 29.01.2023
37 Clouds 12 1018 50 10000 2.57 10 20:54 29.01.2023
38 Clouds 13 1018 47 10000 2.06 340 20:22 29.01.2023
39 Clouds 14 1017 44 10000 1.54 320 19:33 29.01.2023
40 Clouds 16 1017 41 10000 1.54 0 17:56 29.01.2023
41 Clouds 16 1017 44 10000 1.03 0 16:48 29.01.2023
42 Clouds 15 1017 47 10000 3.09 320 16:20 29.01.2023
43 Clouds 13 1018 58 8000 3.09 350 14:20 29.01.2023
44 Clouds 11 1019 71 8000 2.06 30 13:18 29.01.2023
45 Clouds 10 1020 76 8000 2.06 30 12:38 29.01.2023
46 Clouds 10 1020 76 8000 2.06 30 12:19 29.01.2023
47 Clouds 9 1020 76 8000 1.54 40 11:37 29.01.2023
48 Clouds 8 1019 87 8000 1.03 0 10:53 29.01.2023
49 Clouds 3 1018 93 8000 1.03 0 08:45 29.01.2023
50 Clouds 5 1017 87 8000 1.03 0 04:45 29.01.2023
51 Clouds 8 1018 76 8000 3.6 70 23:51 28.01.2023
52 Clouds 11 1018 58 8000 4.12 40 21:28 28.01.2023
53 Clouds 12 1017 54 8000 3.6 20 19:58 28.01.2023
54 Clouds 13 1016 50 8000 4.63 30 19:24 28.01.2023
55 Clouds 15 1016 41 8000 4.12 20 17:46 28.01.2023
56 Clouds 16 1015 36 8000 2.06 0 16:57 28.01.2023
57 Clouds 15 1015 38 8000 1.54 0 16:19 28.01.2023
58 Clouds 15 1016 41 8000 2.57 0 15:37 28.01.2023
59 Clouds 14 1017 54 8000 1.54 10 13:50 28.01.2023
60 Clouds 12 1019 71 8000 1.54 0 12:31 28.01.2023
61 Clouds 7 1018 93 8000 2.06 40 10:35 28.01.2023
62 Clouds 6 1018 93 8000 1.54 110 09:54 28.01.2023
63 Clouds 5 1018 87 10000 0.51 0 05:50 28.01.2023
64 Clouds 7 1019 87 10000 0.51 0 01:32 28.01.2023
65 Clouds 7 1020 87 10000 1.54 240 00:21 28.01.2023
66 Clouds 11 1019 71 8000 1.54 220 20:35 27.01.2023
67 Clouds 13 1018 67 8000 1.03 0 17:58 27.01.2023
68 Clouds 13 1018 67 8000 1.54 0 17:21 27.01.2023
69 Clouds 14 1018 67 8000 1.03 0 16:58 27.01.2023
70 Clouds 10 1018 81 8000 1.54 300 16:21 27.01.2023
71 Clouds 12 1018 76 8000 3.09 280 14:45 27.01.2023
72 Clouds 12 1019 76 8000 2.57 270 14:22 27.01.2023
73 Clouds 11 1019 76 8000 4.63 260 12:40 27.01.2023
74 Rain 9 1018 57 10000 4.12 220 08:35 27.01.2023
75 Clear 5 1021 60 10000 1.54 260 02:36 27.01.2023
76 Clear 9 1022 53 10000 1.54 240 22:48 26.01.2023
77 Clear 12 1022 35 10000 2.06 330 21:21 26.01.2023
78 Clear 13 1022 30 10000 2.57 350 20:34 26.01.2023
79 Clouds 15 1021 33 10000 3.09 320 18:20 26.01.2023
80 Clouds 16 1021 31 10000 2.57 20 17:40 26.01.2023
81 Clouds 16 1021 23 10000 2.06 0 16:26 26.01.2023
82 Clouds 16 1021 25 10000 2.06 40 15:48 26.01.2023
83 Clouds 16 1022 25 10000 1.54 0 15:28 26.01.2023
84 Clouds 14 1023 38 10000 2.06 0 13:58 26.01.2023
85 Clouds 13 1024 44 10000 1.03 0 12:44 26.01.2023
86 Clouds 10 1024 57 10000 1.03 0 11:26 26.01.2023
87 Clouds 7 1023 65 10000 1.03 0 10:28 26.01.2023
88 Clouds 3 1022 75 10000 1.54 80 09:44 26.01.2023
89 Clouds 2 1022 75 10000 0.51 0 08:25 26.01.2023
90 Clouds 2 1022 75 10000 0.51 0 08:25 26.01.2023
91 Clouds 9 1020 61 10000 4.63 50 23:59 25.01.2023
92 Clouds 10 1020 53 10000 5.66 50 23:38 25.01.2023
93 Clouds 11 1019 46 10000 4.12 50 21:59 25.01.2023
94 Clouds 12 1019 43 10000 3.6 40 21:21 25.01.2023
95 Clouds 14 1018 38 10000 2.57 10 18:59 25.01.2023
96 Clouds 15 1018 38 10000 2.06 20 18:23 25.01.2023
97 Clouds 15 1018 41 10000 1.54 0 15:50 25.01.2023
98 Clouds 13 1020 50 10000 2.06 0 13:33 25.01.2023
99 Clear 10 1021 53 10000 1.54 40 11:25 25.01.2023
100 Clear 6 1020 70 10000 2.06 100 09:49 25.01.2023
101 Clear 4 1019 75 10000 2.57 20 07:45 25.01.2023
102 Clear 7 1019 61 10000 2.57 90 01:37 25.01.2023
103 Clear 8 1019 61 10000 2.57 60 00:25 25.01.2023
104 Clear 12 1018 40 10000 3.6 50 21:35 24.01.2023
105 Clear 13 1017 35 10000 4.63 40 20:39 24.01.2023
106 Clear 15 1016 29 10000 4.12 30 18:50 24.01.2023
107 Clear 16 1016 27 10000 4.63 20 18:29 24.01.2023
108 Clear 17 1016 23 10000 3.09 350 16:53 24.01.2023
109 Clear 17 1016 23 10000 3.09 350 16:53 24.01.2023
110 Clear 17 1016 23 10000 3.09 40 16:29 24.01.2023
111 Clear 15 1017 41 10000 3.6 70 13:50 24.01.2023
112 Clear 10 1019 66 10000 3.6 60 11:46 24.01.2023
113 Clear 4 1018 75 10000 2.57 80 08:43 24.01.2023
114 Clear 5 1017 75 8000 3.09 90 08:18 24.01.2023
115 Clear 5 1017 70 8000 2.57 110 07:48 24.01.2023
116 Clear 9 1017 61 8000 3.09 110 02:43 24.01.2023
117 Clouds 11 1018 54 10000 2.57 60 00:40 24.01.2023
118 Clouds 12 1017 47 10000 2.57 90 22:32 23.01.2023
119 Clouds 15 1016 41 10000 2.57 10 20:43 23.01.2023
120 Clouds 16 1016 39 10000 3.6 350 19:23 23.01.2023
121 Clouds 18 1016 39 10000 2.06 0 17:20 23.01.2023
122 Clear 18 1016 48 10000 2.06 0 15:32 23.01.2023
123 Clear 16 1018 63 10000 2.06 0 13:56 23.01.2023
124 Clear 14 1018 72 10000 2.57 30 12:56 23.01.2023
125 Clear 14 1019 72 10000 2.57 40 12:21 23.01.2023
126 Clear 12 1019 76 10000 3.09 70 11:28 23.01.2023
127 Clear 6 1019 87 10000 1.54 70 08:25 23.01.2023
128 Clear 12 1019 76 10000 2.06 70 00:24 23.01.2023
129 Clear 14 1018 58 10000 2.57 70 22:20 22.01.2023
130 Clear 15 1018 55 10000 3.09 50 21:19 22.01.2023
131 Clear 16 1018 51 10000 3.09 40 20:22 22.01.2023
132 Clouds 17 1018 48 10000 3.6 40 19:45 22.01.2023
133 Clouds 18 1018 45 10000 5.14 30 18:48 22.01.2023
134 Clouds 19 1018 45 10000 4.63 30 17:56 22.01.2023
135 Clouds 19 1018 48 10000 4.12 40 17:24 22.01.2023
136 Clouds 19 1018 48 10000 3.09 0 15:30 22.01.2023
137 Clouds 18 1019 52 10000 2.06 50 14:47 22.01.2023
138 Clouds 16 1020 63 10000 3.09 50 13:28 22.01.2023
139 Clouds 14 1021 72 10000 2.06 60 12:34 22.01.2023
140 Clouds 12 1021 71 6000 2.06 60 11:34 22.01.2023
141 Clear 11 1021 78 10000 1.81 81 09:35 22.01.2023
142 Clouds 8 1020 87 10000 2.06 100 06:40 22.01.2023
143 Clear 10 1021 81 10000 2.06 80 01:46 22.01.2023
144 Clear 13 1021 76 10000 4.12 40 23:31 21.01.2023
145 Clouds 15 1021 55 10000 2.06 40 21:40 21.01.2023
146 Clouds 17 1020 48 10000 2.57 30 19:46 21.01.2023
147 Clouds 20 1020 40 10000 2.57 0 16:55 21.01.2023
148 Clear 18 1021 48 10000 2.57 10 14:34 21.01.2023
149 Clear 16 1022 48 10000 1.54 0 12:57 21.01.2023
150 Clear 14 1023 54 10000 2.06 40 12:35 21.01.2023
151 Clear 11 1023 66 10000 2.06 90 10:56 21.01.2023
152 Clear 5 1022 75 10000 2.06 70 08:57 21.01.2023
153 Clear 7 1022 76 10000 2.06 70 04:32 21.01.2023
154 Clear 13 1022 47 10000 2.57 50 22:29 20.01.2023
155 Clear 14 1022 41 10000 2.57 50 21:38 20.01.2023
156 Clear 15 1022 38 10000 2.57 40 20:57 20.01.2023
157 Clear 16 1021 36 10000 3.6 30 19:45 20.01.2023
158 Clear 17 1021 26 10000 4.55 37 16:44 20.01.2023
159 Clear 17 1022 39 10000 2.57 50 14:46 20.01.2023
160 Clear 15 1023 51 10000 2.57 70 13:51 20.01.2023
161 Clear 8 1024 71 10000 3.09 70 10:24 20.01.2023
162 Clear 5 1023 81 10000 3.09 80 08:53 20.01.2023
163 Clear 5 1023 75 10000 2.06 80 05:54 20.01.2023
164 Clear 8 1024 66 10000 2.06 60 02:30 20.01.2023
165 Clear 12 1024 54 10000 2.57 50 22:35 19.01.2023
166 Clear 15 1023 41 10000 3.09 40 20:44 19.01.2023
167 Clear 16 1022 36 10000 3.09 40 19:29 19.01.2023
168 Clear 17 1021 36 10000 5.14 60 16:51 19.01.2023
169 Clouds 15 1024 47 10000 5.14 50 13:29 19.01.2023
170 Clear 7 1023 87 10000 3.09 90 09:36 19.01.2023
171 Clouds 10 1023 81 10000 2.57 70 02:59 19.01.2023
172 Clouds 12 1022 76 10000 3.6 70 22:24 18.01.2023
173 Clouds 14 1021 67 10000 5.14 40 20:20 18.01.2023
174 Clouds 16 1020 55 10000 4.63 20 19:38 18.01.2023
175 Clouds 17 1020 51 10000 3.6 20 18:30 18.01.2023
176 Clouds 17 1019 59 10000 2.57 40 15:56 18.01.2023
177 Clouds 15 1020 67 8000 2.06 50 13:49 18.01.2023
178 Clouds 13 1021 71 8000 2.06 100 11:28 18.01.2023
179 Clouds 9 1019 81 8000 1.54 30 09:27 18.01.2023
180 Clouds 12 1019 76 10000 1.54 200 02:59 18.01.2023
181 Clouds 12 1021 71 10000 1.54 290 00:20 18.01.2023
182 Clouds 12 1020 66 10000 2.06 260 20:56 17.01.2023
183 Clouds 15 1019 58 10000 3.09 260 19:36 17.01.2023
184 Clouds 16 1019 55 10000 2.57 310 18:41 17.01.2023
185 Clouds 17 1019 55 10000 2.57 220 17:31 17.01.2023
186 Clouds 17 1021 59 10000 1.03 0 15:26 17.01.2023
187 Clouds 15 1022 63 10000 2.06 320 14:25 17.01.2023
188 Clear 16 1021 49 10000 2.54 331 13:31 17.01.2023
189 Clear 13 1024 76 10000 1.03 0 11:45 17.01.2023
190 Clear 6 1023 93 8000 0.51 0 09:36 17.01.2023
191 Clear 6 1022 87 8000 1.03 0 08:20 17.01.2023
192 Clear 6 1022 87 10000 2.06 260 05:53 17.01.2023
193 Clear 11 1024 76 10000 2.57 50 00:58 17.01.2023
194 Clear 12 1024 71 10000 2.57 60 23:57 16.01.2023
195 Clear 14 1024 62 10000 2.06 30 22:26 16.01.2023
196 Clear 16 1023 51 10000 2.06 40 20:50 16.01.2023
197 Clear 16 1023 48 8000 1.54 60 19:45 16.01.2023
198 Clear 18 1023 42 8000 3.09 60 18:56 16.01.2023
199 Clear 19 1023 42 8000 3.09 10 18:28 16.01.2023
200 Clear 19 1023 42 8000 3.6 10 17:57 16.01.2023
201 Clear 20 1023 42 8000 3.6 10 17:19 16.01.2023
202 Clear 17 1026 63 8000 1.03 0 13:40 16.01.2023
203 Clouds 13 1027 82 6000 1.03 0 11:58 16.01.2023
204 Clear 11 1027 82 8000 2.06 310 10:21 16.01.2023
205 Clear 7 1026 81 8000 2.06 270 07:35 16.01.2023
206 Clear 16 1026 59 10000 2.57 60 22:42 15.01.2023
207 Clear 18 1025 45 10000 3.09 350 20:48 15.01.2023
208 Clear 17 1025 36 10000 2.06 250 20:24 15.01.2023
209 Clear 22 1025 26 10000 2.57 300 18:40 15.01.2023
210 Clear 23 1025 27 10000 3.09 310 16:42 15.01.2023
211 Clear 21 1026 37 10000 1.03 0 13:25 15.01.2023
212 Clear 17 1027 45 10000 0.51 0 11:40 15.01.2023
213 Clear 16 1026 44 10000 0.51 0 10:52 15.01.2023
214 Clear 10 1026 62 10000 2.06 100 10:21 15.01.2023
215 Clear 13 1026 58 10000 0.51 0 10:21 15.01.2023
216 Clear 13 1025 47 10000 1.03 0 01:55 15.01.2023
217 Clear 14 1024 51 10000 1.54 160 23:28 14.01.2023
218 Clear 16 1024 44 10000 1.54 130 22:42 14.01.2023
219 Clear 16 1025 44 10000 0.51 0 21:36 14.01.2023
220 Clear 16 1025 44 10000 0.51 0 21:18 14.01.2023
221 Clear 18 1024 39 10000 2.06 260 20:40 14.01.2023
222 Clear 19 1024 37 10000 2.06 270 19:53 14.01.2023
223 Clear 24 1023 29 10000 1.03 0 17:42 14.01.2023
224 Clear 22 1024 33 10000 1.54 350 15:30 14.01.2023
225 Clear 21 1025 37 10000 2.06 0 14:26 14.01.2023
226 Clear 20 1026 40 10000 2.06 70 13:43 14.01.2023
227 Clear 15 1027 51 6000 1.54 90 11:58 14.01.2023
228 Clear 10 1026 66 8000 2.06 80 10:47 14.01.2023
229 Clear 7 1026 70 10000 1.54 110 08:19 14.01.2023
230 Clear 12 1026 62 10000 1.03 0 23:49 13.01.2023
231 Clear 14 1026 54 10000 2.06 100 22:53 13.01.2023
232 Clear 15 1026 55 10000 2.57 110 22:34 13.01.2023
233 Clear 16 1027 51 10000 2.57 100 21:46 13.01.2023
234 Clear 19 1026 42 10000 2.57 30 19:49 13.01.2023
235 Clear 22 1025 35 10000 1.03 0 18:23 13.01.2023
236 Clear 23 1024 35 10000 1.54 0 16:57 13.01.2023
237 Clear 19 1026 45 10000 2.06 20 14:22 13.01.2023
238 Clear 16 1027 55 10000 1.03 0 12:21 13.01.2023
239 Clear 12 1026 71 10000 0.51 0 10:28 13.01.2023
240 Clear 10 1026 76 10000 0.51 0 09:47 13.01.2023
241 Clear 9 1025 76 10000 2.57 160 08:56 13.01.2023
242 Clouds 9 1025 76 10000 2.57 150 08:27 13.01.2023
243 Clouds 7 1025 81 10000 0.51 0 06:53 13.01.2023
244 Clouds 10 1025 71 10000 1.03 0 05:23 13.01.2023
245 Clouds 13 1025 62 10000 2.57 60 00:45 13.01.2023
246 Clouds 14 1026 58 10000 3.6 70 22:44 12.01.2023
247 Clouds 16 1025 51 10000 3.09 40 20:56 12.01.2023
248 Clouds 17 1025 48 10000 3.6 50 19:54 12.01.2023
249 Clouds 18 1024 48 10000 4.63 10 17:53 12.01.2023
250 Clouds 20 1023 45 10000 2.06 0 16:34 12.01.2023
251 Clouds 19 1025 52 10000 2.06 70 14:45 12.01.2023
252 Clouds 19 1025 52 10000 2.06 70 14:45 12.01.2023
253 Clouds 19 1025 52 10000 2.06 70 14:45 12.01.2023
254 Clouds 19 1025 52 10000 2.06 70 14:45 12.01.2023
255 Clouds 19 1025 55 10000 2.06 0 14:23 12.01.2023
256 Clouds 16 1027 63 10000 1.54 0 12:56 12.01.2023
257 Clear 12 1027 76 10000 3.09 80 10:54 12.01.2023
258 Clear 9 1026 81 10000 2.57 90 09:29 12.01.2023
259 Clouds 10 1026 81 10000 3.09 110 05:27 12.01.2023
260 Clear 13 1027 67 10000 3.09 70 23:59 11.01.2023
261 Clear 13 1027 67 10000 3.09 70 23:41 11.01.2023
262 Clear 14 1027 67 10000 2.57 60 23:22 11.01.2023
263 Clear 15 1027 63 10000 3.6 40 22:42 11.01.2023
264 Clear 16 1027 63 10000 2.06 30 20:37 11.01.2023
265 Clouds 18 1026 59 10000 2.57 50 18:40 11.01.2023
266 Clouds 19 1026 55 10000 1.54 0 17:24 11.01.2023
267 Clouds 18 1027 63 10000 1.03 0 15:23 11.01.2023
268 Clouds 16 1028 67 10000 1.03 0 13:53 11.01.2023
269 Clouds 13 1030 71 10000 1.03 0 12:21 11.01.2023
270 Clouds 11 1029 66 10000 2.06 270 10:45 11.01.2023
271 Clear 10 1029 71 10000 0.51 0 08:21 11.01.2023
272 Clear 11 1028 66 10000 1.03 0 07:26 11.01.2023
273 Clear 14 1029 54 10000 1.54 190 01:46 11.01.2023
274 Clear 15 1029 58 10000 1.54 230 22:46 10.01.2023
275 Clear 15 1029 55 10000 1.54 240 22:46 10.01.2023
276 Clear 18 1028 48 10000 2.06 120 21:36 10.01.2023
277 Clear 19 1028 45 10000 1.54 30 20:43 10.01.2023
278 Clear 20 1028 45 10000 1.54 10 19:48 10.01.2023
279 Clear 22 1027 40 10000 2.57 350 18:48 10.01.2023
280 Clear 23 1027 38 10000 2.06 320 17:59 10.01.2023
281 Clear 24 1027 38 10000 1.03 0 16:42 10.01.2023
282 Clear 22 1027 37 10000 2.06 30 15:31 10.01.2023
283 Clear 21 1028 43 10000 3.09 40 14:32 10.01.2023
284 Clear 19 1030 39 8000 0.51 0 12:25 10.01.2023
285 Clear 8 1029 71 8000 0.51 0 09:29 10.01.2023
286 Clear 8 1029 66 10000 1.54 100 08:30 10.01.2023
287 Clear 8 1029 66 10000 1.54 100 08:30 10.01.2023
288 Clear 8 1028 66 10000 1.03 0 07:28 10.01.2023
289 Clear 9 1028 66 10000 1.54 80 04:55 10.01.2023
290 Clear 13 1029 58 10000 1.54 100 23:37 09.01.2023
291 Clear 16 1029 55 10000 3.09 120 21:51 09.01.2023
292 Clear 18 1028 52 10000 3.09 40 20:46 09.01.2023
293 Clear 19 1028 45 10000 3.6 40 19:33 09.01.2023
294 Clear 22 1028 35 10000 4.12 50 17:55 09.01.2023
295 Clear 22 1027 35 10000 3.6 20 17:28 09.01.2023
296 Clear 22 1028 35 10000 3.09 30 16:32 09.01.2023
297 Clear 22 1028 33 10000 2.06 0 15:30 09.01.2023
298 Clear 20 1029 34 10000 3.6 40 14:46 09.01.2023
299 Clear 19 1030 37 10000 3.09 80 13:39 09.01.2023
300 Clear 18 1031 39 10000 3.09 80 12:49 09.01.2023
301 Clear 16 1031 41 10000 2.06 90 11:43 09.01.2023
302 Clear 11 1031 58 8000 1.54 80 10:35 09.01.2023
303 Clear 7 1029 61 8000 2.06 100 06:44 09.01.2023
304 Clear 11 1029 50 8000 1.54 180 02:54 09.01.2023
305 Clear 12 1030 54 8000 1.03 0 23:53 08.01.2023
306 Clear 14 1030 47 10000 0.51 0 21:24 08.01.2023
307 Clear 16 1029 41 10000 1.03 0 20:58 08.01.2023
308 Clear 16 1029 41 10000 1.54 270 20:21 08.01.2023
309 Clear 21 1028 26 10000 2.57 330 17:53 08.01.2023
310 Clear 22 1028 24 10000 2.57 350 17:20 08.01.2023
311 Clear 22 1028 26 10000 2.57 340 15:43 08.01.2023
312 Clear 21 1028 30 10000 2.06 10 15:23 08.01.2023
313 Clear 20 1029 40 10000 1.54 0 13:57 08.01.2023
314 Clear 19 1029 42 10000 1.03 0 13:28 08.01.2023
315 Clear 16 1030 51 8000 1.54 130 12:19 08.01.2023
316 Clear 7 1028 81 8000 1.54 90 09:38 08.01.2023
317 Clear 7 1029 81 8000 1.03 0 08:45 08.01.2023
318 Clouds 8 1028 76 6000 1.54 50 07:22 08.01.2023
319 Clear 12 1029 58 10000 1.54 260 23:40 07.01.2023
320 Clear 14 1028 54 10000 1.03 0 22:46 07.01.2023
321 Clear 15 1028 47 10000 1.54 250 22:20 07.01.2023
322 Clear 15 1028 47 10000 1.54 330 21:40 07.01.2023
323 Clear 16 1027 41 10000 1.54 290 20:31 07.01.2023
324 Clear 19 1026 32 10000 1.54 330 19:28 07.01.2023
325 Clear 21 1026 30 8000 1.03 0 18:22 07.01.2023
326 Clear 21 1026 30 8000 1.54 70 17:43 07.01.2023
327 Clear 22 1026 30 8000 1.03 0 16:54 07.01.2023
328 Clear 21 1026 35 8000 1.03 0 16:29 07.01.2023
329 Clear 21 1026 37 8000 1.54 0 15:45 07.01.2023
330 Clear 20 1027 40 8000 2.06 340 15:22 07.01.2023
331 Clear 19 1027 48 8000 2.06 320 14:26 07.01.2023
332 Clear 17 1028 55 8000 2.06 350 13:43 07.01.2023
333 Clear 17 1028 55 8000 2.06 350 13:22 07.01.2023
334 Clear 16 1028 63 8000 1.03 0 12:21 07.01.2023
335 Clear 9 1028 93 6000 2.06 70 10:29 07.01.2023
336 Clear 7 1028 100 6000 2.06 90 09:51 07.01.2023
337 Fog 8 1027 93 100 2.06 80 08:18 07.01.2023
338 Fog 8 1027 93 100 2.06 80 07:43 07.01.2023
339 Fog 9 1026 93 100 1.03 0 06:46 07.01.2023
340 Clear 13 1026 54 10000 2.06 180 23:53 06.01.2023
341 Clear 14 1026 51 10000 1.54 260 22:22 06.01.2023
342 Clear 14 1026 51 10000 1.54 260 21:53 06.01.2023
343 Clear 16 1025 44 10000 2.06 270 20:38 06.01.2023
344 Clear 17 1025 42 10000 2.06 280 19:56 06.01.2023
345 Clear 18 1025 39 10000 2.06 270 19:38 06.01.2023
346 Clear 18 1025 39 10000 2.06 270 19:20 06.01.2023
347 Clear 22 1024 30 10000 2.06 330 17:56 06.01.2023
348 Clear 23 1024 28 10000 0.51 0 16:53 06.01.2023
349 Clear 22 1024 30 10000 1.54 0 16:23 06.01.2023
350 Clear 22 1024 33 10000 2.06 340 15:52 06.01.2023
351 Clear 21 1024 37 10000 2.06 340 15:30 06.01.2023
352 Clear 20 1026 37 10000 1.54 350 13:46 06.01.2023
353 Clear 16 1027 51 10000 1.03 0 11:55 06.01.2023
354 Clear 13 1027 58 10000 1.03 0 10:55 06.01.2023
355 Clear 7 1026 70 10000 1.54 100 08:51 06.01.2023
356 Clear 9 1025 61 10000 2.06 120 05:23 06.01.2023
357 Clear 12 1026 58 10000 1.03 0 23:38 05.01.2023
358 Clear 13 1026 54 10000 2.06 270 22:44 05.01.2023
359 Clear 14 1025 47 10000 2.06 250 21:19 05.01.2023
360 Clouds 21 1024 35 10000 2.57 290 17:39 05.01.2023
361 Clouds 21 1024 37 10000 2.57 320 17:21 05.01.2023
362 Clouds 21 1024 37 10000 4.12 290 15:58 05.01.2023
363 Clouds 20 1025 37 10000 4.63 300 15:34 05.01.2023
364 Clear 20 1025 34 8000 3.6 270 14:33 05.01.2023
365 Clear 19 1026 39 8000 1.54 330 12:41 05.01.2023
366 Clear 16 1026 44 8000 0.51 0 11:36 05.01.2023
367 Clear 10 1026 66 10000 1.03 0 09:43 05.01.2023
368 Clear 8 1025 66 10000 0.51 0 08:22 05.01.2023
369 Clear 8 1025 66 10000 1.03 0 06:50 05.01.2023
370 Clear 10 1025 57 10000 0.51 0 03:34 05.01.2023
371 Clear 15 1027 51 10000 2.06 170 22:27 04.01.2023
372 Clear 16 1026 48 10000 1.03 0 21:32 04.01.2023
373 Clouds 19 1026 39 10000 1.03 0 20:23 04.01.2023
374 Clouds 19 1026 39 10000 1.03 0 19:47 04.01.2023
375 Clouds 19 1025 39 10000 1.54 290 19:29 04.01.2023
376 Clouds 21 1025 35 10000 1.54 340 18:18 04.01.2023
377 Clouds 22 1025 30 10000 1.54 0 16:31 04.01.2023
378 Clouds 22 1026 33 10000 1.03 0 14:52 04.01.2023
379 Clouds 20 1028 34 8000 0.51 0 13:30 04.01.2023
380 Clouds 14 1028 54 8000 1.03 0 11:24 04.01.2023
381 Clear 11 1028 62 10000 1.54 60 10:59 04.01.2023
382 Clear 9 1028 66 10000 1.54 80 10:40 04.01.2023
383 Clear 9 1028 66 10000 1.54 80 10:20 04.01.2023
384 Clear 9 1027 66 10000 2.06 120 05:39 04.01.2023
385 Clear 11 1027 54 10000 1.03 0 01:41 04.01.2023
386 Clear 14 1027 51 10000 1.54 30 23:43 03.01.2023
387 Clear 14 1027 51 10000 2.06 60 23:21 03.01.2023
388 Clear 15 1027 44 10000 2.06 80 21:42 03.01.2023
389 Clear 17 1026 42 10000 2.57 50 20:50 03.01.2023
390 Clouds 22 1025 30 10000 3.09 30 18:40 03.01.2023
391 Clouds 23 1025 27 10000 2.06 330 16:42 03.01.2023
392 Clouds 22 1025 30 10000 2.06 20 15:40 03.01.2023
393 Clear 21 1026 35 10000 2.06 20 13:48 03.01.2023
394 Clear 20 1026 37 10000 2.06 10 13:29 03.01.2023
395 Clouds 20 1027 37 10000 1.03 0 12:57 03.01.2023
396 Clouds 18 1027 42 10000 1.54 70 12:28 03.01.2023
397 Clouds 10 1026 62 10000 2.57 90 09:51 03.01.2023
398 Clouds 11 1025 58 10000 1.03 0 04:29 03.01.2023
399 Clouds 10 1025 62 10000 0.51 0 03:53 03.01.2023
400 Clouds 9 1025 61 10000 0.51 0 03:33 03.01.2023
401 Clouds 14 1026 54 10000 3.09 220 23:20 02.01.2023
402 Clear 14 1026 47 10000 2.57 230 22:40 02.01.2023
403 Clear 14 1025 47 10000 2.57 250 21:30 02.01.2023
404 Clear 16 1025 41 10000 3.09 240 20:35 02.01.2023
405 Clear 19 1024 34 10000 2.57 230 19:20 02.01.2023
406 Clouds 22 1024 24 10000 3.6 280 16:54 02.01.2023
407 Clear 22 1024 26 10000 3.09 320 14:27 02.01.2023
408 Clear 19 1025 34 10000 1.54 10 12:57 02.01.2023
409 Clear 16 1025 41 10000 1.54 90 11:39 02.01.2023
410 Clear 7 1025 65 10000 1.54 70 09:35 02.01.2023
411 Clear 8 1024 57 10000 2.06 100 06:59 02.01.2023
412 Clear 15 1025 38 10000 2.06 210 00:22 02.01.2023
413 Clear 15 1025 38 10000 1.54 270 21:55 01.01.2023
414 Clear 18 1024 34 10000 1.54 10 20:50 01.01.2023
415 Clear 18 1024 32 10000 2.06 260 20:31 01.01.2023
416 Clear 21 1023 28 10000 1.54 310 18:54 01.01.2023
417 Clear 23 1023 23 10000 2.06 330 17:39 01.01.2023
418 Clear 23 1023 23 10000 2.06 330 17:19 01.01.2023
419 Clear 23 1023 25 10000 2.06 350 15:53 01.01.2023
420 Clear 23 1024 28 10000 2.06 320 14:18 01.01.2023
421 Clear 22 1025 33 10000 2.06 10 13:18 01.01.2023
422 Clear 19 1025 37 10000 0.51 0 11:45 01.01.2023
423 Clear 15 1025 47 10000 0.51 0 11:21 01.01.2023
424 Clouds 10 1025 53 10000 1.03 0 09:38 01.01.2023
425 Clouds 10 1024 57 10000 1.03 0 08:44 01.01.2023
426 Clouds 11 1024 54 8000 1.03 0 08:18 01.01.2023
427 Clouds 11 1023 54 10000 2.06 160 06:50 01.01.2023
428 Clouds 14 1026 51 10000 1.03 0 23:58 31.12.2022
429 Clouds 15 1026 47 10000 0.51 0 23:38 31.12.2022
430 Clouds 15 1026 47 8000 1.03 0 22:29 31.12.2022
431 Clouds 17 1026 42 8000 1.03 0 21:24 31.12.2022
432 Clouds 18 1025 39 8000 0.51 0 20:31 31.12.2022
433 Clouds 20 1025 34 8000 1.54 100 18:57 31.12.2022
434 Clouds 21 1025 30 8000 1.54 30 18:38 31.12.2022
435 Clouds 21 1025 32 8000 1.54 30 17:57 31.12.2022
436 Clouds 21 1025 32 8000 1.54 10 17:32 31.12.2022
437 Clouds 21 1025 35 8000 1.54 340 16:32 31.12.2022
438 Clouds 21 1025 35 8000 1.03 0 15:37 31.12.2022
439 Clouds 20 1026 37 6000 1.54 10 14:00 31.12.2022
440 Clouds 20 1027 37 6000 0.51 0 13:27 31.12.2022
441 Clouds 17 1028 45 6000 2.57 100 12:24 31.12.2022
442 Clouds 16 1027 48 8000 1.54 50 11:56 31.12.2022
443 Clouds 15 1027 47 8000 0.51 0 11:37 31.12.2022
444 Clouds 14 1027 51 8000 1.03 0 10:18 31.12.2022
445 Clouds 13 1026 50 8000 1.54 80 09:50 31.12.2022
446 Clear 12 1025 54 10000 2.06 110 08:30 31.12.2022
447 Clear 13 1026 47 10000 1.03 0 04:52 31.12.2022
448 Clear 15 1027 41 10000 2.57 180 00:33 31.12.2022
449 Clear 16 1026 39 10000 2.57 210 23:24 30.12.2022
450 Clear 18 1027 32 10000 2.57 240 22:19 30.12.2022
451 Clear 17 1026 34 10000 2.06 270 21:38 30.12.2022
452 Clear 17 1026 34 10000 2.06 270 21:19 30.12.2022
453 Clear 23 1025 21 10000 1.54 70 18:35 30.12.2022
454 Clear 24 1025 22 10000 2.06 30 17:35 30.12.2022
455 Clear 24 1025 22 10000 1.54 0 16:49 30.12.2022
456 Clear 24 1026 23 10000 1.54 10 14:55 30.12.2022
457 Clear 21 1027 28 10000 1.54 100 12:57 30.12.2022
458 Clear 7 1027 61 10000 2.57 80 08:25 30.12.2022
459 Clear 8 1026 57 10000 1.03 0 04:24 30.12.2022
460 Clear 9 1025 57 10000 2.06 110 02:27 30.12.2022
461 Clear 13 1026 44 10000 1.03 0 23:46 29.12.2022
462 Clear 14 1026 44 10000 2.57 80 22:28 29.12.2022
463 Clear 15 1026 36 10000 1.54 70 21:28 29.12.2022
464 Clear 17 1026 31 10000 2.57 100 20:53 29.12.2022
465 Clear 20 1025 24 10000 1.54 330 19:22 29.12.2022
466 Clear 23 1025 21 10000 1.03 0 17:53 29.12.2022
467 Clear 23 1025 21 10000 2.06 350 17:27 29.12.2022
468 Clear 24 1025 22 10000 2.06 360 16:54 29.12.2022
469 Clear 24 1025 23 10000 2.06 10 15:57 29.12.2022
470 Clear 22 1026 28 10000 1.54 130 13:42 29.12.2022
471 Clear 17 1027 42 10000 2.06 50 11:57 29.12.2022
472 Clear 11 1027 58 10000 2.06 70 10:19 29.12.2022
473 Clear 10 1026 57 10000 1.54 20 05:20 29.12.2022
474 Clear 14 1026 44 10000 0.51 0 23:29 28.12.2022
475 Clear 15 1026 47 10000 2.06 180 22:20 28.12.2022
476 Clear 15 1026 47 10000 1.03 0 21:20 28.12.2022
477 Clear 18 1025 42 10000 1.03 0 20:20 28.12.2022
478 Clear 21 1025 30 10000 2.57 320 18:47 28.12.2022
479 Clear 23 1025 27 10000 2.57 330 16:22 28.12.2022
480 Clear 23 1026 28 10000 1.54 10 14:26 28.12.2022
481 Clear 20 1027 37 10000 2.06 10 12:48 28.12.2022
482 Clear 18 1027 39 10000 1.03 0 11:33 28.12.2022
483 Clear 15 1027 44 10000 2.06 150 10:26 28.12.2022
484 Clear 8 1025 61 10000 1.54 80 07:48 28.12.2022
485 Clear 8 1025 66 10000 1.03 0 06:46 28.12.2022
486 Clear 11 1025 54 10000 1.54 70 01:18 28.12.2022
487 Clear 16 1025 41 10000 4.12 180 22:28 27.12.2022
488 Clear 19 1024 32 10000 2.57 150 19:51 27.12.2022
489 Clear 21 1024 28 10000 2.06 260 18:41 27.12.2022
490 Clear 23 1024 28 10000 3.09 290 16:59 27.12.2022
491 Clear 23 1024 31 10000 3.09 290 15:55 27.12.2022
492 Clear 23 1024 28 10000 2.57 280 14:44 27.12.2022
493 Clear 20 1026 32 10000 2.06 270 12:27 27.12.2022
494 Clear 14 1026 41 10000 2.06 200 10:30 27.12.2022
495 Clear 11 1025 50 10000 1.54 130 09:41 27.12.2022
496 Clear 8 1025 61 10000 1.54 150 08:47 27.12.2022
497 Clear 10 1023 50 10000 1.03 0 04:55 27.12.2022
498 Clear 13 1023 54 10000 2.06 100 23:39 26.12.2022
499 Clear 15 1023 47 10000 1.54 90 21:51 26.12.2022
500 Clear 17 1023 39 10000 2.06 90 20:44 26.12.2022
501 Clear 19 1022 34 10000 3.09 90 19:51 26.12.2022
502 Clear 22 1022 28 10000 4.12 80 18:42 26.12.2022
503 Clear 22 1022 30 10000 4.12 100 16:53 26.12.2022
504 Clear 22 1022 28 10000 3.09 60 15:38 26.12.2022
505 Clear 19 1024 48 10000 1.03 0 12:59 26.12.2022
506 Clear 15 1023 67 10000 0.51 0 10:49 26.12.2022
507 Clear 9 1020 76 10000 1.03 0 05:43 26.12.2022
508 Clear 16 1021 55 10000 1.54 20 23:41 25.12.2022
509 Clear 17 1020 48 10000 2.06 20 22:50 25.12.2022
510 Clear 16 1020 51 10000 1.03 0 22:22 25.12.2022
511 Clear 20 1019 40 10000 3.09 50 19:56 25.12.2022
512 Clear 20 1019 40 10000 3.09 50 19:56 25.12.2022
513 Clear 23 1018 31 10000 3.09 90 17:52 25.12.2022
514 Clear 24 1018 31 10000 2.57 70 17:34 25.12.2022
515 Clear 24 1018 31 10000 3.09 50 16:40 25.12.2022
516 Clear 21 1021 37 10000 3.6 60 13:30 25.12.2022
517 Clear 21 1021 37 10000 3.6 60 13:30 25.12.2022
518 Clear 21 1021 37 10000 3.6 60 13:30 25.12.2022
519 Clear 16 1023 55 10000 2.57 80 11:35 25.12.2022
520 Clear 11 1023 66 10000 2.57 100 04:19 25.12.2022
521 Clear 16 1024 44 10000 1.03 0 22:47 24.12.2022
522 Clear 21 1023 35 10000 1.54 310 19:53 24.12.2022
523 Clear 25 1022 29 10000 2.57 20 16:59 24.12.2022
524 Clear 25 1023 29 10000 1.54 0 15:28 24.12.2022
525 Clear 25 1023 29 10000 1.03 0 14:28 24.12.2022
526 Clear 22 1026 35 10000 1.03 0 12:20 24.12.2022
527 Clear 12 1026 66 10000 1.54 100 10:23 24.12.2022
528 Clear 11 1025 71 10000 2.06 110 09:37 24.12.2022
529 Clear 9 1025 71 10000 1.54 100 08:36 24.12.2022
530 Clear 12 1025 62 10000 1.03 0 02:51 24.12.2022
531 Clear 15 1026 47 10000 1.03 0 00:29 24.12.2022
532 Clear 16 1026 44 10000 1.03 0 22:30 23.12.2022
533 Clear 17 1026 42 10000 2.06 240 21:33 23.12.2022
534 Clear 20 1025 34 10000 1.54 280 19:40 23.12.2022
535 Clear 23 1025 28 10000 2.06 290 19:22 23.12.2022
536 Clear 23 1025 28 10000 2.06 290 18:53 23.12.2022
537 Clear 24 1025 25 10000 1.54 300 18:21 23.12.2022
538 Clear 25 1025 25 10000 1.54 320 17:41 23.12.2022
539 Clear 24 1025 33 10000 3.09 310 15:45 23.12.2022
540 Clear 22 1027 40 10000 1.03 0 12:31 23.12.2022
541 Clear 13 1027 67 6000 1.03 0 09:53 23.12.2022
542 Clear 10 1027 76 10000 1.54 110 09:34 23.12.2022
543 Clear 10 1026 76 10000 2.57 80 07:29 23.12.2022
544 Clear 10 1026 76 10000 2.57 100 06:49 23.12.2022
545 Clear 15 1027 63 10000 1.54 220 23:36 22.12.2022
546 Clear 15 1027 63 10000 1.54 220 23:18 22.12.2022
547 Clear 17 1027 55 10000 2.06 140 21:49 22.12.2022
548 Clear 20 1027 45 10000 1.54 360 19:47 22.12.2022
549 Clear 22 1026 40 10000 3.09 330 19:18 22.12.2022
550 Clear 24 1026 35 10000 1.03 0 17:42 22.12.2022
551 Clear 24 1026 35 10000 1.03 0 16:48 22.12.2022
552 Clear 24 1026 35 10000 2.06 0 15:38 22.12.2022
553 Clear 24 1026 35 10000 2.06 0 15:18 22.12.2022
554 Clear 21 1027 43 10000 2.57 40 14:18 22.12.2022
555 Clear 21 1027 43 10000 2.57 30 13:19 22.12.2022
556 Clear 17 1028 59 10000 2.06 40 11:36 22.12.2022
557 Clear 12 1028 71 10000 3.6 90 10:31 22.12.2022
558 Clear 10 1028 76 10000 2.57 110 09:22 22.12.2022
559 Clear 10 1028 71 10000 1.54 110 08:36 22.12.2022
560 Clear 9 1028 81 10000 2.06 110 07:28 22.12.2022
561 Clear 11 1028 76 10000 1.54 110 04:19 22.12.2022
562 Clear 13 1029 62 10000 1.54 100 00:25 22.12.2022
563 Clear 15 1028 58 10000 2.57 100 22:26 21.12.2022
564 Clear 17 1028 51 10000 2.06 90 21:35 21.12.2022
565 Clear 18 1028 48 10000 1.54 60 20:56 21.12.2022
566 Clear 18 1027 48 10000 2.06 50 20:31 21.12.2022
567 Clear 20 1027 42 10000 2.57 40 19:46 21.12.2022
568 Clear 20 1027 42 10000 2.57 40 19:27 21.12.2022
569 Clear 21 1027 37 10000 2.57 40 18:48 21.12.2022
570 Clear 22 1027 37 10000 1.03 0 18:28 21.12.2022
571 Clear 22 1027 35 10000 2.57 10 15:38 21.12.2022
572 Clear 21 1028 46 10000 1.03 0 13:46 21.12.2022
573 Clear 18 1029 55 10000 1.03 0 11:48 21.12.2022
574 Clear 17 1029 59 10000 1.03 0 11:20 21.12.2022
575 Clear 17 1029 59 10000 1.03 0 11:20 21.12.2022
576 Clear 10 1029 81 10000 1.54 60 09:50 21.12.2022
577 Clear 10 1028 76 10000 2.06 140 08:48 21.12.2022
578 Clear 9 1028 76 10000 2.06 100 06:24 21.12.2022
579 Clear 13 1028 62 10000 2.06 260 00:22 21.12.2022
580 Clear 17 1028 51 10000 0.51 0 21:47 20.12.2022
581 Clear 17 1027 48 10000 1.54 270 20:26 20.12.2022
582 Clear 20 1027 37 10000 1.54 280 19:42 20.12.2022
583 Clear 22 1026 33 10000 2.06 350 18:38 20.12.2022
584 Clear 23 1026 35 10000 1.54 360 18:19 20.12.2022
585 Clear 23 1026 35 10000 1.54 360 17:46 20.12.2022
586 Clear 23 1026 33 10000 2.06 360 16:53 20.12.2022
587 Clear 23 1026 35 10000 2.57 320 15:48 20.12.2022
588 Clear 23 1026 35 10000 2.06 330 14:50 20.12.2022
589 Clear 24 1027 35 10000 1.54 340 14:29 20.12.2022
590 Clear 21 1027 46 10000 1.54 340 13:25 20.12.2022
591 Clear 20 1028 49 10000 1.54 360 12:32 20.12.2022
592 Clear 18 1028 55 10000 0.51 0 11:38 20.12.2022
593 Clear 9 1026 76 10000 1.54 90 08:51 20.12.2022
594 Clear 10 1025 71 10000 1.03 0 04:38 20.12.2022
595 Clear 16 1026 55 10000 1.54 70 22:46 19.12.2022
596 Clear 16 1026 55 10000 1.54 100 21:56 19.12.2022
597 Clear 19 1025 48 10000 3.09 70 20:28 19.12.2022
598 Clear 21 1025 43 10000 3.09 30 19:39 19.12.2022
599 Clear 23 1024 38 10000 2.57 20 18:42 19.12.2022
600 Clear 25 1024 31 10000 1.54 310 16:52 19.12.2022
601 Clear 22 1025 43 10000 1.54 360 13:41 19.12.2022
602 Clear 18 1026 59 10000 1.03 0 12:21 19.12.2022
603 Clear 14 1026 72 10000 1.54 90 10:55 19.12.2022
604 Clear 10 1024 81 10000 2.06 60 07:44 19.12.2022
605 Clear 11 1024 76 10000 2.06 80 03:42 19.12.2022
606 Clear 15 1025 63 10000 1.03 0 22:40 18.12.2022
607 Clear 16 1024 63 10000 1.03 0 21:46 18.12.2022
608 Clear 17 1024 59 10000 1.03 0 21:22 18.12.2022
609 Clear 18 1024 52 10000 0.51 0 20:32 18.12.2022
610 Clear 19 1024 52 10000 0.51 0 19:41 18.12.2022
611 Clear 22 1023 40 10000 2.06 300 18:29 18.12.2022
612 Clear 23 1023 38 10000 4.12 300 17:22 18.12.2022
613 Clear 23 1022 40 10000 3.09 310 15:40 18.12.2022
614 Clear 23 1022 40 10000 3.09 310 15:20 18.12.2022
615 Clear 24 1023 43 10000 0.51 0 14:20 18.12.2022
616 Clear 20 1024 56 10000 1.03 0 12:57 18.12.2022
617 Clear 19 1024 59 10000 1.03 0 12:30 18.12.2022
618 Clear 16 1024 72 10000 1.54 80 11:20 18.12.2022
619 Clear 8 1022 93 10000 2.06 60 08:47 18.12.2022
620 Clear 8 1022 93 10000 2.06 60 08:20 18.12.2022
621 Clear 10 1021 93 10000 2.57 100 06:23 18.12.2022
622 Clear 11 1021 93 10000 3.09 110 03:40 18.12.2022
623 Clear 12 1021 87 10000 2.06 100 01:48 18.12.2022
624 Clear 14 1021 82 10000 2.06 90 22:21 17.12.2022
625 Clear 17 1020 72 10000 3.09 50 19:46 17.12.2022
626 Clear 20 1018 56 10000 3.09 10 17:19 17.12.2022
627 Clear 19 1018 63 10000 2.57 30 14:44 17.12.2022
628 Clear 17 1020 77 10000 3.09 60 12:28 17.12.2022
629 Clouds 14 1020 94 10000 1.54 70 10:50 17.12.2022
630 Clouds 11 1020 93 10000 2.57 100 09:48 17.12.2022
631 Clouds 11 1019 93 10000 1.03 0 08:34 17.12.2022
632 Clouds 11 1019 93 10000 3.6 130 06:46 17.12.2022
633 Clouds 14 1018 88 10000 1.54 110 23:58 16.12.2022
634 Clouds 15 1018 82 10000 1.54 340 21:38 16.12.2022
635 Clouds 16 1017 77 10000 3.09 340 20:24 16.12.2022
636 Clouds 18 1015 63 10000 3.6 310 17:19 16.12.2022
637 Clouds 19 1014 59 10000 3.09 270 14:50 16.12.2022
638 Clouds 18 1015 68 10000 2.06 0 13:50 16.12.2022
639 Clouds 17 1017 77 10000 1.54 200 12:20 16.12.2022
640 Clouds 14 1017 94 8000 3.09 200 10:47 16.12.2022
641 Clouds 12 1016 94 6000 5.14 220 09:32 16.12.2022
642 Clouds 13 1015 88 10000 2.57 230 08:26 16.12.2022
643 Clouds 13 1015 88 10000 3.6 200 07:54 16.12.2022
644 Clouds 13 1016 88 8000 5.14 270 23:45 15.12.2022
645 Clouds 14 1016 88 8000 4.12 240 22:31 15.12.2022
646 Clouds 14 1015 88 8000 5.14 290 20:41 15.12.2022
647 Clouds 15 1014 82 10000 7.72 280 19:37 15.12.2022
648 Clouds 15 1013 82 8000 6.17 290 18:30 15.12.2022
649 Clouds 16 1013 82 8000 5.66 300 17:27 15.12.2022
650 Clouds 16 1013 77 6000 10.8 280 15:39 15.12.2022
651 Sand 18 1012 63 4000 10.8 290 14:37 15.12.2022
652 Clouds 18 1013 63 10000 8.23 280 12:43 15.12.2022
653 Clouds 16 1013 63 10000 2.06 270 10:33 15.12.2022
654 Clouds 14 1012 67 10000 2.06 210 08:54 15.12.2022
655 Clear 13 1013 76 10000 2.57 180 06:28 15.12.2022
656 Clear 13 1013 82 10000 3.09 240 05:19 15.12.2022
657 Clouds 16 1015 94 8000 6.69 260 21:45 14.12.2022
658 Rain 16 1015 94 8000 6.69 250 21:18 14.12.2022
659 Thunderstorm 15 1014 94 3000 8.23 280 20:31 14.12.2022
660 Thunderstorm 15 1014 94 3000 8.23 280 20:31 14.12.2022
661 Sand 25 1010 44 500 13.89 270 18:38 14.12.2022
662 Clouds 26 1010 38 8000 12.35 270 16:58 14.12.2022
663 Clouds 26 1011 41 7000 9.77 270 15:49 14.12.2022
664 Clouds 27 1012 39 10000 9.26 270 14:34 14.12.2022
665 Clouds 25 1015 47 10000 4.12 300 12:49 14.12.2022
666 Clouds 19 1015 68 10000 1.03 0 10:44 14.12.2022
667 Clouds 15 1015 82 10000 1.03 0 09:26 14.12.2022
668 Clear 16 1017 77 10000 2.06 120 02:47 14.12.2022
669 Clouds 20 1018 64 10000 3.09 240 21:51 13.12.2022
670 Clouds 21 1018 60 10000 2.57 250 21:27 13.12.2022
671 Clouds 21 1018 60 10000 2.06 280 20:46 13.12.2022
672 Clouds 26 1018 44 10000 1.03 0 18:42 13.12.2022
673 Clouds 28 1018 39 10000 2.57 310 16:22 13.12.2022
674 Clouds 27 1019 44 10000 2.06 360 14:53 13.12.2022
675 Clouds 22 1021 73 10000 1.03 0 12:44 13.12.2022
676 Clouds 17 1021 88 10000 1.03 0 10:39 13.12.2022
677 Clouds 16 1020 94 10000 0.51 0 09:46 13.12.2022
678 Clouds 14 1019 88 10000 0.51 0 07:52 13.12.2022
679 Clouds 20 1021 77 10000 1.54 310 22:24 12.12.2022
680 Clouds 20 1021 77 10000 2.06 300 21:46 12.12.2022
681 Clouds 22 1019 64 10000 2.06 200 19:33 12.12.2022
682 Clouds 23 1019 64 10000 3.09 290 17:50 12.12.2022
683 Clouds 22 1018 73 10000 1.54 0 15:29 12.12.2022
684 Clouds 19 1021 88 8000 1.54 270 12:50 12.12.2022
685 Fog 14 1020 100 300 2.06 100 09:20 12.12.2022
686 Fog 14 1020 100 200 2.57 90 09:20 12.12.2022
687 Fog 14 1020 100 300 2.06 100 08:54 12.12.2022
688 Clouds 15 1019 94 8000 2.06 230 03:53 12.12.2022
689 Clouds 18 1019 82 8000 2.57 250 00:18 12.12.2022
690 Clouds 18 1019 77 8000 1.54 280 22:18 11.12.2022
691 Clouds 21 1019 64 8000 1.54 280 20:33 11.12.2022
692 Clouds 22 1019 60 8000 1.03 0 19:38 11.12.2022
693 Clouds 22 1019 60 8000 1.54 300 18:30 11.12.2022
694 Clouds 23 1018 56 8000 3.09 300 17:33 11.12.2022
695 Clouds 24 1018 53 8000 3.09 310 16:52 11.12.2022
696 Clouds 24 1017 53 8000 1.54 0 16:20 11.12.2022
697 Clouds 24 1018 50 8000 1.54 0 15:43 11.12.2022
698 Clouds 20 1018 60 8000 1.54 20 13:35 11.12.2022
699 Clouds 20 1019 60 8000 1.54 20 12:41 11.12.2022
700 Clouds 15 1020 82 8000 2.06 90 10:19 11.12.2022
701 Clouds 14 1019 82 8000 1.03 0 00:49 11.12.2022
702 Clouds 15 1019 82 8000 2.06 210 00:21 11.12.2022
703 Clouds 16 1019 72 8000 0.51 0 22:34 10.12.2022
704 Clouds 17 1018 72 8000 1.54 150 21:29 10.12.2022
705 Clouds 17 1018 72 8000 2.06 110 20:41 10.12.2022
706 Clouds 18 1018 63 8000 1.03 0 19:55 10.12.2022
707 Clouds 21 1018 56 8000 1.54 290 17:44 10.12.2022
708 Clouds 21 1018 52 8000 1.54 0 16:37 10.12.2022
709 Clouds 21 1018 56 8000 2.06 300 15:40 10.12.2022
710 Clouds 21 1018 56 8000 2.06 300 15:20 10.12.2022
711 Clouds 19 1020 63 10000 3.09 270 13:33 10.12.2022
712 Clouds 18 1020 72 8000 2.06 290 11:57 10.12.2022
713 Clouds 16 1020 82 8000 1.03 0 10:49 10.12.2022
714 Clouds 11 1020 93 8000 1.03 0 09:43 10.12.2022
715 Clouds 10 1017 93 8000 1.54 100 07:22 10.12.2022
716 Clouds 11 1018 93 8000 1.54 250 04:57 10.12.2022
717 Clouds 15 1017 82 8000 2.57 220 23:38 09.12.2022
718 Clouds 15 1017 82 8000 3.09 230 22:42 09.12.2022
719 Clouds 16 1016 82 8000 6.17 260 21:28 09.12.2022
720 Clouds 16 1015 82 8000 5.66 280 20:58 09.12.2022
721 Clouds 17 1014 77 8000 7.72 290 19:43 09.12.2022
722 Clouds 18 1013 77 8000 9.26 290 17:56 09.12.2022
723 Clouds 21 1012 68 8000 7.2 290 16:53 09.12.2022
724 Clouds 20 1012 73 8000 7.72 290 16:18 09.12.2022
725 Clouds 20 1012 73 8000 7.2 300 15:27 09.12.2022
726 Clouds 18 1013 82 8000 3.6 280 12:37 09.12.2022
727 Clouds 17 1013 88 8000 3.09 330 10:49 09.12.2022
728 Rain 17 1012 88 8000 1.54 0 10:19 09.12.2022
729 Clouds 15 1011 88 8000 1.03 0 05:37 09.12.2022
730 Clouds 15 1011 88 8000 1.54 90 03:18 09.12.2022
731 Clouds 16 1011 88 8000 1.54 60 22:41 08.12.2022
732 Clouds 16 1010 88 8000 1.54 120 20:51 08.12.2022
733 Rain 16 1009 82 3000 3.09 330 18:54 08.12.2022
734 Clouds 17 1009 72 8000 1.03 0 16:23 08.12.2022
735 Rain 16 1009 77 8000 3.6 90 14:29 08.12.2022
736 Clouds 18 1011 55 10000 2.06 20 11:47 08.12.2022
737 Clouds 18 1010 55 10000 2.57 320 10:23 08.12.2022
738 Clouds 17 1009 55 10000 0.51 0 09:28 08.12.2022
739 Clouds 17 1007 55 10000 2.06 350 06:47 08.12.2022
740 Clouds 17 1010 59 10000 2.57 90 22:36 07.12.2022
741 Clouds 18 1010 55 10000 2.57 90 22:18 07.12.2022
742 Clouds 18 1010 55 10000 2.57 90 21:45 07.12.2022
743 Clouds 19 1010 48 10000 2.06 100 19:48 07.12.2022
744 Clouds 21 1010 46 10000 3.09 80 17:41 07.12.2022
745 Clouds 21 1012 52 10000 2.06 20 14:41 07.12.2022
746 Clouds 19 1014 59 10000 0.51 0 12:39 07.12.2022
747 Clouds 16 1014 67 10000 2.06 100 10:47 07.12.2022
748 Clouds 13 1013 82 10000 1.54 90 09:57 07.12.2022
749 Clouds 11 1013 82 10000 1.54 100 08:54 07.12.2022
750 Clouds 13 1013 76 10000 1.03 0 06:50 07.12.2022
751 Clouds 14 1014 72 10000 1.03 0 05:23 07.12.2022
752 Clouds 14 1016 77 10000 1.03 0 23:44 06.12.2022
753 Clouds 16 1016 67 10000 2.57 90 21:31 06.12.2022
754 Clouds 20 1016 52 10000 2.57 70 18:35 06.12.2022
755 Clouds 20 1016 52 10000 2.06 30 17:18 06.12.2022
756 Clouds 20 1016 52 10000 3.6 50 16:21 06.12.2022
757 Clouds 20 1017 52 10000 2.57 90 15:35 06.12.2022
758 Clouds 20 1017 56 10000 3.09 70 14:34 06.12.2022
759 Clouds 19 1018 59 10000 2.57 80 13:39 06.12.2022
760 Clouds 19 1018 59 10000 2.57 80 13:39 06.12.2022
761 Clouds 18 1019 63 10000 4.12 60 12:40 06.12.2022
762 Clouds 15 1019 77 10000 3.09 100 10:39 06.12.2022
763 Clouds 10 1017 87 10000 2.57 100 07:38 06.12.2022
764 Clouds 13 1018 76 10000 3.09 100 02:22 06.12.2022
765 Clouds 15 1017 72 10000 2.57 280 22:37 05.12.2022
766 Clouds 17 1016 67 10000 4.12 240 21:39 05.12.2022
767 Clouds 17 1016 67 10000 4.63 260 20:48 05.12.2022
768 Clouds 17 1015 67 10000 3.09 230 19:51 05.12.2022
769 Clouds 17 1014 63 10000 6.17 280 19:32 05.12.2022
770 Clouds 18 1012 72 10000 8.23 280 16:49 05.12.2022
771 Clouds 19 1011 55 6000 9.26 270 15:28 05.12.2022
772 Clouds 19 1011 52 5000 6.69 350 13:44 05.12.2022
773 Clouds 22 1010 40 6000 4.63 360 12:57 05.12.2022
774 Clouds 21 1010 43 8000 1.54 10 12:37 05.12.2022
775 Clouds 17 1009 59 10000 3.09 300 11:00 05.12.2022
776 Clouds 10 1008 76 8000 1.03 0 06:38 05.12.2022
777 Clouds 16 1010 59 8000 3.6 60 23:56 04.12.2022
778 Clouds 16 1010 55 8000 1.54 70 22:41 04.12.2022
779 Clouds 16 1010 55 8000 1.54 70 22:18 04.12.2022
780 Clouds 17 1009 51 8000 2.06 100 21:31 04.12.2022
781 Clouds 19 1009 45 8000 1.03 0 19:53 04.12.2022
782 Clouds 20 1009 40 8000 1.54 340 19:23 04.12.2022
783 Clouds 21 1008 40 8000 2.06 10 18:20 04.12.2022
784 Clouds 22 1008 40 8000 2.57 360 17:22 04.12.2022
785 Clouds 23 1008 40 8000 2.06 10 16:36 04.12.2022
786 Clouds 23 1008 40 8000 2.06 10 16:18 04.12.2022
787 Clouds 22 1008 43 8000 3.6 50 15:26 04.12.2022
788 Clouds 20 1009 52 8000 4.12 70 14:18 04.12.2022
789 Clouds 18 1011 68 8000 4.12 70 12:47 04.12.2022
790 Clear 17 1011 77 8000 4.12 80 12:25 04.12.2022
791 Clear 16 1011 77 8000 3.09 60 11:29 04.12.2022
792 Clouds 12 1011 94 8000 2.06 160 07:35 04.12.2022
793 Clouds 11 1010 93 8000 0.51 0 02:51 04.12.2022
794 Clouds 14 1011 82 8000 2.06 240 23:44 03.12.2022
795 Clouds 16 1010 72 8000 3.09 260 22:24 03.12.2022
796 Clouds 16 1010 72 8000 4.12 280 21:47 03.12.2022
797 Clouds 17 1009 59 8000 2.06 290 20:38 03.12.2022
798 Clouds 19 1008 52 8000 2.57 290 18:40 03.12.2022
799 Clouds 20 1008 49 8000 3.6 270 17:33 03.12.2022
800 Clouds 20 1008 49 8000 3.09 260 15:49 03.12.2022
801 Clouds 19 1009 63 8000 1.03 0 13:19 03.12.2022
802 Clouds 18 1009 63 8000 1.54 0 12:41 03.12.2022
803 Clear 18 1010 72 8000 0.51 0 11:21 03.12.2022
804 Clouds 13 1009 88 8000 2.06 170 08:25 03.12.2022
805 Clouds 13 1008 88 8000 1.03 0 02:48 03.12.2022
806 Clouds 14 1010 82 8000 3.09 240 23:32 02.12.2022
807 Clouds 16 1009 77 8000 2.57 320 21:42 02.12.2022
808 Clouds 17 1008 63 8000 1.03 0 19:45 02.12.2022
809 Clouds 20 1008 56 8000 3.6 300 16:26 02.12.2022
810 Clouds 19 1008 59 8000 3.09 300 15:53 02.12.2022
811 Clouds 17 1009 77 8000 3.09 310 14:29 02.12.2022
812 Clouds 17 1010 82 8000 2.06 250 13:43 02.12.2022
813 Clouds 16 1011 88 8000 2.06 290 11:49 02.12.2022
814 Clouds 14 1010 94 8000 2.06 260 10:30 02.12.2022
815 Clouds 12 1010 100 6000 2.06 260 07:48 02.12.2022
816 Clouds 13 1010 94 6000 2.06 250 07:18 02.12.2022
817 Clouds 14 1012 94 6000 3.09 250 22:50 01.12.2022
818 Rain 13 1012 94 5000 3.09 230 21:41 01.12.2022
819 Clouds 14 1011 88 8000 3.09 280 20:37 01.12.2022
820 Rain 16 1011 72 8000 3.6 320 18:58 01.12.2022
821 Clouds 19 1010 55 8000 4.63 290 16:57 01.12.2022
822 Clouds 18 1012 52 8000 4.63 250 14:21 01.12.2022
823 Clouds 12 1014 82 8000 3.09 200 11:20 01.12.2022
824 Clouds 11 1014 82 8000 2.57 230 09:54 01.12.2022
825 Clear 10 1014 81 10000 2.57 260 09:36 01.12.2022
826 Clear 9 1014 71 10000 1.54 270 06:19 01.12.2022
827 Clear 15 1016 47 10000 2.06 180 22:41 30.11.2022
828 Clear 15 1016 41 10000 2.06 250 21:45 30.11.2022
829 Clear 15 1016 41 10000 2.06 250 21:18 30.11.2022
830 Clear 16 1015 39 10000 1.54 250 20:23 30.11.2022
831 Clear 16 1015 39 10000 1.54 250 20:23 30.11.2022
832 Clear 21 1015 30 10000 3.6 260 18:39 30.11.2022
833 Clear 21 1015 30 10000 3.6 260 18:21 30.11.2022
834 Clouds 23 1015 25 10000 4.63 290 16:26 30.11.2022
835 Clouds 22 1016 28 10000 4.12 300 14:45 30.11.2022
836 Clouds 22 1016 28 10000 4.12 300 14:25 30.11.2022
837 Clear 19 1017 30 10000 2.06 300 11:58 30.11.2022
838 Clear 10 1016 50 10000 1.54 50 09:22 30.11.2022
839 Clear 9 1016 53 10000 2.06 60 08:26 30.11.2022
840 Clear 9 1016 49 10000 1.03 0 05:22 30.11.2022
841 Clear 15 1017 38 10000 2.06 80 23:26 29.11.2022
842 Clear 17 1017 31 10000 1.54 90 21:50 29.11.2022
843 Clear 20 1017 30 10000 2.06 80 20:52 29.11.2022
844 Clear 21 1017 28 10000 1.54 360 19:48 29.11.2022
845 Clear 25 1016 23 10000 1.54 350 17:53 29.11.2022
846 Clear 26 1016 21 10000 2.57 340 16:31 29.11.2022
847 Clear 26 1016 21 10000 1.54 0 15:22 29.11.2022
848 Clear 23 1018 25 10000 2.57 40 13:50 29.11.2022
849 Clear 20 1019 32 10000 2.06 20 12:37 29.11.2022
850 Clear 18 1019 39 10000 1.54 60 11:31 29.11.2022
851 Clear 14 1019 44 10000 2.06 100 10:26 29.11.2022
852 Clear 10 1019 62 10000 2.06 80 09:26 29.11.2022
853 Clear 9 1018 66 10000 2.57 100 06:46 29.11.2022
854 Clear 15 1020 47 10000 2.57 90 00:23 29.11.2022
855 Clear 16 1020 48 10000 2.06 80 23:22 28.11.2022
856 Clear 19 1020 42 10000 4.63 40 21:56 28.11.2022
857 Clear 20 1020 37 10000 3.6 50 21:38 28.11.2022
858 Clear 20 1020 28 10000 2.57 70 20:24 28.11.2022
859 Clear 22 1019 26 10000 3.09 50 19:24 28.11.2022
860 Clear 24 1019 27 10000 4.63 30 18:28 28.11.2022
861 Clear 26 1019 24 10000 3.6 10 17:22 28.11.2022
862 Clear 25 1021 29 10000 3.09 50 14:45 28.11.2022
863 Clear 24 1021 35 10000 3.6 70 13:53 28.11.2022
864 Clear 21 1023 40 10000 3.09 40 12:52 28.11.2022
865 Clear 17 1024 51 10000 2.57 20 11:31 28.11.2022
866 Clear 12 1023 62 10000 1.03 0 07:54 28.11.2022
867 Clear 13 1024 47 10000 1.54 60 04:54 28.11.2022
868 Clear 13 1023 47 10000 1.03 0 04:36 28.11.2022
869 Clear 14 1023 44 10000 1.54 70 03:21 28.11.2022
870 Clear 16 1023 39 10000 1.03 0 23:44 27.11.2022
871 Clear 18 1023 32 10000 1.54 110 21:54 27.11.2022
872 Clear 22 1022 28 10000 1.03 0 20:41 27.11.2022
873 Clear 27 1022 21 10000 2.57 250 18:25 27.11.2022
874 Clear 28 1022 23 10000 2.57 360 15:40 27.11.2022
875 Clear 28 1023 21 10000 1.54 350 13:44 27.11.2022
876 Clear 21 1024 30 10000 1.54 310 11:31 27.11.2022
877 Clear 13 1024 47 10000 2.57 110 08:59 27.11.2022
878 Clear 13 1023 44 10000 2.06 120 05:48 27.11.2022
879 Clear 19 1025 34 10000 2.57 190 23:18 26.11.2022
880 Clear 22 1024 26 10000 2.06 120 20:57 26.11.2022
881 Clear 25 1023 23 10000 1.54 20 19:40 26.11.2022
882 Clear 28 1023 18 10000 1.54 10 18:26 26.11.2022
883 Clear 29 1022 20 10000 1.54 340 16:27 26.11.2022
884 Clear 27 1023 26 10000 1.54 330 13:55 26.11.2022
885 Clear 25 1024 31 10000 0.51 0 12:40 26.11.2022
886 Clear 19 1025 42 10000 1.03 0 10:52 26.11.2022
887 Clear 12 1024 58 10000 2.06 80 09:32 26.11.2022
888 Clouds 11 1023 58 8000 2.57 90 07:21 26.11.2022
889 Clouds 19 1023 42 8000 3.09 100 21:47 25.11.2022
890 Clouds 20 1023 42 8000 2.06 80 21:27 25.11.2022
891 Clouds 23 1022 38 8000 3.09 40 19:57 25.11.2022
892 Clouds 28 1020 21 8000 1.54 340 16:50 25.11.2022
893 Clouds 27 1021 28 8000 2.06 340 14:45 25.11.2022
894 Clouds 15 1023 58 8000 2.57 90 09:36 25.11.2022
895 Clouds 14 1023 62 8000 1.03 0 08:41 25.11.2022
896 Clear 13 1021 62 10000 2.57 90 06:55 25.11.2022
897 Clear 14 1021 58 10000 1.03 0 06:26 25.11.2022
898 Clouds 17 1022 55 10000 2.57 250 23:57 24.11.2022
899 Clouds 18 1021 48 10000 3.09 240 22:51 24.11.2022
900 Clouds 20 1021 42 10000 3.6 230 21:59 24.11.2022
901 Clouds 19 1021 39 8000 2.06 240 20:45 24.11.2022
902 Clouds 22 1020 35 8000 3.09 240 19:20 24.11.2022
903 Clouds 26 1019 25 8000 2.57 300 17:43 24.11.2022
904 Clouds 26 1019 27 8000 3.6 290 17:20 24.11.2022
905 Clouds 27 1019 26 8000 3.6 320 15:23 24.11.2022
906 Clouds 26 1019 29 8000 2.06 360 13:54 24.11.2022
907 Clouds 21 1021 40 10000 2.06 70 11:58 24.11.2022
908 Clouds 15 1021 55 10000 2.57 90 10:36 24.11.2022
909 Clear 12 1021 62 10000 2.57 100 07:53 24.11.2022
910 Clear 15 1020 55 10000 1.03 0 03:22 24.11.2022
911 Clear 18 1021 52 10000 3.09 60 23:46 23.11.2022
912 Clear 19 1021 32 10000 2.06 70 21:57 23.11.2022
913 Clear 21 1021 30 10000 2.57 110 21:25 23.11.2022
914 Clear 21 1021 35 10000 2.06 50 20:37 23.11.2022
915 Clear 24 1021 33 10000 2.57 20 19:27 23.11.2022
916 Clear 24 1021 33 10000 2.57 20 19:27 23.11.2022
917 Clear 24 1020 35 10000 2.57 330 18:41 23.11.2022
918 Clear 26 1020 36 10000 1.54 40 16:39 23.11.2022
919 Clear 23 1022 38 10000 1.54 0 13:40 23.11.2022
920 Clear 23 1022 38 10000 1.54 0 13:20 23.11.2022
921 Clear 22 1022 43 10000 0.51 0 12:21 23.11.2022
922 Clear 21 1023 43 10000 1.03 0 11:41 23.11.2022
923 Clear 19 1023 48 10000 0.51 0 10:42 23.11.2022
924 Clear 16 1022 59 10000 0.51 0 09:43 23.11.2022
925 Clear 13 1022 67 10000 0.51 0 09:25 23.11.2022
926 Clear 11 1022 71 10000 1.54 70 08:37 23.11.2022
927 Clear 13 1022 71 10000 2.06 120 05:22 23.11.2022
928 Clear 14 1022 67 10000 3.09 70 04:23 23.11.2022
929 Clear 16 1023 51 10000 2.06 100 23:23 22.11.2022
930 Clear 17 1024 48 10000 2.06 110 22:33 22.11.2022
931 Clear 19 1023 48 10000 3.09 100 21:34 22.11.2022
932 Clear 20 1023 49 10000 3.09 50 20:45 22.11.2022
933 Clear 21 1023 43 10000 3.6 50 19:54 22.11.2022
934 Clear 25 1023 27 10000 3.6 30 17:56 22.11.2022
935 Clear 25 1023 25 10000 3.6 50 17:21 22.11.2022
936 Clear 25 1023 29 10000 3.6 40 17:21 22.11.2022
937 Clear 25 1023 29 10000 3.6 40 17:21 22.11.2022
938 Clear 25 1023 33 10000 3.09 60 15:51 22.11.2022
939 Clear 22 1023 49 10000 2.06 50 13:42 22.11.2022
940 Clear 18 1025 55 10000 4.12 100 11:40 22.11.2022
941 Clear 12 1025 76 10000 1.54 70 09:20 22.11.2022
942 Clear 11 1023 82 10000 1.54 100 07:20 22.11.2022
943 Clear 15 1026 72 10000 3.6 110 01:46 22.11.2022
944 Clear 17 1026 63 10000 4.12 50 23:40 21.11.2022
945 Clear 17 1026 59 10000 1.54 50 22:42 21.11.2022
946 Clear 18 1025 48 10000 1.03 0 21:58 21.11.2022
947 Clear 19 1025 48 10000 2.06 70 20:52 21.11.2022
948 Clear 22 1025 37 10000 2.57 360 19:42 21.11.2022
949 Clear 22 1025 35 10000 2.57 260 18:54 21.11.2022
950 Clear 24 1025 33 10000 3.6 260 18:25 21.11.2022
951 Clear 25 1024 27 10000 3.09 300 16:56 21.11.2022
952 Clear 25 1024 29 10000 2.57 330 16:37 21.11.2022
953 Clear 25 1024 31 10000 2.06 330 15:50 21.11.2022
954 Clear 25 1025 31 10000 1.03 0 14:29 21.11.2022
955 Clear 23 1025 35 10000 1.54 290 13:43 21.11.2022
956 Clear 19 1027 42 10000 0.51 0 11:37 21.11.2022
957 Clear 13 1026 54 10000 1.03 0 09:18 21.11.2022
958 Clear 11 1025 62 10000 1.03 0 07:39 21.11.2022
959 Clear 17 1025 42 10000 0.51 0 22:38 20.11.2022
960 Clear 17 1025 42 10000 1.03 0 21:34 20.11.2022
961 Clear 19 1024 37 10000 1.54 80 20:32 20.11.2022
962 Clear 22 1023 30 10000 4.63 40 18:26 20.11.2022
963 Clear 23 1023 27 10000 4.63 70 16:32 20.11.2022
964 Clear 22 1023 33 10000 4.12 70 15:30 20.11.2022
965 Clear 22 1023 30 10000 3.6 70 14:54 20.11.2022
966 Clear 20 1025 40 10000 3.6 60 13:34 20.11.2022
967 Clear 18 1026 52 10000 3.09 40 12:42 20.11.2022
968 Clear 15 1026 58 10000 2.06 100 11:26 20.11.2022
969 Clear 14 1026 62 10000 2.57 130 10:49 20.11.2022
970 Clear 10 1026 76 10000 3.09 80 09:28 20.11.2022
971 Clear 10 1026 76 10000 4.63 100 08:35 20.11.2022
972 Clear 9 1026 76 10000 2.57 60 07:30 20.11.2022
973 Clear 9 1026 76 10000 2.57 60 07:30 20.11.2022
974 Clear 9 1026 76 10000 2.57 60 07:30 20.11.2022
975 Clear 11 1024 71 10000 2.06 70 04:26 20.11.2022
976 Clear 13 1025 67 10000 2.57 90 01:22 20.11.2022
977 Clear 13 1026 67 10000 3.09 70 00:42 20.11.2022
978 Clear 14 1026 62 10000 4.63 60 00:23 20.11.2022
979 Clear 14 1026 62 10000 4.12 50 23:51 19.11.2022
980 Clear 14 1025 67 10000 5.14 60 23:25 19.11.2022
981 Clear 15 1025 63 10000 5.14 50 22:40 19.11.2022
982 Clear 16 1024 55 10000 4.63 40 21:32 19.11.2022
983 Clear 17 1024 51 10000 4.63 40 20:57 19.11.2022
984 Clear 17 1024 51 10000 4.63 40 20:33 19.11.2022
985 Clear 19 1023 37 10000 4.12 60 19:22 19.11.2022
986 Clouds 20 1022 34 10000 5.14 50 17:41 19.11.2022
987 Clouds 21 1022 32 10000 5.14 40 17:20 19.11.2022
988 Clouds 21 1022 35 10000 5.14 40 16:28 19.11.2022
989 Clouds 20 1022 34 10000 6.17 60 14:39 19.11.2022
990 Clouds 17 1025 51 10000 5.14 80 12:23 19.11.2022
991 Clouds 15 1025 67 10000 4.63 80 10:57 19.11.2022
992 Clouds 13 1025 71 10000 5.14 130 09:25 19.11.2022
993 Clouds 13 1022 76 10000 3.6 80 05:44 19.11.2022
994 Clouds 15 1023 67 10000 5.14 60 03:25 19.11.2022
995 Clouds 16 1023 77 10000 5.66 50 00:18 19.11.2022
996 Clouds 16 1023 77 10000 5.66 50 23:25 18.11.2022
997 Clouds 17 1023 77 10000 5.66 50 21:54 18.11.2022
998 Clouds 17 1022 77 10000 4.63 50 21:33 18.11.2022
999 Clouds 17 1021 77 10000 5.66 50 20:38 18.11.2022
1000 Clouds 17 1021 77 10000 5.14 50 19:47 18.11.2022
1001 Clouds 18 1020 77 10000 5.14 20 18:49 18.11.2022
1002 Clouds 20 1020 64 10000 6.17 350 17:44 18.11.2022
1003 Clouds 23 1020 53 10000 1.54 0 14:33 18.11.2022
1004 Clouds 21 1022 60 8000 2.06 170 11:31 18.11.2022
1005 Clouds 17 1021 72 6000 3.09 190 09:19 18.11.2022
1006 Clouds 16 1020 88 6000 3.09 180 07:51 18.11.2022
1007 Clouds 16 1019 88 6000 1.54 230 05:24 18.11.2022
1008 Clouds 15 1020 82 8000 3.09 250 00:51 18.11.2022
1009 Clear 19 1020 45 10000 3.09 220 22:20 17.11.2022
1010 Clear 20 1019 34 10000 1.54 340 20:46 17.11.2022
1011 Clear 21 1019 30 10000 2.06 240 19:51 17.11.2022
1012 Clear 23 1019 28 10000 2.57 260 18:47 17.11.2022
1013 Clear 26 1019 21 10000 2.57 320 17:34 17.11.2022
1014 Clear 26 1019 21 10000 3.09 320 16:53 17.11.2022
1015 Clear 26 1019 22 10000 2.57 320 15:20 17.11.2022
1016 Clear 20 1022 32 10000 1.03 0 11:24 17.11.2022
1017 Clear 12 1020 43 10000 1.03 0 08:39 17.11.2022
1018 Clear 14 1020 41 10000 1.03 0 05:47 17.11.2022
1019 Clear 17 1021 34 10000 5.14 170 00:48 17.11.2022
1020 Clear 21 1021 26 10000 3.6 230 22:31 16.11.2022
1021 Clear 20 1021 28 10000 1.54 240 21:18 16.11.2022
1022 Clouds 23 1021 23 10000 1.54 250 19:54 16.11.2022
1023 Clouds 26 1020 21 10000 2.57 310 18:46 16.11.2022
1024 Clouds 28 1020 18 10000 4.12 290 17:34 16.11.2022
1025 Clear 28 1022 23 10000 1.54 280 14:19 16.11.2022
1026 Clouds 17 1023 42 10000 1.03 0 09:56 16.11.2022
1027 Clear 13 1021 47 10000 2.06 70 06:38 16.11.2022
1028 Clear 19 1023 32 10000 1.54 180 01:29 16.11.2022
1029 Clear 21 1023 30 10000 3.09 170 22:38 15.11.2022
1030 Clear 22 1022 28 10000 2.06 260 20:45 15.11.2022
1031 Clear 24 1021 27 10000 2.06 250 19:35 15.11.2022
1032 Clear 25 1021 23 10000 2.06 260 18:48 15.11.2022
1033 Clouds 29 1021 20 10000 3.09 290 17:22 15.11.2022
1034 Clouds 29 1021 18 10000 3.6 300 16:19 15.11.2022
1035 Clouds 29 1022 18 10000 4.12 290 14:54 15.11.2022
1036 Clouds 29 1023 21 10000 3.09 290 13:38 15.11.2022
1037 Clouds 26 1024 27 10000 1.03 0 11:47 15.11.2022
1038 Clear 23 1024 31 10000 0.51 0 11:18 15.11.2022
1039 Clouds 15 1023 44 10000 1.54 110 08:52 15.11.2022
1040 Clouds 18 1023 39 10000 1.03 0 00:37 15.11.2022
1041 Clouds 20 1023 37 10000 1.03 0 23:56 14.11.2022
1042 Clouds 22 1023 33 10000 3.09 100 21:32 14.11.2022
1043 Clouds 24 1023 29 10000 2.57 90 20:40 14.11.2022
1044 Clouds 27 1022 21 10000 1.54 50 18:50 14.11.2022
1045 Clouds 30 1022 17 10000 2.57 80 15:54 14.11.2022
1046 Clouds 27 1024 22 10000 2.57 70 12:54 14.11.2022
1047 Clouds 24 1024 29 10000 1.54 90 11:42 14.11.2022
1048 Clouds 16 1024 41 8000 2.06 90 09:29 14.11.2022
1049 Clouds 14 1023 47 8000 1.54 80 07:54 14.11.2022
1050 Clouds 14 1022 44 8000 1.54 100 06:37 14.11.2022
1051 Clouds 19 1023 32 8000 1.03 0 00:18 14.11.2022
1052 Clouds 21 1023 26 10000 1.03 0 21:54 13.11.2022
1053 Clouds 23 1022 25 10000 1.54 260 21:35 13.11.2022
1054 Clouds 26 1021 21 10000 3.6 320 19:44 13.11.2022
1055 Clouds 29 1021 17 10000 3.09 320 18:23 13.11.2022
1056 Clouds 30 1020 16 10000 3.09 350 17:22 13.11.2022
1057 Clouds 30 1021 17 10000 2.06 350 14:58 13.11.2022
1058 Clouds 30 1021 19 10000 2.06 30 14:23 13.11.2022
1059 Clouds 25 1022 25 10000 1.03 0 12:38 13.11.2022
1060 Clouds 23 1022 31 10000 1.54 130 11:20 13.11.2022
1061 Clouds 14 1021 47 10000 1.54 90 08:55 13.11.2022
1062 Clear 19 1020 37 10000 1.54 70 01:35 13.11.2022
1063 Clouds 21 1020 32 10000 2.57 110 22:51 12.11.2022
1064 Clouds 23 1020 28 10000 1.54 20 21:24 12.11.2022
1065 Clouds 24 1018 27 10000 1.54 290 20:21 12.11.2022
1066 Clear 29 1017 18 10000 3.6 290 18:18 12.11.2022
1067 Clear 30 1017 19 10000 5.14 280 16:26 12.11.2022
1068 Clear 30 1017 17 10000 5.14 280 15:23 12.11.2022
1069 Clear 27 1018 24 10000 1.54 340 12:28 12.11.2022
1070 Clear 16 1017 48 10000 1.54 110 09:24 12.11.2022
1071 Clear 15 1016 51 10000 2.57 80 05:55 12.11.2022
1072 Clear 20 1018 42 10000 3.6 220 22:49 11.11.2022
1073 Clear 21 1017 40 10000 2.06 260 20:51 11.11.2022
1074 Clear 22 1016 35 10000 2.06 260 19:44 11.11.2022
1075 Clear 23 1016 33 10000 3.09 280 19:21 11.11.2022
1076 Clear 27 1015 26 10000 4.12 270 17:56 11.11.2022
1077 Clear 27 1014 26 10000 2.57 290 16:28 11.11.2022
1078 Clear 26 1015 29 10000 1.54 0 14:21 11.11.2022
1079 Clear 25 1016 33 10000 1.54 320 13:30 11.11.2022
1080 Clear 19 1017 42 10000 0.51 0 10:18 11.11.2022
1081 Clear 14 1016 47 10000 0.51 0 08:28 11.11.2022
1082 Clear 14 1016 54 10000 0.51 0 06:29 11.11.2022
1083 Clear 18 1017 42 10000 1.54 240 23:58 10.11.2022
1084 Clear 19 1017 39 10000 1.03 0 22:41 10.11.2022
1085 Clear 22 1017 35 10000 2.06 100 21:35 10.11.2022
1086 Clear 22 1017 35 10000 1.54 50 20:59 10.11.2022
1087 Clear 23 1017 33 10000 2.06 30 20:22 10.11.2022
1088 Clear 24 1017 31 10000 2.57 30 19:44 10.11.2022
1089 Clear 26 1016 27 10000 2.06 20 18:33 10.11.2022
1090 Clear 27 1017 29 10000 1.54 0 16:26 10.11.2022
1091 Clear 26 1018 31 10000 2.06 0 14:21 10.11.2022
1092 Clear 24 1019 33 10000 2.06 320 12:51 10.11.2022
1093 Clear 14 1019 62 10000 0.51 0 08:53 10.11.2022
1094 Clear 16 1019 55 10000 1.03 0 04:39 10.11.2022
1095 Clear 19 1020 48 10000 1.03 0 00:31 10.11.2022
1096 Clear 20 1021 45 10000 2.57 100 22:45 09.11.2022
1097 Clear 23 1020 38 10000 2.57 40 20:49 09.11.2022
1098 Clear 23 1020 40 10000 3.09 20 20:29 09.11.2022
1099 Clear 25 1019 31 10000 2.06 350 19:43 09.11.2022
1100 Clear 25 1019 31 10000 2.06 350 19:24 09.11.2022
1101 Clouds 28 1019 24 10000 2.57 350 16:50 09.11.2022
1102 Clouds 26 1020 27 10000 2.57 10 14:48 09.11.2022
1103 Clouds 26 1020 27 10000 2.57 10 14:26 09.11.2022
1104 Clouds 26 1021 31 10000 1.54 0 13:33 09.11.2022
1105 Clouds 26 1021 31 10000 1.54 0 12:49 09.11.2022
1106 Clouds 14 1021 67 10000 0.51 0 08:53 09.11.2022
1107 Clear 14 1020 62 10000 0.51 0 07:47 09.11.2022
1108 Clear 17 1020 63 10000 1.03 0 01:45 09.11.2022
1109 Clouds 20 1020 49 10000 3.09 240 22:23 08.11.2022
1110 Clouds 21 1020 43 10000 3.09 250 21:36 08.11.2022
1111 Clouds 22 1019 33 10000 2.06 270 20:41 08.11.2022
1112 Clouds 25 1019 25 10000 1.03 0 19:47 08.11.2022
1113 Clouds 26 1019 24 10000 2.57 250 19:20 08.11.2022
1114 Clouds 28 1018 21 10000 4.63 280 17:34 08.11.2022
1115 Clouds 30 1018 19 10000 3.6 300 14:57 08.11.2022
1116 Clouds 29 1019 21 10000 3.09 300 14:31 08.11.2022
1117 Clouds 27 1020 24 10000 3.6 280 13:28 08.11.2022
1118 Clear 20 1020 42 10000 1.03 0 10:28 08.11.2022
1119 Clouds 16 1019 44 10000 1.03 0 07:39 08.11.2022
1120 Clouds 16 1019 51 10000 2.57 90 04:27 08.11.2022
1121 Clear 20 1021 40 10000 1.54 250 22:56 07.11.2022
1122 Clear 21 1021 40 10000 1.54 250 21:40 07.11.2022
1123 Clear 23 1020 35 10000 1.03 0 20:48 07.11.2022
1124 Clear 25 1019 31 10000 2.06 260 19:40 07.11.2022
1125 Clear 29 1019 23 10000 4.12 290 17:41 07.11.2022
1126 Clear 30 1019 26 10000 2.06 0 15:38 07.11.2022
1127 Clear 30 1019 26 10000 1.54 0 14:55 07.11.2022
1128 Clear 28 1020 34 10000 1.54 0 13:21 07.11.2022
1129 Clear 26 1021 38 10000 1.54 340 12:22 07.11.2022
1130 Clear 20 1020 52 10000 0.51 0 09:50 07.11.2022
1131 Clear 15 1020 67 10000 1.03 0 08:30 07.11.2022
1132 Clear 16 1019 67 10000 1.03 0 06:31 07.11.2022
1133 Clear 17 1020 72 10000 2.06 250 01:45 07.11.2022
1134 Clear 19 1021 55 10000 1.03 0 23:23 06.11.2022
1135 Clouds 22 1020 40 10000 2.06 260 21:22 06.11.2022
1136 Clouds 22 1020 40 10000 2.06 260 20:48 06.11.2022
1137 Clouds 24 1019 35 10000 3.09 240 19:56 06.11.2022
1138 Clouds 25 1019 36 10000 3.09 280 19:24 06.11.2022
1139 Clouds 27 1019 36 10000 4.12 240 18:20 06.11.2022
1140 Clouds 28 1019 34 10000 3.09 260 17:39 06.11.2022
1141 Clouds 28 1019 34 10000 3.09 260 17:18 06.11.2022
1142 Clouds 28 1018 34 10000 3.6 260 16:18 06.11.2022
1143 Clear 28 1019 34 10000 2.57 320 14:45 06.11.2022
1144 Clear 25 1020 47 10000 2.06 350 12:45 06.11.2022
1145 Clear 24 1021 50 10000 1.03 0 12:45 06.11.2022
1146 Clear 20 1021 60 10000 2.06 270 10:55 06.11.2022
1147 Clear 19 1021 68 10000 1.03 0 09:52 06.11.2022
1148 Clear 16 1020 63 10000 1.54 230 07:44 06.11.2022
1149 Clear 22 1020 40 10000 2.06 200 23:23 05.11.2022
1150 Clear 24 1019 38 10000 2.06 260 20:40 05.11.2022
1151 Clear 29 1018 30 10000 1.03 0 18:22 05.11.2022
1152 Clear 29 1018 30 10000 1.03 0 18:22 05.11.2022
1153 Clear 28 1018 30 10000 1.54 20 18:22 05.11.2022
1154 Clear 29 1018 32 10000 1.54 0 16:27 05.11.2022
1155 Clear 29 1019 32 10000 1.54 0 14:42 05.11.2022
1156 Clear 26 1020 38 10000 2.06 320 13:32 05.11.2022
1157 Clear 21 1021 52 10000 1.54 350 10:59 05.11.2022
1158 Clear 16 1020 63 10000 1.03 0 08:55 05.11.2022
1159 Clear 15 1019 63 10000 1.54 100 07:23 05.11.2022
1160 Clear 16 1020 59 10000 1.54 70 06:54 05.11.2022
1161 Clear 20 1021 56 10000 0.51 0 23:45 04.11.2022
1162 Clear 22 1021 49 10000 3.09 40 23:18 04.11.2022
1163 Clear 25 1021 29 10000 2.06 10 20:38 04.11.2022
1164 Clear 26 1020 27 10000 2.57 360 19:28 04.11.2022
1165 Clear 29 1019 32 10000 1.54 330 17:24 04.11.2022
1166 Clear 27 1021 39 10000 1.54 0 13:54 04.11.2022
1167 Clear 24 1022 53 10000 2.06 60 12:28 04.11.2022
1168 Clear 24 1023 53 10000 1.54 0 11:43 04.11.2022
1169 Clear 17 1022 77 10000 1.03 0 08:53 04.11.2022
1170 Clear 16 1022 72 10000 0.51 0 07:46 04.11.2022
1171 Clear 17 1022 82 10000 1.54 190 05:50 04.11.2022
1172 Clear 21 1022 60 10000 0.51 0 00:25 04.11.2022
1173 Clouds 23 1022 38 10000 1.54 280 20:53 03.11.2022
1174 Clouds 24 1021 35 10000 1.54 290 20:29 03.11.2022
1175 Clouds 26 1021 34 10000 2.06 250 19:40 03.11.2022
1176 Clouds 27 1021 29 10000 3.6 280 17:52 03.11.2022
1177 Clouds 28 1021 32 10000 3.09 310 16:53 03.11.2022
1178 Clear 28 1022 30 10000 3.6 310 14:53 03.11.2022
1179 Clear 27 1023 39 10000 1.03 0 13:19 03.11.2022
1180 Clear 26 1024 41 10000 1.03 0 12:30 03.11.2022
1181 Clear 19 1024 52 10000 1.54 70 09:43 03.11.2022
1182 Clear 16 1022 63 10000 1.54 100 07:43 03.11.2022
1183 Clear 22 1022 37 10000 2.57 250 21:30 02.11.2022
1184 Clouds 24 1022 33 10000 2.06 260 20:44 02.11.2022
1185 Clouds 26 1021 29 10000 3.6 230 19:59 02.11.2022
1186 Clouds 29 1021 26 10000 2.57 300 17:29 02.11.2022
1187 Clouds 30 1021 23 10000 4.12 290 16:19 02.11.2022
1188 Clouds 28 1021 23 10000 3.6 300 14:53 02.11.2022
1189 Clouds 29 1023 37 10000 0.51 0 12:45 02.11.2022
1190 Clouds 26 1023 41 10000 1.03 0 11:50 02.11.2022
1191 Clouds 22 1023 53 10000 0.51 0 09:22 02.11.2022
1192 Clouds 20 1021 60 10000 2.57 250 05:36 02.11.2022
1193 Clouds 24 1022 43 10000 4.12 130 00:28 02.11.2022
1194 Clouds 24 1024 46 10000 2.06 70 22:19 01.11.2022
1195 Clouds 24 1024 46 10000 2.06 70 21:41 01.11.2022
1196 Clouds 25 1023 41 10000 1.54 70 20:26 01.11.2022
1197 Clouds 25 1023 41 10000 1.54 30 19:43 01.11.2022
1198 Clouds 26 1023 38 10000 3.09 360 18:53 01.11.2022
1199 Clouds 29 1022 20 10000 3.6 290 17:31 01.11.2022
1200 Clouds 30 1021 19 10000 5.14 290 16:22 01.11.2022
1201 Clouds 32 1021 17 10000 2.57 0 14:25 01.11.2022
1202 Clouds 29 1023 20 10000 2.06 100 12:28 01.11.2022
1203 Clouds 27 1023 26 10000 3.09 100 11:24 01.11.2022
1204 Clouds 25 1023 29 10000 1.54 70 10:56 01.11.2022
1205 Clouds 22 1022 33 10000 1.03 0 08:43 01.11.2022
1206 Clear 20 1021 37 10000 0.51 0 07:30 01.11.2022
1207 Clear 20 1021 37 10000 0.51 0 07:30 01.11.2022
1208 Clear 20 1021 37 10000 0.51 0 07:30 01.11.2022
1209 Clear 20 1021 37 10000 0.51 0 06:47 01.11.2022
1210 Clear 19 1021 39 10000 0.51 0 05:57 01.11.2022
1211 Clear 21 1021 37 10000 2.57 100 03:38 01.11.2022
1212 Clouds 25 1023 29 10000 2.06 230 21:55 31.10.2022
1213 Clouds 26 1022 22 10000 2.06 300 20:50 31.10.2022
1214 Clouds 27 1021 21 10000 3.09 270 19:53 31.10.2022
1215 Clouds 32 1019 12 10000 3.09 340 17:51 31.10.2022
1216 Clouds 32 1019 12 10000 4.12 300 16:42 31.10.2022
1217 Clear 33 1020 16 10000 1.54 0 13:24 31.10.2022
1218 Clear 30 1021 20 10000 1.03 0 11:54 31.10.2022
1219 Clear 17 1020 39 10000 2.06 110 08:38 31.10.2022
1220 Clear 17 1018 39 10000 2.06 80 05:33 31.10.2022
1221 Clear 20 1019 32 10000 1.03 0 02:23 31.10.2022
1222 Clear 25 1019 22 10000 2.57 180 23:19 30.10.2022
1223 Clear 24 1019 23 10000 2.06 190 23:19 30.10.2022
1224 Clear 28 1018 17 10000 2.06 320 20:51 30.10.2022
1225 Clear 29 1018 16 10000 2.57 340 20:27 30.10.2022
1226 Clouds 32 1017 14 8000 2.06 320 18:39 30.10.2022
1227 Clouds 33 1017 15 8000 3.09 330 16:18 30.10.2022
1228 Clouds 33 1017 15 8000 3.09 330 16:18 30.10.2022
1229 Clouds 32 1018 18 8000 2.57 340 13:53 30.10.2022
1230 Clouds 31 1018 20 8000 1.54 40 13:18 30.10.2022
1231 Clouds 29 1019 21 8000 2.57 50 11:42 30.10.2022
1232 Clouds 24 1018 25 8000 2.57 120 09:37 30.10.2022
1233 Clouds 19 1018 37 8000 3.09 90 08:38 30.10.2022
1234 Clouds 24 1019 22 8000 2.06 180 02:56 30.10.2022
1235 Clouds 24 1019 23 8000 2.06 220 00:28 30.10.2022
1236 Clouds 27 1019 21 8000 2.06 10 23:44 29.10.2022
1237 Clouds 28 1018 20 8000 1.54 280 21:27 29.10.2022
1238 Clear 33 1018 15 10000 2.57 360 18:21 29.10.2022
1239 Clear 34 1018 14 10000 2.57 310 17:20 29.10.2022
1240 Clear 35 1018 13 10000 1.54 0 15:38 29.10.2022
1241 Clear 34 1019 14 10000 2.57 0 14:48 29.10.2022
1242 Clear 31 1020 15 10000 2.06 130 12:35 29.10.2022
1243 Clear 30 1020 17 10000 3.09 110 11:53 29.10.2022
1244 Clear 18 1019 36 10000 2.57 90 07:38 29.10.2022
1245 Clear 19 1020 34 10000 3.09 90 05:56 29.10.2022
1246 Clear 23 1021 23 10000 4.12 180 04:19 29.10.2022
1247 Clear 24 1021 23 10000 2.57 290 23:42 28.10.2022
1248 Clear 29 1020 16 10000 1.03 0 20:56 28.10.2022
1249 Clear 34 1019 12 10000 1.03 0 19:34 28.10.2022
1250 Clear 33 1019 13 10000 1.54 130 18:32 28.10.2022
1251 Clear 34 1020 14 10000 2.57 40 16:20 28.10.2022
1252 Clear 33 1021 15 10000 2.57 360 14:45 28.10.2022
1253 Clear 28 1023 23 10000 1.54 120 13:19 28.10.2022
1254 Clear 25 1023 27 10000 1.54 100 11:53 28.10.2022
1255 Clear 25 1023 27 10000 1.54 100 11:53 28.10.2022
1256 Clear 25 1023 27 10000 0.51 0 11:25 28.10.2022
1257 Clear 20 1022 40 10000 1.03 0 10:28 28.10.2022
1258 Clear 16 1021 48 10000 1.54 60 08:40 28.10.2022
1259 Clear 18 1022 39 10000 2.06 80 05:40 28.10.2022
1260 Clear 24 1023 27 10000 4.12 230 23:50 27.10.2022
1261 Clear 25 1023 25 10000 3.09 240 23:22 27.10.2022
1262 Clear 29 1021 20 10000 3.6 360 21:56 27.10.2022
1263 Clear 32 1020 17 10000 4.12 40 20:32 27.10.2022
1264 Clear 35 1020 13 10000 1.54 30 18:23 27.10.2022
1265 Clear 34 1020 16 10000 3.09 80 15:42 27.10.2022
1266 Clear 25 1022 33 10000 1.03 0 11:34 27.10.2022
1267 Clear 19 1020 37 10000 2.06 90 07:32 27.10.2022
1268 Clouds 26 1021 24 10000 4.12 120 00:23 27.10.2022
1269 Clouds 27 1020 22 10000 3.09 120 23:51 26.10.2022
1270 Clouds 29 1019 18 10000 2.57 340 22:40 26.10.2022
1271 Clouds 31 1018 18 10000 0.51 0 21:22 26.10.2022
1272 Clouds 35 1017 14 10000 2.57 300 17:40 26.10.2022
1273 Clouds 33 1018 17 10000 4.12 310 14:54 26.10.2022
1274 Clouds 30 1019 21 10000 1.54 300 12:56 26.10.2022
1275 Clouds 29 1018 23 8000 1.54 340 12:18 26.10.2022
1276 Clouds 19 1017 45 8000 2.57 70 09:19 26.10.2022
1277 Clouds 19 1017 45 8000 3.09 90 08:51 26.10.2022
1278 Clouds 25 1019 29 8000 1.54 150 00:52 26.10.2022
1279 Clouds 26 1019 27 8000 2.57 140 00:33 26.10.2022
1280 Clouds 28 1019 26 8000 2.57 40 22:25 25.10.2022
1281 Clouds 29 1018 23 8000 3.6 10 21:44 25.10.2022
1282 Clouds 31 1017 19 8000 3.09 360 20:27 25.10.2022
1283 Clouds 33 1016 16 8000 3.6 300 18:55 25.10.2022
1284 Clouds 35 1016 15 8000 3.6 230 16:30 25.10.2022
1285 Clouds 26 1018 27 8000 2.06 50 11:42 25.10.2022
1286 Clouds 25 1018 29 8000 1.54 30 10:47 25.10.2022
1287 Clear 23 1017 33 10000 1.03 0 10:29 25.10.2022
1288 Clear 20 1016 34 10000 2.57 100 08:38 25.10.2022
1289 Clear 20 1016 34 10000 2.57 100 08:18 25.10.2022
1290 Clear 20 1016 34 10000 3.6 90 07:53 25.10.2022
1291 Clear 20 1016 37 10000 1.54 60 06:46 25.10.2022
1292 Clear 21 1017 35 10000 2.57 70 03:29 25.10.2022
1293 Clear 24 1018 27 10000 2.57 80 00:32 25.10.2022
1294 Clear 26 1017 25 10000 1.54 280 22:28 24.10.2022
1295 Clear 28 1017 21 10000 1.03 0 21:46 24.10.2022
1296 Clear 30 1017 19 10000 1.03 0 20:50 24.10.2022
1297 Clear 31 1017 18 10000 1.03 0 20:19 24.10.2022
1298 Clear 34 1016 17 10000 2.57 310 18:33 24.10.2022
1299 Clear 34 1016 17 10000 2.06 330 16:55 24.10.2022
1300 Clear 32 1017 20 10000 3.09 290 15:28 24.10.2022
1301 Clear 32 1018 20 10000 1.54 0 14:19 24.10.2022
1302 Clear 30 1018 23 10000 1.54 30 12:27 24.10.2022
1303 Clouds 18 1017 45 10000 3.6 90 09:22 24.10.2022
1304 Clear 19 1018 55 10000 1.03 0 03:21 24.10.2022
1305 Clear 25 1018 41 10000 4.12 220 22:29 23.10.2022
1306 Clear 29 1017 28 10000 2.57 320 20:38 23.10.2022
1307 Clear 32 1016 19 10000 5.14 300 18:41 23.10.2022
1308 Clear 33 1015 18 10000 3.6 300 17:28 23.10.2022
1309 Clear 33 1016 19 10000 2.06 310 15:40 23.10.2022
1310 Clear 32 1017 25 10000 2.57 70 14:55 23.10.2022
1311 Clear 23 1019 49 10000 1.03 0 11:40 23.10.2022
1312 Clear 18 1019 59 10000 3.09 240 10:19 23.10.2022
1313 Clear 19 1017 55 10000 1.03 0 04:41 23.10.2022
1314 Clouds 23 1019 43 10000 2.06 240 22:49 22.10.2022
1315 Clouds 25 1019 41 10000 2.06 240 21:43 22.10.2022
1316 Clouds 26 1018 36 10000 3.6 260 20:57 22.10.2022
1317 Clouds 28 1017 34 10000 6.17 290 19:57 22.10.2022
1318 Clouds 29 1016 32 10000 6.69 290 19:30 22.10.2022
1319 Clouds 34 1015 18 10000 5.66 300 17:39 22.10.2022
1320 Clouds 35 1016 15 10000 3.6 0 15:59 22.10.2022
1321 Clear 35 1017 15 10000 5.66 210 14:47 22.10.2022
1322 Clear 34 1018 16 10000 5.66 180 13:57 22.10.2022
1323 Clear 23 1018 40 10000 2.06 30 10:34 22.10.2022
1324 Clear 21 1017 46 10000 2.57 40 09:40 22.10.2022
1325 Clear 24 1017 31 10000 2.06 190 08:37 22.10.2022
1326 Clear 20 1018 49 10000 3.09 90 04:21 22.10.2022
1327 Clear 25 1020 33 10000 2.57 190 00:18 22.10.2022
1328 Clouds 27 1018 28 8000 4.12 300 22:19 21.10.2022
1329 Clouds 28 1018 28 8000 4.63 310 21:32 21.10.2022
1330 Clouds 31 1017 23 8000 3.6 290 20:20 21.10.2022
1331 Clear 35 1016 17 10000 3.09 20 17:21 21.10.2022
1332 Clear 34 1018 22 10000 2.57 70 14:30 21.10.2022
1333 Clouds 31 1019 30 8000 2.06 80 13:22 21.10.2022
1334 Clear 25 1019 41 8000 2.57 100 11:33 21.10.2022
1335 Clear 21 1019 56 8000 0.51 0 10:21 21.10.2022
1336 Clear 19 1018 59 10000 1.54 160 08:39 21.10.2022
1337 Clear 17 1018 67 10000 1.03 0 07:47 21.10.2022
1338 Clear 23 1019 49 10000 1.54 160 02:32 21.10.2022
1339 Clear 25 1018 41 10000 1.54 250 22:32 20.10.2022
1340 Clear 28 1017 34 10000 2.06 280 20:48 20.10.2022
1341 Clear 31 1016 27 10000 3.6 300 19:40 20.10.2022
1342 Clear 33 1016 24 10000 3.6 300 17:54 20.10.2022
1343 Clear 33 1016 22 10000 4.12 300 17:33 20.10.2022
1344 Clouds 29 1018 37 8000 2.06 40 13:22 20.10.2022
1345 Clouds 27 1018 41 8000 2.57 60 12:28 20.10.2022
1346 Clouds 24 1018 53 8000 2.06 60 11:25 20.10.2022
1347 Clouds 23 1018 56 8000 1.03 0 10:51 20.10.2022
1348 Clear 18 1017 68 10000 0.51 0 08:27 20.10.2022
1349 Clear 20 1017 60 10000 1.54 60 05:45 20.10.2022
1350 Clear 22 1019 53 10000 1.54 290 01:52 20.10.2022
1351 Clouds 26 1019 44 8000 3.09 330 22:46 19.10.2022
1352 Clouds 27 1019 36 8000 3.6 290 21:59 19.10.2022
1353 Clouds 27 1019 36 8000 3.6 280 21:18 19.10.2022
1354 Clouds 33 1018 24 8000 3.6 300 18:51 19.10.2022
1355 Clear 33 1018 25 10000 3.09 280 17:39 19.10.2022
1356 Clear 33 1018 27 10000 2.06 320 16:21 19.10.2022
1357 Clear 31 1021 35 10000 1.54 0 13:53 19.10.2022
1358 Clouds 23 1021 56 10000 1.03 0 10:18 19.10.2022
1359 Clouds 19 1021 63 10000 1.54 80 08:35 19.10.2022
1360 Clear 20 1020 64 10000 0 0 06:31 19.10.2022
1361 Clear 24 1023 50 10000 0.51 0 01:26 19.10.2022
1362 Clouds 28 1023 39 10000 2.06 120 23:21 18.10.2022
1363 Clouds 29 1023 37 10000 1.54 30 21:48 18.10.2022
1364 Clouds 30 1023 35 10000 1.54 350 20:59 18.10.2022
1365 Clouds 30 1022 37 10000 2.57 340 20:18 18.10.2022
1366 Clouds 34 1022 24 10000 2.57 310 17:48 18.10.2022
1367 Clouds 34 1022 24 10000 2.57 80 16:52 18.10.2022
1368 Clouds 33 1023 27 10000 3.6 300 14:51 18.10.2022
1369 Clouds 30 1024 30 10000 4.63 300 12:34 18.10.2022
1370 Clouds 31 1022 29 10000 3.09 140 11:22 18.10.2022
1371 Clouds 22 1021 49 10000 2.57 100 09:58 18.10.2022
1372 Clouds 21 1021 56 10000 3.09 90 07:57 18.10.2022
1373 Clear 22 1021 60 10000 2.06 80 03:45 18.10.2022
1374 Clouds 27 1021 41 10000 4.12 230 22:37 17.10.2022
1375 Clouds 29 1020 39 10000 3.6 230 20:55 17.10.2022
1376 Clouds 31 1020 33 10000 3.09 310 20:32 17.10.2022
1377 Clouds 32 1019 31 10000 2.57 270 19:52 17.10.2022
1378 Clouds 33 1019 27 10000 1.54 300 19:18 17.10.2022
1379 Clouds 34 1019 27 10000 1.54 0 16:55 17.10.2022
1380 Clouds 32 1019 31 10000 1.54 0 15:29 17.10.2022
1381 Clouds 30 1020 37 10000 1.03 0 14:35 17.10.2022
1382 Clouds 24 1020 53 10000 1.03 0 11:52 17.10.2022
1383 Clouds 17 1017 72 10000 0.51 0 06:41 17.10.2022
1384 Clouds 23 1017 49 10000 2.06 0 23:35 16.10.2022
1385 Thunderstorm 26 1017 38 8000 9.77 190 21:58 16.10.2022
1386 Clouds 25 1016 41 8000 5.66 160 20:56 16.10.2022
1387 Clouds 24 1016 46 8000 13.38 170 19:47 16.10.2022
1388 Sand 25 1016 44 3000 11.83 170 17:58 16.10.2022
1389 Sand 26 1016 38 3000 9.77 170 17:33 16.10.2022
1390 Clouds 27 1016 32 8000 5.14 170 15:58 16.10.2022
1391 Clouds 25 1017 44 8000 4.63 270 14:34 16.10.2022
1392 Clouds 25 1017 38 10000 4.12 130 12:23 16.10.2022
1393 Clouds 24 1017 46 10000 0.51 0 10:28 16.10.2022
1394 Clouds 22 1016 49 10000 0.51 0 08:50 16.10.2022
1395 Clouds 24 1015 46 10000 2.57 100 02:24 16.10.2022
1396 Clouds 27 1017 34 10000 1.03 0 23:41 15.10.2022
1397 Clouds 29 1017 30 10000 2.57 340 21:29 15.10.2022
1398 Clouds 29 1017 30 10000 3.6 300 20:56 15.10.2022
1399 Clouds 32 1016 23 10000 1.54 10 18:54 15.10.2022
1400 Clouds 32 1016 27 10000 3.09 330 15:49 15.10.2022
1401 Clouds 32 1017 31 10000 2.57 350 15:31 15.10.2022
1402 Clouds 27 1018 47 10000 1.03 0 11:58 15.10.2022
1403 Clouds 26 1018 50 10000 0.51 0 11:24 15.10.2022
1404 Clouds 20 1017 68 10000 1.03 0 08:55 15.10.2022
1405 Clear 22 1018 60 10000 1.54 150 03:40 15.10.2022
1406 Clear 24 1018 57 10000 1.54 0 00:24 15.10.2022
1407 Clear 26 1018 41 10000 1.03 0 22:24 14.10.2022
1408 Clear 28 1017 34 10000 2.06 360 21:36 14.10.2022
1409 Clear 29 1017 32 10000 1.03 0 20:26 14.10.2022
1410 Clouds 32 1017 27 8000 2.06 0 17:18 14.10.2022
1411 Clear 28 1018 47 8000 1.03 0 14:25 14.10.2022
1412 Clear 25 1019 65 8000 1.54 0 12:44 14.10.2022
1413 Clear 18 1019 88 8000 1.54 90 10:21 14.10.2022
1414 Clear 17 1018 88 8000 1.54 120 07:57 14.10.2022
1415 Clear 17 1018 88 8000 1.03 0 06:18 14.10.2022
1416 Clear 18 1018 82 8000 1.03 0 05:49 14.10.2022
1417 Clear 18 1018 82 8000 0.51 0 05:31 14.10.2022
1418 Clear 20 1020 73 10000 0 0 00:53 14.10.2022
1419 Clouds 22 1019 68 10000 1.03 0 22:32 13.10.2022
1420 Clouds 22 1019 68 10000 2.06 90 21:29 13.10.2022
1421 Clouds 23 1019 64 10000 2.57 80 20:19 13.10.2022
1422 Clear 25 1018 57 10000 1.03 0 19:39 13.10.2022
1423 Clouds 24 1018 60 10000 2.57 60 18:44 13.10.2022
1424 Clouds 24 1018 64 10000 3.6 50 17:31 13.10.2022
1425 Clouds 23 1019 64 10000 2.57 10 15:48 13.10.2022
1426 Clouds 21 1019 73 10000 2.06 0 14:29 13.10.2022
1427 Clouds 20 1020 77 10000 1.54 0 12:51 13.10.2022
1428 Clouds 15 1020 100 6000 2.06 110 11:37 13.10.2022
1429 Fog 14 1018 94 400 1.03 0 09:46 13.10.2022
1430 Clear 14 1017 94 6000 1.54 20 08:32 13.10.2022
1431 Mist 14 1018 94 3000 4.12 130 07:35 13.10.2022
1432 Clouds 16 1018 88 8000 2.06 130 01:56 13.10.2022
1433 Rain 16 1018 88 6000 2.57 60 00:59 13.10.2022
1434 Thunderstorm 16 1018 82 8000 2.06 250 22:57 12.10.2022
1435 Thunderstorm 16 1017 88 6000 2.57 220 22:36 12.10.2022
1436 Thunderstorm 16 1017 82 4000 3.09 180 21:22 12.10.2022
1437 Thunderstorm 17 1016 77 6000 4.12 160 20:52 12.10.2022
1438 Rain 21 1016 54 10000 2.78 61 19:38 12.10.2022
1439 Rain 18 1015 49 5000 3.09 70 18:26 12.10.2022
1440 Rain 18 1015 49 5000 3.09 70 17:47 12.10.2022
1441 Clouds 21 1016 56 10000 5.14 30 15:45 12.10.2022
1442 Clouds 21 1017 56 8000 4.63 30 13:57 12.10.2022
1443 Clouds 21 1017 56 8000 4.63 20 13:22 12.10.2022
1444 Clouds 16 1016 77 8000 1.03 0 09:45 12.10.2022
1445 Clouds 17 1016 67 8000 4.12 140 07:59 12.10.2022
1446 Clouds 17 1016 67 8000 5.14 150 07:39 12.10.2022
1447 Clouds 17 1016 72 8000 6.69 160 06:43 12.10.2022
1448 Clouds 19 1017 77 10000 4.63 350 00:59 12.10.2022
1449 Clouds 21 1017 64 10000 5.14 330 22:19 11.10.2022
1450 Clouds 24 1015 50 10000 4.63 310 20:40 11.10.2022
1451 Clouds 24 1015 53 10000 5.14 280 19:21 11.10.2022
1452 Clouds 24 1016 57 10000 4.63 280 16:49 11.10.2022
1453 Clouds 24 1016 57 10000 4.63 280 16:49 11.10.2022
1454 Clouds 24 1018 57 10000 3.6 290 14:36 11.10.2022
1455 Clouds 24 1018 64 10000 3.6 260 12:53 11.10.2022
1456 Clouds 18 1018 82 8000 2.57 260 10:29 11.10.2022
1457 Clouds 17 1017 82 8000 1.54 260 09:30 11.10.2022
1458 Clouds 18 1016 82 8000 2.57 240 06:46 11.10.2022
1459 Clouds 19 1018 72 8000 3.6 270 02:31 11.10.2022
1460 Clouds 21 1018 68 8000 1.03 0 00:31 11.10.2022
1461 Clouds 24 1018 57 8000 2.06 220 21:37 10.10.2022
1462 Clouds 24 1018 57 8000 3.09 260 19:56 10.10.2022
1463 Clouds 25 1018 61 8000 2.06 220 18:33 10.10.2022
1464 Clouds 24 1018 69 8000 1.03 0 17:21 10.10.2022
1465 Clouds 22 1019 73 8000 2.57 260 15:44 10.10.2022
1466 Clouds 20 1020 83 6000 2.57 250 12:54 10.10.2022
1467 Clouds 20 1020 83 6000 1.54 220 11:56 10.10.2022
1468 Clouds 18 1018 88 5000 2.57 240 08:59 10.10.2022
1469 Clouds 19 1018 82 6000 3.6 250 05:43 10.10.2022
1470 Clouds 19 1018 82 8000 3.6 240 04:56 10.10.2022
1471 Clouds 24 1018 60 8000 3.09 20 00:33 10.10.2022
1472 Thunderstorm 25 1018 53 6000 3.09 20 22:51 09.10.2022
1473 Thunderstorm 26 1017 50 6000 3.6 300 22:18 09.10.2022
1474 Thunderstorm 27 1017 47 6000 3.09 260 21:22 09.10.2022
1475 Clouds 28 1016 44 6000 4.63 310 20:24 09.10.2022
1476 Clouds 28 1016 44 6000 4.63 310 20:24 09.10.2022
1477 Clouds 29 1016 42 6000 4.12 310 19:45 09.10.2022
1478 Clouds 30 1015 42 8000 3.6 300 18:43 09.10.2022
1479 Clouds 31 1015 42 8000 3.6 280 16:56 09.10.2022
1480 Clouds 31 1015 42 8000 3.6 280 16:56 09.10.2022
1481 Clouds 30 1015 42 8000 2.57 0 16:37 09.10.2022
1482 Clouds 29 1016 51 8000 2.57 320 15:38 09.10.2022
1483 Clouds 27 1017 57 6000 3.09 280 14:31 09.10.2022
1484 Clouds 25 1016 61 6000 3.09 290 13:34 09.10.2022
1485 Clouds 24 1016 64 6000 2.06 300 12:35 09.10.2022
1486 Clouds 21 1016 73 6000 2.06 260 10:49 09.10.2022
1487 Clouds 21 1014 68 8000 1.54 80 08:31 09.10.2022
1488 Clouds 22 1015 73 8000 0.51 0 03:48 09.10.2022
1489 Clouds 22 1015 68 8000 1.03 0 02:53 09.10.2022
1490 Clouds 25 1016 57 8000 0.51 0 00:39 09.10.2022
1491 Clouds 28 1015 44 8000 2.57 340 22:59 08.10.2022
1492 Clouds 28 1015 44 8000 3.09 10 22:22 08.10.2022
1493 Clouds 31 1012 35 6000 4.63 320 20:31 08.10.2022
1494 Clouds 34 1011 26 6000 3.6 300 18:57 08.10.2022
1495 Clouds 34 1011 26 6000 5.66 280 17:33 08.10.2022
1496 Clouds 33 1012 35 8000 4.12 260 15:26 08.10.2022
1497 Clouds 31 1013 37 7000 2.57 270 13:32 08.10.2022
1498 Clouds 27 1012 44 10000 2.06 70 10:48 08.10.2022
1499 Clouds 26 1012 47 10000 1.54 0 10:25 08.10.2022
1500 Clouds 25 1012 47 10000 2.57 70 09:19 08.10.2022
1501 Rain 26 1013 47 8000 2.57 200 05:31 08.10.2022
1502 Clouds 27 1014 41 8000 2.57 80 01:19 08.10.2022
1503 Clouds 29 1014 28 7000 5.14 220 23:39 07.10.2022
1504 Clouds 29 1014 28 7000 5.14 220 23:20 07.10.2022
1505 Clouds 29 1014 28 8000 7.2 140 21:52 07.10.2022
1506 Clouds 34 1012 21 8000 2.06 310 19:56 07.10.2022
1507 Clouds 36 1012 19 8000 2.57 0 17:54 07.10.2022
1508 Clouds 35 1012 23 8000 2.57 320 16:50 07.10.2022
1509 Clouds 34 1014 26 8000 3.09 340 15:26 07.10.2022
1510 Clouds 31 1015 30 8000 2.06 330 13:55 07.10.2022
1511 Clouds 28 1016 36 8000 0.51 0 11:38 07.10.2022
1512 Clear 21 1015 49 10000 1.03 0 09:25 07.10.2022
1513 Clear 21 1015 52 10000 1.03 0 08:23 07.10.2022
1514 Clear 22 1016 56 10000 1.03 0 02:55 07.10.2022
1515 Clear 27 1017 36 8000 2.06 250 23:21 06.10.2022
1516 Clear 27 1017 36 8000 2.06 250 22:48 06.10.2022
1517 Clouds 29 1016 30 8000 2.57 290 21:37 06.10.2022
1518 Clouds 31 1016 27 8000 3.6 250 20:39 06.10.2022
1519 Clear 33 1015 25 8000 3.09 280 18:57 06.10.2022
1520 Clear 33 1015 25 6000 2.57 280 18:32 06.10.2022
1521 Clear 31 1016 33 8000 1.54 0 15:38 06.10.2022
1522 Clouds 26 1018 44 8000 1.03 0 13:18 06.10.2022
1523 Clouds 19 1018 63 8000 1.54 230 09:27 06.10.2022
1524 Clear 20 1018 56 8000 2.57 240 05:19 06.10.2022
1525 Clouds 24 1019 46 8000 2.57 180 01:47 06.10.2022
1526 Clouds 27 1019 36 6000 3.6 10 21:59 05.10.2022
1527 Clouds 31 1017 23 5000 1.54 60 19:54 05.10.2022
1528 Clouds 30 1016 22 10000 2.23 35 17:37 05.10.2022
1529 Clouds 32 1018 25 5000 1.54 0 16:45 05.10.2022
1530 Clouds 29 1019 34 7000 2.06 330 15:23 05.10.2022
1531 Clear 28 1020 36 10000 1.54 0 14:38 05.10.2022
1532 Clear 26 1021 41 10000 1.54 320 13:29 05.10.2022
1533 Clear 23 1021 53 10000 1.54 280 11:45 05.10.2022
1534 Clear 18 1020 63 10000 1.54 250 08:28 05.10.2022
1535 Clear 20 1019 56 6000 3.09 240 07:21 05.10.2022
1536 Clear 19 1018 59 6000 3.09 250 05:32 05.10.2022
1537 Clear 23 1019 46 6000 1.03 0 02:33 05.10.2022
1538 Clear 25 1019 41 6000 2.57 40 00:41 05.10.2022
1539 Clear 25 1019 41 6000 2.57 40 00:22 05.10.2022
1540 Clear 30 1019 21 6000 1.54 350 21:25 04.10.2022
1541 Clouds 31 1018 20 6000 2.06 330 20:20 04.10.2022
1542 Clouds 33 1018 18 6000 1.03 0 18:56 04.10.2022
1543 Clouds 33 1018 16 6000 2.06 350 18:33 04.10.2022
1544 Clouds 32 1019 20 6000 3.09 50 16:58 04.10.2022
1545 Clouds 32 1020 25 6000 1.54 330 15:21 04.10.2022
1546 Haze 23 1021 40 4000 1.03 0 10:54 04.10.2022
1547 Clouds 21 1020 43 6000 1.03 0 08:28 04.10.2022
1548 Clouds 20 1020 45 6000 1.54 230 05:56 04.10.2022
1549 Clear 26 1022 31 6000 3.09 230 00:25 04.10.2022
1550 Clear 28 1022 32 6000 2.06 300 22:57 03.10.2022
1551 Clear 29 1021 28 6000 4.63 320 21:41 03.10.2022
1552 Clear 32 1020 19 6000 1.54 330 20:40 03.10.2022
1553 Haze 33 1020 17 4000 2.06 360 18:52 03.10.2022
1554 Haze 34 1020 17 4000 2.06 310 17:35 03.10.2022
1555 Haze 34 1021 16 4000 2.57 330 16:22 03.10.2022
1556 Clear 32 1022 27 6000 3.09 60 14:36 03.10.2022
1557 Clear 30 1022 28 8000 2.06 40 13:27 03.10.2022
1558 Clear 26 1023 36 8000 1.03 0 11:37 03.10.2022
1559 Clear 20 1022 52 8000 1.03 0 09:59 03.10.2022
1560 Clear 19 1021 52 8000 1.54 100 08:47 03.10.2022
1561 Clear 22 1021 40 8000 1.54 240 04:45 03.10.2022
1562 Clear 25 1021 36 8000 2.57 230 01:30 03.10.2022
1563 Haze 28 1019 28 4000 2.57 240 22:19 02.10.2022
1564 Haze 31 1018 23 4000 2.57 280 20:18 02.10.2022
1565 Haze 32 1016 22 4000 3.6 310 17:58 02.10.2022
1566 Haze 33 1016 21 4000 3.09 340 17:20 02.10.2022
1567 Haze 32 1017 23 4000 2.06 350 16:33 02.10.2022
1568 Mist 32 1017 22 4000 2.06 320 15:39 02.10.2022
1569 Clouds 29 1018 32 8000 1.03 0 13:46 02.10.2022
1570 Clouds 27 1018 34 8000 1.54 0 12:42 02.10.2022
1571 Clouds 26 1018 38 8000 1.54 0 12:20 02.10.2022
1572 Clouds 24 1018 46 8000 1.54 70 11:34 02.10.2022
1573 Clouds 22 1017 53 8000 1.03 0 10:19 02.10.2022
1574 Clouds 19 1016 59 10000 1.54 80 08:30 02.10.2022
1575 Clouds 22 1015 49 10000 2.06 120 05:23 02.10.2022
1576 Clouds 23 1017 43 10000 3.09 40 01:29 02.10.2022
1577 Clouds 23 1017 49 10000 2.06 20 00:38 02.10.2022
1578 Clouds 25 1017 36 10000 8.75 90 23:29 01.10.2022
1579 Clouds 26 1015 34 10000 8.75 80 21:58 01.10.2022
1580 Rain 30 1014 26 10000 2.06 0 19:21 01.10.2022
1581 Rain 30 1014 30 10000 1.54 0 17:46 01.10.2022
1582 Rain 30 1014 30 10000 1.54 0 17:46 01.10.2022
1583 Clouds 28 1015 34 10000 2.57 310 16:24 01.10.2022
1584 Clouds 25 1017 44 10000 2.06 60 14:18 01.10.2022
1585 Clouds 22 1018 60 8000 1.03 0 12:35 01.10.2022
1586 Clouds 20 1018 64 8000 1.54 20 11:23 01.10.2022
1587 Clouds 19 1018 68 10000 1.03 0 10:53 01.10.2022
1588 Clouds 18 1017 72 10000 1.03 0 10:30 01.10.2022
1589 Clouds 18 1017 72 10000 1.03 0 10:30 01.10.2022
1590 Clouds 16 1017 77 10000 0.51 0 09:26 01.10.2022
1591 Clouds 16 1016 72 10000 2.06 100 08:39 01.10.2022
1592 Clouds 17 1016 67 10000 2.57 90 03:50 01.10.2022
1593 Clouds 17 1016 67 10000 2.57 80 03:24 01.10.2022
1594 Clouds 20 1015 56 10000 7.72 40 23:22 30.09.2022
1595 Clouds 22 1014 43 10000 5.14 40 22:19 30.09.2022
1596 Clouds 23 1014 43 10000 4.63 40 21:22 30.09.2022
1597 Clouds 23 1014 46 10000 5.14 40 20:42 30.09.2022
1598 Clouds 25 1013 44 10000 5.66 50 19:30 30.09.2022
1599 Clouds 25 1014 47 10000 6.17 20 16:58 30.09.2022
1600 Clouds 25 1014 47 10000 4.63 50 14:49 30.09.2022
1601 Clouds 23 1015 46 10000 3.6 20 13:24 30.09.2022
1602 Clouds 21 1016 60 10000 2.06 80 11:56 30.09.2022
1603 Clouds 21 1016 60 10000 2.06 80 11:56 30.09.2022
1604 Clouds 17 1015 72 10000 2.06 90 09:50 30.09.2022
1605 Clouds 16 1014 77 10000 2.57 100 08:20 30.09.2022
1606 Clear 17 1015 67 10000 2.57 40 04:24 30.09.2022
1607 Clouds 18 1016 63 10000 3.6 60 02:22 30.09.2022
1608 Clouds 23 1014 49 10000 4.12 10 22:23 29.09.2022
1609 Clouds 24 1014 43 10000 3.09 360 21:25 29.09.2022
1610 Clouds 25 1014 41 10000 3.09 30 19:58 29.09.2022
1611 Clouds 27 1014 39 10000 3.6 340 18:30 29.09.2022
1612 Clouds 27 1014 39 10000 3.6 340 18:30 29.09.2022
1613 Clouds 26 1015 44 10000 3.6 10 16:29 29.09.2022
1614 Clouds 26 1015 44 10000 3.6 40 15:51 29.09.2022
1615 Clouds 25 1016 47 10000 2.57 360 15:27 29.09.2022
1616 Clouds 21 1018 64 10000 2.57 0 12:54 29.09.2022
1617 Clouds 16 1017 82 8000 1.54 90 08:51 29.09.2022
1618 Clear 17 1018 77 10000 2.57 70 05:36 29.09.2022
1619 Clear 19 1019 68 10000 2.06 60 02:42 29.09.2022
1620 Clear 22 1018 53 10000 5.14 10 23:29 28.09.2022
1621 Clear 25 1017 38 10000 2.06 40 22:24 28.09.2022
1622 Clear 25 1017 38 10000 2.06 40 21:28 28.09.2022
1623 Clear 27 1017 36 10000 3.09 50 19:58 28.09.2022
1624 Clear 29 1018 34 10000 1.03 0 17:19 28.09.2022
1625 Clear 25 1020 47 10000 2.57 0 14:45 28.09.2022
1626 Clear 25 1020 47 10000 2.57 0 14:45 28.09.2022
1627 Clear 21 1021 64 10000 2.57 10 12:31 28.09.2022
1628 Clear 18 1020 72 10000 2.06 90 10:24 28.09.2022
1629 Clouds 16 1020 77 8000 2.06 230 08:25 28.09.2022
1630 Clouds 15 1020 77 8000 1.54 260 06:42 28.09.2022
1631 Clouds 19 1021 63 8000 3.09 40 01:50 28.09.2022
1632 Clouds 19 1021 63 8000 3.6 50 01:27 28.09.2022
1633 Clouds 22 1020 49 8000 4.63 360 22:50 27.09.2022
1634 Clouds 26 1019 44 10000 3.6 270 21:24 27.09.2022
1635 Clouds 27 1018 41 10000 2.57 290 20:36 27.09.2022
1636 Clouds 27 1018 44 10000 3.09 280 19:47 27.09.2022
1637 Clouds 28 1019 44 10000 2.57 0 17:55 27.09.2022
1638 Clouds 27 1019 47 10000 1.03 0 17:32 27.09.2022
1639 Clouds 26 1020 53 10000 1.03 0 15:27 27.09.2022
1640 Clouds 25 1021 57 10000 1.54 40 14:33 27.09.2022
1641 Clouds 22 1021 64 10000 2.57 60 12:40 27.09.2022
1642 Clouds 20 1021 68 8000 2.57 100 10:49 27.09.2022
1643 Clouds 17 1020 77 8000 1.54 40 08:42 27.09.2022
1644 Clouds 17 1019 77 8000 1.03 0 05:48 27.09.2022
1645 Clouds 19 1019 72 8000 1.54 330 01:43 27.09.2022
1646 Clouds 19 1019 82 8000 2.06 280 00:32 27.09.2022
1647 Clouds 21 1018 73 8000 1.03 0 23:25 26.09.2022
1648 Clouds 21 1018 73 8000 1.03 0 21:44 26.09.2022
1649 Clouds 22 1017 68 8000 1.03 0 20:26 26.09.2022
1650 Clouds 22 1017 68 8000 2.57 60 19:21 26.09.2022
1651 Clouds 22 1016 68 8000 1.54 340 17:27 26.09.2022
1652 Clouds 20 1016 77 8000 2.06 20 15:49 26.09.2022
1653 Clouds 20 1017 83 8000 2.06 50 13:25 26.09.2022
1654 Clouds 18 1017 88 6000 1.54 100 11:28 26.09.2022
1655 Clouds 18 1017 88 6000 1.03 0 10:36 26.09.2022
1656 Clouds 18 1017 88 6000 1.03 0 10:18 26.09.2022
1657 Clouds 18 1016 88 6000 1.03 0 09:52 26.09.2022
1658 Clouds 17 1015 94 6000 2.06 50 09:22 26.09.2022
1659 Clouds 17 1015 94 6000 2.57 270 05:50 26.09.2022
1660 Clouds 18 1016 88 5000 3.09 300 02:35 26.09.2022
1661 Rain 18 1016 94 5000 2.06 20 23:25 25.09.2022
1662 Rain 18 1015 94 4000 2.06 290 21:48 25.09.2022
1663 Rain 18 1015 94 4000 2.06 290 21:25 25.09.2022
1664 Rain 19 1015 94 5000 2.57 300 20:37 25.09.2022
1665 Rain 19 1014 94 6000 3.09 310 19:25 25.09.2022
1666 Rain 20 1014 88 6000 3.09 290 18:29 25.09.2022
1667 Rain 20 1014 88 6000 3.09 290 18:29 25.09.2022
1668 Rain 21 1014 83 6000 1.54 310 17:29 25.09.2022
1669 Rain 20 1014 88 6000 1.03 0 16:21 25.09.2022
1670 Clouds 20 1015 88 8000 3.09 330 14:55 25.09.2022
1671 Clouds 21 1015 83 8000 2.57 290 14:19 25.09.2022
1672 Clouds 20 1014 94 8000 2.57 70 11:35 25.09.2022
1673 Rain 19 1014 94 10000 2.06 270 09:48 25.09.2022
1674 Clouds 20 1014 88 8000 2.06 340 07:43 25.09.2022
1675 Clouds 20 1014 88 8000 1.54 230 05:27 25.09.2022
1676 Clouds 25 1017 61 10000 3.6 280 23:37 24.09.2022
1677 Clouds 25 1017 61 10000 3.6 280 23:37 24.09.2022
1678 Clouds 26 1015 53 10000 3.6 350 21:50 24.09.2022
1679 Clouds 29 1014 37 10000 1.54 310 20:34 24.09.2022
1680 Clouds 30 1014 35 10000 2.06 340 19:20 24.09.2022
1681 Clouds 30 1015 39 10000 2.06 330 16:57 24.09.2022
1682 Clouds 30 1015 39 10000 1.54 0 15:54 24.09.2022
1683 Clouds 29 1016 45 10000 0.51 0 15:18 24.09.2022
1684 Clear 26 1017 61 10000 2.57 270 13:22 24.09.2022
1685 Clear 24 1017 69 10000 2.06 320 12:25 24.09.2022
1686 Clear 20 1016 88 10000 1.54 260 09:59 24.09.2022
1687 Clear 19 1016 88 10000 1.54 240 09:21 24.09.2022
1688 Clear 19 1016 88 10000 2.06 270 08:40 24.09.2022
1689 Clear 21 1015 73 10000 3.6 240 04:55 24.09.2022
1690 Clear 21 1015 73 10000 3.09 240 04:25 24.09.2022
1691 Clear 26 1015 53 10000 3.6 20 23:18 23.09.2022
1692 Clear 30 1014 37 10000 2.06 360 21:40 23.09.2022
1693 Clear 30 1014 37 10000 2.06 360 21:22 23.09.2022
1694 Clear 31 1014 35 10000 2.57 310 20:45 23.09.2022
1695 Clouds 32 1014 33 10000 2.06 0 19:20 23.09.2022
1696 Clouds 32 1014 33 10000 2.06 0 19:20 23.09.2022
1697 Clouds 32 1014 40 10000 3.09 0 16:48 23.09.2022
1698 Clouds 27 1017 54 8000 1.54 0 13:40 23.09.2022
1699 Clouds 20 1017 77 8000 2.06 270 10:18 23.09.2022
1700 Clear 19 1016 77 8000 1.54 260 07:29 23.09.2022
1701 Clear 23 1017 64 8000 2.06 60 01:21 23.09.2022
1702 Clear 25 1016 57 8000 5.66 30 23:29 22.09.2022
1703 Clouds 27 1016 50 10000 4.12 10 22:27 22.09.2022
1704 Clouds 29 1015 42 10000 3.09 350 21:24 22.09.2022
1705 Clouds 30 1015 39 10000 2.57 350 20:18 22.09.2022
1706 Clouds 31 1015 37 10000 2.57 340 18:30 22.09.2022
1707 Clear 30 1017 42 10000 2.06 0 14:49 22.09.2022
1708 Clear 22 1018 78 10000 1.54 250 10:38 22.09.2022
1709 Clear 22 1018 78 10000 1.54 250 10:19 22.09.2022
1710 Clouds 19 1017 82 10000 1.54 250 07:48 22.09.2022
1711 Clear 23 1017 64 10000 1.03 0 04:38 22.09.2022
1712 Clear 24 1018 64 10000 2.06 30 00:25 22.09.2022
1713 Clear 26 1016 57 10000 5.14 20 22:28 21.09.2022
1714 Clouds 30 1015 39 10000 3.6 350 20:55 21.09.2022
1715 Clouds 33 1014 33 10000 5.14 280 18:34 21.09.2022
1716 Clouds 33 1014 31 10000 4.63 270 17:39 21.09.2022
1717 Clouds 31 1015 37 10000 3.6 280 15:35 21.09.2022
1718 Clouds 28 1017 57 10000 2.06 0 13:39 21.09.2022
1719 Clear 25 1017 69 10000 1.54 70 11:34 21.09.2022
1720 Clear 23 1017 68 10000 2.06 80 10:52 21.09.2022
1721 Clear 21 1017 73 10000 1.54 180 09:38 21.09.2022
1722 Clear 21 1017 73 9000 2.06 180 08:24 21.09.2022
1723 Clouds 21 1018 73 10000 2.57 250 02:54 21.09.2022
1724 Clouds 22 1018 73 10000 3.09 240 02:34 21.09.2022
1725 Clouds 22 1018 73 10000 2.57 240 01:50 21.09.2022
1726 Clouds 24 1018 69 8000 2.57 280 23:58 20.09.2022
1727 Clouds 29 1015 48 10000 2.57 130 21:40 20.09.2022
1728 Clouds 29 1015 48 10000 1.03 0 20:26 20.09.2022
1729 Clouds 29 1015 48 10000 3.09 310 17:54 20.09.2022
1730 Clouds 27 1016 54 10000 1.03 0 15:33 20.09.2022
1731 Clouds 26 1017 57 10000 3.09 290 13:59 20.09.2022
1732 Clouds 24 1017 64 10000 2.06 280 11:28 20.09.2022
1733 Clouds 20 1016 77 10000 2.06 250 08:36 20.09.2022
1734 Clouds 20 1016 77 10000 2.57 260 07:37 20.09.2022
1735 Clouds 21 1016 73 10000 3.6 250 04:35 20.09.2022
1736 Clouds 23 1017 68 10000 3.09 340 01:32 20.09.2022
1737 Clouds 28 1015 47 10000 2.57 350 22:41 19.09.2022
1738 Clouds 28 1015 47 10000 2.57 300 21:28 19.09.2022
1739 Clouds 28 1014 47 10000 2.57 0 20:39 19.09.2022
1740 Clouds 30 1014 45 10000 2.57 290 18:43 19.09.2022
1741 Clouds 28 1014 47 10000 1.54 350 18:43 19.09.2022
1742 Clouds 29 1014 48 10000 2.57 0 16:48 19.09.2022
1743 Clouds 27 1015 57 10000 2.06 0 13:47 19.09.2022
1744 Clouds 24 1015 64 10000 1.03 0 11:57 19.09.2022
1745 Clouds 21 1014 73 10000 1.03 0 09:38 19.09.2022
1746 Clouds 21 1013 73 10000 2.06 260 08:20 19.09.2022
1747 Clouds 21 1013 73 10000 2.57 280 03:28 19.09.2022
1748 Clouds 24 1012 60 10000 3.09 320 23:39 18.09.2022
1749 Clouds 25 1011 57 10000 3.6 350 22:29 18.09.2022
1750 Clouds 28 1010 47 10000 4.12 290 20:41 18.09.2022
1751 Clouds 29 1009 45 10000 5.66 270 19:33 18.09.2022
1752 Clouds 29 1009 45 10000 2.57 0 17:51 18.09.2022
1753 Clouds 30 1009 42 10000 3.09 300 16:46 18.09.2022
1754 Clouds 27 1010 54 8000 2.57 0 14:40 18.09.2022
1755 Clouds 25 1010 61 8000 2.06 290 12:58 18.09.2022
1756 Clouds 23 1010 68 8000 1.03 0 11:53 18.09.2022
1757 Clouds 18 1009 82 10000 2.06 240 07:46 18.09.2022
1758 Clouds 22 1010 64 10000 2.06 260 01:41 18.09.2022
1759 Clouds 23 1010 60 10000 0.51 0 01:19 18.09.2022
1760 Clouds 26 1009 53 10000 4.63 350 22:55 17.09.2022
1761 Clouds 29 1008 42 10000 2.06 260 20:51 17.09.2022
1762 Clouds 31 1008 40 10000 2.06 320 19:36 17.09.2022
1763 Clouds 30 1008 39 10000 2.06 0 17:36 17.09.2022
1764 Clouds 26 1011 53 10000 1.54 60 14:22 17.09.2022
1765 Clouds 23 1012 68 10000 1.54 350 12:46 17.09.2022
1766 Clouds 21 1012 73 10000 1.54 30 10:48 17.09.2022
1767 Clouds 19 1012 82 10000 2.06 30 06:35 17.09.2022
1768 Clouds 20 1012 77 10000 3.09 30 04:35 17.09.2022
1769 Clouds 23 1013 60 10000 6.17 30 23:37 16.09.2022
1770 Clouds 26 1012 50 10000 5.14 20 21:47 16.09.2022
1771 Clouds 28 1012 42 10000 3.6 10 20:42 16.09.2022
1772 Clouds 29 1012 39 10000 2.57 40 18:29 16.09.2022
1773 Clouds 29 1013 45 10000 2.06 20 16:22 16.09.2022
1774 Clouds 28 1014 47 10000 2.06 0 14:50 16.09.2022
1775 Clouds 26 1015 61 10000 2.06 0 12:51 16.09.2022
1776 Clouds 20 1015 77 10000 2.06 50 09:39 16.09.2022
1777 Clouds 19 1014 82 10000 2.06 80 07:22 16.09.2022
1778 Clouds 20 1014 77 10000 2.57 50 06:48 16.09.2022
1779 Clouds 20 1015 77 10000 2.57 40 05:43 16.09.2022
1780 Clouds 23 1017 64 10000 3.09 70 01:30 16.09.2022
1781 Clouds 29 1014 37 10000 2.57 50 21:31 15.09.2022
1782 Clouds 30 1014 35 10000 3.09 60 20:29 15.09.2022
1783 Clouds 31 1014 33 10000 2.57 10 18:57 15.09.2022
1784 Clouds 30 1015 37 10000 2.06 0 17:38 15.09.2022
1785 Clouds 30 1015 37 10000 2.06 0 17:18 15.09.2022
1786 Clouds 28 1016 42 10000 3.09 40 15:37 15.09.2022
1787 Clouds 25 1017 57 10000 3.09 70 12:49 15.09.2022
1788 Clouds 24 1017 60 10000 2.57 50 11:47 15.09.2022
1789 Clouds 21 1017 73 10000 3.09 40 09:43 15.09.2022
1790 Clouds 21 1016 73 10000 2.57 30 05:22 15.09.2022
1791 Clouds 22 1017 68 10000 2.06 20 02:57 15.09.2022
1792 Clouds 24 1016 57 10000 4.12 330 22:51 14.09.2022
1793 Clouds 29 1014 37 10000 4.63 280 20:24 14.09.2022
1794 Clouds 30 1014 37 10000 2.57 0 19:32 14.09.2022
1795 Clouds 29 1014 42 10000 2.57 310 17:28 14.09.2022
1796 Clouds 29 1015 42 10000 2.57 350 16:36 14.09.2022
1797 Clouds 27 1015 50 10000 3.6 260 14:47 14.09.2022
1798 Clouds 25 1016 57 10000 1.03 0 12:33 14.09.2022
1799 Clouds 21 1015 68 10000 2.06 260 09:50 14.09.2022
1800 Clouds 20 1014 77 10000 2.06 280 07:47 14.09.2022
1801 Clouds 20 1014 77 10000 3.09 270 06:48 14.09.2022
1802 Clouds 21 1014 73 10000 3.09 270 05:22 14.09.2022
1803 Clouds 22 1014 68 10000 3.6 280 01:55 14.09.2022
1804 Clouds 23 1015 64 10000 3.09 300 01:30 14.09.2022
1805 Clouds 23 1015 64 10000 3.6 290 00:52 14.09.2022
1806 Clouds 24 1015 60 10000 2.57 300 23:54 13.09.2022
1807 Clouds 24 1015 60 10000 3.6 310 23:36 13.09.2022
1808 Clouds 24 1015 60 10000 3.6 310 23:18 13.09.2022
1809 Clouds 25 1014 57 10000 4.63 310 22:22 13.09.2022
1810 Clouds 28 1013 54 10000 4.12 290 20:29 13.09.2022
1811 Clouds 30 1012 51 10000 4.63 310 18:37 13.09.2022
1812 Clouds 28 1013 57 10000 2.06 0 15:58 13.09.2022
1813 Clouds 27 1014 57 8000 1.54 0 14:50 13.09.2022
1814 Clouds 25 1015 65 8000 1.54 0 13:25 13.09.2022
1815 Clouds 21 1014 83 7000 1.54 250 09:49 13.09.2022
1816 Clouds 20 1014 77 8000 2.57 250 07:21 13.09.2022
1817 Clouds 24 1014 60 10000 3.09 260 00:52 13.09.2022
1818 Clouds 26 1014 57 10000 2.57 310 22:51 12.09.2022
1819 Clouds 26 1013 57 10000 3.09 320 22:22 12.09.2022
1820 Clouds 29 1012 42 10000 2.06 240 20:46 12.09.2022
1821 Clouds 30 1012 39 10000 3.09 270 19:22 12.09.2022
1822 Clouds 30 1012 39 10000 3.09 260 17:42 12.09.2022
1823 Clouds 29 1013 42 10000 3.6 280 14:54 12.09.2022
1824 Clouds 27 1013 61 10000 1.54 290 11:51 12.09.2022
1825 Clouds 21 1012 83 8000 3.09 270 09:57 12.09.2022
1826 Clouds 22 1011 78 8000 3.09 260 05:50 12.09.2022
1827 Clouds 23 1011 73 8000 3.09 260 04:30 12.09.2022
1828 Thunderstorm 26 1013 69 8000 3.09 270 23:58 11.09.2022
1829 Thunderstorm 28 1014 57 6000 6.69 240 22:43 11.09.2022
1830 Clouds 31 1012 48 8000 2.06 0 20:53 11.09.2022
1831 Clouds 31 1012 51 8000 3.6 280 20:21 11.09.2022
1832 Clouds 34 1012 40 8000 8.23 240 19:26 11.09.2022
1833 Clouds 37 1012 32 10000 5.14 290 18:37 11.09.2022
1834 Clouds 38 1012 28 10000 6.69 280 16:56 11.09.2022
1835 Clouds 36 1013 34 10000 5.14 310 15:22 11.09.2022
1836 Clouds 32 1014 48 10000 1.54 0 12:54 11.09.2022
1837 Clouds 24 1015 69 10000 1.54 260 09:45 11.09.2022
1838 Clouds 25 1014 65 10000 1.54 200 07:43 11.09.2022
1839 Clouds 27 1015 57 10000 1.54 240 02:55 11.09.2022
1840 Clouds 31 1017 48 10000 4.63 170 23:27 10.09.2022
1841 Clouds 34 1017 36 8000 5.14 200 21:35 10.09.2022
1842 Clouds 35 1015 36 10000 3.6 260 19:56 10.09.2022
1843 Clouds 35 1016 29 10000 2.57 220 19:37 10.09.2022
1844 Clouds 35 1016 29 10000 2.57 220 19:19 10.09.2022
1845 Clouds 36 1016 36 10000 1.03 0 16:58 10.09.2022
1846 Clouds 36 1016 36 10000 4.63 290 15:28 10.09.2022
1847 Clouds 30 1017 54 10000 1.03 0 12:55 10.09.2022
1848 Clouds 30 1017 54 10000 1.03 0 12:55 10.09.2022
1849 Clouds 27 1017 65 10000 1.03 0 11:36 10.09.2022
1850 Clouds 24 1018 78 10000 1.03 0 10:25 10.09.2022
1851 Clouds 22 1017 78 10000 2.57 220 08:37 10.09.2022
1852 Clouds 22 1017 78 10000 2.57 220 08:18 10.09.2022
1853 Clouds 26 1017 57 10000 2.57 230 02:54 10.09.2022
1854 Clouds 31 1018 42 10000 3.6 10 23:35 09.09.2022
1855 Clouds 33 1017 31 10000 2.06 310 22:22 09.09.2022
1856 Clouds 34 1016 29 10000 4.12 240 20:49 09.09.2022
1857 Clouds 36 1015 26 10000 2.06 0 19:26 09.09.2022
1858 Clouds 36 1015 26 10000 1.54 0 18:55 09.09.2022
1859 Clouds 35 1017 29 10000 2.06 0 16:34 09.09.2022
1860 Clouds 31 1018 37 10000 2.06 0 14:28 09.09.2022
1861 Clouds 28 1019 44 10000 1.54 300 12:59 09.09.2022
1862 Clear 21 1018 60 10000 2.57 240 10:37 09.09.2022
1863 Clear 20 1017 60 10000 3.09 240 07:24 09.09.2022
1864 Clear 20 1017 60 10000 3.09 240 07:24 09.09.2022
1865 Clear 20 1017 60 10000 3.09 240 07:24 09.09.2022
1866 Clear 24 1018 50 10000 1.54 20 03:30 09.09.2022
1867 Clouds 30 1017 37 10000 6.17 20 22:19 08.09.2022
1868 Clouds 32 1016 31 10000 4.12 10 21:47 08.09.2022
1869 Clouds 35 1015 24 10000 1.54 0 20:46 08.09.2022
1870 Clouds 35 1015 24 10000 1.54 0 20:24 08.09.2022
1871 Clouds 36 1015 26 10000 2.57 340 18:34 08.09.2022
1872 Clouds 33 1016 31 10000 2.06 0 16:47 08.09.2022
1873 Clouds 31 1017 37 10000 2.06 0 14:50 08.09.2022
1874 Clear 28 1017 44 10000 2.57 330 13:27 08.09.2022
1875 Clear 27 1017 47 10000 1.03 0 12:35 08.09.2022
1876 Clear 23 1017 56 10000 1.54 290 10:59 08.09.2022
1877 Clear 20 1017 64 10000 2.06 250 09:26 08.09.2022
1878 Clear 21 1016 60 10000 1.03 0 06:43 08.09.2022
1879 Clear 23 1017 56 10000 2.06 70 03:18 08.09.2022
1880 Clear 24 1017 53 10000 2.57 40 02:36 08.09.2022
1881 Clear 24 1017 53 10000 2.57 40 02:18 08.09.2022
1882 Clear 27 1017 39 10000 5.14 30 22:56 07.09.2022
1883 Clear 29 1016 34 10000 5.66 10 21:44 07.09.2022
1884 Clouds 30 1015 32 10000 5.66 360 21:20 07.09.2022
1885 Clouds 33 1015 29 10000 4.12 350 20:22 07.09.2022
1886 Clouds 34 1015 27 10000 2.57 10 18:41 07.09.2022
1887 Clear 31 1017 37 10000 2.57 340 15:41 07.09.2022
1888 Clear 22 1018 64 10000 1.54 300 10:51 07.09.2022
1889 Clear 21 1018 68 10000 2.06 240 10:30 07.09.2022
1890 Clouds 19 1017 72 10000 1.54 240 07:43 07.09.2022
1891 Clouds 21 1018 64 10000 1.03 0 04:46 07.09.2022
1892 Clouds 25 1019 50 10000 4.12 40 00:26 07.09.2022
1893 Clouds 29 1018 39 10000 4.63 10 21:47 06.09.2022
1894 Clouds 31 1017 33 10000 3.09 120 21:27 06.09.2022
1895 Clouds 32 1017 29 10000 1.54 0 19:22 06.09.2022
1896 Clouds 32 1018 29 10000 1.03 0 18:27 06.09.2022
1897 Clouds 31 1018 33 10000 2.06 290 17:23 06.09.2022
1898 Clear 30 1019 37 10000 2.06 330 16:40 06.09.2022
1899 Clear 29 1019 39 10000 3.09 290 15:23 06.09.2022
1900 Clouds 28 1020 44 10000 3.09 300 13:46 06.09.2022
1901 Clouds 27 1020 50 10000 2.57 320 13:26 06.09.2022
1902 Clouds 25 1020 53 10000 2.57 320 12:37 06.09.2022
1903 Clouds 22 1020 60 10000 2.57 250 10:52 06.09.2022
1904 Clouds 18 1019 68 10000 3.09 240 08:56 06.09.2022
1905 Clear 20 1019 60 10000 2.57 240 07:52 06.09.2022
1906 Clear 23 1019 53 10000 1.54 100 04:48 06.09.2022
1907 Clouds 27 1021 39 10000 3.09 50 23:52 05.09.2022
1908 Clouds 28 1020 36 10000 5.14 30 22:41 05.09.2022
1909 Clouds 32 1019 29 10000 3.6 360 20:59 05.09.2022
1910 Clouds 33 1019 25 10000 4.12 360 19:50 05.09.2022
1911 Clouds 36 1018 21 10000 4.63 360 18:49 05.09.2022
1912 Clouds 35 1018 23 10000 3.09 330 18:23 05.09.2022
1913 Clouds 35 1019 24 10000 2.06 360 17:31 05.09.2022
1914 Clouds 33 1019 27 10000 2.06 0 15:52 05.09.2022
1915 Clouds 28 1021 39 10000 3.09 290 13:39 05.09.2022
1916 Clouds 27 1021 44 10000 1.54 280 12:29 05.09.2022
1917 Clouds 22 1021 60 10000 1.54 260 10:34 05.09.2022
1918 Clear 19 1020 68 10000 1.54 250 07:43 05.09.2022
1919 Clear 24 1020 53 10000 1.54 50 02:50 05.09.2022
1920 Clouds 26 1020 44 10000 5.14 30 23:40 04.09.2022
1921 Clouds 28 1019 39 10000 6.17 20 22:28 04.09.2022
1922 Clouds 31 1018 35 10000 4.12 10 21:40 04.09.2022
1923 Clouds 34 1017 27 10000 3.09 330 19:39 04.09.2022
1924 Clouds 35 1017 26 10000 2.06 0 18:21 04.09.2022
1925 Clouds 34 1017 27 10000 1.54 0 17:22 04.09.2022
1926 Clear 31 1018 37 10000 2.06 0 14:56 04.09.2022
1927 Clear 30 1018 42 10000 2.57 340 14:18 04.09.2022
1928 Clear 26 1019 53 10000 1.54 0 12:21 04.09.2022
1929 Clear 22 1019 64 10000 1.54 0 10:47 04.09.2022
1930 Clear 19 1017 68 10000 0.51 0 08:21 04.09.2022
1931 Clear 20 1017 68 10000 2.57 240 06:21 04.09.2022
1932 Clear 25 1017 53 10000 2.57 40 01:31 04.09.2022
1933 Clouds 28 1016 47 10000 5.66 20 22:26 03.09.2022
1934 Clouds 30 1015 39 10000 4.12 360 21:24 03.09.2022
1935 Clouds 32 1015 35 10000 4.12 330 20:26 03.09.2022
1936 Clouds 34 1014 33 10000 2.57 280 17:35 03.09.2022
1937 Clouds 32 1015 35 10000 3.09 310 16:33 03.09.2022
1938 Clouds 31 1016 45 10000 2.06 360 14:47 03.09.2022
1939 Clouds 30 1016 48 10000 2.06 0 14:26 03.09.2022
1940 Clouds 28 1017 54 10000 1.54 0 13:21 03.09.2022
1941 Clouds 23 1017 73 10000 2.57 280 10:55 03.09.2022
1942 Clouds 20 1017 83 10000 3.6 250 08:41 03.09.2022
1943 Clouds 21 1016 78 10000 2.57 240 06:58 03.09.2022
1944 Clouds 24 1015 53 10000 3.6 250 04:40 03.09.2022
1945 Clouds 28 1016 44 10000 2.06 70 00:41 03.09.2022
1946 Clouds 29 1016 39 10000 3.09 70 23:20 02.09.2022
1947 Clouds 31 1015 37 10000 4.12 40 21:19 02.09.2022
1948 Clouds 32 1015 37 10000 4.12 360 20:39 02.09.2022
1949 Clouds 33 1016 35 10000 2.06 20 19:30 02.09.2022
1950 Clouds 34 1015 33 10000 2.06 0 18:43 02.09.2022
1951 Clouds 34 1015 31 10000 2.06 0 18:24 02.09.2022
1952 Clouds 34 1016 33 10000 2.06 260 16:49 02.09.2022
1953 Clouds 34 1016 36 10000 1.54 0 15:35 02.09.2022
1954 Clouds 30 1017 42 10000 1.54 270 12:43 02.09.2022
1955 Clouds 26 1017 53 10000 0.51 0 10:25 02.09.2022
1956 Clouds 24 1017 60 10000 0.51 0 09:41 02.09.2022
1957 Clouds 22 1017 64 10000 2.57 230 07:54 02.09.2022
1958 Clouds 22 1017 68 10000 1.54 250 06:41 02.09.2022
1959 Clouds 24 1017 60 10000 1.54 230 03:52 02.09.2022
1960 Clouds 27 1018 57 10000 2.06 80 22:45 01.09.2022
1961 Clouds 28 1017 61 10000 3.6 170 21:44 01.09.2022
1962 Clouds 27 1017 61 10000 1.54 0 21:25 01.09.2022
1963 Clouds 27 1017 61 4000 2.06 260 20:46 01.09.2022
1964 Clouds 36 1014 32 7000 6.69 20 18:57 01.09.2022
1965 Clouds 39 1014 24 10000 2.06 0 17:33 01.09.2022
1966 Clouds 40 1014 25 10000 2.06 0 15:59 01.09.2022
1967 Clouds 36 1014 34 8000 2.57 10 14:33 01.09.2022
1968 Clouds 33 1016 38 8000 2.06 0 12:58 01.09.2022
1969 Clouds 32 1016 37 8000 1.03 0 11:53 01.09.2022
1970 Clouds 31 1016 40 8000 1.03 0 11:32 01.09.2022
1971 Clouds 28 1016 44 8000 2.06 340 10:38 01.09.2022
1972 Clouds 25 1016 50 8000 0 0 08:30 01.09.2022
1973 Clouds 26 1016 50 8000 2.06 260 06:23 01.09.2022
1974 Clouds 30 1018 42 8000 0.51 0 01:33 01.09.2022
1975 Clouds 30 1018 39 8000 3.6 50 00:18 01.09.2022
1976 Clouds 35 1016 36 8000 5.14 20 21:33 31.08.2022
1977 Clouds 38 1015 25 8000 3.09 20 19:50 31.08.2022
1978 Clouds 38 1016 25 8000 3.09 360 18:18 31.08.2022
1979 Clouds 39 1016 27 8000 3.6 10 16:23 31.08.2022
1980 Clouds 36 1018 32 8000 2.06 50 14:32 31.08.2022
1981 Clouds 30 1019 45 8000 3.09 120 12:23 31.08.2022
1982 Clouds 29 1018 48 8000 2.06 50 11:26 31.08.2022
1983 Clouds 23 1018 60 8000 1.54 70 08:54 31.08.2022
1984 Clouds 25 1018 57 8000 2.57 100 05:26 31.08.2022
1985 Clouds 29 1019 48 8000 3.6 60 23:20 30.08.2022
1986 Clouds 30 1018 45 6000 5.14 40 21:41 30.08.2022
1987 Clouds 31 1018 42 6000 4.63 40 20:57 30.08.2022
1988 Clouds 30 1019 48 8000 5.14 40 18:32 30.08.2022
1989 Clouds 30 1020 48 8000 2.57 240 15:23 30.08.2022
1990 Clouds 28 1021 51 8000 3.09 270 13:24 30.08.2022
1991 Clouds 26 1019 57 6000 7.2 260 11:22 30.08.2022
1992 Clouds 26 1019 57 6000 7.2 260 10:49 30.08.2022
1993 Clouds 30 1015 39 8000 1.54 150 07:42 30.08.2022
1994 Clouds 32 1017 35 6000 3.6 160 02:32 30.08.2022
1995 Clouds 30 1016 48 8000 3.09 300 23:20 29.08.2022
1996 Clouds 31 1015 45 8000 2.06 260 22:24 29.08.2022
1997 Clouds 32 1014 43 6000 2.57 230 21:25 29.08.2022
1998 Clouds 34 1014 38 6000 2.06 310 19:52 29.08.2022
1999 Clouds 35 1014 34 6000 5.14 250 17:52 29.08.2022
2000 Clouds 35 1013 34 6000 5.66 240 17:24 29.08.2022
2001 Clouds 36 1013 34 8000 5.14 290 16:37 29.08.2022
2002 Clouds 32 1014 43 8000 3.6 290 14:45 29.08.2022
2003 Clouds 28 1014 51 8000 2.06 0 12:53 29.08.2022
2004 Clouds 25 1014 61 8000 1.54 310 11:19 29.08.2022
2005 Clouds 20 1014 77 10000 1.54 230 09:45 29.08.2022
2006 Clouds 20 1014 73 10000 1.54 250 08:29 29.08.2022
2007 Clear 21 1013 68 10000 3.09 250 04:57 29.08.2022
2008 Clouds 26 1013 53 10000 2.06 50 00:20 29.08.2022
2009 Clouds 27 1012 50 10000 2.57 350 22:37 28.08.2022
2010 Clouds 28 1012 47 10000 3.6 270 21:43 28.08.2022
2011 Clouds 31 1011 40 10000 5.66 280 20:54 28.08.2022
2012 Clouds 33 1010 38 10000 4.63 240 19:23 28.08.2022
2013 Clouds 34 1010 38 10000 2.57 0 18:20 28.08.2022
2014 Clouds 33 1010 40 10000 2.57 0 16:58 28.08.2022
2015 Clouds 32 1011 40 10000 3.09 300 16:22 28.08.2022
2016 Clouds 29 1011 51 10000 3.09 320 14:36 28.08.2022
2017 Clear 26 1011 57 10000 2.06 0 12:32 28.08.2022
2018 Clear 21 1010 73 10000 2.06 280 10:42 28.08.2022
2019 Clear 19 1010 77 10000 2.06 250 09:41 28.08.2022
2020 Clear 19 1010 72 10000 2.06 250 08:37 28.08.2022
2021 Clear 19 1010 72 10000 2.06 250 07:42 28.08.2022
2022 Clear 23 1011 60 10000 2.06 20 02:31 28.08.2022
2023 Clear 24 1011 57 10000 3.6 20 00:25 28.08.2022
2024 Clouds 27 1010 50 10000 4.12 30 22:32 27.08.2022
2025 Clouds 29 1009 45 8000 4.63 350 21:24 27.08.2022
2026 Clouds 32 1010 40 8000 2.06 0 19:39 27.08.2022
2027 Clouds 30 1010 45 8000 2.57 0 16:48 27.08.2022
2028 Clouds 29 1011 51 8000 3.09 310 15:52 27.08.2022
2029 Clouds 28 1011 54 8000 2.06 20 15:23 27.08.2022
2030 Clouds 23 1012 73 8000 1.54 290 12:23 27.08.2022
2031 Clouds 21 1012 78 8000 2.57 280 11:24 27.08.2022
2032 Clouds 20 1012 77 6000 3.6 240 09:40 27.08.2022
2033 Clear 20 1012 83 10000 3.6 240 07:31 27.08.2022
2034 Clear 23 1012 68 10000 3.6 240 02:33 27.08.2022
2035 Clouds 27 1012 50 10000 3.09 40 23:55 26.08.2022
2036 Clouds 30 1011 42 10000 5.14 350 22:31 26.08.2022
2037 Clouds 35 1010 31 10000 3.09 340 20:39 26.08.2022
2038 Clouds 36 1011 32 10000 1.54 230 19:20 26.08.2022
2039 Clouds 34 1012 38 10000 3.09 360 16:46 26.08.2022
2040 Clouds 31 1013 45 10000 2.57 0 15:27 26.08.2022
2041 Clouds 31 1013 45 10000 2.57 0 15:27 26.08.2022
2042 Clouds 29 1014 51 10000 3.09 310 13:46 26.08.2022
2043 Clear 26 1014 65 10000 2.57 310 12:35 26.08.2022
2044 Clear 23 1014 73 10000 2.57 270 11:22 26.08.2022
2045 Clouds 22 1014 78 8000 3.6 240 10:25 26.08.2022
2046 Clouds 21 1014 78 8000 3.09 250 06:50 26.08.2022
2047 Clouds 28 1015 47 10000 1.54 40 01:28 26.08.2022
2048 Clouds 30 1015 42 10000 3.6 50 23:30 25.08.2022
2049 Clouds 35 1013 29 10000 4.12 350 21:26 25.08.2022
2050 Clouds 36 1013 28 10000 2.57 350 20:26 25.08.2022
2051 Clouds 37 1013 30 10000 1.54 0 18:49 25.08.2022
2052 Clouds 36 1013 32 10000 2.06 0 17:32 25.08.2022
2053 Clouds 36 1014 36 10000 2.06 0 16:50 25.08.2022
2054 Clouds 36 1014 36 10000 2.06 0 16:50 25.08.2022
2055 Clouds 33 1015 40 10000 2.06 0 15:39 25.08.2022
2056 Clouds 31 1015 45 10000 2.57 340 14:31 25.08.2022
2057 Clear 26 1016 61 10000 1.54 0 11:49 25.08.2022
2058 Clear 23 1016 68 10000 2.06 280 10:46 25.08.2022
2059 Clear 21 1015 73 10000 3.09 250 08:52 25.08.2022
2060 Clear 23 1015 64 10000 2.06 240 05:19 25.08.2022
2061 Clear 28 1016 51 10000 5.14 20 00:30 25.08.2022
2062 Clouds 29 1016 48 8000 4.63 30 23:25 24.08.2022
2063 Thunderstorm 32 1015 37 8000 3.09 350 22:21 24.08.2022
2064 Thunderstorm 33 1015 35 8000 3.09 350 21:33 24.08.2022
2065 Clouds 35 1014 31 10000 2.57 350 20:24 24.08.2022
2066 Clouds 35 1014 34 10000 1.54 0 18:39 24.08.2022
2067 Clouds 32 1014 40 10000 2.06 0 16:23 24.08.2022
2068 Clouds 32 1014 43 10000 2.06 0 15:48 24.08.2022
2069 Clouds 27 1016 61 10000 2.57 290 12:53 24.08.2022
2070 Clouds 24 1015 73 10000 3.09 260 11:22 24.08.2022
2071 Clouds 21 1014 83 10000 3.09 250 09:20 24.08.2022
2072 Clouds 21 1014 78 10000 3.6 260 07:43 24.08.2022
2073 Clouds 26 1014 57 10000 3.6 240 01:43 24.08.2022
2074 Clouds 32 1013 35 10000 5.66 50 22:53 23.08.2022
2075 Clouds 34 1013 29 10000 5.14 40 22:24 23.08.2022
2076 Clouds 36 1012 23 10000 3.09 330 21:27 23.08.2022
2077 Clouds 37 1013 18 10000 2.57 260 19:54 23.08.2022
2078 Clouds 38 1012 18 10000 2.57 320 18:30 23.08.2022
2079 Clouds 38 1012 19 10000 2.57 0 17:46 23.08.2022
2080 Clouds 37 1012 23 10000 3.6 290 16:35 23.08.2022
2081 Clouds 35 1013 29 10000 2.06 320 15:20 23.08.2022
2082 Clear 32 1013 43 10000 1.03 0 13:25 23.08.2022
2083 Clear 27 1014 61 10000 1.03 0 11:24 23.08.2022
2084 Clear 24 1014 73 10000 1.03 0 10:35 23.08.2022
2085 Clouds 22 1013 73 8000 2.57 240 09:47 23.08.2022
2086 Clouds 21 1013 78 10000 1.54 260 08:49 23.08.2022
2087 Clear 21 1013 73 10000 1.54 280 08:20 23.08.2022
2088 Clear 22 1013 73 10000 2.06 250 07:34 23.08.2022
2089 Clear 22 1012 73 10000 2.06 250 06:26 23.08.2022
2090 Clear 26 1013 50 10000 3.09 250 01:55 23.08.2022
2091 Clear 29 1013 37 10000 2.57 260 00:27 23.08.2022
2092 Clouds 32 1013 31 10000 1.54 290 23:33 22.08.2022
2093 Clouds 33 1012 29 10000 3.09 330 22:32 22.08.2022
2094 Clouds 35 1011 24 10000 5.66 360 21:24 22.08.2022
2095 Clouds 41 1010 16 10000 4.63 350 19:47 22.08.2022
2096 Clouds 42 1010 12 10000 2.06 0 18:44 22.08.2022
2097 Clouds 42 1011 15 10000 2.06 0 16:31 22.08.2022
2098 Clouds 39 1012 19 10000 2.06 0 15:38 22.08.2022
2099 Clear 36 1013 24 10000 2.06 340 13:44 22.08.2022
2100 Clear 27 1014 41 10000 1.54 250 10:26 22.08.2022
2101 Clouds 25 1014 44 8000 2.06 230 07:58 22.08.2022
2102 Clouds 27 1015 34 8000 2.06 250 03:49 22.08.2022
2103 Clouds 34 1016 20 8000 2.06 50 00:38 22.08.2022
2104 Clouds 34 1016 20 8000 2.06 50 00:18 22.08.2022
2105 Clouds 38 1014 18 8000 4.63 10 22:18 21.08.2022
2106 Clouds 39 1014 16 8000 4.63 360 21:23 21.08.2022
2107 Clouds 42 1013 12 8000 5.66 360 20:27 21.08.2022
2108 Clouds 43 1013 14 8000 1.54 30 19:24 21.08.2022
2109 Clouds 43 1014 15 8000 2.57 0 16:55 21.08.2022
2110 Clouds 42 1015 15 8000 4.12 60 15:53 21.08.2022
2111 Clouds 40 1015 17 8000 3.6 50 15:20 21.08.2022
2112 Clouds 39 1016 19 8000 2.57 10 13:51 21.08.2022
2113 Clouds 39 1016 19 8000 2.06 30 13:24 21.08.2022
2114 Clouds 33 1017 27 8000 1.03 0 11:29 21.08.2022
2115 Clouds 33 1016 25 8000 2.57 260 09:31 21.08.2022
2116 Clouds 32 1015 27 8000 4.63 130 08:56 21.08.2022
2117 Clouds 32 1016 27 8000 3.09 140 08:38 21.08.2022
2118 Clouds 30 1015 28 8000 0.51 0 07:26 21.08.2022
2119 Clouds 34 1017 24 8000 4.63 130 03:39 21.08.2022
2120 Clouds 35 1019 21 8000 2.06 320 23:49 20.08.2022
2121 Clouds 37 1017 23 8000 3.6 330 22:24 20.08.2022
2122 Clouds 38 1016 19 8000 3.09 20 21:26 20.08.2022
2123 Clouds 40 1015 15 8000 3.6 20 20:28 20.08.2022
2124 Clouds 41 1014 13 8000 3.6 30 19:40 20.08.2022
2125 Clouds 43 1014 13 8000 5.14 40 18:27 20.08.2022
2126 Clouds 43 1014 12 10000 5.66 60 17:40 20.08.2022
2127 Clouds 42 1015 12 10000 4.63 40 16:40 20.08.2022
2128 Clouds 41 1015 12 10000 3.6 70 15:26 20.08.2022
2129 Clouds 36 1016 23 10000 6.17 90 12:52 20.08.2022
2130 Clouds 33 1017 29 10000 3.6 260 11:47 20.08.2022
2131 Clouds 29 1015 37 10000 3.09 50 09:33 20.08.2022
2132 Clouds 27 1015 41 10000 1.03 0 08:29 20.08.2022
2133 Clouds 28 1014 39 10000 0.51 0 05:49 20.08.2022
2134 Clouds 31 1016 33 10000 1.03 0 00:58 20.08.2022
2135 Clouds 31 1016 33 10000 2.06 80 00:30 20.08.2022
2136 Clouds 33 1015 29 10000 3.6 30 22:53 19.08.2022
2137 Clouds 37 1013 23 10000 3.09 360 21:38 19.08.2022
2138 Clouds 41 1012 15 10000 3.6 340 19:43 19.08.2022
2139 Clouds 40 1013 18 10000 5.14 270 16:47 19.08.2022
2140 Clouds 39 1013 21 10000 3.09 320 14:51 19.08.2022
2141 Clear 35 1014 28 10000 2.06 360 12:47 19.08.2022
2142 Clear 29 1014 39 10000 1.54 80 10:43 19.08.2022
2143 Clear 27 1014 44 10000 0.51 0 09:59 19.08.2022
2144 Clear 24 1013 46 8000 1.54 260 05:30 19.08.2022
2145 Clear 29 1013 37 10000 1.03 0 00:46 19.08.2022
2146 Clear 30 1013 35 10000 3.09 50 00:22 19.08.2022
2147 Clear 32 1012 29 10000 2.57 360 23:00 18.08.2022
2148 Clear 33 1012 27 10000 4.63 360 22:37 18.08.2022
2149 Clear 35 1012 23 10000 2.57 340 21:53 18.08.2022
2150 Clear 37 1012 22 10000 1.03 0 21:23 18.08.2022
2151 Clear 38 1011 20 10000 1.54 0 19:54 18.08.2022
2152 Clear 38 1011 20 10000 2.06 30 19:24 18.08.2022
2153 Clear 37 1011 26 10000 2.06 0 17:46 18.08.2022
2154 Clear 37 1012 28 10000 1.54 0 16:25 18.08.2022
2155 Clear 32 1013 37 10000 2.57 0 14:22 18.08.2022
2156 Clear 30 1013 42 10000 2.06 0 13:45 18.08.2022
2157 Clear 26 1014 53 10000 2.06 0 12:31 18.08.2022
2158 Clear 24 1014 60 10000 0.51 0 11:23 18.08.2022
2159 Clear 20 1014 73 8000 1.54 260 09:43 18.08.2022
2160 Clear 18 1014 77 8000 2.06 260 08:31 18.08.2022
2161 Clear 18 1013 72 8000 2.06 250 07:18 18.08.2022
2162 Clear 23 1013 60 8000 2.57 30 02:59 18.08.2022
2163 Clear 27 1013 47 8000 5.66 10 22:51 17.08.2022
2164 Clear 32 1012 27 10000 3.6 30 21:28 17.08.2022
2165 Clear 33 1011 25 10000 3.6 60 19:59 17.08.2022
2166 Clear 33 1011 27 10000 3.09 10 18:39 17.08.2022
2167 Clear 32 1012 27 10000 3.09 20 17:28 17.08.2022
2168 Clear 31 1013 30 10000 3.6 30 16:21 17.08.2022
2169 Clear 29 1013 37 10000 3.09 0 14:48 17.08.2022
2170 Clear 25 1014 57 10000 3.09 360 12:50 17.08.2022
2171 Clear 22 1014 68 10000 2.57 30 11:36 17.08.2022
2172 Clear 19 1014 77 10000 2.57 50 09:30 17.08.2022
2173 Clear 19 1014 72 10000 4.12 50 07:36 17.08.2022
2174 Clear 23 1014 56 10000 2.57 60 02:21 17.08.2022
2175 Clear 24 1014 53 10000 5.66 30 23:45 16.08.2022
2176 Clear 29 1012 39 10000 5.14 350 21:52 16.08.2022
2177 Clear 32 1011 31 10000 2.57 350 20:51 16.08.2022
2178 Clear 33 1011 29 10000 3.09 10 19:50 16.08.2022
2179 Clear 33 1012 31 10000 2.06 0 18:23 16.08.2022
2180 Clear 32 1012 33 10000 3.09 10 17:40 16.08.2022
2181 Clouds 30 1013 42 10000 2.06 0 15:46 16.08.2022
2182 Clouds 29 1013 45 10000 2.06 0 14:55 16.08.2022
2183 Clouds 29 1013 48 10000 2.57 0 14:37 16.08.2022
2184 Clouds 26 1014 57 10000 1.54 0 12:43 16.08.2022
2185 Clouds 21 1014 78 10000 3.6 260 10:35 16.08.2022
2186 Clouds 20 1014 77 10000 4.12 240 09:43 16.08.2022
2187 Clouds 19 1014 82 10000 4.12 240 08:43 16.08.2022
2188 Clouds 19 1013 77 10000 3.6 240 07:23 16.08.2022
2189 Clouds 26 1014 47 10000 4.12 30 01:35 16.08.2022
2190 Clouds 30 1013 35 10000 3.6 30 22:29 15.08.2022
2191 Clouds 31 1013 33 10000 2.57 10 21:53 15.08.2022
2192 Clouds 31 1012 35 10000 3.6 350 20:48 15.08.2022
2193 Clouds 32 1012 31 10000 2.57 340 20:19 15.08.2022
2194 Clouds 32 1013 31 10000 2.06 0 18:36 15.08.2022
2195 Clouds 33 1014 31 10000 2.57 0 16:47 15.08.2022
2196 Clouds 32 1014 33 10000 3.09 270 16:21 15.08.2022
2197 Clouds 29 1015 45 10000 2.06 0 13:55 15.08.2022
2198 Clouds 26 1015 53 10000 2.06 0 12:29 15.08.2022
2199 Clouds 23 1015 60 10000 2.06 240 09:59 15.08.2022
2200 Clouds 22 1014 64 8000 1.54 100 08:22 15.08.2022
2201 Clear 24 1013 57 10000 1.54 0 06:20 15.08.2022
2202 Clear 26 1016 50 10000 2.06 20 02:19 15.08.2022
2203 Clouds 31 1016 37 8000 4.63 20 22:39 14.08.2022
2204 Clouds 32 1015 40 8000 4.63 340 21:39 14.08.2022
2205 Clouds 33 1014 40 8000 2.57 330 20:21 14.08.2022
2206 Clouds 33 1015 40 8000 3.6 320 19:30 14.08.2022
2207 Clouds 34 1014 40 8000 3.6 330 18:19 14.08.2022
2208 Clouds 34 1015 38 8000 3.09 360 16:54 14.08.2022
2209 Clouds 32 1015 43 8000 3.09 330 15:51 14.08.2022
2210 Clouds 30 1015 51 8000 4.12 270 14:36 14.08.2022
2211 Clouds 30 1015 51 8000 3.6 280 13:50 14.08.2022
2212 Clouds 30 1015 54 8000 3.09 280 13:22 14.08.2022
2213 Clouds 28 1015 61 8000 3.09 260 12:34 14.08.2022
2214 Clouds 26 1015 69 8000 2.57 270 10:55 14.08.2022
2215 Clouds 23 1014 73 8000 3.6 240 08:53 14.08.2022
2216 Clouds 24 1013 64 8000 3.09 260 06:22 14.08.2022
2217 Clouds 29 1013 51 8000 1.03 0 03:48 14.08.2022
2218 Clouds 30 1015 48 8000 3.6 40 00:39 14.08.2022
2219 Clouds 32 1014 40 8000 3.09 350 22:56 13.08.2022
2220 Clouds 34 1014 38 8000 3.09 340 21:47 13.08.2022
2221 Clouds 36 1013 32 8000 4.63 330 20:47 13.08.2022
2222 Clouds 37 1012 30 8000 3.6 310 19:46 13.08.2022
2223 Clouds 38 1012 34 8000 3.6 320 18:19 13.08.2022
2224 Clouds 38 1012 32 8000 3.6 280 15:57 13.08.2022
2225 Clouds 35 1013 38 8000 3.6 290 14:40 13.08.2022
2226 Clouds 34 1013 38 8000 3.6 300 13:46 13.08.2022
2227 Clouds 31 1013 48 10000 2.57 0 11:59 13.08.2022
2228 Clouds 28 1013 57 10000 2.06 270 10:33 13.08.2022
2229 Clouds 25 1012 65 10000 1.03 0 09:22 13.08.2022
2230 Clear 26 1012 57 10000 1.54 260 05:59 13.08.2022
2231 Clouds 31 1014 45 10000 2.57 290 00:36 13.08.2022
2232 Clouds 34 1013 38 8000 2.57 30 22:26 12.08.2022
2233 Clouds 37 1012 32 8000 4.12 330 21:35 12.08.2022
2234 Clouds 40 1011 25 8000 4.63 340 19:46 12.08.2022
2235 Clouds 42 1010 23 8000 4.12 330 19:21 12.08.2022
2236 Clouds 42 1010 23 8000 5.14 300 17:58 12.08.2022
2237 Clouds 42 1012 21 8000 3.6 290 16:25 12.08.2022
2238 Clouds 39 1012 27 8000 3.09 340 14:50 12.08.2022
2239 Clear 35 1013 34 10000 2.57 300 13:26 12.08.2022
2240 Clear 30 1013 45 10000 1.54 240 11:40 12.08.2022
2241 Clear 25 1013 53 10000 1.54 250 08:50 12.08.2022
2242 Clear 25 1013 53 10000 2.06 250 07:45 12.08.2022
2243 Clear 28 1013 47 10000 0.51 0 03:56 12.08.2022
2244 Clouds 30 1015 42 8000 2.06 40 00:31 12.08.2022
2245 Clouds 31 1015 40 8000 2.06 10 23:52 11.08.2022
2246 Clouds 32 1014 37 8000 3.09 30 22:42 11.08.2022
2247 Clouds 34 1014 31 8000 3.6 10 21:52 11.08.2022
2248 Clouds 34 1013 31 8000 4.12 360 21:23 11.08.2022
2249 Clouds 36 1013 26 8000 2.06 320 20:30 11.08.2022
2250 Clouds 38 1012 23 8000 3.09 330 19:33 11.08.2022
2251 Clouds 37 1012 25 8000 3.09 340 18:41 11.08.2022
2252 Clouds 36 1013 30 8000 1.03 0 16:46 11.08.2022
2253 Clouds 34 1014 33 8000 2.57 330 15:42 11.08.2022
2254 Clouds 34 1014 33 8000 2.57 330 15:42 11.08.2022
2255 Clear 32 1014 37 10000 2.57 70 14:31 11.08.2022
2256 Clear 26 1015 53 10000 1.54 0 11:53 11.08.2022
2257 Clear 20 1015 73 10000 2.06 250 08:48 11.08.2022
2258 Clear 22 1014 60 10000 2.57 260 05:44 11.08.2022
2259 Clear 27 1014 47 10000 1.54 30 02:26 11.08.2022
2260 Clear 31 1014 35 10000 5.14 360 22:55 10.08.2022
2261 Clear 33 1013 29 10000 3.09 340 21:45 10.08.2022
2262 Clear 34 1013 31 10000 3.09 330 20:56 10.08.2022
2263 Clear 34 1013 33 10000 3.09 350 20:24 10.08.2022
2264 Clear 35 1013 31 10000 2.06 0 18:46 10.08.2022
2265 Clear 36 1014 34 10000 2.06 0 17:26 10.08.2022
2266 Clear 30 1015 45 8000 2.06 0 14:25 10.08.2022
2267 Clear 26 1016 57 8000 1.54 0 12:54 10.08.2022
2268 Clear 21 1016 73 8000 3.09 260 10:31 10.08.2022
2269 Clear 19 1015 77 8000 3.09 240 08:37 10.08.2022
2270 Clear 20 1014 73 8000 2.57 250 07:23 10.08.2022
2271 Clear 21 1015 68 8000 2.57 240 04:50 10.08.2022
2272 Clear 25 1016 53 8000 2.57 40 00:50 10.08.2022
2273 Clear 27 1016 47 8000 4.12 40 23:29 09.08.2022
2274 Clear 31 1015 37 10000 4.63 340 21:41 09.08.2022
2275 Clear 33 1014 29 8000 4.63 350 21:22 09.08.2022
2276 Clear 36 1014 30 8000 2.06 0 18:56 09.08.2022
2277 Clear 34 1014 33 8000 2.57 290 17:31 09.08.2022
2278 Clear 34 1014 36 8000 2.06 0 16:46 09.08.2022
2279 Clear 33 1014 38 8000 2.06 0 16:22 09.08.2022
2280 Clear 31 1015 42 8000 2.06 0 14:50 09.08.2022
2281 Clear 24 1016 64 8000 1.54 0 11:29 09.08.2022
2282 Clear 19 1016 82 8000 2.57 240 08:52 09.08.2022
2283 Clear 19 1016 82 8000 3.09 240 07:58 09.08.2022
2284 Clear 20 1015 73 8000 3.09 250 05:24 09.08.2022
2285 Clear 26 1016 50 10000 2.57 330 00:36 09.08.2022
2286 Clear 27 1016 50 10000 4.12 350 23:24 08.08.2022
2287 Clear 29 1014 42 10000 6.17 360 22:40 08.08.2022
2288 Clear 31 1014 37 10000 6.69 360 21:44 08.08.2022
2289 Clear 35 1013 24 10000 4.63 350 20:39 08.08.2022
2290 Clear 36 1013 24 10000 4.63 340 19:35 08.08.2022
2291 Clouds 36 1013 24 10000 3.6 350 18:18 08.08.2022
2292 Clouds 35 1014 28 10000 4.12 320 15:54 08.08.2022
2293 Clouds 34 1014 31 10000 2.57 0 15:36 08.08.2022
2294 Clear 28 1016 51 10000 1.54 0 12:30 08.08.2022
2295 Clear 24 1017 69 10000 0.51 0 10:33 08.08.2022
2296 Clear 20 1016 77 10000 3.09 240 07:59 08.08.2022
2297 Clear 22 1017 64 10000 3.09 230 04:31 08.08.2022
2298 Clear 27 1017 44 10000 2.57 80 00:33 08.08.2022
2299 Clear 34 1015 24 10000 4.12 340 21:42 07.08.2022
2300 Clear 34 1015 24 10000 4.12 340 21:19 07.08.2022
2301 Clear 36 1014 19 10000 3.6 330 20:23 07.08.2022
2302 Clear 37 1014 18 10000 3.6 320 19:52 07.08.2022
2303 Clear 36 1014 19 10000 3.6 320 19:22 07.08.2022
2304 Clear 36 1015 23 10000 2.57 360 17:31 07.08.2022
2305 Clear 36 1015 23 10000 3.6 340 16:52 07.08.2022
2306 Clear 34 1016 31 10000 3.09 310 15:39 07.08.2022
2307 Clear 31 1017 48 10000 2.06 0 13:58 07.08.2022
2308 Clear 28 1018 54 10000 3.09 260 12:41 07.08.2022
2309 Clear 23 1018 68 10000 2.57 260 10:51 07.08.2022
2310 Clear 22 1018 73 10000 3.6 240 10:20 07.08.2022
2311 Clouds 24 1016 60 10000 3.6 240 04:37 07.08.2022
2312 Clouds 27 1017 47 10000 2.57 240 02:25 07.08.2022
2313 Clouds 35 1015 26 10000 4.63 360 22:39 06.08.2022
2314 Clouds 35 1015 26 10000 4.63 360 22:18 06.08.2022
2315 Clouds 40 1014 16 10000 2.57 360 19:46 06.08.2022
2316 Clouds 40 1014 16 10000 3.09 330 18:49 06.08.2022
2317 Clouds 40 1015 17 10000 3.09 330 17:45 06.08.2022
2318 Clouds 40 1015 17 10000 2.06 340 16:29 06.08.2022
2319 Clear 35 1016 31 10000 1.54 0 13:51 06.08.2022
2320 Clear 31 1016 40 10000 1.54 0 12:38 06.08.2022
2321 Clear 29 1016 48 10000 1.54 30 11:21 06.08.2022
2322 Clear 24 1016 60 10000 1.54 270 09:41 06.08.2022
2323 Clear 23 1015 64 10000 2.06 220 07:28 06.08.2022
2324 Clear 29 1016 39 10000 1.54 50 01:47 06.08.2022
2325 Clear 35 1014 29 10000 4.12 10 22:36 05.08.2022
2326 Clouds 38 1013 19 10000 4.63 350 21:18 05.08.2022
2327 Clouds 41 1013 13 10000 3.6 330 19:20 05.08.2022
2328 Clouds 41 1013 11 10000 3.6 320 18:44 05.08.2022
2329 Clear 40 1013 21 10000 2.57 350 16:53 05.08.2022
2330 Clear 39 1013 22 10000 2.57 300 15:55 05.08.2022
2331 Clear 37 1014 28 10000 2.57 340 14:54 05.08.2022
2332 Clear 35 1014 29 10000 1.54 0 13:39 05.08.2022
2333 Clear 35 1014 29 10000 1.54 0 13:19 05.08.2022
2334 Clear 31 1015 40 10000 1.54 0 11:58 05.08.2022
2335 Clouds 27 1014 54 10000 1.03 0 10:24 05.08.2022
2336 Clear 22 1013 64 10000 1.54 270 07:57 05.08.2022
2337 Clear 23 1014 60 10000 2.57 250 04:48 05.08.2022
2338 Clouds 31 1014 35 10000 2.57 340 23:49 04.08.2022
2339 Clouds 37 1012 22 10000 4.12 320 21:37 04.08.2022
2340 Clouds 37 1012 22 10000 4.12 320 21:18 04.08.2022
2341 Clouds 39 1011 19 10000 4.12 340 20:38 04.08.2022
2342 Clouds 40 1011 17 10000 4.63 340 19:00 04.08.2022
2343 Clouds 41 1011 16 10000 2.06 30 18:34 04.08.2022
2344 Clouds 40 1012 18 10000 2.57 0 15:59 04.08.2022
2345 Clouds 34 1012 31 10000 3.09 350 13:34 04.08.2022
2346 Clouds 30 1013 45 10000 2.06 90 11:42 04.08.2022
2347 Clouds 25 1013 65 10000 1.03 0 10:24 04.08.2022
2348 Clouds 21 1013 73 10000 2.06 260 07:49 04.08.2022
2349 Clouds 27 1013 47 10000 2.57 250 03:29 04.08.2022
2350 Clouds 30 1014 37 10000 1.54 80 01:42 04.08.2022
2351 Clouds 32 1014 33 10000 3.09 20 23:41 03.08.2022
2352 Clouds 37 1012 23 10000 5.14 350 21:34 03.08.2022
2353 Clouds 40 1011 18 10000 4.63 340 20:22 03.08.2022
2354 Clouds 41 1011 17 10000 4.12 340 20:22 03.08.2022
2355 Clouds 41 1009 11 10000 7.6 336 19:28 03.08.2022
2356 Clouds 42 1012 12 10000 2.57 0 17:20 03.08.2022
2357 Clouds 40 1012 24 10000 3.09 310 16:23 03.08.2022
2358 Clouds 36 1013 34 10000 4.12 320 14:23 03.08.2022
2359 Clouds 31 1014 42 10000 2.57 280 11:46 03.08.2022
2360 Clouds 25 1013 61 8000 2.57 260 07:45 03.08.2022
2361 Clouds 29 1012 48 8000 4.12 250 04:46 03.08.2022
2362 Clouds 32 1012 33 8000 2.57 260 03:26 03.08.2022
2363 Clouds 36 1013 23 8000 3.09 40 00:58 03.08.2022
2364 Clouds 37 1013 23 8000 4.12 250 22:49 02.08.2022
2365 Clouds 39 1013 19 6000 4.63 300 21:52 02.08.2022
2366 Dust 39 1012 19 2000 5.66 290 20:37 02.08.2022
2367 Clouds 43 1011 12 10000 3.09 110 18:42 02.08.2022
2368 Clouds 45 1011 11 10000 2.06 0 15:36 02.08.2022
2369 Clouds 38 1013 18 10000 1.54 40 11:32 02.08.2022
2370 Clouds 34 1013 21 10000 2.06 30 09:18 02.08.2022
2371 Clouds 34 1012 21 10000 2.06 170 07:53 02.08.2022
2372 Clear 35 1012 20 10000 2.57 150 06:43 02.08.2022
2373 Clear 34 1013 22 10000 1.03 0 04:54 02.08.2022
2374 Clouds 40 1014 15 10000 2.06 0 23:38 01.08.2022
2375 Clouds 40 1013 15 8000 5.66 30 22:24 01.08.2022
2376 Dust 41 1012 14 3000 6.69 350 20:52 01.08.2022
2377 Clouds 44 1012 13 8000 4.12 10 19:25 01.08.2022
2378 Dust 43 1012 13 5000 6.17 70 18:40 01.08.2022
2379 Clouds 45 1012 9 10000 2.06 150 16:53 01.08.2022
2380 Clouds 46 1012 11 10000 2.57 0 15:52 01.08.2022
2381 Clouds 45 1012 11 10000 3.6 360 15:30 01.08.2022
2382 Clouds 45 1013 12 10000 2.06 0 14:43 01.08.2022
2383 Clouds 41 1014 20 8000 2.06 360 12:47 01.08.2022
2384 Clouds 32 1014 31 8000 2.06 90 09:43 01.08.2022
2385 Clouds 28 1014 39 8000 2.06 70 08:34 01.08.2022
2386 Clouds 32 1014 35 8000 0.51 0 04:56 01.08.2022
2387 Clouds 34 1014 31 8000 1.54 130 03:49 01.08.2022
2388 Clouds 36 1016 26 8000 5.14 220 00:36 01.08.2022
2389 Clouds 40 1013 18 8000 4.12 360 22:40 31.07.2022
2390 Clouds 41 1012 16 10000 5.14 360 21:29 31.07.2022
2391 Clouds 44 1011 10 10000 3.6 50 19:56 31.07.2022
2392 Clouds 46 1011 8 10000 3.09 10 18:35 31.07.2022
2393 Clouds 45 1013 9 10000 4.63 30 15:45 31.07.2022
2394 Clouds 44 1014 10 10000 2.06 0 13:44 31.07.2022
2395 Clouds 37 1014 22 10000 2.06 70 11:59 31.07.2022
2396 Clouds 31 1014 30 10000 2.06 80 09:55 31.07.2022
2397 Clear 26 1014 47 10000 0.51 0 07:59 31.07.2022
2398 Clear 29 1015 39 10000 1.54 250 03:28 31.07.2022
2399 Clouds 34 1016 31 10000 1.54 40 23:46 30.07.2022
2400 Clouds 37 1014 26 10000 3.6 350 22:19 30.07.2022
2401 Clouds 38 1013 23 10000 3.6 360 21:49 30.07.2022
2402 Clouds 40 1012 21 10000 5.14 340 20:57 30.07.2022
2403 Clouds 40 1012 21 10000 5.14 340 20:57 30.07.2022
2404 Clouds 43 1011 17 10000 5.14 360 19:59 30.07.2022
2405 Clouds 45 1011 13 10000 4.12 320 18:53 30.07.2022
2406 Clouds 45 1011 11 10000 3.6 350 17:44 30.07.2022
2407 Clouds 42 1012 20 10000 2.57 340 15:54 30.07.2022
2408 Clouds 41 1013 24 10000 3.6 340 15:24 30.07.2022
2409 Clear 34 1014 38 10000 2.57 10 13:19 30.07.2022
2410 Clear 32 1014 43 10000 1.54 0 12:19 30.07.2022
2411 Clear 28 1014 54 10000 1.03 0 10:31 30.07.2022
2412 Clear 28 1014 54 10000 1.03 0 10:31 30.07.2022
2413 Clear 27 1014 57 10000 2.06 60 09:56 30.07.2022
2414 Clear 25 1014 61 10000 2.06 80 07:55 30.07.2022
2415 Clear 27 1014 54 10000 1.03 0 03:55 30.07.2022
2416 Clear 29 1015 48 10000 1.54 60 02:25 30.07.2022
2417 Clouds 33 1014 38 10000 4.63 20 22:46 29.07.2022
2418 Clouds 36 1014 28 10000 2.06 340 21:24 29.07.2022
2419 Clouds 37 1013 26 10000 2.57 0 20:41 29.07.2022
2420 Clouds 37 1013 26 10000 2.06 350 18:26 29.07.2022
2421 Clouds 33 1014 38 10000 2.06 0 15:38 29.07.2022
2422 Clear 30 1015 48 10000 2.06 0 13:45 29.07.2022
2423 Clear 25 1015 65 10000 2.06 0 11:30 29.07.2022
2424 Clouds 20 1015 83 8000 3.09 240 08:50 29.07.2022
2425 Clouds 20 1014 83 8000 3.6 240 08:20 29.07.2022
2426 Clear 26 1015 53 8000 1.03 0 02:29 29.07.2022
2427 Clouds 30 1014 37 10000 4.63 360 23:18 28.07.2022
2428 Clouds 34 1012 27 10000 3.09 340 21:29 28.07.2022
2429 Clouds 35 1012 26 10000 3.6 350 20:45 28.07.2022
2430 Clouds 36 1012 24 10000 2.06 0 19:44 28.07.2022
2431 Clouds 36 1012 24 10000 2.06 0 19:25 28.07.2022
2432 Clear 35 1012 26 10000 2.06 0 17:44 28.07.2022
2433 Clear 35 1013 26 10000 1.54 0 16:59 28.07.2022
2434 Clear 34 1013 27 10000 3.09 350 16:36 28.07.2022
2435 Clear 29 1014 48 10000 2.06 0 13:35 28.07.2022
2436 Clear 25 1014 65 10000 2.57 260 11:43 28.07.2022
2437 Clear 20 1013 77 10000 3.09 250 06:59 28.07.2022
2438 Clear 22 1014 64 10000 3.09 240 05:33 28.07.2022
2439 Clear 24 1014 57 10000 2.57 240 03:53 28.07.2022
2440 Clear 31 1014 35 10000 4.12 30 22:56 27.07.2022
2441 Clouds 36 1013 20 10000 4.63 360 21:29 27.07.2022
2442 Clouds 38 1013 14 10000 3.6 340 19:45 27.07.2022
2443 Clouds 40 1013 12 10000 2.06 340 18:41 27.07.2022
2444 Clouds 39 1014 14 10000 3.09 340 16:31 27.07.2022
2445 Clouds 38 1015 14 10000 2.57 0 15:40 27.07.2022
2446 Clouds 37 1016 14 10000 2.06 0 14:41 27.07.2022
2447 Clouds 35 1017 16 10000 3.09 30 13:29 27.07.2022
2448 Clear 28 1017 26 10000 1.54 300 09:27 27.07.2022
2449 Clouds 25 1017 29 10000 0.51 0 07:40 27.07.2022
2450 Clear 31 1019 19 10000 3.09 40 02:52 27.07.2022
2451 Clouds 35 1017 18 8000 5.14 30 22:47 26.07.2022
2452 Clouds 38 1015 17 10000 6.69 10 21:25 26.07.2022
2453 Clouds 39 1014 17 10000 7.2 360 20:49 26.07.2022
2454 Clouds 43 1014 13 10000 3.09 30 18:46 26.07.2022
2455 Clouds 43 1014 13 10000 4.63 20 18:28 26.07.2022
2456 Clouds 43 1015 14 10000 4.63 50 16:54 26.07.2022
2457 Clouds 42 1016 15 10000 2.06 0 15:43 26.07.2022
2458 Clear 39 1017 18 10000 3.09 50 14:00 26.07.2022
2459 Clear 35 1018 23 10000 2.06 70 11:47 26.07.2022
2460 Clear 35 1018 23 10000 1.54 0 11:47 26.07.2022
2461 Clear 30 1017 28 10000 1.54 250 09:35 26.07.2022
2462 Clear 29 1017 30 10000 1.03 0 07:56 26.07.2022
2463 Clouds 34 1018 22 8000 1.54 20 01:44 26.07.2022
2464 Thunderstorm 37 1017 19 8000 6.17 30 23:37 25.07.2022
2465 Clouds 39 1016 17 10000 5.14 10 22:33 25.07.2022
2466 Clouds 40 1015 16 10000 6.69 10 21:43 25.07.2022
2467 Clouds 42 1014 15 10000 5.66 10 20:42 25.07.2022
2468 Clouds 44 1014 13 10000 4.63 350 19:51 25.07.2022
2469 Clouds 45 1014 13 10000 1.54 340 18:23 25.07.2022
2470 Clouds 44 1014 14 10000 2.57 0 17:34 25.07.2022
2471 Clouds 44 1015 15 10000 1.54 0 16:40 25.07.2022
2472 Clouds 39 1017 21 8000 2.06 70 12:47 25.07.2022
2473 Clouds 35 1017 26 8000 2.06 80 10:42 25.07.2022
2474 Clouds 31 1016 30 8000 1.03 0 06:52 25.07.2022
2475 Clouds 38 1017 19 8000 3.09 60 23:57 24.07.2022
2476 Clouds 39 1016 18 8000 3.6 40 23:22 24.07.2022
2477 Clouds 39 1016 19 8000 4.12 40 22:41 24.07.2022
2478 Clouds 40 1015 20 8000 0.51 0 21:30 24.07.2022
2479 Clouds 40 1014 17 8000 3.09 230 20:57 24.07.2022
2480 Clouds 41 1014 15 8000 2.57 190 20:32 24.07.2022
2481 Clouds 42 1013 14 8000 2.57 290 18:59 24.07.2022
2482 Clouds 42 1014 13 5000 9.26 20 16:53 24.07.2022
2483 Clouds 44 1014 13 8000 3.09 320 15:53 24.07.2022
2484 Clouds 44 1014 15 8000 2.06 0 14:41 24.07.2022
2485 Clouds 42 1015 17 8000 2.06 30 13:43 24.07.2022
2486 Clouds 39 1015 22 8000 2.57 60 12:19 24.07.2022
2487 Clouds 37 1015 23 8000 2.57 80 11:28 24.07.2022
2488 Clouds 31 1015 30 8000 2.57 170 09:33 24.07.2022
2489 Clouds 30 1015 30 8000 1.54 160 07:53 24.07.2022
2490 Clouds 30 1014 30 8000 0.51 0 06:39 24.07.2022
2491 Clouds 35 1015 21 8000 2.06 20 02:41 24.07.2022
2492 Clouds 38 1015 20 8000 4.63 40 22:37 23.07.2022
2493 Clouds 40 1014 22 8000 4.63 360 20:47 23.07.2022
2494 Clouds 42 1014 13 8000 3.09 10 18:55 23.07.2022
2495 Clouds 42 1014 14 8000 3.09 340 17:48 23.07.2022
2496 Clouds 43 1014 14 8000 3.09 350 17:24 23.07.2022
2497 Clouds 40 1015 18 8000 4.12 330 15:55 23.07.2022
2498 Clouds 39 1015 19 8000 5.14 300 15:21 23.07.2022
2499 Clouds 40 1015 17 8000 5.14 300 14:50 23.07.2022
2500 Clouds 39 1016 18 8000 3.09 310 13:54 23.07.2022
2501 Clouds 37 1016 22 8000 2.06 80 11:47 23.07.2022
2502 Clouds 32 1016 29 8000 3.09 110 10:28 23.07.2022
2503 Clouds 30 1015 30 8000 2.06 80 09:26 23.07.2022
2504 Clouds 31 1015 27 8000 2.06 0 06:40 23.07.2022
2505 Clouds 32 1015 25 8000 0.51 0 03:37 23.07.2022
2506 Clouds 37 1016 18 6000 1.54 0 23:59 22.07.2022
2507 Clouds 37 1014 20 5000 6.69 340 21:28 22.07.2022
2508 Clouds 43 1012 10 8000 2.57 240 19:58 22.07.2022
2509 Clouds 41 1010 8 10000 6.42 250 18:41 22.07.2022
2510 Clouds 43 1013 10 10000 3.09 140 17:38 22.07.2022
2511 Clouds 44 1014 10 10000 1.54 210 15:35 22.07.2022
2512 Clouds 42 1014 12 10000 2.57 90 12:41 22.07.2022
2513 Clouds 31 1014 30 10000 2.06 80 09:52 22.07.2022
2514 Clouds 29 1014 34 10000 2.57 90 09:20 22.07.2022
2515 Clouds 28 1013 36 8000 3.09 90 07:30 22.07.2022
2516 Clouds 31 1014 30 8000 3.6 150 04:19 22.07.2022
2517 Clouds 34 1017 27 8000 4.63 240 23:27 21.07.2022
2518 Clouds 37 1015 23 8000 5.66 350 21:37 21.07.2022
2519 Clouds 42 1013 14 10000 3.09 320 19:35 21.07.2022
2520 Clouds 43 1013 14 10000 3.09 270 18:29 21.07.2022
2521 Clouds 42 1014 15 10000 3.6 290 17:20 21.07.2022
2522 Clouds 41 1014 16 10000 2.57 340 15:39 21.07.2022
2523 Clouds 40 1015 18 10000 3.09 340 14:44 21.07.2022
2524 Clouds 36 1016 26 10000 1.54 0 13:22 21.07.2022
2525 Clouds 36 1016 26 10000 1.54 0 11:42 21.07.2022
2526 Clouds 31 1015 35 10000 1.03 0 09:44 21.07.2022
2527 Clouds 28 1015 39 10000 2.06 100 08:53 21.07.2022
2528 Clouds 30 1014 35 10000 2.57 130 07:50 21.07.2022
2529 Clouds 29 1014 39 10000 0.51 0 06:25 21.07.2022
2530 Clouds 33 1016 29 10000 3.6 130 01:54 21.07.2022
2531 Clouds 36 1016 24 10000 2.06 20 22:24 20.07.2022
2532 Clouds 36 1016 23 10000 2.57 350 21:49 20.07.2022
2533 Clouds 36 1015 24 10000 2.06 340 20:45 20.07.2022
2534 Clouds 38 1015 20 10000 6.69 130 19:46 20.07.2022
2535 Clouds 40 1015 20 10000 7.72 160 18:53 20.07.2022
2536 Clouds 40 1014 20 10000 8.23 190 18:30 20.07.2022
2537 Clouds 41 1014 18 10000 4.63 240 16:49 20.07.2022
2538 Clouds 40 1014 22 10000 3.09 50 15:32 20.07.2022
2539 Clouds 38 1015 25 10000 1.54 0 14:35 20.07.2022
2540 Clouds 32 1016 40 10000 3.6 280 12:41 20.07.2022
2541 Clouds 31 1016 40 10000 1.54 360 10:28 20.07.2022
2542 Clouds 29 1014 42 10000 2.06 80 05:44 20.07.2022
2543 Clouds 33 1016 31 10000 3.09 180 00:58 20.07.2022
2544 Clouds 32 1017 35 10000 3.09 220 00:40 20.07.2022
2545 Thunderstorm 35 1016 28 6000 4.63 270 22:35 19.07.2022
2546 Thunderstorm 35 1016 28 6000 4.12 280 21:53 19.07.2022
2547 Sand 37 1014 25 2000 8.75 190 20:49 19.07.2022
2548 Clouds 42 1013 20 10000 5.66 360 19:22 19.07.2022
2549 Clouds 42 1013 20 10000 3.09 0 18:35 19.07.2022
2550 Clouds 42 1014 20 10000 2.57 40 17:53 19.07.2022
2551 Clouds 39 1015 30 10000 2.57 340 15:26 19.07.2022
2552 Clouds 35 1017 38 10000 1.03 0 12:44 19.07.2022
2553 Clouds 29 1017 51 10000 1.03 0 11:32 19.07.2022
2554 Clouds 26 1017 57 10000 1.54 270 09:51 19.07.2022
2555 Clouds 24 1017 60 10000 2.06 240 08:42 19.07.2022
2556 Clouds 25 1016 57 10000 2.57 240 07:19 19.07.2022
2557 Clouds 25 1016 57 10000 2.06 260 05:50 19.07.2022
2558 Clouds 26 1016 57 10000 3.09 260 05:18 19.07.2022
2559 Clouds 29 1017 48 10000 1.03 0 02:37 19.07.2022
2560 Clouds 31 1017 42 8000 4.12 20 23:52 18.07.2022
2561 Clouds 32 1017 40 8000 4.12 30 23:19 18.07.2022
2562 Clouds 34 1016 38 8000 5.14 20 22:26 18.07.2022
2563 Clouds 36 1015 34 8000 1.03 0 21:20 18.07.2022
2564 Clouds 36 1015 32 8000 4.63 230 20:22 18.07.2022
2565 Clouds 36 1016 34 10000 4.12 250 18:29 18.07.2022
2566 Clouds 36 1016 34 10000 3.09 0 16:30 18.07.2022
2567 Clouds 35 1016 38 10000 2.57 300 15:26 18.07.2022
2568 Clear 31 1017 48 10000 1.03 0 13:32 18.07.2022
2569 Clear 27 1017 61 8000 1.03 0 11:43 18.07.2022
2570 Clear 24 1017 69 8000 3.09 280 09:55 18.07.2022
2571 Clear 24 1017 69 8000 3.09 280 09:55 18.07.2022
2572 Clear 23 1016 68 8000 2.57 230 07:58 18.07.2022
2573 Clear 23 1016 68 8000 3.6 260 05:25 18.07.2022
2574 Clouds 32 1016 45 8000 3.6 30 22:57 17.07.2022
2575 Clouds 34 1016 40 8000 4.63 30 22:31 17.07.2022
2576 Clouds 36 1015 36 8000 4.12 360 21:39 17.07.2022
2577 Clouds 36 1015 34 8000 4.12 340 20:46 17.07.2022
2578 Clouds 39 1014 29 8000 4.12 300 19:50 17.07.2022
2579 Clouds 39 1014 29 8000 5.66 250 19:24 17.07.2022
2580 Clouds 38 1014 30 8000 4.12 250 17:54 17.07.2022
2581 Clouds 39 1014 27 8000 3.09 260 17:36 17.07.2022
2582 Clouds 38 1014 30 8000 2.57 0 16:33 17.07.2022
2583 Clouds 38 1015 30 8000 3.6 260 15:50 17.07.2022
2584 Clouds 35 1015 36 8000 2.06 0 13:51 17.07.2022
2585 Clouds 33 1016 43 8000 1.54 0 12:43 17.07.2022
2586 Clouds 26 1016 61 8000 1.54 270 10:20 17.07.2022
2587 Clouds 23 1014 68 8000 2.57 260 06:59 17.07.2022
2588 Clouds 28 1016 51 8000 2.57 0 02:35 17.07.2022
2589 Clouds 34 1015 27 8000 2.57 100 23:26 16.07.2022
2590 Clouds 33 1015 33 7000 3.6 120 22:33 16.07.2022
2591 Clouds 40 1012 25 8000 4.12 320 20:40 16.07.2022
2592 Clouds 42 1012 20 8000 3.6 300 18:58 16.07.2022
2593 Clouds 43 1012 22 8000 2.06 280 17:47 16.07.2022
2594 Clouds 39 1012 29 10000 3.09 340 15:54 16.07.2022
2595 Clear 31 1014 51 10000 1.54 10 12:37 16.07.2022
2596 Clear 26 1014 69 10000 0.51 0 10:28 16.07.2022
2597 Clear 23 1014 73 10000 2.06 270 09:25 16.07.2022
2598 Clear 22 1014 78 10000 1.54 270 08:41 16.07.2022
2599 Clear 23 1013 68 10000 1.54 270 06:59 16.07.2022
2600 Clear 25 1014 61 10000 2.06 260 03:33 16.07.2022
2601 Clouds 28 1015 54 10000 5.14 250 00:45 16.07.2022
2602 Clouds 32 1013 45 8000 4.63 260 22:56 15.07.2022
2603 Clouds 34 1013 38 8000 7.2 240 22:24 15.07.2022
2604 Thunderstorm 37 1012 25 5000 8.23 130 20:41 15.07.2022
2605 Clouds 42 1010 20 10000 5.14 330 19:34 15.07.2022
2606 Clouds 42 1011 20 10000 3.6 290 18:23 15.07.2022
2607 Clouds 43 1011 18 10000 3.6 300 16:53 15.07.2022
2608 Clouds 38 1012 28 10000 2.06 10 14:19 15.07.2022
2609 Clouds 33 1013 46 10000 1.03 0 12:28 15.07.2022
2610 Clouds 28 1014 61 10000 1.03 0 10:52 15.07.2022
2611 Clouds 23 1013 73 10000 3.09 250 07:48 15.07.2022
2612 Clouds 28 1013 54 10000 1.54 260 03:41 15.07.2022
2613 Clouds 34 1014 29 8000 2.06 140 00:40 15.07.2022
2614 Clouds 39 1013 14 8000 2.57 100 22:56 14.07.2022
2615 Thunderstorm 37 1014 19 7000 6.17 120 22:19 14.07.2022
2616 Thunderstorm 36 1015 23 5000 9.77 140 21:39 14.07.2022
2617 Thunderstorm 36 1015 24 4000 7.72 130 21:19 14.07.2022
2618 Thunderstorm 40 1012 25 8000 4.63 320 20:42 14.07.2022
2619 Thunderstorm 40 1012 25 8000 4.63 320 20:18 14.07.2022
2620 Clouds 45 1012 14 10000 4.12 300 17:59 14.07.2022
2621 Clouds 43 1013 15 10000 4.12 300 16:19 14.07.2022
2622 Clouds 41 1013 20 10000 2.57 340 14:56 14.07.2022
2623 Clouds 40 1014 22 10000 2.06 350 13:51 14.07.2022
2624 Clouds 36 1015 30 10000 2.57 360 12:34 14.07.2022
2625 Clouds 35 1015 31 10000 3.09 50 11:26 14.07.2022
2626 Clouds 33 1015 35 10000 3.6 90 10:51 14.07.2022
2627 Clouds 27 1015 61 10000 3.6 100 08:52 14.07.2022
2628 Clouds 27 1015 57 10000 2.06 240 04:44 14.07.2022
2629 Clouds 30 1017 48 10000 3.6 250 01:19 14.07.2022
2630 Clouds 30 1017 48 10000 3.6 250 00:50 14.07.2022
2631 Clouds 34 1017 40 8000 2.57 270 22:30 13.07.2022
2632 Clouds 37 1016 23 8000 7.2 220 21:42 13.07.2022
2633 Clouds 40 1014 17 8000 2.06 330 20:38 13.07.2022
2634 Thunderstorm 42 1013 13 5000 10.8 80 18:36 13.07.2022
2635 Clouds 44 1013 15 10000 3.6 280 17:31 13.07.2022
2636 Clouds 44 1013 15 10000 3.6 280 17:31 13.07.2022
2637 Clouds 44 1014 17 10000 3.09 310 16:19 13.07.2022
2638 Clouds 40 1015 25 10000 2.57 330 14:46 13.07.2022
2639 Clouds 29 1016 54 8000 1.54 0 11:36 13.07.2022
2640 Clouds 27 1016 57 8000 1.03 0 10:44 13.07.2022
2641 Clouds 24 1016 64 8000 2.06 260 09:49 13.07.2022
2642 Clouds 23 1016 64 8000 2.57 250 09:20 13.07.2022
2643 Clear 26 1015 53 8000 2.06 240 05:21 13.07.2022
2644 Clouds 28 1016 51 8000 4.63 240 00:49 13.07.2022
2645 Clouds 32 1015 40 8000 2.57 330 22:48 12.07.2022
2646 Clouds 34 1014 36 8000 4.12 330 21:49 12.07.2022
2647 Clouds 37 1013 28 8000 4.12 340 20:54 12.07.2022
2648 Clouds 38 1013 23 8000 5.66 280 20:36 12.07.2022
2649 Clouds 40 1012 21 8000 4.63 270 18:53 12.07.2022
2650 Clouds 41 1012 20 8000 5.66 260 17:29 12.07.2022
2651 Clouds 38 1012 25 8000 4.12 300 15:35 12.07.2022
2652 Clouds 33 1013 35 8000 3.6 300 13:43 12.07.2022
2653 Clouds 30 1013 45 8000 1.54 320 11:55 12.07.2022
2654 Clouds 27 1013 54 8000 2.57 280 10:46 12.07.2022
2655 Clouds 24 1012 60 8000 3.6 270 09:18 12.07.2022
2656 Clouds 26 1011 50 8000 1.54 0 07:55 12.07.2022
2657 Clouds 25 1011 53 8000 1.54 270 05:53 12.07.2022
2658 Clouds 25 1011 53 8000 1.54 280 05:34 12.07.2022
2659 Clouds 28 1012 47 8000 2.57 250 01:36 12.07.2022
2660 Clouds 32 1011 35 8000 5.66 260 22:50 11.07.2022
2661 Clouds 37 1009 20 8000 5.66 310 21:37 11.07.2022
2662 Clouds 40 1008 17 8000 6.69 310 20:33 11.07.2022
2663 Clouds 42 1007 12 8000 6.69 280 19:28 11.07.2022
2664 Clouds 44 1008 8 8000 5.66 280 18:30 11.07.2022
2665 Clouds 44 1008 10 8000 2.57 320 16:34 11.07.2022
2666 Clouds 43 1009 10 8000 3.09 360 15:33 11.07.2022
2667 Clouds 41 1010 14 10000 2.06 0 13:27 11.07.2022
2668 Clouds 35 1011 18 8000 1.54 40 11:33 11.07.2022
2669 Clouds 30 1010 25 8000 1.54 60 10:18 11.07.2022
2670 Clouds 29 1010 24 8000 1.54 80 09:40 11.07.2022
2671 Clouds 26 1011 27 8000 1.54 70 08:33 11.07.2022
2672 Clear 31 1013 20 8000 3.09 240 02:59 11.07.2022
2673 Clouds 36 1013 19 8000 3.09 50 00:18 11.07.2022
2674 Clouds 38 1012 16 8000 4.12 30 22:52 10.07.2022
2675 Clouds 41 1011 9 8000 4.63 360 21:20 10.07.2022
2676 Clouds 43 1010 7 8000 4.12 350 20:41 10.07.2022
2677 Clouds 45 1011 6 8000 4.12 340 19:40 10.07.2022
2678 Clouds 45 1011 6 8000 3.09 0 18:43 10.07.2022
2679 Clouds 46 1012 8 8000 2.06 310 17:36 10.07.2022
2680 Clouds 44 1012 8 8000 3.09 340 16:41 10.07.2022
2681 Clouds 44 1013 7 8000 2.57 0 15:24 10.07.2022
2682 Clouds 43 1014 13 8000 1.54 0 13:48 10.07.2022
2683 Clouds 40 1014 14 10000 1.03 0 12:26 10.07.2022
2684 Clear 32 1014 22 8000 1.03 0 09:57 10.07.2022
2685 Clear 29 1014 23 8000 1.54 160 08:44 10.07.2022
2686 Clouds 29 1014 21 8000 1.03 0 07:30 10.07.2022
2687 Clouds 35 1016 17 8000 1.54 180 01:31 10.07.2022
2688 Clouds 39 1015 13 8000 3.6 10 22:43 09.07.2022
2689 Clouds 40 1015 12 8000 4.63 360 22:19 09.07.2022
2690 Clouds 43 1013 10 10000 5.14 360 20:45 09.07.2022
2691 Clouds 45 1013 10 10000 3.09 0 18:37 09.07.2022
2692 Clouds 45 1013 10 10000 3.6 340 17:45 09.07.2022
2693 Clouds 45 1014 10 10000 2.57 30 16:44 09.07.2022
2694 Clear 45 1015 11 10000 2.57 10 15:40 09.07.2022
2695 Clear 43 1016 13 10000 2.57 0 14:36 09.07.2022
2696 Clear 42 1016 13 10000 2.06 20 13:50 09.07.2022
2697 Clear 40 1016 15 10000 2.57 70 12:45 09.07.2022
2698 Clear 37 1017 20 10000 1.54 0 11:22 09.07.2022
2699 Clear 33 1017 24 10000 1.54 80 10:22 09.07.2022
2700 Clear 28 1016 34 10000 2.06 80 07:45 09.07.2022
2701 Clouds 30 1016 30 10000 0.51 0 04:59 09.07.2022
2702 Clouds 33 1018 22 10000 2.06 190 02:33 09.07.2022
2703 Clouds 39 1017 16 10000 2.57 330 22:54 08.07.2022
2704 Clouds 41 1015 14 10000 5.66 360 21:58 08.07.2022
2705 Clouds 43 1014 14 10000 6.17 360 20:41 08.07.2022
2706 Clouds 44 1014 13 10000 4.63 340 19:53 08.07.2022
2707 Clouds 45 1014 11 10000 2.57 0 18:24 08.07.2022
2708 Clouds 45 1015 11 10000 2.06 0 16:40 08.07.2022
2709 Clouds 43 1016 15 10000 2.06 350 14:53 08.07.2022
2710 Clear 41 1017 17 10000 1.54 320 13:29 08.07.2022
2711 Clear 36 1017 24 10000 1.54 30 11:42 08.07.2022
2712 Clear 33 1018 25 10000 2.57 120 10:28 08.07.2022
2713 Clear 26 1017 41 10000 1.03 0 08:33 08.07.2022
2714 Clear 27 1017 36 10000 1.03 0 06:50 08.07.2022
2715 Clouds 33 1019 24 10000 1.54 90 01:31 08.07.2022
2716 Clouds 36 1018 23 8000 4.12 20 22:59 07.07.2022
2717 Clouds 37 1018 22 8000 4.63 30 22:34 07.07.2022
2718 Clouds 41 1016 18 8000 5.14 330 20:35 07.07.2022
2719 Clouds 44 1016 16 10000 2.06 0 18:20 07.07.2022
2720 Clouds 43 1016 17 10000 3.6 310 16:53 07.07.2022
2721 Clear 38 1017 28 10000 2.57 360 14:35 07.07.2022
2722 Clear 35 1018 34 10000 1.54 310 13:18 07.07.2022
2723 Clear 33 1018 40 10000 1.54 0 12:24 07.07.2022
2724 Clear 33 1018 40 10000 1.54 0 12:24 07.07.2022
2725 Clear 32 1018 43 10000 1.54 300 11:45 07.07.2022
2726 Clouds 31 1018 42 10000 1.03 0 11:24 07.07.2022
2727 Clouds 29 1018 48 10000 1.03 0 10:41 07.07.2022
2728 Clouds 28 1018 51 10000 1.03 0 10:23 07.07.2022
2729 Clear 23 1017 56 10000 1.54 260 06:58 07.07.2022
2730 Clear 28 1019 44 10000 1.54 270 01:51 07.07.2022
2731 Clouds 30 1017 29 10000 4.45 17 23:36 06.07.2022
2732 Clouds 33 1017 33 10000 4.63 20 23:18 06.07.2022
2733 Clouds 33 1017 33 10000 4.63 20 22:52 06.07.2022
2734 Clouds 34 1017 31 10000 5.14 20 22:34 06.07.2022
2735 Clouds 38 1016 23 10000 2.57 340 20:36 06.07.2022
2736 Clouds 40 1016 22 10000 2.06 0 19:35 06.07.2022
2737 Clouds 39 1017 25 10000 2.06 0 17:32 06.07.2022
2738 Clouds 36 1018 32 10000 1.54 350 15:59 06.07.2022
2739 Clear 33 1019 38 10000 2.06 0 14:33 06.07.2022
2740 Clear 29 1019 48 10000 2.06 60 12:31 06.07.2022
2741 Clear 28 1019 47 10000 1.54 60 11:45 06.07.2022
2742 Clear 22 1019 68 10000 1.54 250 10:18 06.07.2022
2743 Clear 21 1018 64 10000 2.57 240 07:44 06.07.2022
2744 Clear 20 1018 68 10000 1.54 260 07:19 06.07.2022
2745 Clear 26 1019 50 10000 1.54 30 01:42 06.07.2022
2746 Clouds 30 1018 39 8000 4.12 350 22:45 05.07.2022
2747 Clouds 33 1018 33 8000 2.57 320 21:32 05.07.2022
2748 Clouds 33 1018 33 8000 2.57 320 21:32 05.07.2022
2749 Clouds 34 1017 33 8000 2.57 340 20:38 05.07.2022
2750 Clouds 34 1017 33 8000 3.09 360 19:41 05.07.2022
2751 Clouds 34 1018 33 8000 2.57 330 18:26 05.07.2022
2752 Clouds 34 1018 36 8000 3.09 330 17:41 05.07.2022
2753 Clouds 32 1018 40 8000 2.57 310 16:39 05.07.2022
2754 Clouds 31 1018 45 8000 2.57 360 15:24 05.07.2022
2755 Clear 28 1019 51 8000 2.06 310 13:47 05.07.2022
2756 Clouds 25 1019 61 8000 2.06 280 12:41 05.07.2022
2757 Clouds 21 1019 78 8000 2.57 260 10:46 05.07.2022
2758 Clouds 20 1019 77 8000 2.57 250 10:25 05.07.2022
2759 Clear 19 1018 77 8000 3.6 250 08:24 05.07.2022
2760 Clear 19 1018 77 8000 3.6 250 07:21 05.07.2022
2761 Clear 23 1017 60 8000 2.57 240 04:40 05.07.2022
2762 Clear 24 1017 57 8000 2.57 250 02:48 05.07.2022
2763 Clouds 29 1018 42 8000 3.09 30 23:42 04.07.2022
2764 Clouds 30 1017 39 8000 4.12 20 22:59 04.07.2022
2765 Clouds 33 1016 35 8000 4.12 360 22:20 04.07.2022
2766 Clouds 35 1016 29 8000 2.57 0 20:59 04.07.2022
2767 Clouds 35 1015 29 8000 2.57 320 20:38 04.07.2022
2768 Clouds 35 1015 29 8000 2.57 320 20:18 04.07.2022
2769 Clouds 35 1015 29 8000 1.54 0 19:43 04.07.2022
2770 Clouds 35 1016 29 8000 2.06 310 19:24 04.07.2022
2771 Clear 35 1016 29 8000 2.57 330 17:23 04.07.2022
2772 Clouds 34 1017 33 8000 2.06 0 15:41 04.07.2022
2773 Clear 30 1018 42 10000 2.06 0 14:21 04.07.2022
2774 Clear 29 1018 45 10000 2.57 0 13:20 04.07.2022
2775 Clear 27 1018 54 10000 1.03 0 11:43 04.07.2022
2776 Clear 22 1018 64 10000 2.06 260 10:33 04.07.2022
2777 Clear 20 1018 73 10000 2.06 270 09:33 04.07.2022
2778 Clear 19 1018 72 10000 3.6 240 06:42 04.07.2022
2779 Clear 24 1018 57 10000 3.09 230 02:59 04.07.2022
2780 Clouds 27 1019 47 8000 4.63 30 23:53 03.07.2022
2781 Clouds 27 1019 47 8000 4.63 30 23:53 03.07.2022
2782 Clouds 29 1018 42 8000 2.57 300 22:48 03.07.2022
2783 Clouds 32 1017 35 8000 2.06 360 20:46 03.07.2022
2784 Clouds 32 1018 35 8000 2.06 300 19:59 03.07.2022
2785 Clouds 32 1018 35 8000 3.09 290 19:25 03.07.2022
2786 Clouds 33 1018 35 8000 2.06 0 18:30 03.07.2022
2787 Clouds 34 1018 33 8000 2.57 0 17:41 03.07.2022
2788 Clouds 30 1019 45 8000 1.54 0 15:28 03.07.2022
2789 Clouds 29 1019 48 8000 1.54 0 14:53 03.07.2022
2790 Clear 27 1019 54 10000 2.57 0 13:50 03.07.2022
2791 Clear 26 1020 53 10000 1.03 0 12:49 03.07.2022
2792 Clear 24 1019 60 10000 2.06 0 12:19 03.07.2022
2793 Clear 23 1019 68 10000 1.03 0 10:54 03.07.2022
2794 Clear 21 1019 73 10000 1.03 0 10:36 03.07.2022
2795 Clear 18 1019 77 10000 2.57 240 07:38 03.07.2022
2796 Clear 18 1019 77 10000 2.57 240 06:52 03.07.2022
2797 Clear 23 1020 60 10000 2.57 320 00:41 03.07.2022
2798 Clouds 25 1020 53 8000 3.6 330 23:38 02.07.2022
2799 Clouds 26 1019 50 8000 5.14 310 22:31 02.07.2022
2800 Clouds 30 1017 42 8000 7.72 270 20:31 02.07.2022
2801 Clouds 32 1017 37 8000 4.12 280 19:49 02.07.2022
2802 Clouds 33 1017 35 8000 1.54 0 18:36 02.07.2022
2803 Clouds 32 1017 37 8000 3.09 0 17:39 02.07.2022
2804 Clouds 32 1017 40 8000 2.06 0 16:30 02.07.2022
2805 Clear 26 1017 53 8000 2.57 0 13:51 02.07.2022
2806 Clouds 22 1017 73 8000 1.54 0 11:51 02.07.2022
2807 Clouds 20 1018 83 6000 1.54 290 10:52 02.07.2022
2808 Clouds 19 1017 88 6000 2.06 300 10:25 02.07.2022
2809 Clouds 17 1017 88 4000 2.57 250 08:38 02.07.2022
2810 Clouds 17 1017 88 4000 2.57 250 08:19 02.07.2022
2811 Clear 19 1015 77 10000 4.63 250 04:19 02.07.2022
2812 Clear 25 1015 50 10000 2.57 330 00:28 02.07.2022
2813 Clear 26 1014 50 10000 3.6 340 23:26 01.07.2022
2814 Clear 29 1013 39 10000 3.09 20 22:35 01.07.2022
2815 Clear 32 1012 33 10000 1.54 0 21:38 01.07.2022
2816 Clear 32 1012 35 10000 2.57 300 20:59 01.07.2022
2817 Clear 32 1012 35 10000 2.06 0 20:34 01.07.2022
2818 Clear 33 1012 33 10000 2.06 0 19:38 01.07.2022
2819 Clear 32 1012 37 10000 2.06 0 17:18 01.07.2022
2820 Clear 27 1013 44 10000 2.06 0 14:34 01.07.2022
2821 Clear 25 1013 50 10000 2.57 350 13:54 01.07.2022
2822 Clear 22 1014 60 10000 1.03 0 11:22 01.07.2022
2823 Clear 19 1014 72 10000 1.03 0 10:19 01.07.2022
2824 Clear 16 1014 77 10000 2.06 250 07:38 01.07.2022
2825 Clear 21 1015 56 10000 2.57 50 02:43 01.07.2022
2826 Clear 22 1015 56 10000 3.09 30 00:21 01.07.2022
2827 Clear 24 1014 50 10000 5.14 360 22:52 30.06.2022
2828 Clear 25 1013 47 10000 5.66 360 22:32 30.06.2022
2829 Clear 26 1013 44 10000 6.17 350 21:54 30.06.2022
2830 Clear 30 1012 35 8000 4.12 20 20:53 30.06.2022
2831 Clear 30 1012 35 8000 2.06 0 20:22 30.06.2022
2832 Clear 31 1012 33 8000 3.6 10 19:51 30.06.2022
2833 Clear 31 1012 33 8000 3.09 340 19:18 30.06.2022
2834 Clear 31 1012 33 8000 3.09 0 18:34 30.06.2022
2835 Clear 29 1013 34 8000 2.06 0 17:37 30.06.2022
2836 Clear 28 1014 39 8000 2.06 0 16:22 30.06.2022
2837 Clear 26 1015 44 10000 3.09 360 14:20 30.06.2022
2838 Clear 25 1015 50 10000 2.06 0 13:29 30.06.2022
2839 Clear 23 1015 56 10000 2.57 0 12:34 30.06.2022
2840 Clouds 22 1015 60 10000 2.06 0 11:23 30.06.2022
2841 Clear 19 1015 72 10000 2.06 60 09:53 30.06.2022
2842 Clear 19 1015 72 10000 2.06 60 09:29 30.06.2022
2843 Clear 17 1015 77 10000 2.06 50 07:41 30.06.2022
2844 Clear 18 1015 72 10000 3.6 20 05:47 30.06.2022
2845 Clear 23 1016 56 10000 4.63 50 00:27 30.06.2022
2846 Clear 25 1015 50 10000 5.14 360 22:58 29.06.2022
2847 Clear 26 1014 44 10000 5.66 360 22:37 29.06.2022
2848 Clear 29 1014 37 10000 6.69 360 21:31 29.06.2022
2849 Clear 32 1013 29 10000 3.6 360 20:33 29.06.2022
2850 Clear 32 1013 29 10000 3.6 360 20:33 29.06.2022
2851 Clouds 31 1013 29 10000 3.09 300 19:34 29.06.2022
2852 Clear 31 1015 29 10000 3.09 0 17:40 29.06.2022
2853 Clear 30 1015 28 10000 3.09 360 16:35 29.06.2022
2854 Clear 29 1016 32 10000 2.06 0 14:50 29.06.2022
2855 Clear 24 1017 50 10000 2.06 0 12:39 29.06.2022
2856 Clear 20 1017 68 10000 1.03 0 10:25 29.06.2022
2857 Clear 18 1017 72 10000 2.57 250 09:31 29.06.2022
2858 Clear 17 1017 63 10000 3.09 240 07:30 29.06.2022
2859 Clear 20 1017 52 10000 2.57 30 04:49 29.06.2022
2860 Clear 23 1018 49 10000 3.6 30 00:55 29.06.2022
2861 Clear 23 1018 49 10000 4.63 30 00:35 29.06.2022
2862 Clear 26 1017 44 10000 5.14 30 22:53 28.06.2022
2863 Clear 27 1016 41 10000 5.14 360 22:21 28.06.2022
2864 Clear 29 1016 39 10000 5.14 360 21:50 28.06.2022
2865 Clear 31 1016 33 10000 5.14 360 21:30 28.06.2022
2866 Clear 32 1015 27 10000 1.54 0 20:20 28.06.2022
2867 Clear 32 1015 27 10000 3.09 30 19:32 28.06.2022
2868 Clear 32 1015 27 10000 3.09 30 19:32 28.06.2022
2869 Clear 34 1015 27 10000 1.54 0 18:44 28.06.2022
2870 Clear 31 1016 33 10000 3.09 0 17:38 28.06.2022
2871 Clear 29 1016 37 10000 2.57 0 15:56 28.06.2022
2872 Clear 29 1016 37 10000 2.57 0 15:56 28.06.2022
2873 Clear 28 1017 42 10000 2.06 0 14:59 28.06.2022
2874 Clear 25 1018 50 10000 1.54 360 14:20 28.06.2022
2875 Clear 25 1018 50 10000 1.54 360 13:49 28.06.2022
2876 Clear 23 1018 56 10000 2.06 0 12:48 28.06.2022
2877 Clear 20 1017 64 10000 2.06 0 10:46 28.06.2022
2878 Clear 18 1017 68 10000 2.06 240 09:25 28.06.2022
2879 Clear 17 1017 67 10000 1.54 240 08:43 28.06.2022
2880 Clear 16 1017 72 10000 2.06 250 07:26 28.06.2022
2881 Clear 18 1017 63 10000 2.57 40 04:59 28.06.2022
2882 Clear 21 1018 56 10000 4.63 40 23:59 27.06.2022
2883 Clear 22 1017 53 10000 5.14 40 23:36 27.06.2022
2884 Clear 23 1017 49 10000 5.66 20 22:51 27.06.2022
2885 Clear 28 1016 36 10000 4.12 350 21:33 27.06.2022
2886 Clear 30 1015 35 10000 2.57 40 20:44 27.06.2022
2887 Clear 31 1016 33 10000 3.6 0 18:58 27.06.2022
2888 Clouds 30 1016 35 8000 2.57 30 17:46 27.06.2022
2889 Clouds 27 1017 41 8000 3.09 90 16:18 27.06.2022
2890 Clouds 25 1018 44 8000 5.14 40 14:44 27.06.2022
2891 Clouds 23 1018 53 8000 3.6 10 13:25 27.06.2022
2892 Clouds 22 1018 53 8000 3.6 20 12:52 27.06.2022
2893 Clouds 18 1018 68 8000 3.09 50 10:22 27.06.2022
2894 Clouds 17 1018 67 8000 4.12 50 08:47 27.06.2022
2895 Clouds 16 1017 72 8000 3.6 50 07:59 27.06.2022
2896 Clouds 17 1017 67 10000 4.12 30 06:38 27.06.2022
2897 Clouds 19 1017 63 10000 4.12 30 01:55 27.06.2022
2898 Clouds 21 1016 56 10000 4.63 40 23:49 26.06.2022
2899 Clouds 25 1014 47 10000 6.17 10 21:58 26.06.2022
2900 Clouds 29 1012 37 10000 6.69 360 20:34 26.06.2022
2901 Clouds 31 1012 35 10000 3.09 360 19:23 26.06.2022
2902 Clouds 30 1012 37 10000 2.57 0 18:24 26.06.2022
2903 Clouds 28 1014 42 10000 2.57 0 15:53 26.06.2022
2904 Clouds 26 1014 47 10000 2.06 0 14:34 26.06.2022
2905 Clouds 25 1015 50 10000 2.57 60 13:30 26.06.2022
2906 Clouds 24 1015 53 10000 2.06 0 12:44 26.06.2022
2907 Clouds 21 1015 64 10000 3.09 40 11:21 26.06.2022
2908 Clear 20 1015 64 10000 3.6 30 10:23 26.06.2022
2909 Clear 18 1014 72 10000 3.09 70 08:45 26.06.2022
2910 Clouds 18 1014 72 10000 3.09 30 07:23 26.06.2022
2911 Clouds 22 1015 56 10000 3.6 10 00:48 26.06.2022
2912 Clouds 22 1015 53 10000 4.63 30 00:20 26.06.2022
2913 Clouds 24 1014 50 10000 5.14 30 23:33 25.06.2022
2914 Clouds 25 1013 47 10000 5.14 20 22:51 25.06.2022
2915 Clouds 26 1013 44 10000 5.66 20 22:26 25.06.2022
2916 Clouds 30 1012 35 10000 5.14 360 21:23 25.06.2022
2917 Clouds 30 1012 35 10000 5.14 360 20:59 25.06.2022
2918 Clouds 31 1012 33 10000 4.12 20 20:25 25.06.2022
2919 Clouds 31 1012 33 10000 2.57 20 18:45 25.06.2022
2920 Clouds 30 1013 35 10000 3.6 360 17:28 25.06.2022
2921 Clouds 31 1013 35 10000 2.06 0 16:44 25.06.2022
2922 Clouds 28 1014 39 10000 3.09 0 14:50 25.06.2022
2923 Clouds 24 1015 57 10000 2.06 0 12:56 25.06.2022
2924 Clouds 23 1015 60 10000 2.57 340 12:37 25.06.2022
2925 Clear 20 1016 68 10000 2.06 10 10:30 25.06.2022
2926 Clear 18 1015 72 10000 2.06 70 08:56 25.06.2022
2927 Clear 18 1015 72 10000 2.06 50 08:29 25.06.2022
2928 Clear 18 1015 72 10000 2.57 70 06:53 25.06.2022
2929 Clouds 19 1017 72 10000 3.6 20 03:26 25.06.2022
2930 Clouds 22 1017 60 10000 4.63 40 00:21 25.06.2022
2931 Clouds 26 1015 47 10000 6.69 360 22:31 24.06.2022
2932 Clear 30 1014 32 10000 2.57 20 21:31 24.06.2022
2933 Clouds 31 1014 30 10000 3.09 60 20:25 24.06.2022
2934 Clouds 31 1014 30 10000 3.6 40 19:52 24.06.2022
2935 Clouds 31 1015 30 10000 4.12 50 19:19 24.06.2022
2936 Clouds 31 1015 30 10000 4.12 50 18:47 24.06.2022
2937 Clouds 31 1015 30 10000 2.06 0 18:29 24.06.2022
2938 Clouds 30 1016 35 10000 3.09 360 16:57 24.06.2022
2939 Clouds 27 1017 41 10000 3.09 0 15:28 24.06.2022
2940 Clouds 26 1018 47 10000 2.57 0 14:25 24.06.2022
2941 Clear 26 1018 47 10000 3.6 20 13:53 24.06.2022
2942 Clouds 23 1018 56 10000 2.06 0 11:42 24.06.2022
2943 Clouds 23 1019 60 10000 1.03 0 10:43 24.06.2022
2944 Clouds 20 1019 64 10000 1.54 120 09:42 24.06.2022
2945 Clouds 19 1019 68 10000 2.06 30 08:58 24.06.2022
2946 Clouds 19 1019 68 10000 1.54 30 08:40 24.06.2022
2947 Clear 19 1019 68 10000 2.06 250 06:47 24.06.2022
2948 Clear 18 1019 68 10000 2.06 260 06:27 24.06.2022
2949 Clear 19 1019 63 10000 2.06 240 05:21 24.06.2022
2950 Clear 21 1020 56 10000 4.12 300 00:47 24.06.2022
2951 Clear 25 1018 47 10000 5.14 350 22:44 23.06.2022
2952 Clouds 29 1017 30 10000 4.12 270 21:43 23.06.2022
2953 Clear 30 1016 28 10000 2.57 310 20:43 23.06.2022
2954 Clear 31 1016 25 10000 4.12 270 19:57 23.06.2022
2955 Clear 31 1016 30 10000 2.57 0 18:43 23.06.2022
2956 Clear 30 1017 30 10000 3.09 310 17:37 23.06.2022
2957 Clear 28 1017 34 10000 3.09 0 16:32 23.06.2022
2958 Clear 28 1017 36 10000 2.06 0 15:27 23.06.2022
2959 Clear 27 1017 39 10000 2.06 0 14:51 23.06.2022
2960 Clear 22 1018 56 10000 2.06 0 11:54 23.06.2022
2961 Clear 20 1018 64 10000 1.54 0 10:56 23.06.2022
2962 Clear 17 1017 72 10000 2.57 240 09:20 23.06.2022
2963 Clear 16 1016 72 10000 3.09 240 05:51 23.06.2022
2964 Clear 21 1017 52 10000 3.6 260 01:22 23.06.2022
2965 Clear 22 1017 49 10000 3.09 300 00:25 23.06.2022
2966 Clear 24 1016 43 10000 4.63 330 23:22 22.06.2022
2967 Clouds 28 1015 34 10000 5.66 260 21:44 22.06.2022
2968 Clouds 29 1014 30 10000 4.63 250 20:52 22.06.2022
2969 Clouds 30 1014 28 10000 4.63 280 20:20 22.06.2022
2970 Clouds 30 1014 28 10000 4.63 260 19:44 22.06.2022
2971 Clouds 30 1015 32 10000 4.12 280 17:50 22.06.2022
2972 Clouds 29 1016 37 10000 2.57 0 16:50 22.06.2022
2973 Clouds 28 1016 42 10000 2.06 0 15:29 22.06.2022
2974 Clouds 26 1016 47 10000 2.57 0 14:57 22.06.2022
2975 Clouds 25 1017 50 10000 2.57 0 13:49 22.06.2022
2976 Clouds 24 1017 53 10000 2.06 0 13:24 22.06.2022
2977 Clouds 23 1017 56 10000 1.54 0 12:31 22.06.2022
2978 Clouds 22 1017 56 10000 1.54 0 11:45 22.06.2022
2979 Clouds 21 1017 60 10000 1.54 0 10:50 22.06.2022
2980 Clear 19 1017 68 10000 0.51 0 09:42 22.06.2022
2981 Clear 16 1016 77 10000 3.09 230 07:22 22.06.2022
2982 Clear 21 1016 56 10000 2.57 360 02:39 22.06.2022
2983 Clouds 22 1016 56 10000 3.6 30 01:19 22.06.2022
2984 Clouds 27 1015 47 10000 1.54 350 22:57 21.06.2022
2985 Clouds 28 1015 44 10000 3.09 320 21:21 21.06.2022
2986 Clouds 30 1014 39 10000 2.57 310 19:30 21.06.2022
2987 Clouds 29 1014 42 10000 2.57 0 17:56 21.06.2022
2988 Clouds 29 1014 42 10000 2.57 350 16:49 21.06.2022
2989 Clear 24 1015 57 10000 3.09 250 12:23 21.06.2022
2990 Clouds 22 1016 60 10000 3.6 270 10:55 21.06.2022
2991 Clouds 20 1015 68 10000 4.63 250 09:39 21.06.2022
2992 Clouds 20 1014 68 10000 3.6 280 07:56 21.06.2022
2993 Clouds 21 1013 68 10000 2.57 260 05:33 21.06.2022
2994 Clouds 26 1014 53 10000 4.63 30 00:35 21.06.2022
2995 Clouds 28 1013 44 10000 4.12 40 22:22 20.06.2022
2996 Clouds 29 1013 42 10000 4.12 20 21:41 20.06.2022
2997 Clouds 31 1013 37 10000 4.63 320 20:30 20.06.2022
2998 Clouds 32 1013 37 10000 3.6 320 19:37 20.06.2022
2999 Clouds 31 1013 37 10000 2.06 0 18:44 20.06.2022
3000 Clouds 32 1014 37 10000 3.6 0 17:50 20.06.2022
3001 Clouds 32 1014 40 10000 1.54 0 16:53 20.06.2022
3002 Clouds 30 1015 42 10000 2.06 320 15:52 20.06.2022
3003 Clear 25 1015 61 10000 2.06 0 12:38 20.06.2022
3004 Clouds 22 1015 73 10000 2.06 300 10:32 20.06.2022
3005 Clouds 20 1015 77 10000 3.09 250 08:56 20.06.2022
3006 Clear 20 1015 73 8000 4.12 230 07:53 20.06.2022
3007 Clear 21 1013 64 8000 3.09 240 05:35 20.06.2022
3008 Clouds 26 1014 44 10000 2.06 40 01:33 20.06.2022
3009 Clouds 26 1014 44 10000 3.09 30 00:25 20.06.2022
3010 Clouds 28 1014 39 10000 4.12 30 22:46 19.06.2022
3011 Clouds 30 1013 37 10000 4.63 10 21:51 19.06.2022
3012 Clouds 31 1013 35 10000 5.14 350 21:31 19.06.2022
3013 Clouds 34 1011 27 10000 4.63 350 20:38 19.06.2022
3014 Clouds 35 1012 26 10000 3.6 340 19:47 19.06.2022
3015 Clouds 35 1012 28 10000 3.6 300 18:43 19.06.2022
3016 Clouds 36 1012 26 10000 4.12 330 17:48 19.06.2022
3017 Clouds 36 1012 26 10000 3.6 310 17:22 19.06.2022
3018 Clouds 35 1013 29 10000 3.6 300 16:35 19.06.2022
3019 Clouds 35 1013 34 10000 2.57 350 15:41 19.06.2022
3020 Clouds 34 1013 36 10000 2.06 0 14:57 19.06.2022
3021 Clouds 33 1013 38 8000 1.54 0 14:19 19.06.2022
3022 Clear 31 1014 42 8000 2.06 0 13:21 19.06.2022
3023 Clear 26 1014 53 8000 1.03 0 10:55 19.06.2022
3024 Clear 22 1015 64 8000 2.06 260 09:46 19.06.2022
3025 Clouds 21 1015 68 10000 3.09 240 08:47 19.06.2022
3026 Clouds 20 1015 68 10000 3.09 250 07:59 19.06.2022
3027 Clouds 23 1014 56 10000 1.54 270 05:37 19.06.2022
3028 Clouds 27 1016 47 10000 1.54 50 01:29 19.06.2022
3029 Clouds 27 1017 47 10000 2.57 40 00:24 19.06.2022
3030 Clouds 28 1016 44 10000 2.57 20 23:36 18.06.2022
3031 Clouds 29 1015 45 10000 4.12 360 22:39 18.06.2022
3032 Clear 34 1014 36 10000 4.12 340 20:57 18.06.2022
3033 Clear 36 1014 30 10000 3.09 340 20:38 18.06.2022
3034 Clear 36 1014 30 10000 4.12 340 19:38 18.06.2022
3035 Clear 37 1014 30 10000 5.14 300 18:45 18.06.2022
3036 Clear 37 1014 30 10000 3.09 0 17:35 18.06.2022
3037 Clear 36 1014 32 10000 4.63 300 16:56 18.06.2022
3038 Clear 34 1015 36 10000 3.09 310 15:33 18.06.2022
3039 Clear 32 1015 45 10000 2.06 310 14:45 18.06.2022
3040 Clear 30 1016 51 10000 1.54 0 13:23 18.06.2022
3041 Clear 27 1017 57 10000 1.54 0 11:45 18.06.2022
3042 Clear 25 1017 65 10000 1.03 0 10:55 18.06.2022
3043 Clear 22 1017 73 10000 0.51 0 09:27 18.06.2022
3044 Clear 20 1016 77 10000 1.54 270 08:30 18.06.2022
3045 Clear 21 1016 73 10000 1.03 0 06:49 18.06.2022
3046 Clear 23 1017 64 10000 2.06 250 03:46 18.06.2022
3047 Clouds 26 1018 57 10000 1.54 70 01:26 18.06.2022
3048 Clouds 26 1018 57 10000 1.54 70 01:26 18.06.2022
3049 Clouds 26 1018 57 10000 1.54 70 01:26 18.06.2022
3050 Clouds 26 1018 57 10000 1.54 70 01:26 18.06.2022
3051 Clouds 26 1018 57 10000 2.06 70 00:48 18.06.2022
3052 Clouds 27 1018 54 10000 3.09 40 23:58 17.06.2022
3053 Clouds 29 1017 48 8000 1.54 10 23:24 17.06.2022
3054 Clouds 33 1015 38 10000 4.63 10 21:18 17.06.2022
3055 Clouds 35 1014 31 10000 4.63 330 20:24 17.06.2022
3056 Clouds 38 1014 28 10000 3.6 320 18:49 17.06.2022
3057 Clouds 38 1014 28 10000 4.12 320 17:44 17.06.2022
3058 Clear 37 1014 30 10000 3.09 300 16:43 17.06.2022
3059 Clear 37 1014 30 10000 3.09 300 16:43 17.06.2022
3060 Clear 33 1015 40 10000 2.57 330 15:49 17.06.2022
3061 Clear 33 1015 40 10000 2.57 330 15:22 17.06.2022
3062 Clear 31 1015 45 10000 2.06 0 14:20 17.06.2022
3063 Clear 30 1016 48 10000 1.54 0 14:20 17.06.2022
3064 Clear 30 1016 48 10000 1.54 0 13:46 17.06.2022
3065 Clear 29 1016 51 10000 2.06 0 13:24 17.06.2022
3066 Clear 25 1017 65 10000 2.57 260 11:58 17.06.2022
3067 Clear 24 1017 64 10000 1.54 0 11:36 17.06.2022
3068 Clear 23 1017 68 10000 2.06 270 10:52 17.06.2022
3069 Clear 19 1016 77 10000 3.09 250 08:30 17.06.2022
3070 Clear 19 1016 77 10000 3.09 250 07:48 17.06.2022
3071 Clear 20 1016 73 10000 2.57 260 06:22 17.06.2022
3072 Clear 25 1017 57 10000 2.57 80 03:19 17.06.2022
3073 Clouds 27 1018 54 10000 3.6 60 00:43 17.06.2022
3074 Clouds 30 1017 42 10000 2.06 340 22:45 16.06.2022
3075 Clouds 30 1016 45 10000 2.57 340 22:26 16.06.2022
3076 Clouds 31 1016 42 10000 1.03 0 21:19 16.06.2022
3077 Clouds 31 1016 42 10000 1.54 340 20:50 16.06.2022
3078 Clouds 31 1016 42 10000 2.57 270 19:59 16.06.2022
3079 Clouds 32 1016 43 10000 2.06 0 18:44 16.06.2022
3080 Clouds 32 1016 43 10000 3.09 0 17:44 16.06.2022
3081 Clouds 32 1017 45 8000 2.57 0 17:20 16.06.2022
3082 Clouds 30 1017 51 8000 3.09 260 15:44 16.06.2022
3083 Clouds 30 1017 51 8000 3.09 260 15:20 16.06.2022
3084 Clear 29 1017 54 10000 2.57 0 13:55 16.06.2022
3085 Clear 25 1017 65 10000 3.6 290 12:47 16.06.2022
3086 Clear 25 1017 65 10000 3.6 290 12:20 16.06.2022
3087 Clear 23 1017 73 8000 3.6 270 11:21 16.06.2022
3088 Clear 21 1017 78 8000 3.09 280 10:35 16.06.2022
3089 Clear 20 1017 77 8000 3.6 270 09:39 16.06.2022
3090 Clear 19 1016 82 8000 3.6 260 08:50 16.06.2022
3091 Clouds 19 1016 82 8000 2.57 250 07:38 16.06.2022
3092 Clouds 20 1016 77 8000 2.57 260 05:48 16.06.2022
3093 Clouds 23 1017 68 8000 3.09 100 03:44 16.06.2022
3094 Clouds 23 1018 68 8000 2.06 90 01:52 16.06.2022
3095 Clouds 23 1018 68 8000 2.06 90 01:52 16.06.2022
3096 Clouds 23 1018 68 8000 3.6 110 01:22 16.06.2022
3097 Clouds 23 1019 68 8000 2.06 260 23:58 15.06.2022
3098 Clouds 23 1018 68 8000 3.09 270 22:53 15.06.2022
3099 Clouds 25 1018 61 8000 4.63 300 21:34 15.06.2022
3100 Clouds 26 1017 57 8000 4.63 280 20:59 15.06.2022
3101 Clouds 26 1017 61 8000 4.63 300 20:36 15.06.2022
3102 Clouds 27 1017 57 8000 4.63 280 19:57 15.06.2022
3103 Clouds 29 1016 51 8000 6.69 280 18:37 15.06.2022
3104 Clouds 30 1016 51 8000 7.72 270 17:46 15.06.2022
3105 Clouds 29 1016 58 8000 5.66 290 16:23 15.06.2022
3106 Clouds 26 1016 65 8000 3.09 280 14:57 15.06.2022
3107 Clouds 23 1017 78 5000 5.66 260 13:29 15.06.2022
3108 Clouds 23 1017 78 5000 4.12 270 12:47 15.06.2022
3109 Clouds 22 1016 83 5000 5.14 270 11:25 15.06.2022
3110 Clouds 22 1016 78 8000 6.69 280 10:22 15.06.2022
3111 Clouds 23 1015 68 8000 6.69 260 08:59 15.06.2022
3112 Clouds 29 1013 39 8000 5.14 120 07:36 15.06.2022
3113 Clouds 27 1014 47 8000 5.14 250 05:57 15.06.2022
3114 Clouds 29 1014 39 8000 8.23 80 02:54 15.06.2022
3115 Clouds 29 1016 45 8000 5.66 70 01:36 15.06.2022
3116 Clouds 29 1017 45 7000 2.57 80 00:36 15.06.2022
3117 Clouds 30 1016 42 7000 5.14 70 23:38 14.06.2022
3118 Clouds 30 1015 42 7000 3.6 30 22:47 14.06.2022
3119 Clouds 29 1016 51 6000 5.14 270 21:43 14.06.2022
3120 Clouds 30 1015 45 6000 7.2 290 21:20 14.06.2022
3121 Rain 32 1016 43 5000 7.72 230 20:40 14.06.2022
3122 Clouds 35 1013 31 6000 5.14 290 19:47 14.06.2022
3123 Clouds 36 1013 30 6000 3.6 320 18:40 14.06.2022
3124 Clouds 37 1013 20 6000 2.57 210 17:19 14.06.2022
3125 Clouds 38 1013 18 6000 2.06 90 16:42 14.06.2022
3126 Clouds 30 1015 51 8000 2.06 280 15:43 14.06.2022
3127 Clouds 29 1016 54 8000 3.6 260 14:56 14.06.2022
3128 Clouds 28 1015 57 8000 4.63 260 14:18 14.06.2022
3129 Clouds 27 1016 61 8000 3.09 0 13:24 14.06.2022
3130 Clouds 28 1015 57 8000 2.57 280 11:58 14.06.2022
3131 Clouds 27 1015 61 8000 1.03 0 10:52 14.06.2022
3132 Clouds 26 1015 65 8000 1.03 0 10:29 14.06.2022
3133 Clouds 23 1015 73 8000 1.54 230 09:22 14.06.2022
3134 Clouds 22 1015 73 8000 3.6 260 08:37 14.06.2022
3135 Clouds 24 1013 69 10000 1.54 290 06:32 14.06.2022
3136 Clouds 25 1014 65 10000 2.06 240 03:52 14.06.2022
3137 Clouds 26 1016 61 8000 1.03 0 01:38 14.06.2022
3138 Clouds 27 1016 57 8000 2.06 330 00:24 14.06.2022
3139 Clouds 28 1016 54 7000 4.63 260 22:58 13.06.2022
3140 Clouds 28 1015 54 7000 7.72 260 22:23 13.06.2022
3141 Clouds 36 1014 21 7000 3.6 100 21:39 13.06.2022
3142 Thunderstorm 35 1014 23 6000 7.72 60 19:59 13.06.2022
3143 Thunderstorm 32 1015 43 7000 5.14 230 18:54 13.06.2022
3144 Clouds 35 1014 38 8000 2.57 0 17:56 13.06.2022
3145 Clouds 33 1014 40 8000 3.6 280 17:24 13.06.2022
3146 Clouds 33 1015 40 8000 3.6 290 16:30 13.06.2022
3147 Clouds 30 1015 51 8000 4.12 290 14:51 13.06.2022
3148 Clouds 29 1016 54 8000 4.63 270 14:31 13.06.2022
3149 Clouds 28 1016 57 8000 5.66 270 13:33 13.06.2022
3150 Clouds 37 1013 17 10000 4.59 277 12:23 13.06.2022
3151 Clouds 37 1013 15 10000 3.67 247 10:56 13.06.2022
3152 Haze 26 1014 53 4000 6.69 270 10:26 13.06.2022
3153 Clouds 30 1013 32 8000 3.09 100 08:52 13.06.2022
3154 Clouds 29 1013 39 10000 4.12 110 06:37 13.06.2022
3155 Clouds 29 1014 39 10000 5.66 100 05:35 13.06.2022
3156 Clouds 29 1018 51 8000 2.06 120 01:55 13.06.2022
3157 Clouds 29 1018 51 8000 1.54 0 01:34 13.06.2022
3158 Thunderstorm 30 1017 48 8000 2.06 80 23:48 12.06.2022
3159 Clouds 30 1017 51 8000 2.06 120 22:44 12.06.2022
3160 Thunderstorm 29 1017 54 8000 1.54 0 21:53 12.06.2022
3161 Clouds 29 1015 54 8000 6.17 260 20:53 12.06.2022
3162 Clouds 33 1015 43 8000 2.57 280 19:59 12.06.2022
3163 Clouds 32 1015 43 8000 3.6 280 19:30 12.06.2022
3164 Thunderstorm 33 1015 43 8000 5.66 240 17:40 12.06.2022
3165 Clouds 34 1014 40 8000 4.12 290 15:54 12.06.2022
3166 Clouds 32 1015 45 8000 3.6 280 14:51 12.06.2022
3167 Clouds 31 1015 48 8000 3.6 300 14:19 12.06.2022
3168 Clouds 29 1016 54 8000 4.12 280 13:46 12.06.2022
3169 Clouds 26 1016 65 8000 3.6 290 12:31 12.06.2022
3170 Clouds 23 1016 73 8000 3.6 280 11:22 12.06.2022
3171 Clouds 22 1016 78 10000 2.06 260 10:21 12.06.2022
3172 Clouds 20 1015 83 10000 3.09 280 08:52 12.06.2022
3173 Clouds 19 1015 82 10000 3.09 250 08:34 12.06.2022
3174 Clear 21 1014 73 10000 4.12 270 06:49 12.06.2022
3175 Clear 26 1013 47 10000 3.09 290 04:35 12.06.2022
3176 Clouds 28 1014 54 10000 3.6 80 02:32 12.06.2022
3177 Clouds 28 1015 51 10000 1.54 30 01:36 12.06.2022
3178 Clouds 28 1016 54 10000 2.57 280 00:58 12.06.2022
3179 Clouds 29 1016 51 10000 4.12 280 00:19 12.06.2022
3180 Clouds 31 1015 45 10000 3.6 130 23:21 11.06.2022
3181 Clouds 30 1014 48 10000 2.06 10 22:38 11.06.2022
3182 Clouds 30 1014 48 10000 2.06 10 22:38 11.06.2022
3183 Clouds 30 1014 48 8000 6.69 250 21:36 11.06.2022
3184 Clouds 33 1013 40 6000 4.12 250 20:27 11.06.2022
3185 Clouds 35 1013 38 7000 4.12 280 19:37 11.06.2022
3186 Clouds 36 1012 34 7000 3.09 360 18:50 11.06.2022
3187 Thunderstorm 36 1013 34 7000 5.14 0 18:31 11.06.2022
3188 Thunderstorm 34 1012 40 7000 7.72 260 17:49 11.06.2022
3189 Thunderstorm 35 1013 36 8000 5.14 220 17:26 11.06.2022
3190 Thunderstorm 35 1013 36 8000 5.14 220 17:26 11.06.2022
3191 Thunderstorm 36 1012 36 8000 5.66 260 16:44 11.06.2022
3192 Thunderstorm 35 1012 38 8000 3.09 270 16:25 11.06.2022
3193 Clouds 35 1012 38 8000 4.63 280 15:18 11.06.2022
3194 Clouds 33 1013 46 10000 2.57 310 13:52 11.06.2022
3195 Clear 27 1014 61 10000 2.57 300 12:19 11.06.2022
3196 Clouds 24 1014 69 10000 2.57 300 10:40 11.06.2022
3197 Clouds 23 1014 68 10000 3.09 270 09:42 11.06.2022
3198 Clouds 23 1014 68 10000 2.57 250 08:45 11.06.2022
3199 Clouds 22 1013 73 10000 2.57 260 06:34 11.06.2022
3200 Clouds 22 1013 73 10000 2.57 280 05:58 11.06.2022
3201 Clouds 23 1013 68 10000 2.06 240 03:45 11.06.2022
3202 Clouds 25 1014 61 10000 4.12 250 01:52 11.06.2022
3203 Clouds 26 1014 57 10000 3.6 240 01:26 11.06.2022
3204 Clouds 31 1014 45 10000 3.09 280 23:28 10.06.2022
3205 Clouds 32 1013 43 10000 4.63 250 22:27 10.06.2022
3206 Clouds 33 1013 40 10000 4.12 280 21:46 10.06.2022
3207 Clouds 38 1012 28 10000 2.57 330 20:39 10.06.2022
3208 Clouds 38 1012 28 10000 2.57 350 20:20 10.06.2022
3209 Clouds 38 1012 28 10000 2.57 300 19:19 10.06.2022
3210 Clouds 38 1012 28 10000 2.57 300 18:46 10.06.2022
3211 Clouds 37 1012 32 10000 2.06 0 17:54 10.06.2022
3212 Clouds 37 1013 32 10000 2.57 0 17:23 10.06.2022
3213 Clouds 35 1013 36 10000 3.09 0 16:28 10.06.2022
3214 Clear 33 1013 40 10000 2.06 0 15:40 10.06.2022
3215 Clear 31 1014 45 10000 2.06 0 14:28 10.06.2022
3216 Clear 28 1014 54 10000 3.09 290 12:58 10.06.2022
3217 Clear 26 1014 61 10000 2.57 320 11:59 10.06.2022
3218 Clear 24 1015 69 10000 2.57 270 10:51 10.06.2022
3219 Clear 22 1015 73 10000 3.09 260 09:57 10.06.2022
3220 Clear 20 1014 77 10000 3.6 250 08:48 10.06.2022
3221 Clear 20 1014 77 10000 3.09 250 07:41 10.06.2022
3222 Clear 21 1013 73 10000 2.57 260 06:46 10.06.2022
3223 Clear 22 1013 68 10000 2.57 240 06:27 10.06.2022
3224 Clear 22 1014 68 10000 2.57 250 04:47 10.06.2022
3225 Clear 27 1015 50 10000 2.57 50 01:59 10.06.2022
3226 Clear 27 1015 50 10000 2.06 20 01:36 10.06.2022
3227 Clear 27 1015 50 10000 2.06 20 01:36 10.06.2022
3228 Clear 28 1016 47 10000 3.09 30 23:57 09.06.2022
3229 Clouds 30 1014 42 8000 4.12 10 22:24 09.06.2022
3230 Clouds 33 1013 38 8000 5.14 30 21:38 09.06.2022
3231 Clouds 33 1013 38 8000 5.14 30 21:18 09.06.2022
3232 Clouds 35 1012 34 6000 6.17 350 20:36 09.06.2022
3233 Clouds 36 1012 30 6000 6.17 330 19:41 09.06.2022
3234 Clouds 39 1012 19 10000 2.06 0 18:36 09.06.2022
3235 Clouds 37 1013 20 10000 3.6 50 17:28 09.06.2022
3236 Clouds 36 1013 23 10000 3.09 0 16:28 09.06.2022
3237 Clear 34 1014 29 10000 3.09 0 14:45 09.06.2022
3238 Clear 33 1014 31 10000 3.09 350 14:24 09.06.2022
3239 Clear 31 1015 35 10000 3.09 330 13:30 09.06.2022
3240 Clear 31 1015 35 10000 1.54 0 12:51 09.06.2022
3241 Clear 27 1015 41 10000 2.06 0 11:20 09.06.2022
3242 Clear 24 1016 46 10000 2.57 50 09:55 09.06.2022
3243 Clear 24 1016 46 10000 2.57 50 09:55 09.06.2022
3244 Clear 24 1016 46 10000 2.57 60 09:37 09.06.2022
3245 Clear 22 1015 53 10000 2.06 70 08:33 09.06.2022
3246 Clear 22 1015 53 10000 2.06 70 07:24 09.06.2022
3247 Clear 23 1017 50 10000 2.75 31 03:29 09.06.2022
3248 Clear 27 1018 41 10000 5.14 50 00:32 09.06.2022
3249 Clear 28 1018 42 10000 5.14 30 23:18 08.06.2022
3250 Clear 29 1017 39 10000 5.66 30 22:42 08.06.2022
3251 Clear 31 1016 35 10000 7.2 30 22:23 08.06.2022
3252 Clear 33 1016 31 10000 6.69 360 21:32 08.06.2022
3253 Clear 36 1016 20 10000 3.09 60 20:25 08.06.2022
3254 Clear 37 1016 19 10000 2.57 0 19:40 08.06.2022
3255 Clear 37 1016 20 10000 2.06 20 18:48 08.06.2022
3256 Clear 35 1016 21 10000 3.6 60 17:38 08.06.2022
3257 Clear 34 1017 26 10000 3.6 40 15:53 08.06.2022
3258 Clear 32 1018 31 10000 1.54 0 14:38 08.06.2022
3259 Clear 29 1019 39 10000 1.54 0 12:55 08.06.2022
3260 Clear 26 1020 53 10000 1.03 0 11:36 08.06.2022
3261 Clear 25 1020 57 10000 1.03 0 10:46 08.06.2022
3262 Clear 20 1019 73 10000 1.54 230 09:28 08.06.2022
3263 Clear 19 1019 72 10000 2.06 250 08:54 08.06.2022
3264 Clear 20 1018 64 10000 2.06 260 06:56 08.06.2022
3265 Clear 23 1018 56 10000 1.54 30 04:41 08.06.2022
3266 Clear 26 1019 44 10000 2.57 60 01:25 08.06.2022
3267 Clear 28 1018 39 10000 5.14 30 23:32 07.06.2022
3268 Clear 29 1018 37 10000 5.14 20 22:54 07.06.2022
3269 Clear 30 1018 37 10000 5.66 20 22:34 07.06.2022
3270 Clear 33 1017 27 10000 4.12 10 21:39 07.06.2022
3271 Clear 34 1016 27 10000 4.12 360 21:20 07.06.2022
3272 Clear 35 1016 24 10000 4.12 350 20:40 07.06.2022
3273 Clear 36 1016 24 10000 2.57 0 19:51 07.06.2022
3274 Clear 36 1017 26 10000 1.54 0 18:25 07.06.2022
3275 Clear 34 1017 27 10000 2.57 0 17:31 07.06.2022
3276 Clear 35 1018 26 10000 2.06 0 16:44 07.06.2022
3277 Clear 33 1018 33 10000 2.57 0 15:58 07.06.2022
3278 Clear 32 1019 35 10000 2.06 0 15:36 07.06.2022
3279 Clear 32 1019 35 10000 2.06 0 15:18 07.06.2022
3280 Clear 31 1019 37 10000 3.09 310 14:42 07.06.2022
3281 Clear 28 1020 47 10000 2.57 290 13:34 07.06.2022
3282 Clear 27 1020 50 10000 2.57 270 12:54 07.06.2022
3283 Clear 25 1020 57 10000 2.57 230 11:51 07.06.2022
3284 Clear 23 1020 60 10000 2.57 270 10:48 07.06.2022
3285 Clear 19 1020 72 10000 3.09 240 08:53 07.06.2022
3286 Clear 19 1019 72 10000 3.09 250 07:54 07.06.2022
3287 Clear 20 1019 68 10000 2.57 260 06:41 07.06.2022
3288 Clear 22 1019 60 10000 3.09 240 04:41 07.06.2022
3289 Clear 25 1020 50 10000 1.03 0 01:27 07.06.2022
3290 Clear 27 1019 41 10000 4.12 30 23:58 06.06.2022
3291 Clear 29 1018 37 10000 5.66 30 22:54 06.06.2022
3292 Clear 30 1017 37 10000 4.63 360 22:30 06.06.2022
3293 Clear 34 1016 27 10000 3.09 30 20:54 06.06.2022
3294 Clear 35 1016 26 10000 2.57 0 19:29 06.06.2022
3295 Clear 35 1016 28 10000 2.57 0 18:49 06.06.2022
3296 Clear 34 1016 27 10000 1.54 0 18:26 06.06.2022
3297 Clear 34 1017 29 10000 2.06 0 17:26 06.06.2022
3298 Clear 34 1017 29 10000 2.06 0 17:26 06.06.2022
3299 Clear 34 1017 31 10000 2.57 0 16:18 06.06.2022
3300 Clear 32 1018 37 10000 2.57 320 15:28 06.06.2022
3301 Clear 28 1019 44 10000 2.06 0 14:30 06.06.2022
3302 Clear 28 1019 47 10000 2.57 0 13:25 06.06.2022
3303 Clear 26 1019 53 10000 1.54 270 12:36 06.06.2022
3304 Clear 25 1019 57 10000 1.54 330 11:53 06.06.2022
3305 Clear 21 1020 68 10000 1.03 0 10:40 06.06.2022
3306 Clear 19 1019 77 10000 1.03 0 09:33 06.06.2022
3307 Clear 18 1019 77 10000 2.06 230 08:32 06.06.2022
3308 Clear 18 1018 72 10000 2.06 240 07:28 06.06.2022
3309 Clear 20 1018 68 10000 2.57 240 05:27 06.06.2022
3310 Clear 23 1019 56 10000 2.57 30 02:55 06.06.2022
3311 Clear 24 1019 53 10000 1.54 60 01:18 06.06.2022
3312 Clear 24 1019 57 10000 3.6 60 00:38 06.06.2022
3313 Clear 25 1019 53 10000 5.14 40 23:33 05.06.2022
3314 Clear 27 1018 44 10000 6.17 20 22:45 05.06.2022
3315 Clear 26 1018 47 10000 6.17 30 22:45 05.06.2022
3316 Clouds 33 1016 29 10000 3.09 80 20:46 05.06.2022
3317 Clouds 34 1016 29 10000 2.06 0 19:41 05.06.2022
3318 Clouds 33 1017 29 10000 2.57 0 18:29 05.06.2022
3319 Clouds 33 1017 31 10000 2.06 0 17:54 05.06.2022
3320 Clear 33 1017 31 10000 3.6 60 17:25 05.06.2022
3321 Clear 32 1018 35 10000 2.06 0 16:51 05.06.2022
3322 Clear 31 1018 37 10000 3.09 0 16:30 05.06.2022
3323 Clear 28 1019 44 10000 2.57 20 14:25 05.06.2022
3324 Clear 25 1019 50 10000 2.57 20 12:55 05.06.2022
3325 Clear 25 1019 50 10000 2.57 20 12:55 05.06.2022
3326 Clear 24 1020 57 10000 1.54 0 11:45 05.06.2022
3327 Clear 21 1020 64 10000 1.03 0 10:34 05.06.2022
3328 Clear 20 1019 68 10000 2.06 90 09:59 05.06.2022
3329 Clear 18 1019 72 10000 2.06 90 08:32 05.06.2022
3330 Clear 18 1019 68 10000 2.06 70 07:43 05.06.2022
3331 Clear 19 1019 68 10000 3.09 40 05:22 05.06.2022
3332 Clear 20 1019 64 10000 3.6 40 03:47 05.06.2022
3333 Clear 21 1020 60 10000 4.63 40 01:32 05.06.2022
3334 Clear 22 1019 56 10000 5.14 30 00:33 05.06.2022
3335 Clear 26 1018 44 10000 5.66 20 22:22 04.06.2022
3336 Clear 28 1017 39 10000 4.12 20 20:31 04.06.2022
3337 Clear 29 1017 37 10000 3.09 340 18:19 04.06.2022
3338 Clear 29 1017 34 10000 2.57 320 16:44 04.06.2022
3339 Clear 28 1017 39 10000 2.57 0 16:18 04.06.2022
3340 Clouds 26 1017 44 10000 2.57 0 14:53 04.06.2022
3341 Clouds 23 1018 56 10000 2.57 0 12:35 04.06.2022
3342 Clouds 21 1019 64 8000 2.57 0 11:19 04.06.2022
3343 Clouds 20 1019 68 8000 2.06 50 10:44 04.06.2022
3344 Clouds 20 1018 68 8000 2.06 60 09:44 04.06.2022
3345 Clouds 19 1018 68 8000 2.57 0 08:43 04.06.2022
3346 Clouds 18 1018 72 8000 2.57 30 07:41 04.06.2022
3347 Clouds 19 1017 68 8000 2.06 340 05:29 04.06.2022
3348 Clear 20 1018 64 8000 3.09 320 01:42 04.06.2022
3349 Clear 22 1018 56 8000 3.09 310 23:59 03.06.2022
3350 Clouds 24 1016 50 6000 5.14 340 22:40 03.06.2022
3351 Clouds 28 1015 34 10000 4.12 260 21:30 03.06.2022
3352 Clouds 29 1015 34 10000 4.63 270 20:37 03.06.2022
3353 Clouds 29 1015 34 10000 4.63 270 20:37 03.06.2022
3354 Clouds 29 1015 34 10000 4.63 270 20:37 03.06.2022
3355 Clouds 29 1015 34 10000 1.54 0 18:28 03.06.2022
3356 Clouds 28 1016 39 10000 2.57 0 16:49 03.06.2022
3357 Clouds 27 1016 44 10000 2.06 100 15:37 03.06.2022
3358 Clouds 24 1017 53 10000 2.06 120 13:28 03.06.2022
3359 Clouds 21 1017 68 10000 1.54 0 11:40 03.06.2022
3360 Clouds 20 1017 68 10000 1.03 0 09:50 03.06.2022
3361 Clouds 20 1017 68 10000 1.03 0 09:50 03.06.2022
3362 Clouds 19 1017 72 10000 1.54 30 09:28 03.06.2022
3363 Clouds 19 1016 72 10000 1.54 350 07:27 03.06.2022
3364 Clouds 19 1016 72 10000 2.57 280 06:44 03.06.2022
3365 Clouds 19 1016 72 10000 2.57 290 06:26 03.06.2022
3366 Clouds 20 1017 64 10000 4.12 310 01:23 03.06.2022
3367 Clouds 22 1016 56 10000 5.66 310 23:31 02.06.2022
3368 Clouds 27 1014 39 10000 4.63 300 21:57 02.06.2022
3369 Clouds 28 1014 39 10000 4.12 270 20:25 02.06.2022
3370 Clouds 29 1014 37 10000 2.57 290 19:52 02.06.2022
3371 Clouds 29 1014 37 10000 3.09 300 19:33 02.06.2022
3372 Clouds 27 1015 41 10000 2.57 0 17:58 02.06.2022
3373 Clouds 26 1016 50 10000 1.54 0 16:28 02.06.2022
3374 Clouds 25 1016 53 10000 2.57 0 14:34 02.06.2022
3375 Clouds 24 1017 60 10000 2.57 350 13:30 02.06.2022
3376 Clouds 23 1017 64 10000 1.03 0 12:42 02.06.2022
3377 Clouds 20 1018 73 10000 3.09 280 10:31 02.06.2022
3378 Clouds 19 1017 77 10000 3.09 270 09:28 02.06.2022
3379 Clouds 19 1017 77 10000 2.57 260 08:29 02.06.2022
3380 Clouds 19 1017 77 10000 2.57 260 07:48 02.06.2022
3381 Clouds 20 1017 73 10000 2.57 290 05:33 02.06.2022
3382 Clouds 20 1017 73 10000 2.57 300 03:48 02.06.2022
3383 Clear 22 1018 64 10000 4.12 320 00:31 02.06.2022
3384 Clear 24 1017 53 10000 6.17 280 22:55 01.06.2022
3385 Clear 28 1015 39 10000 6.17 310 21:45 01.06.2022
3386 Clear 30 1014 32 10000 5.14 300 21:20 01.06.2022
3387 Clear 31 1014 30 10000 4.12 300 20:38 01.06.2022
3388 Clear 32 1014 27 10000 4.12 300 19:48 01.06.2022
3389 Clear 32 1014 29 10000 3.09 310 18:19 01.06.2022
3390 Clear 32 1016 27 10000 1.54 0 16:46 01.06.2022
3391 Clear 29 1017 37 10000 2.06 0 15:39 01.06.2022
3392 Clear 28 1017 36 10000 1.54 0 14:31 01.06.2022
3393 Clear 25 1018 50 10000 2.06 0 12:42 01.06.2022
3394 Clear 22 1018 64 10000 2.06 290 10:41 01.06.2022
3395 Clear 20 1017 73 10000 1.03 0 09:26 01.06.2022
3396 Clear 16 1016 82 10000 1.54 250 07:56 01.06.2022
3397 Clear 16 1016 77 10000 1.54 260 06:41 01.06.2022
3398 Clear 21 1017 60 10000 2.57 300 01:44 01.06.2022
3399 Clear 23 1017 49 10000 3.09 290 23:47 31.05.2022
3400 Clear 25 1016 41 10000 4.12 280 22:38 31.05.2022
3401 Clear 25 1016 41 10000 4.12 280 22:38 31.05.2022
3402 Clear 26 1016 38 10000 4.12 310 21:46 31.05.2022
3403 Clear 28 1014 36 10000 6.69 300 20:57 31.05.2022
3404 Clear 29 1014 37 10000 6.17 300 20:33 31.05.2022
3405 Clear 33 1013 25 10000 5.66 280 18:57 31.05.2022
3406 Clear 33 1012 27 10000 4.12 300 18:19 31.05.2022
3407 Clear 33 1012 25 10000 4.63 280 17:35 31.05.2022
3408 Clear 31 1013 29 10000 3.6 300 15:42 31.05.2022
3409 Clear 29 1014 37 10000 2.57 0 14:36 31.05.2022
3410 Clear 24 1014 53 10000 2.06 320 12:39 31.05.2022
3411 Clear 24 1014 53 10000 2.06 320 12:18 31.05.2022
3412 Clear 18 1014 77 10000 2.06 270 09:53 31.05.2022
3413 Clear 16 1013 82 10000 3.09 230 07:42 31.05.2022
3414 Clear 17 1013 72 10000 2.57 240 05:25 31.05.2022
3415 Clear 20 1014 60 10000 2.06 250 02:51 31.05.2022
3416 Clear 25 1013 44 10000 4.63 300 23:29 30.05.2022
3417 Clear 25 1012 44 10000 5.14 260 23:00 30.05.2022
3418 Clear 26 1012 38 10000 4.63 270 22:32 30.05.2022
3419 Clear 28 1012 30 10000 4.12 260 21:37 30.05.2022
3420 Clear 29 1011 28 10000 3.09 280 20:41 30.05.2022
3421 Clear 30 1011 26 10000 3.09 300 19:38 30.05.2022
3422 Clear 30 1011 28 10000 2.06 0 17:44 30.05.2022
3423 Clear 29 1012 32 10000 2.06 0 17:18 30.05.2022
3424 Clear 28 1012 36 10000 3.09 330 15:44 30.05.2022
3425 Clear 23 1013 56 10000 2.57 0 12:58 30.05.2022
3426 Clear 20 1013 64 10000 2.57 330 11:30 30.05.2022
3427 Clear 18 1014 72 10000 1.03 0 09:41 30.05.2022
3428 Clear 15 1013 77 10000 2.06 230 07:29 30.05.2022
3429 Clear 14 1013 77 10000 1.54 250 05:52 30.05.2022
3430 Clouds 17 1014 67 10000 1.54 260 03:18 30.05.2022
3431 Clouds 21 1014 56 10000 5.14 290 23:32 29.05.2022
3432 Clouds 23 1014 56 10000 3.09 240 22:40 29.05.2022
3433 Clouds 23 1013 56 10000 4.63 200 21:44 29.05.2022
3434 Clouds 24 1013 53 10000 3.09 200 20:18 29.05.2022
3435 Clouds 24 1013 53 10000 3.6 200 19:28 29.05.2022
3436 Clouds 23 1013 56 10000 2.57 0 17:56 29.05.2022
3437 Clouds 22 1014 60 10000 1.54 0 15:59 29.05.2022
3438 Clouds 21 1015 64 10000 2.57 290 15:40 29.05.2022
3439 Clouds 20 1015 68 10000 3.09 300 14:49 29.05.2022
3440 Clouds 17 1015 82 10000 2.57 260 12:21 29.05.2022
3441 Clouds 17 1015 82 8000 1.54 280 10:56 29.05.2022
3442 Clouds 17 1014 82 8000 2.57 280 09:54 29.05.2022
3443 Clouds 16 1014 82 8000 4.12 260 07:42 29.05.2022
3444 Clouds 17 1014 77 10000 4.63 260 04:51 29.05.2022
3445 Clouds 18 1014 72 10000 5.14 260 04:32 29.05.2022
3446 Clouds 20 1015 68 10000 3.6 250 00:53 29.05.2022
3447 Clouds 22 1016 60 10000 5.14 250 23:47 28.05.2022
3448 Clouds 24 1015 53 10000 5.66 270 23:18 28.05.2022
3449 Clouds 28 1015 42 10000 5.14 280 21:46 28.05.2022
3450 Clouds 30 1014 39 10000 6.69 270 20:40 28.05.2022
3451 Clouds 32 1013 37 10000 6.69 270 19:19 28.05.2022
3452 Clouds 33 1013 31 10000 3.09 280 18:19 28.05.2022
3453 Clouds 32 1014 33 10000 3.6 260 17:30 28.05.2022
3454 Thunderstorm 29 1014 45 10000 2.57 260 15:45 28.05.2022
3455 Thunderstorm 30 1015 32 10000 3.6 280 15:19 28.05.2022
3456 Clouds 28 1016 39 10000 3.09 300 13:27 28.05.2022
3457 Clouds 28 1016 39 10000 3.09 300 13:27 28.05.2022
3458 Clear 28 1016 39 10000 3.6 300 12:42 28.05.2022
3459 Clear 25 1016 53 10000 3.09 300 11:28 28.05.2022
3460 Clouds 24 1015 57 8000 2.57 280 10:32 28.05.2022
3461 Clouds 23 1015 60 8000 1.54 280 09:46 28.05.2022
3462 Clouds 20 1014 68 8000 2.06 240 07:56 28.05.2022
3463 Clouds 19 1014 72 8000 2.57 250 06:32 28.05.2022
3464 Clouds 22 1014 60 8000 3.6 270 04:39 28.05.2022
3465 Clouds 28 1016 34 8000 4.12 150 01:30 28.05.2022
3466 Clouds 28 1016 36 6000 9.26 150 23:53 27.05.2022
3467 Sand 29 1017 32 2000 10.8 170 22:32 27.05.2022
3468 Clouds 32 1017 23 10000 7.72 190 20:59 27.05.2022
3469 Clouds 32 1017 23 10000 7.72 190 20:40 27.05.2022
3470 Clouds 34 1016 21 10000 5.14 210 19:56 27.05.2022
3471 Clouds 33 1016 25 10000 5.66 170 19:34 27.05.2022
3472 Clouds 32 1017 29 10000 7.2 140 18:41 27.05.2022
3473 Sand 34 1016 20 3000 10.29 190 16:42 27.05.2022
3474 Clouds 34 1016 26 10000 6.17 260 15:46 27.05.2022
3475 Clouds 37 1015 22 10000 2.06 0 14:45 27.05.2022
3476 Clouds 32 1015 31 8000 2.57 290 13:36 27.05.2022
3477 Clouds 28 1016 42 8000 2.06 300 11:48 27.05.2022
3478 Clouds 27 1016 44 8000 2.06 280 11:26 27.05.2022
3479 Clouds 24 1016 50 8000 2.57 260 10:35 27.05.2022
3480 Clouds 23 1015 53 8000 2.57 260 09:42 27.05.2022
3481 Clouds 23 1015 49 8000 0.51 0 08:48 27.05.2022
3482 Clouds 22 1015 53 8000 1.54 70 06:50 27.05.2022
3483 Clouds 23 1017 49 8000 1.54 270 02:57 27.05.2022
3484 Clouds 26 1018 44 8000 3.6 230 00:54 27.05.2022
3485 Clouds 28 1017 39 8000 4.63 270 22:53 26.05.2022
3486 Clouds 31 1016 33 8000 5.14 240 21:45 26.05.2022
3487 Clouds 34 1016 22 8000 3.6 250 20:59 26.05.2022
3488 Clouds 35 1015 18 8000 4.63 260 19:29 26.05.2022
3489 Clouds 34 1015 20 8000 4.12 260 18:24 26.05.2022
3490 Clouds 35 1015 20 8000 3.09 280 16:59 26.05.2022
3491 Clear 35 1015 21 8000 2.06 0 15:52 26.05.2022
3492 Clear 33 1015 25 8000 3.09 0 15:18 26.05.2022
3493 Clear 31 1016 27 8000 2.06 0 13:45 26.05.2022
3494 Clear 25 1016 44 8000 1.03 0 11:47 26.05.2022
3495 Clear 20 1016 60 8000 1.54 260 10:37 26.05.2022
3496 Clouds 19 1016 59 8000 1.54 260 09:37 26.05.2022
3497 Clouds 18 1015 63 10000 1.54 260 08:38 26.05.2022
3498 Clear 19 1015 59 10000 2.06 250 05:25 26.05.2022
3499 Clear 22 1016 53 10000 3.09 60 01:26 26.05.2022
3500 Clear 24 1016 41 10000 4.12 360 23:41 25.05.2022
3501 Clear 28 1015 23 10000 2.06 30 22:48 25.05.2022
3502 Clouds 30 1015 23 10000 2.57 20 21:37 25.05.2022
3503 Clouds 31 1015 23 10000 3.09 20 20:39 25.05.2022
3504 Clouds 31 1015 25 10000 2.06 30 19:31 25.05.2022
3505 Clouds 30 1015 28 10000 2.06 0 18:20 25.05.2022
3506 Clear 29 1016 34 10000 3.09 40 16:41 25.05.2022
3507 Clear 29 1016 37 10000 1.54 360 16:21 25.05.2022
3508 Clear 28 1016 36 10000 2.57 360 15:24 25.05.2022
3509 Clear 25 1017 44 10000 2.57 330 14:37 25.05.2022
3510 Clear 25 1017 44 10000 2.57 330 14:19 25.05.2022
3511 Clear 22 1017 53 10000 3.09 10 12:48 25.05.2022
3512 Clouds 22 1016 42 10000 2.7 20 11:31 25.05.2022
3513 Clear 18 1017 63 10000 1.54 50 10:22 25.05.2022
3514 Clouds 16 1017 65 10000 2.61 28 08:45 25.05.2022
3515 Clouds 15 1016 69 10000 2.78 28 07:23 25.05.2022
3516 Clear 16 1016 72 10000 2.57 50 05:23 25.05.2022
3517 Clear 20 1017 56 10000 4.12 50 00:31 25.05.2022
3518 Clear 20 1017 56 10000 5.14 40 23:47 24.05.2022
3519 Clear 22 1016 53 10000 4.63 40 22:52 24.05.2022
3520 Clear 24 1015 50 10000 5.66 350 21:46 24.05.2022
3521 Clouds 26 1015 44 10000 5.66 360 21:21 24.05.2022
3522 Clouds 28 1014 39 10000 4.63 360 20:38 24.05.2022
3523 Clouds 30 1014 35 10000 2.06 0 18:57 24.05.2022
3524 Clouds 29 1014 42 10000 2.06 0 17:19 24.05.2022
3525 Clouds 27 1015 47 10000 2.57 0 16:29 24.05.2022
3526 Clear 25 1016 53 10000 2.06 330 15:20 24.05.2022
3527 Clouds 24 1016 57 8000 2.06 360 14:34 24.05.2022
3528 Clouds 22 1016 64 8000 2.57 0 13:34 24.05.2022
3529 Clouds 19 1016 77 8000 2.06 250 11:53 24.05.2022
3530 Clouds 17 1016 82 8000 1.54 230 09:49 24.05.2022
3531 Clouds 16 1016 88 10000 3.6 240 08:51 24.05.2022
3532 Clear 16 1014 82 10000 2.57 250 07:32 24.05.2022
3533 Clear 17 1014 82 10000 2.57 250 06:27 24.05.2022
3534 Clear 21 1014 60 10000 3.09 240 02:58 24.05.2022
3535 Clear 23 1014 56 10000 2.57 40 01:44 24.05.2022
3536 Clear 26 1014 44 10000 2.06 360 23:59 23.05.2022
3537 Clouds 28 1013 39 10000 4.12 10 22:22 23.05.2022
3538 Clouds 29 1012 37 10000 4.12 10 21:42 23.05.2022
3539 Clouds 31 1011 35 10000 5.14 340 20:45 23.05.2022
3540 Clouds 34 1011 27 10000 4.63 340 19:47 23.05.2022
3541 Clouds 36 1011 24 10000 2.57 360 19:18 23.05.2022
3542 Clouds 35 1011 26 10000 3.6 270 18:40 23.05.2022
3543 Clouds 35 1010 26 10000 3.09 320 17:56 23.05.2022
3544 Clouds 33 1012 33 10000 2.57 0 15:55 23.05.2022
3545 Clouds 30 1012 39 10000 1.54 0 14:18 23.05.2022
3546 Clouds 25 1013 53 10000 2.06 320 11:52 23.05.2022
3547 Clouds 23 1013 60 10000 1.03 0 10:47 23.05.2022
3548 Clouds 21 1013 64 10000 1.54 250 09:47 23.05.2022
3549 Clouds 19 1013 68 10000 2.06 260 08:46 23.05.2022
3550 Clear 19 1013 63 10000 2.06 250 07:24 23.05.2022
3551 Clear 19 1013 63 10000 1.54 260 06:39 23.05.2022
3552 Clear 22 1015 56 10000 1.03 0 03:27 23.05.2022
3553 Clear 24 1016 50 10000 1.54 60 01:52 23.05.2022
3554 Clear 24 1016 50 10000 1.54 70 01:26 23.05.2022
3555 Clear 27 1015 39 10000 5.14 30 23:18 22.05.2022
3556 Clear 28 1015 36 10000 5.14 20 22:27 22.05.2022
3557 Clear 29 1015 37 10000 5.14 360 21:51 22.05.2022
3558 Clear 32 1014 31 10000 3.09 330 20:43 22.05.2022
3559 Clear 33 1014 29 10000 1.54 340 20:22 22.05.2022
3560 Clear 33 1014 31 10000 2.06 0 19:34 22.05.2022
3561 Clear 33 1015 31 10000 1.54 0 18:50 22.05.2022
3562 Clear 33 1015 33 10000 2.06 0 18:21 22.05.2022
3563 Clear 32 1016 37 10000 1.54 0 16:57 22.05.2022
3564 Clear 29 1016 45 10000 1.54 0 15:34 22.05.2022
3565 Clear 29 1017 48 10000 2.57 0 14:47 22.05.2022
3566 Clear 26 1017 57 10000 1.54 0 12:55 22.05.2022
3567 Clear 25 1017 57 10000 1.54 0 12:33 22.05.2022
3568 Clear 23 1017 64 10000 1.54 0 10:53 22.05.2022
3569 Clear 19 1017 77 10000 1.54 250 09:38 22.05.2022
3570 Clear 18 1017 77 10000 2.57 270 07:52 22.05.2022
3571 Clear 18 1016 77 10000 3.09 280 07:20 22.05.2022
3572 Clear 19 1016 72 10000 3.6 250 04:30 22.05.2022
3573 Clear 23 1018 60 10000 1.54 30 01:19 22.05.2022
3574 Clear 25 1018 53 10000 3.09 40 23:57 21.05.2022
3575 Clear 25 1018 53 10000 4.63 40 23:32 21.05.2022
3576 Clear 27 1018 44 10000 4.12 10 22:22 21.05.2022
3577 Clear 30 1017 39 10000 3.09 320 21:39 21.05.2022
3578 Clear 30 1016 42 10000 3.6 350 20:48 21.05.2022
3579 Clear 31 1016 40 10000 4.12 320 20:19 21.05.2022
3580 Clouds 32 1016 37 10000 4.63 270 19:24 21.05.2022
3581 Clouds 33 1016 38 8000 5.66 290 17:35 21.05.2022
3582 Clouds 31 1016 42 8000 2.57 0 15:38 21.05.2022
3583 Clouds 29 1017 48 8000 3.6 270 14:37 21.05.2022
3584 Clear 27 1017 54 8000 4.63 280 13:39 21.05.2022
3585 Clear 25 1017 61 8000 2.57 0 12:40 21.05.2022
3586 Clouds 24 1017 64 8000 2.57 0 11:54 21.05.2022
3587 Clouds 21 1017 78 8000 2.57 300 10:22 21.05.2022
3588 Clouds 19 1017 82 8000 3.09 250 09:20 21.05.2022
3589 Clouds 19 1017 82 8000 3.09 250 09:20 21.05.2022
3590 Clouds 18 1017 82 8000 3.6 240 08:47 21.05.2022
3591 Clouds 21 1015 58 10000 2.8 253 06:22 21.05.2022
3592 Clouds 21 1017 73 8000 3.6 270 02:24 21.05.2022
3593 Clouds 24 1017 60 8000 3.09 240 23:45 20.05.2022
3594 Clouds 25 1016 57 6000 3.6 290 22:42 20.05.2022
3595 Clouds 27 1015 50 6000 4.63 280 22:22 20.05.2022
3596 Clouds 27 1014 50 6000 2.06 0 21:27 20.05.2022
3597 Clouds 28 1015 51 6000 5.14 280 20:51 20.05.2022
3598 Clouds 30 1014 45 6000 8.75 260 19:55 20.05.2022
3599 Clouds 34 1012 36 6000 8.23 270 18:59 20.05.2022
3600 Clouds 35 1012 34 6000 6.69 280 18:27 20.05.2022
3601 Clouds 34 1012 33 8000 5.66 280 16:49 20.05.2022
3602 Clouds 33 1013 38 8000 4.12 280 15:55 20.05.2022
3603 Clouds 32 1013 40 8000 4.12 280 15:32 20.05.2022
3604 Clouds 30 1013 48 8000 2.57 310 14:28 20.05.2022
3605 Clouds 27 1014 54 8000 3.09 290 13:31 20.05.2022
3606 Clouds 23 1013 64 10000 5.14 280 10:56 20.05.2022
3607 Clouds 21 1012 68 10000 4.12 260 09:50 20.05.2022
3608 Clouds 23 1011 53 10000 2.57 260 08:38 20.05.2022
3609 Clear 24 1010 53 10000 2.57 100 06:45 20.05.2022
3610 Clear 24 1011 50 10000 1.54 90 05:53 20.05.2022
3611 Clear 25 1012 50 10000 2.06 260 02:53 20.05.2022
3612 Clouds 29 1013 42 8000 4.12 270 23:54 19.05.2022
3613 Clouds 31 1012 35 8000 6.17 250 22:44 19.05.2022
3614 Clouds 35 1010 24 8000 5.14 350 21:53 19.05.2022
3615 Clouds 37 1010 19 8000 5.14 340 21:24 19.05.2022
3616 Dust 39 1009 15 3000 5.66 310 20:54 19.05.2022
3617 Clouds 41 1009 7 9000 4.12 60 20:20 19.05.2022
3618 Clouds 41 1009 7 9000 5.14 50 19:25 19.05.2022
3619 Clear 42 1010 8 10000 3.6 60 17:52 19.05.2022
3620 Clear 42 1011 8 10000 3.09 0 16:22 19.05.2022
3621 Clear 40 1012 9 10000 2.06 360 14:50 19.05.2022
3622 Clear 40 1012 11 10000 2.06 0 14:21 19.05.2022
3623 Clear 31 1013 37 10000 2.57 70 12:20 19.05.2022
3624 Clear 25 1014 53 10000 3.09 80 10:40 19.05.2022
3625 Clear 21 1014 68 10000 2.06 100 08:57 19.05.2022
3626 Clear 19 1014 72 10000 1.54 60 07:41 19.05.2022
3627 Clear 20 1014 64 10000 1.54 260 04:44 19.05.2022
3628 Clear 24 1015 50 10000 1.54 60 01:57 19.05.2022
3629 Clear 26 1016 47 10000 2.06 30 23:49 18.05.2022
3630 Clear 27 1015 47 10000 3.6 10 22:46 18.05.2022
3631 Clear 30 1014 39 10000 4.12 360 21:47 18.05.2022
3632 Clear 31 1014 37 10000 4.63 350 21:24 18.05.2022
3633 Clouds 33 1013 35 10000 5.14 350 20:24 18.05.2022
3634 Clouds 36 1012 26 10000 4.12 330 19:37 18.05.2022
3635 Clouds 36 1012 24 10000 3.6 320 18:21 18.05.2022
3636 Clear 36 1013 24 10000 4.12 290 17:41 18.05.2022
3637 Clear 36 1013 24 10000 4.12 290 17:23 18.05.2022
3638 Clear 34 1014 31 10000 3.6 330 15:59 18.05.2022
3639 Clear 34 1014 31 10000 3.6 330 15:59 18.05.2022
3640 Clear 33 1014 33 10000 3.09 320 15:38 18.05.2022
3641 Clear 31 1015 40 10000 3.6 320 14:30 18.05.2022
3642 Clear 31 1015 40 10000 3.6 320 14:30 18.05.2022
3643 Clear 29 1016 45 10000 2.06 0 13:20 18.05.2022
3644 Clear 27 1016 54 10000 1.54 340 12:39 18.05.2022
3645 Clear 25 1017 61 10000 2.06 300 11:34 18.05.2022
3646 Clear 23 1017 64 10000 1.54 0 10:52 18.05.2022
3647 Clear 18 1016 77 10000 3.09 240 08:29 18.05.2022
3648 Clear 18 1016 77 10000 2.06 260 07:28 18.05.2022
3649 Clear 20 1015 64 10000 3.09 250 05:21 18.05.2022
3650 Clear 26 1017 44 10000 1.54 360 00:52 18.05.2022
3651 Clear 26 1017 44 10000 1.54 360 00:52 18.05.2022
3652 Clear 26 1017 44 10000 2.57 30 00:20 18.05.2022
3653 Clear 30 1015 37 10000 6.17 360 21:36 17.05.2022
3654 Clear 30 1015 37 10000 6.17 360 21:18 17.05.2022
3655 Clear 35 1015 24 10000 4.12 350 19:49 17.05.2022
3656 Clear 35 1015 24 10000 3.09 300 19:26 17.05.2022
3657 Clear 36 1015 24 10000 3.09 0 17:49 17.05.2022
3658 Clear 34 1016 27 10000 2.57 0 16:58 17.05.2022
3659 Clear 33 1016 29 10000 2.06 0 16:29 17.05.2022
3660 Clear 31 1018 33 10000 1.54 360 15:24 17.05.2022
3661 Clear 30 1018 35 10000 2.57 0 14:30 17.05.2022
3662 Clear 30 1018 35 10000 2.57 0 14:30 17.05.2022
3663 Clear 28 1019 39 10000 2.06 0 13:32 17.05.2022
3664 Clear 23 1020 53 10000 2.06 290 11:21 17.05.2022
3665 Clear 19 1019 68 10000 2.06 240 09:23 17.05.2022
3666 Clear 17 1019 67 10000 3.6 280 07:59 17.05.2022
3667 Clear 20 1018 60 10000 3.09 220 06:36 17.05.2022
3668 Clear 23 1019 46 10000 1.54 30 02:27 17.05.2022
3669 Clear 24 1020 43 10000 3.6 80 00:32 17.05.2022
3670 Clear 26 1018 41 10000 5.14 30 22:42 16.05.2022
3671 Clear 29 1017 37 10000 6.17 20 21:36 16.05.2022
3672 Clear 33 1016 25 10000 2.06 20 20:46 16.05.2022
3673 Clear 33 1017 25 10000 2.57 10 19:22 16.05.2022
3674 Clear 33 1017 24 10000 2.06 0 17:58 16.05.2022
3675 Clear 31 1018 27 10000 2.57 0 15:49 16.05.2022
3676 Clear 29 1019 34 10000 2.06 0 13:49 16.05.2022
3677 Clear 27 1020 36 10000 3.6 60 12:50 16.05.2022
3678 Clear 22 1020 60 10000 3.09 70 10:52 16.05.2022
3679 Clear 20 1020 68 10000 1.03 0 09:23 16.05.2022
3680 Clear 17 1019 72 10000 1.03 0 06:34 16.05.2022
3681 Clouds 21 1020 64 10000 2.57 40 02:38 16.05.2022
3682 Clear 23 1020 56 10000 4.12 310 23:19 15.05.2022
3683 Clear 24 1019 53 10000 5.14 320 22:29 15.05.2022
3684 Clear 28 1018 36 10000 5.14 270 21:39 15.05.2022
3685 Clouds 29 1018 34 10000 5.14 270 20:53 15.05.2022
3686 Clouds 30 1018 30 10000 3.09 280 19:24 15.05.2022
3687 Clear 30 1018 28 10000 3.09 0 17:48 15.05.2022
3688 Clear 28 1019 39 10000 2.57 0 15:56 15.05.2022
3689 Clear 25 1020 50 10000 2.57 320 13:50 15.05.2022
3690 Clear 23 1020 56 10000 3.09 300 12:23 15.05.2022
3691 Clear 20 1020 68 10000 2.57 270 11:38 15.05.2022
3692 Clear 20 1020 68 10000 2.57 270 11:38 15.05.2022
3693 Clear 18 1019 72 10000 2.57 280 10:23 15.05.2022
3694 Clear 17 1018 77 10000 2.06 340 07:46 15.05.2022
3695 Clear 17 1018 72 10000 1.54 290 06:57 15.05.2022
3696 Clear 16 1017 77 10000 1.54 260 04:44 15.05.2022
3697 Clear 20 1019 64 10000 3.6 230 00:48 15.05.2022
3698 Clouds 23 1018 53 10000 5.14 280 23:38 14.05.2022
3699 Clouds 25 1017 41 10000 5.14 260 22:45 14.05.2022
3700 Clouds 30 1016 28 10000 3.6 280 21:28 14.05.2022
3701 Clouds 31 1016 27 10000 4.63 260 20:44 14.05.2022
3702 Clouds 32 1016 22 10000 4.12 270 19:37 14.05.2022
3703 Clouds 32 1016 22 10000 4.12 270 19:19 14.05.2022
3704 Clouds 32 1016 20 10000 3.09 0 17:56 14.05.2022
3705 Clouds 31 1017 22 10000 3.6 300 16:37 14.05.2022
3706 Clear 29 1018 26 10000 3.6 0 14:59 14.05.2022
3707 Clear 29 1018 32 10000 3.6 320 14:30 14.05.2022
3708 Clear 27 1018 50 10000 3.09 320 12:23 14.05.2022
3709 Clear 25 1018 53 10000 1.03 0 10:54 14.05.2022
3710 Clear 22 1018 64 10000 2.06 280 10:20 14.05.2022
3711 Clear 22 1018 64 10000 2.06 280 09:53 14.05.2022
3712 Clear 20 1018 68 10000 1.03 0 08:46 14.05.2022
3713 Clear 20 1017 64 10000 1.54 260 05:43 14.05.2022
3714 Clear 23 1018 56 10000 4.63 260 01:58 14.05.2022
3715 Clear 27 1018 44 10000 2.57 50 23:32 13.05.2022
3716 Clear 27 1018 44 10000 3.09 360 22:57 13.05.2022
3717 Clear 28 1018 42 10000 2.57 10 22:23 13.05.2022
3718 Clouds 29 1017 42 10000 2.57 340 21:38 13.05.2022
3719 Clouds 29 1017 42 10000 4.12 340 20:44 13.05.2022
3720 Clouds 30 1017 39 10000 4.63 340 20:24 13.05.2022
3721 Clouds 32 1016 31 10000 7.72 270 19:21 13.05.2022
3722 Clear 34 1016 22 10000 4.63 280 17:50 13.05.2022
3723 Clear 34 1016 22 10000 4.63 280 17:50 13.05.2022
3724 Clear 34 1016 24 10000 3.09 280 17:27 13.05.2022
3725 Clear 34 1017 26 10000 3.09 280 16:18 13.05.2022
3726 Clear 32 1018 33 10000 4.12 280 14:54 13.05.2022
3727 Clear 29 1018 39 10000 2.57 330 13:27 13.05.2022
3728 Clear 27 1018 44 10000 2.06 330 12:25 13.05.2022
3729 Clear 24 1018 50 10000 0.51 0 10:46 13.05.2022
3730 Clear 19 1018 59 10000 3.09 260 09:33 13.05.2022
3731 Clear 19 1017 55 10000 0.51 0 08:23 13.05.2022
3732 Clear 19 1017 55 8000 1.03 0 07:42 13.05.2022
3733 Clear 21 1016 49 8000 2.06 0 05:59 13.05.2022
3734 Clouds 21 1018 49 10000 1.54 270 02:44 13.05.2022
3735 Clouds 23 1017 49 10000 5.14 230 23:46 12.05.2022
3736 Clouds 24 1017 43 10000 3.09 240 22:44 12.05.2022
3737 Clouds 27 1016 36 10000 1.54 0 21:54 12.05.2022
3738 Clouds 30 1015 30 10000 5.14 340 20:25 12.05.2022
3739 Clouds 31 1014 30 10000 6.17 310 18:41 12.05.2022
3740 Thunderstorm 33 1014 22 10000 9.26 200 16:58 12.05.2022
3741 Clouds 33 1014 21 10000 8.75 200 15:50 12.05.2022
3742 Thunderstorm 31 1016 23 6000 2.06 120 14:39 12.05.2022
3743 Thunderstorm 27 1016 39 6000 4.12 70 13:34 12.05.2022
3744 Clouds 25 1015 31 8000 3.09 50 10:43 12.05.2022
3745 Clouds 24 1016 31 8000 3.6 260 09:19 12.05.2022
3746 Clouds 24 1015 31 8000 4.12 110 08:41 12.05.2022
3747 Clouds 24 1014 31 8000 3.09 120 07:37 12.05.2022
3748 Clouds 24 1014 31 8000 5.66 70 05:32 12.05.2022
3749 Clouds 25 1016 27 8000 6.17 80 02:49 12.05.2022
3750 Clouds 27 1020 28 8000 2.57 350 00:32 12.05.2022
3751 Clouds 28 1017 20 8000 5.14 360 22:33 11.05.2022
3752 Clouds 30 1016 19 8000 4.12 10 21:33 11.05.2022
3753 Clouds 31 1015 18 8000 4.12 330 20:53 11.05.2022
3754 Clouds 34 1015 20 8000 5.14 320 18:24 11.05.2022
3755 Clouds 35 1015 16 8000 4.12 270 16:51 11.05.2022
3756 Clouds 35 1015 16 8000 4.12 270 16:51 11.05.2022
3757 Clear 33 1016 21 10000 2.06 0 14:51 11.05.2022
3758 Clear 32 1016 20 10000 3.09 310 14:26 11.05.2022
3759 Clouds 31 1017 23 8000 3.6 290 13:51 11.05.2022
3760 Clouds 29 1017 26 8000 4.12 280 11:51 11.05.2022
3761 Clouds 25 1016 36 8000 1.03 0 10:27 11.05.2022
3762 Clear 22 1014 40 10000 1.54 110 08:37 11.05.2022
3763 Clear 22 1014 35 10000 0.51 0 05:19 11.05.2022
3764 Clear 26 1016 29 10000 4.63 230 00:42 11.05.2022
3765 Clear 29 1014 28 10000 4.63 270 22:30 10.05.2022
3766 Clear 31 1014 25 10000 6.17 270 21:55 10.05.2022
3767 Clear 35 1013 10 10000 3.6 250 20:54 10.05.2022
3768 Clear 37 1013 9 10000 2.57 260 19:26 10.05.2022
3769 Clear 37 1014 9 10000 4.63 300 17:49 10.05.2022
3770 Clear 37 1014 12 10000 3.6 300 16:56 10.05.2022
3771 Clouds 36 1013 7 10000 4.15 307 14:48 10.05.2022
3772 Clear 31 1016 22 10000 1.03 0 12:39 10.05.2022
3773 Clear 29 1016 24 10000 1.54 340 11:49 10.05.2022
3774 Clear 28 1016 24 10000 1.54 0 11:18 10.05.2022
3775 Clear 24 1016 33 10000 1.54 70 10:22 10.05.2022
3776 Clear 23 1016 35 10000 1.03 0 09:25 10.05.2022
3777 Clear 22 1015 33 10000 1.03 0 06:46 10.05.2022
3778 Clear 24 1016 29 10000 1.03 0 03:29 10.05.2022
3779 Clear 28 1017 20 10000 1.03 0 00:38 10.05.2022
3780 Clear 31 1016 19 10000 3.09 350 22:52 09.05.2022
3781 Clouds 33 1015 17 8000 4.12 360 21:50 09.05.2022
3782 Clear 36 1014 12 8000 5.66 330 20:30 09.05.2022
3783 Clear 39 1013 8 8000 3.6 300 18:43 09.05.2022
3784 Clear 40 1013 9 8000 4.63 290 17:40 09.05.2022
3785 Clear 39 1013 8 8000 3.09 290 16:30 09.05.2022
3786 Clear 39 1013 8 8000 3.09 290 16:30 09.05.2022
3787 Clear 39 1014 8 8000 3.6 310 15:51 09.05.2022
3788 Clear 37 1014 11 10000 2.06 260 14:54 09.05.2022
3789 Clear 36 1015 13 10000 2.06 0 14:22 09.05.2022
3790 Clear 34 1015 15 10000 2.57 0 13:36 09.05.2022
3791 Clear 34 1015 15 10000 2.57 0 13:36 09.05.2022
3792 Clear 33 1015 17 10000 1.54 0 12:18 09.05.2022
3793 Clouds 28 1016 23 10000 2.06 80 10:55 09.05.2022
3794 Clouds 26 1015 25 10000 3.09 70 10:36 09.05.2022
3795 Clouds 19 1015 37 10000 2.57 90 08:31 09.05.2022
3796 Clear 20 1015 34 10000 3.09 90 07:49 09.05.2022
3797 Clear 24 1016 31 10000 0.51 0 02:55 09.05.2022
3798 Clear 30 1016 19 10000 3.09 30 23:29 08.05.2022
3799 Clear 30 1015 19 10000 4.12 20 22:51 08.05.2022
3800 Clear 32 1014 17 10000 5.66 360 21:48 08.05.2022
3801 Clear 35 1013 13 10000 4.63 340 20:33 08.05.2022
3802 Clear 37 1012 10 10000 5.14 270 19:37 08.05.2022
3803 Clear 37 1012 11 10000 2.06 0 18:51 08.05.2022
3804 Clear 37 1012 10 10000 3.6 300 17:52 08.05.2022
3805 Clear 36 1013 11 10000 3.6 0 16:33 08.05.2022
3806 Clear 36 1014 11 10000 3.09 300 15:25 08.05.2022
3807 Clear 35 1014 13 10000 2.57 320 14:27 08.05.2022
3808 Clear 30 1015 23 10000 2.06 100 11:53 08.05.2022
3809 Clear 24 1016 33 10000 2.57 90 10:27 08.05.2022
3810 Clear 21 1016 40 10000 2.57 70 09:55 08.05.2022
3811 Clear 18 1016 48 10000 3.09 90 08:37 08.05.2022
3812 Clear 19 1016 45 10000 1.54 100 06:32 08.05.2022
3813 Clear 21 1017 40 10000 1.03 0 03:25 08.05.2022
3814 Clear 25 1017 31 10000 2.06 50 01:25 08.05.2022
3815 Clear 26 1017 29 10000 3.6 70 00:20 08.05.2022
3816 Clear 27 1017 28 10000 3.09 50 23:41 07.05.2022
3817 Clear 28 1016 24 10000 5.14 30 22:46 07.05.2022
3818 Clear 30 1015 17 10000 4.63 360 21:57 07.05.2022
3819 Clear 31 1015 16 10000 4.63 350 21:32 07.05.2022
3820 Clouds 33 1014 15 10000 3.6 350 20:27 07.05.2022
3821 Clouds 34 1015 14 10000 2.57 0 18:59 07.05.2022
3822 Clear 34 1015 15 10000 4.12 0 16:51 07.05.2022
3823 Clear 33 1017 15 10000 2.06 0 15:18 07.05.2022
3824 Clear 29 1018 24 10000 1.54 20 12:23 07.05.2022
3825 Clear 24 1018 35 10000 1.54 40 10:18 07.05.2022
3826 Clear 18 1018 42 10000 1.54 130 08:34 07.05.2022
3827 Clear 17 1018 51 10000 0.51 0 07:30 07.05.2022
3828 Clear 18 1017 48 10000 0.51 0 06:42 07.05.2022
3829 Clear 21 1018 43 10000 1.54 90 04:19 07.05.2022
3830 Clear 24 1019 38 10000 3.09 70 00:49 07.05.2022
3831 Clear 28 1018 28 10000 4.63 10 22:41 06.05.2022
3832 Clear 28 1018 28 10000 4.63 10 22:21 06.05.2022
3833 Clear 30 1017 20 10000 4.63 360 21:31 06.05.2022
3834 Clear 33 1016 16 10000 3.09 360 19:49 06.05.2022
3835 Clear 33 1017 16 10000 3.09 0 19:25 06.05.2022
3836 Clear 33 1017 16 10000 4.12 340 18:34 06.05.2022
3837 Clear 34 1017 15 10000 2.06 0 17:36 06.05.2022
3838 Clear 33 1018 18 10000 3.09 350 15:53 06.05.2022
3839 Clear 33 1018 19 10000 2.06 0 15:28 06.05.2022
3840 Clear 29 1019 26 10000 2.57 0 13:49 06.05.2022
3841 Clear 27 1019 32 10000 2.57 60 12:50 06.05.2022
3842 Clear 24 1019 41 10000 2.06 0 11:58 06.05.2022
3843 Clear 22 1019 46 10000 3.09 80 11:24 06.05.2022
3844 Clear 19 1019 55 10000 3.6 90 09:47 06.05.2022
3845 Clear 18 1019 55 10000 3.09 100 09:18 06.05.2022
3846 Clear 16 1018 55 10000 2.57 90 07:49 06.05.2022
3847 Clear 18 1018 52 10000 2.06 30 06:26 06.05.2022
3848 Clear 20 1019 52 10000 2.57 70 02:58 06.05.2022
3849 Clear 21 1019 49 10000 3.6 60 02:38 06.05.2022
3850 Clouds 26 1017 24 10000 3.09 40 22:58 05.05.2022
3851 Clouds 27 1016 21 10000 3.09 40 21:49 05.05.2022
3852 Clouds 29 1016 20 10000 4.12 30 20:36 05.05.2022
3853 Clouds 29 1016 21 10000 4.12 30 18:54 05.05.2022
3854 Clouds 27 1016 28 10000 4.12 40 16:42 05.05.2022
3855 Clear 27 1017 29 10000 4.12 40 15:30 05.05.2022
3856 Clear 24 1018 38 10000 3.09 60 13:30 05.05.2022
3857 Clear 23 1018 43 10000 3.6 30 12:56 05.05.2022
3858 Clear 20 1018 56 10000 2.57 80 11:22 05.05.2022
3859 Clear 16 1018 72 8000 3.6 80 09:40 05.05.2022
3860 Clear 14 1017 82 10000 2.57 70 08:34 05.05.2022
3861 Clear 15 1016 72 10000 1.03 0 06:23 05.05.2022
3862 Clear 17 1017 67 10000 4.12 60 02:23 05.05.2022
3863 Clear 17 1017 67 10000 5.14 50 01:37 05.05.2022
3864 Clear 18 1017 63 10000 5.66 20 00:43 05.05.2022
3865 Clouds 21 1016 46 10000 5.14 30 22:57 04.05.2022
3866 Clouds 22 1015 37 10000 5.14 40 21:59 04.05.2022
3867 Clouds 23 1014 35 10000 4.12 30 21:30 04.05.2022
3868 Clouds 23 1014 35 10000 5.14 30 20:42 04.05.2022
3869 Clouds 24 1014 31 10000 3.6 0 19:59 04.05.2022
3870 Clouds 24 1014 31 10000 3.6 50 19:35 04.05.2022
3871 Clouds 24 1014 31 10000 3.6 0 18:23 04.05.2022
3872 Clouds 24 1014 31 10000 3.6 0 17:59 04.05.2022
3873 Clouds 24 1014 35 10000 2.06 0 16:29 04.05.2022
3874 Clouds 23 1014 38 10000 2.57 0 15:32 04.05.2022
3875 Clouds 21 1015 43 10000 3.09 0 14:38 04.05.2022
3876 Clouds 21 1015 43 10000 3.09 0 14:18 04.05.2022
3877 Clouds 19 1016 52 10000 2.06 10 12:34 04.05.2022
3878 Clouds 18 1015 59 10000 1.54 0 11:25 04.05.2022
3879 Clouds 15 1015 67 10000 2.06 50 09:46 04.05.2022
3880 Clouds 14 1014 72 10000 2.06 60 08:56 04.05.2022
3881 Clouds 14 1014 72 10000 2.57 30 07:33 04.05.2022
3882 Clouds 15 1014 67 10000 2.06 30 03:50 04.05.2022
3883 Clouds 16 1015 63 10000 2.06 30 01:41 04.05.2022
3884 Clouds 17 1013 55 10000 5.14 350 22:59 03.05.2022
3885 Clouds 18 1012 52 10000 4.12 350 21:47 03.05.2022
3886 Clouds 19 1012 52 10000 4.63 330 21:21 03.05.2022
3887 Clouds 19 1012 52 10000 4.12 340 21:21 03.05.2022
3888 Clouds 20 1012 49 10000 5.14 330 20:38 03.05.2022
3889 Clouds 21 1012 49 10000 5.66 330 18:55 03.05.2022
3890 Clouds 23 1011 40 10000 3.6 0 18:37 03.05.2022
3891 Clouds 22 1012 43 10000 4.63 310 17:20 03.05.2022
3892 Clouds 22 1012 43 10000 4.63 310 17:20 03.05.2022
3893 Clouds 22 1013 40 10000 3.09 310 15:48 03.05.2022
3894 Clouds 21 1014 46 10000 3.09 0 14:22 03.05.2022
3895 Clouds 18 1014 59 10000 2.06 310 12:31 03.05.2022
3896 Clouds 17 1014 63 10000 0.51 0 11:24 03.05.2022
3897 Clouds 16 1014 67 10000 1.03 0 10:25 03.05.2022
3898 Clouds 15 1014 67 10000 2.06 40 08:18 03.05.2022
3899 Clouds 15 1013 67 10000 3.09 30 06:45 03.05.2022
3900 Clouds 17 1016 59 10000 3.6 20 01:56 03.05.2022
3901 Clouds 19 1017 52 10000 4.12 360 22:47 02.05.2022
3902 Clear 20 1017 49 10000 3.6 360 22:28 02.05.2022
3903 Clear 21 1016 46 10000 5.14 340 21:26 02.05.2022
3904 Clear 27 1015 29 10000 3.6 300 18:57 02.05.2022
3905 Clear 27 1015 29 10000 3.6 330 18:25 02.05.2022
3906 Clear 27 1015 29 10000 3.6 0 17:38 02.05.2022
3907 Clear 28 1016 30 10000 2.06 0 16:37 02.05.2022
3908 Clear 26 1017 31 10000 2.06 10 15:41 02.05.2022
3909 Clear 24 1017 33 10000 2.06 280 14:20 02.05.2022
3910 Clear 23 1019 40 10000 2.06 0 12:52 02.05.2022
3911 Clear 20 1019 37 10000 2.06 60 11:41 02.05.2022
3912 Clear 15 1019 72 10000 2.06 260 09:32 02.05.2022
3913 Clear 14 1019 67 10000 1.54 240 07:57 02.05.2022
3914 Clear 16 1019 55 10000 1.54 0 05:59 02.05.2022
3915 Clear 22 1021 37 10000 2.57 10 00:44 02.05.2022
3916 Clear 22 1021 37 10000 3.6 20 00:21 02.05.2022
3917 Clouds 25 1019 36 10000 4.63 340 22:53 01.05.2022
3918 Clouds 27 1018 28 10000 4.63 340 21:41 01.05.2022
3919 Clouds 29 1018 23 10000 3.6 330 20:29 01.05.2022
3920 Clear 30 1018 21 10000 4.63 310 19:20 01.05.2022
3921 Clear 31 1017 19 10000 3.6 310 18:52 01.05.2022
3922 Clear 31 1018 16 10000 4.12 290 17:49 01.05.2022
3923 Clear 31 1018 22 10000 3.09 320 16:29 01.05.2022
3924 Clear 30 1019 23 10000 2.57 0 15:45 01.05.2022
3925 Clear 29 1019 26 10000 2.06 20 14:45 01.05.2022
3926 Clear 25 1020 36 10000 1.54 0 12:23 01.05.2022
3927 Clear 19 1020 52 10000 1.03 0 09:34 01.05.2022
3928 Clear 16 1020 59 10000 0.51 0 08:49 01.05.2022
3929 Clear 17 1019 51 10000 1.03 0 05:42 01.05.2022
3930 Clear 20 1020 45 10000 4.12 230 01:32 01.05.2022
3931 Clear 25 1018 33 10000 5.14 280 22:18 30.04.2022
3932 Clear 26 1017 31 10000 6.17 270 21:32 30.04.2022
3933 Clear 29 1016 20 10000 7.2 260 19:53 30.04.2022
3934 Clear 30 1016 17 10000 4.12 270 18:52 30.04.2022
3935 Clear 30 1016 19 10000 3.6 300 17:26 30.04.2022
3936 Clear 30 1017 17 10000 3.6 330 15:51 30.04.2022
3937 Clear 30 1018 17 10000 1.03 0 14:58 30.04.2022
3938 Clear 28 1018 24 10000 2.06 0 13:41 30.04.2022
3939 Clear 23 1018 43 10000 0.51 0 11:41 30.04.2022
3940 Clear 20 1018 45 10000 0.51 0 10:56 30.04.2022
3941 Clear 18 1018 59 10000 0.51 0 09:54 30.04.2022
3942 Clear 13 1016 71 10000 0 0 07:36 30.04.2022
3943 Clear 16 1017 59 10000 3.09 250 03:53 30.04.2022
3944 Clear 21 1017 46 10000 4.63 30 23:55 29.04.2022
3945 Clear 25 1015 19 10000 2.57 30 22:37 29.04.2022
3946 Clear 26 1015 18 10000 3.09 40 21:55 29.04.2022
3947 Clear 26 1014 18 10000 3.6 40 21:24 29.04.2022
3948 Clear 28 1014 15 10000 4.12 20 19:55 29.04.2022
3949 Clear 28 1013 15 10000 4.63 30 19:26 29.04.2022
3950 Clear 28 1013 17 10000 5.14 40 17:34 29.04.2022
3951 Clear 26 1014 21 10000 4.63 30 16:36 29.04.2022
3952 Clear 25 1015 22 10000 5.14 40 14:34 29.04.2022
3953 Clouds 23 1016 38 10000 3.6 20 13:27 29.04.2022
3954 Clouds 21 1016 49 10000 3.6 50 12:36 29.04.2022
3955 Clouds 16 1017 59 10000 4.63 80 10:29 29.04.2022
3956 Clouds 13 1016 71 10000 3.09 80 07:52 29.04.2022
3957 Clouds 13 1015 71 10000 3.09 60 07:25 29.04.2022
3958 Clouds 14 1015 72 10000 4.12 40 06:29 29.04.2022
3959 Clear 16 1018 67 10000 5.66 50 00:52 29.04.2022
3960 Clear 16 1018 67 10000 6.17 40 23:52 28.04.2022
3961 Clear 17 1017 63 10000 6.17 30 23:25 28.04.2022
3962 Clear 20 1015 52 10000 6.17 20 22:19 28.04.2022
3963 Clear 24 1015 27 10000 5.14 20 21:41 28.04.2022
3964 Clouds 24 1015 25 10000 3.6 10 20:43 28.04.2022
3965 Clouds 25 1015 23 10000 4.12 40 19:49 28.04.2022
3966 Clouds 26 1014 22 10000 3.09 10 19:24 28.04.2022
3967 Clouds 26 1014 22 10000 3.09 10 19:24 28.04.2022
3968 Clouds 26 1014 27 10000 3.09 60 18:45 28.04.2022
3969 Clear 26 1015 27 10000 3.09 50 17:42 28.04.2022
3970 Clear 25 1016 31 10000 3.09 20 16:51 28.04.2022
3971 Clear 24 1016 35 10000 2.57 0 16:20 28.04.2022
3972 Clear 24 1016 35 10000 2.57 0 16:20 28.04.2022
3973 Clear 23 1016 40 10000 3.6 30 15:43 28.04.2022
3974 Clear 23 1017 40 10000 3.6 10 14:58 28.04.2022
3975 Clear 20 1018 52 10000 3.6 50 13:33 28.04.2022
3976 Clear 18 1018 55 10000 3.6 30 12:28 28.04.2022
3977 Clouds 16 1019 59 10000 3.09 50 10:59 28.04.2022
3978 Clouds 15 1019 67 10000 3.6 50 10:26 28.04.2022
3979 Clouds 14 1019 72 10000 3.09 40 09:47 28.04.2022
3980 Clouds 13 1019 71 10000 3.6 30 07:40 28.04.2022
3981 Clouds 13 1018 71 10000 3.09 30 06:42 28.04.2022
3982 Clouds 13 1018 67 10000 2.57 30 05:52 28.04.2022
3983 Clouds 15 1018 55 10000 3.09 40 04:42 28.04.2022
3984 Clouds 17 1018 63 10000 6.17 50 00:52 28.04.2022
3985 Clouds 19 1017 59 10000 6.17 30 23:25 27.04.2022
3986 Clouds 21 1016 49 10000 6.69 20 22:18 27.04.2022
3987 Clouds 23 1015 43 10000 5.66 360 21:34 27.04.2022
3988 Clouds 24 1015 38 10000 5.14 360 20:45 27.04.2022
3989 Clouds 26 1015 25 10000 2.06 70 19:54 27.04.2022
3990 Clouds 26 1015 25 10000 2.57 330 19:31 27.04.2022
3991 Clouds 26 1015 29 10000 3.09 0 18:38 27.04.2022
3992 Clouds 27 1015 29 10000 2.57 30 17:41 27.04.2022
3993 Clouds 23 1016 43 10000 1.54 0 15:56 27.04.2022
3994 Clouds 19 1017 55 10000 2.06 0 12:50 27.04.2022
3995 Clouds 16 1017 72 10000 1.54 0 11:23 27.04.2022
3996 Clouds 15 1017 72 10000 2.06 60 10:27 27.04.2022
3997 Clouds 13 1016 76 8000 2.57 80 07:53 27.04.2022
3998 Clouds 13 1016 67 8000 2.06 250 06:36 27.04.2022
3999 Clouds 17 1015 55 8000 2.57 20 02:25 27.04.2022
4000 Clouds 18 1016 52 8000 3.6 30 01:21 27.04.2022
4001 Clouds 18 1015 48 8000 3.6 30 00:27 27.04.2022
4002 Clouds 19 1015 45 8000 4.12 30 23:24 26.04.2022
4003 Clouds 20 1014 42 8000 5.66 350 22:44 26.04.2022
4004 Clouds 21 1013 40 8000 6.69 360 21:57 26.04.2022
4005 Clouds 22 1012 40 8000 5.66 360 21:18 26.04.2022
4006 Clouds 24 1012 33 10000 3.6 340 20:36 26.04.2022
4007 Clouds 24 1012 33 10000 3.6 340 19:44 26.04.2022
4008 Clouds 24 1012 35 10000 4.12 340 19:24 26.04.2022
4009 Clouds 26 1011 29 10000 4.12 10 18:20 26.04.2022
4010 Clouds 26 1011 27 10000 3.09 350 17:34 26.04.2022
4011 Clouds 24 1012 35 10000 3.6 310 14:58 26.04.2022
4012 Clouds 21 1012 49 8000 2.57 330 13:38 26.04.2022
4013 Clouds 19 1012 55 8000 2.57 310 12:35 26.04.2022
4014 Clouds 17 1012 63 8000 1.54 300 10:57 26.04.2022
4015 Clouds 16 1012 67 8000 2.06 300 10:29 26.04.2022
4016 Clouds 14 1011 72 8000 2.06 240 08:29 26.04.2022
4017 Clouds 15 1011 63 8000 2.57 270 04:38 26.04.2022
4018 Clouds 16 1011 59 8000 2.57 250 03:25 26.04.2022
4019 Clouds 18 1011 55 8000 4.12 30 00:39 26.04.2022
4020 Clouds 19 1011 52 8000 4.12 20 23:44 25.04.2022
4021 Clouds 23 1009 33 8000 3.09 330 21:44 25.04.2022
4022 Clouds 23 1009 33 8000 3.09 340 20:49 25.04.2022
4023 Clouds 25 1009 29 8000 2.57 0 19:39 25.04.2022
4024 Clouds 24 1009 33 8000 2.06 0 18:25 25.04.2022
4025 Clouds 24 1009 33 8000 2.06 0 17:39 25.04.2022
4026 Clouds 24 1009 35 8000 1.03 0 15:51 25.04.2022
4027 Clouds 23 1010 38 8000 2.06 0 15:18 25.04.2022
4028 Clouds 20 1011 45 8000 3.09 330 13:59 25.04.2022
4029 Clouds 19 1011 52 8000 2.57 340 12:22 25.04.2022
4030 Clouds 15 1011 72 8000 1.54 280 10:29 25.04.2022
4031 Clouds 13 1011 76 8000 2.06 240 09:23 25.04.2022
4032 Clear 12 1011 76 8000 2.57 230 07:34 25.04.2022
4033 Clear 12 1012 79 10000 1.08 39 05:53 25.04.2022
4034 Clouds 14 1013 60 10000 4.71 15 01:24 25.04.2022
4035 Clouds 19 1012 45 10000 4.63 20 23:54 24.04.2022
4036 Clouds 20 1012 45 10000 3.09 180 22:53 24.04.2022
4037 Clouds 20 1011 49 10000 4.12 170 22:32 24.04.2022
4038 Clouds 20 1011 49 10000 4.63 160 21:54 24.04.2022
4039 Clouds 21 1011 43 10000 3.09 0 21:20 24.04.2022
4040 Clouds 21 1011 40 10000 2.06 130 20:39 24.04.2022
4041 Clouds 22 1011 40 10000 1.54 0 19:51 24.04.2022
4042 Clouds 21 1011 43 10000 2.57 0 18:28 24.04.2022
4043 Clouds 21 1011 43 10000 2.57 70 17:40 24.04.2022
4044 Clouds 21 1011 43 10000 2.57 70 17:20 24.04.2022
4045 Clouds 21 1011 43 10000 3.6 90 16:49 24.04.2022
4046 Clouds 21 1011 43 10000 2.57 70 16:20 24.04.2022
4047 Clouds 20 1012 45 10000 3.09 90 15:32 24.04.2022
4048 Clouds 19 1012 48 10000 3.09 30 14:30 24.04.2022
4049 Clouds 19 1013 48 10000 1.03 0 13:26 24.04.2022
4050 Clouds 18 1013 52 10000 2.06 0 12:37 24.04.2022
4051 Clouds 16 1013 55 10000 1.54 360 11:39 24.04.2022
4052 Clouds 16 1013 51 10000 1.54 0 10:32 24.04.2022
4053 Clouds 14 1012 54 10000 1.54 40 09:39 24.04.2022
4054 Clouds 14 1012 58 10000 2.57 40 07:31 24.04.2022
4055 Clouds 14 1013 62 10000 2.57 30 04:44 24.04.2022
4056 Clouds 15 1014 63 10000 4.63 30 01:39 24.04.2022
4057 Clouds 16 1014 59 10000 5.66 20 00:30 24.04.2022
4058 Clouds 17 1014 51 10000 5.14 360 23:45 23.04.2022
4059 Clouds 18 1014 52 10000 4.63 360 23:22 23.04.2022
4060 Clouds 19 1013 52 10000 3.09 350 21:54 23.04.2022
4061 Clouds 19 1013 52 10000 3.6 360 21:34 23.04.2022
4062 Clouds 19 1013 52 10000 3.6 10 20:57 23.04.2022
4063 Clouds 20 1013 49 10000 4.12 360 19:48 23.04.2022
4064 Clouds 21 1012 43 10000 3.6 340 19:19 23.04.2022
4065 Clouds 22 1012 40 10000 2.57 340 18:52 23.04.2022
4066 Clouds 21 1012 43 10000 2.06 10 17:51 23.04.2022
4067 Clouds 21 1013 43 10000 4.12 340 17:30 23.04.2022
4068 Clouds 22 1013 43 10000 2.57 0 16:42 23.04.2022
4069 Clouds 20 1013 52 10000 2.57 0 15:28 23.04.2022
4070 Clouds 18 1014 63 10000 1.54 0 12:44 23.04.2022
4071 Clouds 15 1015 77 10000 1.54 0 10:49 23.04.2022
4072 Clouds 13 1014 82 10000 1.54 270 09:38 23.04.2022
4073 Clouds 14 1013 67 10000 2.57 270 06:41 23.04.2022
4074 Clouds 13 1013 71 10000 2.06 290 03:54 23.04.2022
4075 Clouds 14 1013 72 10000 5.66 290 01:20 23.04.2022
4076 Clouds 15 1013 67 10000 4.63 290 23:30 22.04.2022
4077 Clouds 17 1012 55 10000 7.2 270 22:20 22.04.2022
4078 Clouds 17 1011 51 10000 6.69 270 21:43 22.04.2022
4079 Clouds 20 1010 42 10000 7.72 280 20:48 22.04.2022
4080 Clouds 21 1010 40 10000 7.2 290 20:27 22.04.2022
4081 Clouds 22 1010 37 10000 6.69 270 19:20 22.04.2022
4082 Clouds 22 1010 37 10000 6.69 280 18:42 22.04.2022
4083 Clouds 22 1010 37 10000 7.72 280 17:41 22.04.2022
4084 Clouds 22 1010 37 10000 6.69 280 16:46 22.04.2022
4085 Clouds 21 1010 40 10000 5.14 280 15:44 22.04.2022
4086 Clouds 21 1010 43 10000 4.63 300 15:18 22.04.2022
4087 Clear 19 1011 42 10000 5.14 270 13:50 22.04.2022
4088 Clear 17 1012 51 10000 3.6 260 12:58 22.04.2022
4089 Clear 15 1012 58 10000 3.6 270 11:50 22.04.2022
4090 Clear 14 1011 62 10000 4.12 280 11:22 22.04.2022
4091 Clear 14 1011 62 10000 4.12 280 10:50 22.04.2022
4092 Clear 13 1011 67 10000 3.6 270 10:30 22.04.2022
4093 Clear 12 1011 66 10000 3.09 250 09:50 22.04.2022
4094 Clear 10 1011 76 10000 2.57 240 08:50 22.04.2022
4095 Clear 9 1010 71 10000 2.06 260 07:20 22.04.2022
4096 Clear 13 1012 54 10000 1.54 250 03:30 22.04.2022
4097 Clear 15 1012 47 10000 4.63 30 00:51 22.04.2022
4098 Clear 17 1012 45 10000 5.66 10 23:24 21.04.2022
4099 Clear 20 1012 26 10000 3.6 40 22:27 21.04.2022
4100 Clear 22 1012 21 10000 3.6 50 20:37 21.04.2022
4101 Clear 22 1012 21 10000 3.6 50 20:18 21.04.2022
4102 Clear 22 1012 24 10000 3.09 360 18:42 21.04.2022
4103 Clear 23 1012 25 10000 3.09 50 17:57 21.04.2022
4104 Clear 21 1013 28 10000 3.6 40 16:35 21.04.2022
4105 Clear 20 1014 32 10000 3.09 40 15:21 21.04.2022
4106 Clear 19 1014 34 10000 3.6 0 14:47 21.04.2022
4107 Clear 17 1015 39 10000 3.6 60 13:23 21.04.2022
4108 Clear 17 1016 42 10000 3.6 50 12:53 21.04.2022
4109 Clear 14 1016 54 10000 4.63 50 10:47 21.04.2022
4110 Clear 11 1016 66 10000 2.57 90 08:56 21.04.2022
4111 Clouds 11 1016 66 10000 3.09 70 07:24 21.04.2022
4112 Clouds 12 1016 62 10000 3.6 60 05:42 21.04.2022
4113 Clouds 12 1017 66 10000 5.14 50 03:30 21.04.2022
4114 Clouds 12 1018 66 10000 4.63 40 02:47 21.04.2022
4115 Clouds 13 1018 62 10000 5.14 30 00:45 21.04.2022
4116 Clouds 15 1017 51 10000 4.63 20 23:50 20.04.2022
4117 Clouds 16 1016 48 10000 4.63 10 23:22 20.04.2022
4118 Clouds 16 1016 48 10000 4.63 10 22:49 20.04.2022
4119 Clouds 17 1016 42 10000 5.66 10 22:30 20.04.2022
4120 Clouds 18 1016 39 10000 4.63 360 21:27 20.04.2022
4121 Clouds 20 1015 34 10000 4.12 330 20:24 20.04.2022
4122 Clouds 20 1015 34 10000 4.12 10 19:52 20.04.2022
4123 Clouds 20 1015 34 10000 3.6 360 19:20 20.04.2022
4124 Clouds 20 1015 37 10000 4.12 0 17:56 20.04.2022
4125 Clouds 20 1016 37 10000 3.6 20 16:54 20.04.2022
4126 Clouds 20 1016 37 10000 3.6 30 16:36 20.04.2022
4127 Clouds 16 1018 55 10000 2.06 0 13:59 20.04.2022
4128 Clouds 14 1017 58 10000 3.09 130 11:50 20.04.2022
4129 Clouds 13 1017 67 10000 4.12 110 11:21 20.04.2022
4130 Clouds 12 1017 66 10000 3.6 90 10:19 20.04.2022
4131 Clouds 12 1017 71 10000 3.6 80 09:25 20.04.2022
4132 Clouds 12 1017 66 10000 3.6 70 08:22 20.04.2022
4133 Clear 11 1017 71 10000 3.09 80 07:36 20.04.2022
4134 Clear 13 1017 62 10000 5.14 50 03:38 20.04.2022
4135 Clouds 15 1018 58 10000 5.14 30 00:23 20.04.2022
4136 Clouds 15 1018 58 10000 5.14 40 23:56 19.04.2022
4137 Clouds 18 1016 48 10000 4.63 360 22:27 19.04.2022
4138 Clouds 19 1016 45 10000 5.14 360 21:57 19.04.2022
4139 Clouds 20 1015 42 10000 5.14 10 21:24 19.04.2022
4140 Clouds 21 1015 40 10000 5.66 350 20:45 19.04.2022
4141 Clouds 24 1014 38 10000 4.12 340 19:57 19.04.2022
4142 Clouds 24 1014 41 10000 2.06 0 18:49 19.04.2022
4143 Clouds 25 1015 41 10000 2.06 0 17:50 19.04.2022
4144 Clouds 23 1016 49 10000 2.06 0 16:43 19.04.2022
4145 Clouds 22 1016 53 10000 2.06 0 16:23 19.04.2022
4146 Clouds 20 1017 60 10000 1.54 0 14:50 19.04.2022
4147 Clouds 18 1017 72 10000 1.54 20 13:54 19.04.2022
4148 Clouds 16 1017 77 10000 2.06 0 12:50 19.04.2022
4149 Clouds 16 1017 77 10000 2.06 20 12:20 19.04.2022
4150 Clouds 15 1017 82 7000 1.03 0 10:46 19.04.2022
4151 Clouds 14 1017 88 8000 1.03 0 09:22 19.04.2022
4152 Clear 14 1016 82 10000 3.6 230 05:59 19.04.2022
4153 Clear 16 1017 72 10000 2.57 260 03:37 19.04.2022
4154 Clear 19 1018 63 10000 3.09 290 00:55 19.04.2022
4155 Clear 20 1018 60 10000 4.12 300 23:31 18.04.2022
4156 Clear 26 1014 41 10000 5.66 350 21:30 18.04.2022
4157 Clear 28 1014 34 10000 5.66 350 20:56 18.04.2022
4158 Clear 30 1014 21 10000 4.12 300 20:32 18.04.2022
4159 Clear 31 1013 20 10000 4.63 300 19:51 18.04.2022
4160 Clear 32 1013 15 10000 5.66 280 18:57 18.04.2022
4161 Clear 32 1013 15 10000 4.63 0 17:58 18.04.2022
4162 Clear 32 1013 15 10000 3.09 0 17:34 18.04.2022
4163 Clear 32 1014 15 10000 3.6 270 16:59 18.04.2022
4164 Clear 32 1014 18 10000 3.09 0 16:32 18.04.2022
4165 Clear 29 1015 24 10000 2.06 50 14:59 18.04.2022
4166 Clear 28 1016 30 10000 1.03 0 13:39 18.04.2022
4167 Clear 26 1016 36 10000 1.03 0 12:32 18.04.2022
4168 Clear 23 1016 46 10000 1.54 310 11:35 18.04.2022
4169 Clear 21 1016 49 10000 1.54 300 10:32 18.04.2022
4170 Clear 18 1015 55 10000 1.54 270 09:31 18.04.2022
4171 Clear 17 1015 55 10000 1.54 250 07:54 18.04.2022
4172 Clear 19 1014 48 10000 2.06 230 05:45 18.04.2022
4173 Clear 24 1016 33 10000 2.06 100 00:49 18.04.2022
4174 Clear 27 1015 28 10000 5.14 10 22:42 17.04.2022
4175 Clear 29 1015 20 10000 3.09 330 21:49 17.04.2022
4176 Clear 30 1014 19 10000 3.09 340 21:27 17.04.2022
4177 Clear 31 1014 18 10000 3.09 290 20:41 17.04.2022
4178 Clear 32 1014 18 10000 4.12 290 19:40 17.04.2022
4179 Clouds 31 1013 11 10000 5.35 295 18:21 17.04.2022
4180 Clear 33 1015 16 10000 2.06 360 16:27 17.04.2022
4181 Clear 32 1016 17 10000 2.06 0 15:26 17.04.2022
4182 Clear 32 1016 20 10000 2.06 10 14:19 17.04.2022
4183 Clear 30 1017 25 10000 1.54 0 13:18 17.04.2022
4184 Clear 28 1017 24 10000 1.54 0 12:27 17.04.2022
4185 Clear 28 1017 24 10000 1.54 0 12:27 17.04.2022
4186 Clear 24 1017 33 10000 1.03 0 10:46 17.04.2022
4187 Clear 23 1017 33 10000 1.03 0 10:28 17.04.2022
4188 Clear 20 1017 37 10000 2.57 180 09:37 17.04.2022
4189 Clear 19 1017 39 10000 2.57 180 08:53 17.04.2022
4190 Clear 19 1016 42 10000 1.54 170 07:37 17.04.2022
4191 Clear 20 1016 40 10000 1.54 230 04:30 17.04.2022
4192 Clear 24 1017 33 10000 1.54 170 01:27 17.04.2022
4193 Clear 26 1017 29 10000 3.6 30 23:52 16.04.2022
4194 Clear 28 1016 18 10000 1.54 20 22:39 16.04.2022
4195 Clear 30 1015 16 10000 2.06 340 21:39 16.04.2022
4196 Clear 32 1015 17 10000 2.57 340 20:32 16.04.2022
4197 Clear 33 1015 16 10000 2.06 340 18:59 16.04.2022
4198 Clear 33 1015 14 10000 1.54 150 17:52 16.04.2022
4199 Clear 33 1015 16 10000 1.54 0 16:40 16.04.2022
4200 Clear 31 1016 18 10000 1.54 0 15:45 16.04.2022
4201 Clear 30 1016 21 10000 2.06 0 14:56 16.04.2022
4202 Clear 29 1017 24 10000 1.54 360 13:58 16.04.2022
4203 Clear 28 1017 28 10000 1.03 0 13:37 16.04.2022
4204 Clear 26 1017 29 10000 1.03 0 12:26 16.04.2022
4205 Clear 21 1017 40 10000 1.54 30 10:50 16.04.2022
4206 Clear 20 1017 45 10000 0.51 0 09:56 16.04.2022
4207 Clear 14 1016 62 10000 1.54 100 08:57 16.04.2022
4208 Clear 14 1016 62 10000 1.54 80 07:52 16.04.2022
4209 Clear 16 1016 59 10000 1.03 0 06:58 16.04.2022
4210 Clear 20 1017 42 10000 4.12 110 02:52 16.04.2022
4211 Clear 23 1017 35 10000 4.63 60 00:30 16.04.2022
4212 Clear 23 1016 31 10000 2.57 70 23:21 15.04.2022
4213 Clear 25 1016 25 10000 2.57 70 22:32 15.04.2022
4214 Clear 26 1015 24 10000 3.6 60 21:50 15.04.2022
4215 Clear 28 1015 21 10000 4.12 90 21:18 15.04.2022
4216 Clear 29 1014 21 10000 4.12 90 20:22 15.04.2022
4217 Clear 29 1014 20 10000 5.14 70 19:40 15.04.2022
4218 Clear 30 1014 19 10000 3.6 50 18:54 15.04.2022
4219 Clear 29 1014 20 10000 4.12 50 18:25 15.04.2022
4220 Clear 29 1015 21 10000 4.12 20 17:34 15.04.2022
4221 Clear 29 1015 23 10000 4.63 50 16:48 15.04.2022
4222 Clear 28 1015 23 10000 4.63 40 16:18 15.04.2022
4223 Clear 27 1016 26 10000 3.09 0 14:51 15.04.2022
4224 Clear 24 1017 35 10000 3.09 0 13:40 15.04.2022
4225 Clear 22 1017 46 10000 2.06 50 12:40 15.04.2022
4226 Clear 20 1017 45 10000 3.6 60 11:56 15.04.2022
4227 Clear 19 1017 52 10000 3.09 70 11:30 15.04.2022
4228 Clear 17 1017 59 10000 3.6 70 10:40 15.04.2022
4229 Clear 14 1016 72 10000 4.12 90 09:44 15.04.2022
4230 Clear 14 1016 72 10000 4.12 90 09:19 15.04.2022
4231 Clear 13 1016 76 10000 3.09 80 07:32 15.04.2022
4232 Clear 14 1015 72 10000 4.12 100 06:28 15.04.2022
4233 Clear 17 1017 59 10000 3.09 70 02:39 15.04.2022
4234 Clear 20 1016 52 10000 7.72 40 23:31 14.04.2022
4235 Clear 21 1016 46 10000 7.72 30 22:49 14.04.2022
4236 Clear 23 1015 21 10000 3.6 40 22:29 14.04.2022
4237 Clear 23 1014 20 10000 3.6 40 21:59 14.04.2022
4238 Clear 25 1014 19 10000 3.6 40 20:43 14.04.2022
4239 Clear 26 1014 19 10000 3.6 30 19:23 14.04.2022
4240 Clear 26 1014 21 10000 3.6 70 18:22 14.04.2022
4241 Clear 26 1014 22 10000 3.09 0 17:40 14.04.2022
4242 Clear 25 1014 23 10000 3.6 0 16:46 14.04.2022
4243 Clear 25 1014 27 10000 4.63 30 15:24 14.04.2022
4244 Clear 22 1015 43 10000 3.6 70 13:46 14.04.2022
4245 Clear 21 1016 46 10000 4.63 60 12:56 14.04.2022
4246 Clear 19 1016 52 10000 4.63 50 12:31 14.04.2022
4247 Clear 17 1016 59 10000 4.12 50 11:29 14.04.2022
4248 Clear 15 1015 72 10000 4.12 90 10:53 14.04.2022
4249 Clear 14 1015 72 10000 4.12 90 10:26 14.04.2022
4250 Clear 13 1015 76 10000 3.6 80 09:24 14.04.2022
4251 Clear 12 1014 76 10000 2.57 90 07:27 14.04.2022
4252 Clear 14 1016 72 10000 3.09 80 03:32 14.04.2022
4253 Clear 18 1014 52 10000 5.66 20 23:26 13.04.2022
4254 Clear 20 1013 42 10000 5.14 30 22:20 13.04.2022
4255 Clear 21 1013 37 10000 4.12 30 21:36 13.04.2022
4256 Clouds 23 1012 35 10000 4.12 40 20:23 13.04.2022
4257 Clouds 23 1012 35 10000 4.12 50 19:37 13.04.2022
4258 Clouds 23 1012 38 10000 3.6 20 18:36 13.04.2022
4259 Clouds 23 1012 35 10000 4.12 30 17:24 13.04.2022
4260 Clouds 23 1013 40 10000 4.12 50 16:37 13.04.2022
4261 Clouds 22 1013 43 10000 3.6 0 15:41 13.04.2022
4262 Clouds 22 1014 43 10000 3.6 20 14:51 13.04.2022
4263 Clouds 20 1014 45 10000 3.6 30 14:28 13.04.2022
4264 Clouds 20 1015 49 10000 3.6 80 13:29 13.04.2022
4265 Clouds 17 1015 63 10000 3.6 70 12:30 13.04.2022
4266 Clouds 15 1015 72 10000 3.6 70 10:55 13.04.2022
4267 Clouds 14 1015 77 10000 3.09 50 09:44 13.04.2022
4268 Clouds 14 1014 77 8000 3.09 90 08:43 13.04.2022
4269 Clouds 14 1014 77 8000 2.57 50 06:52 13.04.2022
4270 Clouds 14 1014 77 8000 1.54 60 06:26 13.04.2022
4271 Clouds 14 1014 77 8000 2.57 60 05:52 13.04.2022
4272 Clouds 16 1016 63 10000 3.6 360 00:23 13.04.2022
4273 Clouds 16 1015 63 10000 3.6 10 23:46 12.04.2022
4274 Clouds 18 1014 55 10000 5.14 360 22:19 12.04.2022
4275 Clouds 20 1013 42 10000 3.09 310 21:29 12.04.2022
4276 Clouds 20 1013 42 10000 3.09 300 20:41 12.04.2022
4277 Clouds 21 1013 40 10000 3.6 340 19:53 12.04.2022
4278 Clouds 22 1013 40 10000 4.12 290 19:32 12.04.2022
4279 Clouds 22 1012 37 10000 3.6 260 18:42 12.04.2022
4280 Clouds 22 1013 43 8000 2.57 300 17:30 12.04.2022
4281 Clouds 21 1014 46 8000 3.6 290 16:23 12.04.2022
4282 Clouds 19 1014 52 8000 3.09 300 15:33 12.04.2022
4283 Clouds 18 1015 59 8000 3.09 0 14:29 12.04.2022
4284 Clouds 17 1015 63 8000 3.6 310 13:37 12.04.2022
4285 Clouds 17 1016 67 8000 4.63 320 12:52 12.04.2022
4286 Clouds 17 1015 67 8000 3.09 290 11:47 12.04.2022
4287 Clouds 16 1015 72 8000 2.06 290 10:47 12.04.2022
4288 Clouds 14 1014 82 8000 2.57 280 09:24 12.04.2022
4289 Clouds 13 1013 82 8000 1.03 0 07:56 12.04.2022
4290 Clouds 14 1013 77 8000 1.54 240 06:32 12.04.2022
4291 Clouds 14 1013 77 8000 1.54 240 06:32 12.04.2022
4292 Clouds 14 1013 77 8000 2.06 230 05:34 12.04.2022
4293 Clouds 16 1014 63 8000 3.6 290 00:46 12.04.2022
4294 Clouds 17 1014 63 8000 4.63 280 22:47 11.04.2022
4295 Clouds 17 1013 59 8000 5.14 280 21:49 11.04.2022
4296 Clouds 18 1013 59 8000 5.66 300 20:59 11.04.2022
4297 Clouds 18 1012 59 8000 6.17 310 20:29 11.04.2022
4298 Clouds 20 1012 56 8000 5.14 290 19:55 11.04.2022
4299 Clouds 20 1012 56 8000 3.6 300 19:18 11.04.2022
4300 Clouds 20 1011 56 8000 4.12 260 18:47 11.04.2022
4301 Clouds 21 1012 56 8000 6.69 290 17:57 11.04.2022
4302 Clouds 21 1011 52 8000 6.17 270 16:54 11.04.2022
4303 Clouds 21 1011 52 8000 6.17 270 16:54 11.04.2022
4304 Clouds 21 1012 52 8000 5.66 270 15:56 11.04.2022
4305 Clouds 19 1012 63 8000 1.03 0 14:24 11.04.2022
4306 Clouds 16 1013 72 8000 2.57 310 12:53 11.04.2022
4307 Clouds 15 1013 77 8000 2.57 330 12:33 11.04.2022
4308 Clouds 14 1013 77 8000 3.6 290 11:33 11.04.2022
4309 Clouds 13 1012 88 8000 3.09 280 10:28 11.04.2022
4310 Clouds 13 1012 82 8000 4.12 280 09:20 11.04.2022
4311 Clear 14 1010 82 10000 2.57 280 06:24 11.04.2022
4312 Clear 18 1012 59 10000 3.09 250 01:53 11.04.2022
4313 Clear 23 1011 49 10000 2.57 290 22:37 10.04.2022
4314 Clouds 24 1011 43 8000 3.09 310 21:55 10.04.2022
4315 Clouds 25 1010 44 8000 3.6 290 21:29 10.04.2022
4316 Clouds 27 1010 39 8000 3.6 310 20:30 10.04.2022
4317 Clouds 28 1009 36 8000 4.63 300 19:43 10.04.2022
4318 Clouds 28 1009 36 8000 4.63 300 19:18 10.04.2022
4319 Clouds 30 1009 26 8000 5.66 290 18:41 10.04.2022
4320 Clouds 30 1009 25 8000 5.66 300 17:52 10.04.2022
4321 Clouds 31 1009 19 8000 4.63 290 17:32 10.04.2022
4322 Clouds 31 1010 18 8000 4.63 290 16:21 10.04.2022
4323 Clear 30 1011 21 8000 3.6 340 14:59 10.04.2022
4324 Clear 30 1011 25 10000 2.57 360 13:54 10.04.2022
4325 Clear 27 1011 28 10000 1.03 0 12:33 10.04.2022
4326 Clear 24 1011 35 10000 1.54 220 11:46 10.04.2022
4327 Clear 24 1011 35 10000 1.54 220 11:28 10.04.2022
4328 Clear 23 1012 38 10000 1.54 200 10:41 10.04.2022
4329 Clear 19 1011 55 10000 0.51 0 09:50 10.04.2022
4330 Clear 14 1011 62 10000 0.51 0 08:56 10.04.2022
4331 Clear 14 1011 58 10000 2.06 250 08:21 10.04.2022
4332 Clear 16 1011 55 10000 1.54 70 06:59 10.04.2022
4333 Clear 18 1013 52 10000 1.54 120 04:42 10.04.2022
4334 Clear 20 1015 45 10000 2.57 190 02:20 10.04.2022
4335 Clear 24 1015 33 10000 2.57 230 23:54 09.04.2022
4336 Clear 24 1015 33 10000 2.57 230 23:29 09.04.2022
4337 Clear 25 1015 27 10000 1.54 290 22:39 09.04.2022
4338 Clear 27 1014 24 10000 3.09 310 21:31 09.04.2022
4339 Clear 29 1014 20 10000 2.06 340 20:35 09.04.2022
4340 Clear 29 1014 20 10000 2.57 310 19:59 09.04.2022
4341 Clear 29 1014 20 10000 2.57 310 19:41 09.04.2022
4342 Clear 31 1014 16 10000 2.06 320 18:26 09.04.2022
4343 Clear 30 1014 16 10000 2.57 300 17:52 09.04.2022
4344 Clear 30 1014 16 10000 3.6 340 17:18 09.04.2022
4345 Clear 30 1015 17 10000 1.54 0 16:42 09.04.2022
4346 Clear 29 1015 18 10000 1.54 0 15:51 09.04.2022
4347 Clear 28 1016 21 10000 1.54 0 15:26 09.04.2022
4348 Clear 27 1017 29 10000 2.57 50 14:26 09.04.2022
4349 Clear 25 1018 38 10000 2.57 60 13:34 09.04.2022
4350 Clear 23 1018 46 10000 2.06 40 12:57 09.04.2022
4351 Clear 20 1018 60 10000 2.57 70 11:51 09.04.2022
4352 Clear 18 1018 72 10000 2.06 90 10:52 09.04.2022
4353 Clear 16 1018 82 10000 3.6 110 10:18 09.04.2022
4354 Clear 14 1018 88 10000 3.09 100 09:23 09.04.2022
4355 Clear 13 1018 82 10000 2.06 70 08:35 09.04.2022
4356 Clear 15 1018 77 10000 2.06 110 05:21 09.04.2022
4357 Clear 19 1021 59 10000 2.57 20 00:35 09.04.2022
4358 Clear 20 1021 56 10000 4.12 20 23:24 08.04.2022
4359 Clear 23 1020 38 10000 3.6 10 21:54 08.04.2022
4360 Clear 24 1019 33 10000 4.12 10 20:45 08.04.2022
4361 Clear 26 1019 31 10000 3.6 360 19:57 08.04.2022
4362 Clear 26 1019 34 10000 3.6 320 18:59 08.04.2022
4363 Clear 26 1019 36 10000 2.57 340 18:24 08.04.2022
4364 Clear 27 1020 34 10000 2.06 0 17:38 08.04.2022
4365 Clear 27 1020 34 10000 2.06 0 17:19 08.04.2022
4366 Clear 25 1020 41 10000 2.06 0 16:32 08.04.2022
4367 Clear 24 1021 46 10000 1.54 0 15:38 08.04.2022
4368 Clear 23 1021 49 10000 2.57 280 14:52 08.04.2022
4369 Clear 22 1022 53 10000 1.54 0 14:21 08.04.2022
4370 Clear 22 1022 53 10000 1.54 0 13:41 08.04.2022
4371 Clear 20 1022 60 10000 2.06 350 13:22 08.04.2022
4372 Clear 18 1022 72 10000 1.03 0 11:43 08.04.2022
4373 Clear 15 1021 82 10000 1.54 90 10:26 08.04.2022
4374 Clear 12 1021 94 8000 2.06 90 09:20 08.04.2022
4375 Clouds 12 1020 87 10000 2.06 90 07:58 08.04.2022
4376 Clear 12 1020 87 10000 3.09 90 06:46 08.04.2022
4377 Clear 14 1022 77 10000 1.54 80 03:48 08.04.2022
4378 Clouds 17 1022 67 10000 3.6 40 00:31 08.04.2022
4379 Clouds 17 1022 63 10000 4.12 30 23:53 07.04.2022
4380 Clouds 19 1021 52 10000 3.6 10 22:57 07.04.2022
4381 Clouds 20 1021 42 10000 2.06 360 22:37 07.04.2022
4382 Clouds 20 1021 42 10000 2.06 360 22:19 07.04.2022
4383 Clouds 21 1021 37 10000 3.09 10 21:33 07.04.2022
4384 Clouds 22 1020 35 10000 3.09 10 20:56 07.04.2022
4385 Clouds 22 1020 35 10000 2.57 30 20:26 07.04.2022
4386 Clouds 22 1020 37 10000 3.6 30 17:45 07.04.2022
4387 Clouds 22 1020 37 10000 3.6 30 17:23 07.04.2022
4388 Clouds 22 1020 37 10000 3.6 20 16:42 07.04.2022
4389 Clouds 21 1020 40 10000 2.57 0 15:56 07.04.2022
4390 Clouds 20 1021 49 10000 4.63 50 14:28 07.04.2022
4391 Clouds 18 1022 55 10000 3.6 60 13:41 07.04.2022
4392 Clear 16 1022 63 10000 2.57 50 12:28 07.04.2022
4393 Clear 14 1022 72 10000 3.09 70 10:56 07.04.2022
4394 Clear 11 1021 82 10000 2.06 70 09:34 07.04.2022
4395 Clear 10 1021 87 10000 0.51 0 08:27 07.04.2022
4396 Clouds 11 1020 82 10000 2.06 40 06:18 07.04.2022
4397 Clouds 14 1021 67 10000 5.14 70 02:38 07.04.2022
4398 Clouds 14 1021 67 10000 5.14 60 01:27 07.04.2022
4399 Clouds 15 1021 63 10000 5.14 40 23:53 06.04.2022
4400 Clouds 15 1021 63 10000 5.66 30 22:45 06.04.2022
4401 Clouds 15 1020 67 10000 4.63 10 22:24 06.04.2022
4402 Clouds 17 1019 51 10000 5.14 360 21:18 06.04.2022
4403 Clouds 18 1019 45 10000 3.6 360 20:27 06.04.2022
4404 Clouds 18 1019 45 10000 2.57 360 19:52 06.04.2022
4405 Clouds 18 1018 45 10000 3.6 20 18:50 06.04.2022
4406 Clouds 18 1018 48 10000 3.6 350 17:52 06.04.2022
4407 Clouds 18 1019 48 10000 3.09 360 17:28 06.04.2022
4408 Clouds 18 1019 45 10000 2.57 10 16:35 06.04.2022
4409 Clouds 20 1019 40 10000 1.54 0 15:47 06.04.2022
4410 Clouds 18 1020 52 10000 2.06 0 14:23 06.04.2022
4411 Clouds 15 1021 67 10000 1.03 0 12:58 06.04.2022
4412 Clouds 15 1020 67 10000 1.03 0 11:54 06.04.2022
4413 Clouds 14 1020 77 10000 0.51 0 10:45 06.04.2022
4414 Clouds 13 1020 88 10000 0.51 0 10:20 06.04.2022
4415 Clouds 10 1019 87 10000 0.51 0 09:27 06.04.2022
4416 Clouds 10 1019 87 10000 0.51 0 08:30 06.04.2022
4417 Clouds 11 1018 87 10000 3.09 210 07:38 06.04.2022
4418 Clouds 11 1018 87 8000 2.57 220 02:57 06.04.2022
4419 Clouds 11 1018 82 6000 4.63 270 23:51 05.04.2022
4420 Clouds 12 1016 76 10000 3.6 260 22:30 05.04.2022
4421 Clouds 12 1016 71 8000 7.72 270 21:18 05.04.2022
4422 Clouds 14 1015 62 8000 6.69 280 20:25 05.04.2022
4423 Clouds 15 1014 55 8000 9.77 270 19:26 05.04.2022
4424 Clouds 16 1014 51 8000 8.75 270 17:52 05.04.2022
4425 Clouds 16 1014 48 8000 10.29 260 16:51 05.04.2022
4426 Clouds 17 1014 48 8000 10.8 260 15:53 05.04.2022
4427 Clouds 15 1014 55 8000 11.32 260 15:33 05.04.2022
4428 Clouds 15 1014 55 8000 9.26 270 14:22 05.04.2022
4429 Clouds 13 1013 67 8000 6.17 290 12:56 05.04.2022
4430 Clouds 13 1013 67 8000 7.72 270 11:50 05.04.2022
4431 Clouds 12 1013 71 8000 6.17 260 11:32 05.04.2022
4432 Clouds 9 1012 81 8000 2.57 250 09:52 05.04.2022
4433 Clouds 9 1011 81 8000 3.6 260 08:52 05.04.2022
4434 Clouds 9 1010 87 8000 2.57 230 06:52 05.04.2022
4435 Clouds 11 1009 87 8000 3.09 260 00:41 05.04.2022
4436 Clouds 12 1008 82 8000 4.63 280 22:41 04.04.2022
4437 Clouds 12 1007 87 7000 6.17 280 22:19 04.04.2022
4438 Clouds 13 1006 82 7000 5.14 260 21:21 04.04.2022
4439 Clouds 13 1006 82 7000 5.14 260 20:49 04.04.2022
4440 Clouds 13 1005 82 5000 7.2 280 19:44 04.04.2022
4441 Clouds 12 1005 87 8000 4.12 240 19:25 04.04.2022
4442 Clouds 14 1004 88 4000 6.69 280 17:55 04.04.2022
4443 Clouds 14 1003 82 5000 6.69 280 16:36 04.04.2022
4444 Clouds 15 1002 77 8000 6.69 290 15:43 04.04.2022
4445 Clouds 15 1002 77 8000 6.69 290 15:25 04.04.2022
4446 Clouds 16 1002 77 8000 6.69 280 14:46 04.04.2022
4447 Clouds 16 1002 82 8000 3.6 290 13:22 04.04.2022
4448 Clouds 14 1003 74 10000 4.99 279 11:55 04.04.2022
4449 Clouds 11 1002 93 3000 2.57 240 11:28 04.04.2022
4450 Clouds 11 1000 93 5000 2.57 290 08:36 04.04.2022
4451 Clouds 13 1002 76 8000 1.03 0 04:18 04.04.2022
4452 Clouds 15 1004 72 8000 3.09 280 00:44 04.04.2022
4453 Clouds 16 1005 67 8000 6.17 270 22:40 03.04.2022
4454 Clouds 17 1004 63 8000 5.14 290 21:45 03.04.2022
4455 Clouds 17 1004 63 8000 5.66 300 20:54 03.04.2022
4456 Clouds 19 1004 59 8000 3.6 290 19:50 03.04.2022
4457 Clouds 19 1004 63 8000 3.09 300 18:32 03.04.2022
4458 Clouds 19 1004 63 8000 3.09 290 17:47 03.04.2022
4459 Clouds 19 1005 63 8000 3.6 300 16:57 03.04.2022
4460 Clouds 19 1005 59 8000 4.12 290 16:39 03.04.2022
4461 Clouds 19 1005 63 8000 3.09 300 14:48 03.04.2022
4462 Clouds 17 1006 67 8000 4.63 270 13:53 03.04.2022
4463 Clouds 15 1006 77 8000 3.6 290 12:42 03.04.2022
4464 Clouds 13 1007 82 8000 4.12 240 10:58 03.04.2022
4465 Clouds 12 1006 82 8000 3.09 280 09:38 03.04.2022
4466 Clouds 12 1006 82 8000 4.12 250 08:36 03.04.2022
4467 Clear 13 1005 71 10000 2.06 270 05:38 03.04.2022
4468 Clear 17 1007 59 10000 1.54 230 01:54 03.04.2022
4469 Clouds 22 1007 35 8000 3.09 10 23:21 02.04.2022
4470 Clouds 23 1007 28 8000 2.57 10 22:18 02.04.2022
4471 Clouds 24 1006 25 8000 2.57 40 21:47 02.04.2022
4472 Clear 24 1006 25 8000 2.57 50 21:18 02.04.2022
4473 Clear 26 1007 24 8000 3.6 360 20:29 02.04.2022
4474 Clear 27 1007 24 10000 2.57 10 18:23 02.04.2022
4475 Clear 27 1007 26 10000 1.54 70 17:53 02.04.2022
4476 Clear 25 1008 29 10000 2.06 0 16:29 02.04.2022
4477 Clear 25 1009 29 10000 2.06 0 15:22 02.04.2022
4478 Clear 24 1010 35 10000 2.06 10 14:51 02.04.2022
4479 Clear 21 1010 43 10000 3.09 60 13:51 02.04.2022
4480 Clear 21 1010 46 10000 3.6 40 13:19 02.04.2022
4481 Clear 16 1011 67 10000 2.06 50 11:39 02.04.2022
4482 Clear 11 1010 82 10000 2.06 70 09:31 02.04.2022
4483 Clear 11 1011 82 10000 3.09 90 06:56 02.04.2022
4484 Clear 14 1012 67 10000 3.6 60 03:55 02.04.2022
4485 Clear 17 1014 59 10000 4.12 40 00:19 02.04.2022
4486 Clear 19 1014 42 10000 5.14 40 23:40 01.04.2022
4487 Clear 20 1013 40 10000 4.63 40 21:55 01.04.2022
4488 Clear 22 1013 35 10000 4.63 40 20:53 01.04.2022
4489 Clear 23 1013 33 10000 4.12 50 20:31 01.04.2022
4490 Clear 23 1013 35 10000 4.63 20 19:38 01.04.2022
4491 Clear 23 1012 38 10000 5.14 50 18:52 01.04.2022
4492 Clear 24 1012 35 10000 3.6 30 17:59 01.04.2022
4493 Clear 24 1012 38 10000 4.12 50 17:35 01.04.2022
4494 Clear 22 1014 43 10000 4.12 80 15:43 01.04.2022
4495 Clear 20 1015 49 10000 5.14 50 14:39 01.04.2022
4496 Clouds 20 1014 40 10000 4.73 48 13:35 01.04.2022
4497 Clouds 16 1016 67 10000 5.14 80 12:33 01.04.2022
4498 Clouds 16 1016 67 10000 5.14 80 12:33 01.04.2022
4499 Clouds 16 1016 67 10000 4.63 70 11:44 01.04.2022
4500 Clouds 14 1017 77 10000 3.6 70 10:19 01.04.2022
4501 Clouds 13 1017 82 10000 3.09 70 09:29 01.04.2022
4502 Clouds 14 1016 77 8000 3.6 50 06:55 01.04.2022
4503 Clouds 14 1016 82 8000 3.6 60 04:53 01.04.2022
4504 Clouds 14 1016 82 8000 3.6 60 04:34 01.04.2022
4505 Clouds 14 1017 82 8000 1.54 80 01:59 01.04.2022
4506 Clouds 15 1018 77 10000 3.6 40 00:44 01.04.2022
4507 Clouds 19 1016 48 10000 3.6 10 21:55 31.03.2022
4508 Clouds 19 1015 45 10000 3.09 330 21:33 31.03.2022
4509 Clouds 21 1015 37 10000 2.06 0 20:30 31.03.2022
4510 Clouds 22 1015 35 10000 1.03 0 19:50 31.03.2022
4511 Clouds 22 1015 35 10000 2.57 0 18:52 31.03.2022
4512 Clouds 21 1015 40 10000 2.57 310 17:50 31.03.2022
4513 Clouds 20 1015 42 10000 2.57 50 16:40 31.03.2022
4514 Clouds 20 1016 49 10000 1.03 0 15:48 31.03.2022
4515 Clear 19 1016 38 10000 2.84 352 15:20 31.03.2022
4516 Clouds 18 1017 59 10000 1.03 0 14:40 31.03.2022
4517 Clouds 16 1018 72 10000 1.54 0 12:30 31.03.2022
4518 Clouds 16 1018 72 10000 1.54 0 12:30 31.03.2022
4519 Clouds 14 1017 77 10000 2.06 90 11:26 31.03.2022
4520 Clouds 12 1016 87 10000 2.57 50 09:50 31.03.2022
4521 Clouds 10 1015 93 10000 1.54 100 08:23 31.03.2022
4522 Clouds 12 1015 82 10000 1.54 70 05:42 31.03.2022
4523 Clouds 13 1017 82 10000 2.57 350 00:32 31.03.2022
4524 Clouds 14 1016 77 10000 3.09 340 23:23 30.03.2022
4525 Clouds 15 1015 67 8000 4.63 340 21:41 30.03.2022
4526 Clouds 16 1014 63 8000 4.63 340 20:55 30.03.2022
4527 Clouds 17 1014 63 8000 4.12 340 20:20 30.03.2022
4528 Clouds 18 1013 59 8000 4.12 330 19:35 30.03.2022
4529 Clouds 18 1013 63 8000 4.63 320 18:29 30.03.2022
4530 Clouds 18 1013 59 8000 4.12 310 17:48 30.03.2022
4531 Clouds 19 1013 63 8000 3.6 290 16:57 30.03.2022
4532 Clouds 17 1014 67 8000 2.57 0 16:38 30.03.2022
4533 Clouds 18 1014 72 8000 2.57 340 15:24 30.03.2022
4534 Clouds 14 1015 94 8000 2.06 310 13:44 30.03.2022
4535 Clouds 13 1015 94 8000 1.03 0 12:58 30.03.2022
4536 Clouds 14 1014 94 7000 4.12 270 11:34 30.03.2022
4537 Clouds 14 1014 94 7000 4.12 270 11:34 30.03.2022
4538 Clouds 13 1013 94 7000 3.6 270 10:28 30.03.2022
4539 Clouds 12 1013 94 7000 3.09 280 09:24 30.03.2022
4540 Clouds 12 1011 94 5000 4.12 260 07:33 30.03.2022
4541 Clouds 12 1011 87 8000 3.6 250 05:41 30.03.2022
4542 Clouds 13 1011 76 8000 2.57 250 03:59 30.03.2022
4543 Clouds 13 1013 76 8000 2.06 260 00:42 30.03.2022
4544 Clouds 15 1012 67 10000 4.63 280 22:28 29.03.2022
4545 Clouds 16 1012 63 10000 5.14 260 21:45 29.03.2022
4546 Clouds 16 1012 67 10000 5.14 270 20:53 29.03.2022
4547 Clouds 17 1011 59 10000 7.2 270 20:18 29.03.2022
4548 Clouds 19 1010 59 10000 7.72 270 18:56 29.03.2022
4549 Clouds 18 1010 63 10000 6.69 290 18:21 29.03.2022
4550 Clouds 18 1010 68 10000 7.72 280 17:35 29.03.2022
4551 Clouds 17 1010 77 6000 6.69 290 16:57 29.03.2022
4552 Clouds 18 1010 68 6000 10.8 280 15:57 29.03.2022
4553 Clouds 21 1009 60 6000 10.29 280 14:52 29.03.2022
4554 Clouds 22 1009 49 8000 4.12 290 13:58 29.03.2022
4555 Clouds 21 1009 56 8000 2.06 340 12:51 29.03.2022
4556 Clouds 18 1010 68 8000 1.54 320 11:43 29.03.2022
4557 Clouds 16 1010 77 8000 1.54 270 10:30 29.03.2022
4558 Clouds 15 1009 82 8000 2.06 290 09:41 29.03.2022
4559 Clouds 16 1009 77 10000 1.54 180 06:58 29.03.2022
4560 Clouds 16 1011 72 8000 1.54 270 03:54 29.03.2022
4561 Clouds 18 1013 63 8000 3.6 320 00:33 29.03.2022
4562 Clouds 18 1013 63 8000 3.09 340 23:22 28.03.2022
4563 Clouds 19 1013 63 8000 3.6 330 22:51 28.03.2022
4564 Clouds 19 1013 63 8000 3.6 310 22:23 28.03.2022
4565 Clouds 20 1012 60 8000 3.6 300 20:56 28.03.2022
4566 Clouds 20 1012 60 8000 4.63 300 20:21 28.03.2022
4567 Clouds 21 1011 56 8000 4.63 310 19:41 28.03.2022
4568 Clouds 22 1011 53 8000 4.63 320 18:56 28.03.2022
4569 Clouds 23 1011 49 8000 4.63 320 18:36 28.03.2022
4570 Clouds 23 1011 49 8000 5.66 310 17:39 28.03.2022
4571 Clouds 23 1012 49 8000 6.17 290 16:19 28.03.2022
4572 Clouds 22 1012 49 8000 6.69 300 14:27 28.03.2022
4573 Clouds 22 1012 43 8000 5.14 310 13:47 28.03.2022
4574 Clouds 22 1013 37 8000 1.54 0 11:58 28.03.2022
4575 Clouds 21 1013 40 8000 1.54 220 11:23 28.03.2022
4576 Clouds 16 1012 51 8000 1.54 190 09:41 28.03.2022
4577 Clouds 15 1012 55 8000 0.51 0 09:19 28.03.2022
4578 Clouds 16 1012 51 8000 2.06 110 08:22 28.03.2022
4579 Clouds 17 1012 45 8000 3.09 210 07:27 28.03.2022
4580 Clear 18 1011 59 8000 3.6 100 03:27 28.03.2022
4581 Clouds 22 1013 37 8000 5.14 110 23:24 27.03.2022
4582 Clouds 22 1013 37 8000 3.6 100 22:23 27.03.2022
4583 Clouds 23 1013 33 8000 3.09 70 21:41 27.03.2022
4584 Clouds 24 1013 27 8000 2.57 50 20:54 27.03.2022
4585 Clouds 26 1013 25 8000 2.06 350 19:46 27.03.2022
4586 Clouds 26 1013 34 8000 1.03 0 18:55 27.03.2022
4587 Clouds 25 1012 38 8000 2.06 320 18:27 27.03.2022
4588 Clouds 24 1012 41 8000 3.09 310 17:38 27.03.2022
4589 Clouds 23 1012 46 8000 1.54 0 15:59 27.03.2022
4590 Clouds 22 1012 49 8000 2.06 40 14:55 27.03.2022
4591 Clouds 21 1013 52 8000 1.54 0 13:54 27.03.2022
4592 Clouds 18 1014 68 8000 2.06 210 12:20 27.03.2022
4593 Clouds 15 1013 77 8000 2.06 190 10:47 27.03.2022
4594 Clouds 10 1011 93 8000 2.06 70 08:37 27.03.2022
4595 Mist 11 1012 93 3000 1.54 280 05:45 27.03.2022
4596 Clear 15 1012 63 8000 1.54 80 00:47 27.03.2022
4597 Clear 17 1013 59 8000 3.09 100 23:34 26.03.2022
4598 Clear 18 1013 52 8000 2.06 20 22:35 26.03.2022
4599 Clear 18 1012 55 8000 2.57 300 21:33 26.03.2022
4600 Clear 19 1011 48 8000 3.6 300 20:20 26.03.2022
4601 Clouds 21 1011 40 8000 3.09 320 19:19 26.03.2022
4602 Clouds 22 1011 37 8000 1.03 0 17:47 26.03.2022
4603 Clouds 21 1011 40 8000 2.06 40 17:28 26.03.2022
4604 Clouds 22 1011 37 8000 1.03 0 16:25 26.03.2022
4605 Clouds 20 1011 49 8000 3.09 50 14:51 26.03.2022
4606 Clouds 19 1012 55 8000 1.54 0 13:52 26.03.2022
4607 Clouds 18 1014 59 8000 1.03 0 12:44 26.03.2022
4608 Clouds 16 1014 72 8000 1.54 0 11:29 26.03.2022
4609 Clouds 12 1013 94 7000 0 0 09:23 26.03.2022
4610 Clouds 10 1012 93 8000 0.51 0 08:28 26.03.2022
4611 Clouds 11 1011 87 8000 1.03 0 05:54 26.03.2022
4612 Clouds 12 1012 87 8000 1.54 270 03:58 26.03.2022
4613 Clouds 14 1013 77 8000 2.57 310 23:39 25.03.2022
4614 Clouds 15 1012 63 8000 2.57 300 21:28 25.03.2022
4615 Clouds 15 1012 63 8000 3.09 310 20:45 25.03.2022
4616 Clouds 17 1011 48 8000 3.6 290 19:28 25.03.2022
4617 Clouds 17 1011 48 8000 4.63 280 18:46 25.03.2022
4618 Clouds 18 1011 42 8000 4.63 270 18:46 25.03.2022
4619 Clouds 18 1011 45 8000 3.09 310 17:35 25.03.2022
4620 Clouds 18 1011 48 8000 3.6 290 16:41 25.03.2022
4621 Clouds 18 1011 52 8000 3.6 300 15:52 25.03.2022
4622 Clouds 16 1012 63 8000 4.12 280 13:51 25.03.2022
4623 Clouds 14 1012 72 8000 5.14 290 12:32 25.03.2022
4624 Clouds 12 1012 82 8000 3.6 260 09:52 25.03.2022
4625 Clouds 11 1012 87 8000 3.09 260 09:23 25.03.2022
4626 Clouds 11 1011 82 8000 2.57 260 07:48 25.03.2022
4627 Clouds 11 1010 82 8000 2.06 250 07:21 25.03.2022
4628 Clouds 11 1009 82 8000 1.54 140 04:47 25.03.2022
4629 Clouds 11 1010 82 8000 2.06 80 00:29 25.03.2022
4630 Clouds 11 1010 82 8000 2.06 80 22:29 24.03.2022
4631 Clouds 12 1009 76 8000 3.09 110 21:34 24.03.2022
4632 Clouds 12 1009 71 8000 2.06 20 19:50 24.03.2022
4633 Clouds 12 1008 71 8000 3.6 310 18:54 24.03.2022
4634 Clouds 14 1008 62 8000 7.2 280 17:39 24.03.2022
4635 Clouds 16 1007 51 10000 6.17 290 16:44 24.03.2022
4636 Clouds 16 1008 51 10000 5.14 300 14:59 24.03.2022
4637 Clouds 16 1008 51 10000 4.12 300 14:41 24.03.2022
4638 Clouds 16 1008 51 10000 4.12 300 14:41 24.03.2022
4639 Clouds 14 1009 58 10000 4.63 290 13:54 24.03.2022
4640 Clouds 14 1010 62 10000 4.63 260 12:39 24.03.2022
4641 Clouds 14 1010 62 10000 3.6 260 11:31 24.03.2022
4642 Clouds 11 1010 82 8000 1.54 190 09:36 24.03.2022
4643 Clouds 9 1010 87 8000 1.03 0 08:40 24.03.2022
4644 Clouds 10 1010 81 8000 3.6 220 06:19 24.03.2022
4645 Clouds 9 1013 93 8000 4.12 140 01:28 24.03.2022
4646 Drizzle 9 1015 87 5000 0.51 0 22:29 23.03.2022
4647 Drizzle 9 1014 93 5000 2.06 350 21:25 23.03.2022
4648 Clouds 9 1014 93 7000 1.54 40 20:47 23.03.2022
4649 Clouds 10 1014 87 5000 1.03 0 19:40 23.03.2022
4650 Clouds 11 1014 82 5000 5.66 290 18:22 23.03.2022
4651 Clouds 11 1013 87 5000 6.69 300 17:36 23.03.2022
4652 Clouds 14 1012 67 6000 7.2 290 16:18 23.03.2022
4653 Clouds 19 1012 55 7000 7.72 290 14:50 23.03.2022
4654 Clouds 19 1012 52 8000 5.66 290 13:51 23.03.2022
4655 Clouds 17 1014 72 8000 3.6 260 11:51 23.03.2022
4656 Clouds 13 1014 88 6000 1.54 280 09:21 23.03.2022
4657 Clouds 13 1014 88 8000 2.06 260 06:29 23.03.2022
4658 Clouds 12 1015 87 10000 4.12 260 03:57 23.03.2022
4659 Clouds 15 1016 72 10000 1.03 0 00:29 23.03.2022
4660 Clouds 17 1016 63 10000 4.12 360 22:26 22.03.2022
4661 Clouds 19 1016 52 10000 2.57 10 21:29 22.03.2022
4662 Clouds 20 1015 49 10000 3.09 360 20:39 22.03.2022
4663 Clouds 20 1015 49 10000 1.03 0 19:31 22.03.2022
4664 Clouds 21 1015 46 10000 1.03 0 18:57 22.03.2022
4665 Clouds 22 1015 46 10000 3.09 310 17:47 22.03.2022
4666 Clouds 22 1015 46 10000 3.09 310 17:23 22.03.2022
4667 Clouds 21 1016 52 10000 2.06 0 15:54 22.03.2022
4668 Clouds 20 1016 56 10000 2.06 360 15:22 22.03.2022
4669 Clouds 20 1016 52 10000 1.54 0 14:46 22.03.2022
4670 Clouds 19 1017 55 10000 2.06 0 14:25 22.03.2022
4671 Clouds 17 1018 72 8000 1.54 0 12:46 22.03.2022
4672 Clouds 16 1018 77 8000 0.51 0 11:36 22.03.2022
4673 Clouds 14 1018 82 8000 1.54 250 10:23 22.03.2022
4674 Clouds 11 1018 87 8000 2.57 250 07:57 22.03.2022
4675 Clouds 12 1017 82 8000 2.06 240 05:20 22.03.2022
4676 Clouds 13 1018 76 8000 2.57 220 03:41 22.03.2022
4677 Clouds 15 1019 67 8000 4.12 30 23:49 21.03.2022
4678 Clouds 18 1019 48 8000 2.06 350 21:58 21.03.2022
4679 Clouds 19 1018 45 8000 2.57 290 20:45 21.03.2022
4680 Clouds 19 1018 45 8000 2.57 300 20:27 21.03.2022
4681 Clouds 19 1017 45 8000 3.09 310 19:57 21.03.2022
4682 Clouds 20 1017 42 8000 3.09 290 19:23 21.03.2022
4683 Clouds 22 1017 40 8000 2.06 0 17:45 21.03.2022
4684 Clouds 21 1017 43 8000 3.09 270 17:18 21.03.2022
4685 Clouds 21 1017 43 8000 2.57 0 16:39 21.03.2022
4686 Clouds 21 1018 46 8000 2.57 280 15:47 21.03.2022
4687 Clouds 19 1018 52 8000 2.06 0 14:51 21.03.2022
4688 Clouds 19 1019 52 8000 2.57 10 13:43 21.03.2022
4689 Clouds 17 1019 59 8000 2.06 310 12:33 21.03.2022
4690 Clouds 16 1019 63 8000 1.54 0 11:44 21.03.2022
4691 Clouds 14 1019 72 8000 1.54 320 10:34 21.03.2022
4692 Clouds 12 1018 82 8000 1.54 270 08:29 21.03.2022
4693 Clouds 12 1018 76 10000 2.06 280 06:36 21.03.2022
4694 Clouds 14 1018 67 8000 1.54 260 02:40 21.03.2022
4695 Clouds 15 1019 67 8000 2.57 290 23:41 20.03.2022
4696 Clouds 15 1019 67 8000 2.57 290 22:43 20.03.2022
4697 Clouds 15 1018 67 8000 3.6 290 21:50 20.03.2022
4698 Clouds 15 1018 67 8000 4.12 300 21:20 20.03.2022
4699 Clouds 15 1018 67 8000 4.12 310 20:43 20.03.2022
4700 Clouds 16 1017 63 8000 5.14 310 19:57 20.03.2022
4701 Clouds 16 1017 67 8000 4.12 300 19:28 20.03.2022
4702 Clouds 17 1016 63 8000 5.14 290 18:19 20.03.2022
4703 Clouds 18 1016 59 8000 5.14 300 17:33 20.03.2022
4704 Clouds 19 1015 52 8000 5.14 280 16:57 20.03.2022
4705 Clouds 19 1015 52 8000 4.63 270 15:28 20.03.2022
4706 Clouds 17 1016 63 8000 3.09 270 14:23 20.03.2022
4707 Clouds 15 1016 77 8000 3.09 300 12:30 20.03.2022
4708 Clouds 14 1016 82 6000 3.6 260 11:22 20.03.2022
4709 Clouds 13 1015 94 5000 2.57 240 08:59 20.03.2022
4710 Clouds 13 1014 94 5000 4.12 280 07:26 20.03.2022
4711 Clouds 15 1013 77 8000 1.54 300 04:23 20.03.2022
4712 Clouds 17 1014 72 8000 3.09 230 01:29 20.03.2022
4713 Clouds 17 1015 72 8000 3.6 230 00:39 20.03.2022
4714 Clouds 18 1015 63 8000 2.06 260 23:19 19.03.2022
4715 Clouds 20 1015 52 7000 3.09 270 21:27 19.03.2022
4716 Clouds 21 1014 49 7000 2.57 290 20:49 19.03.2022
4717 Clouds 23 1014 40 7000 4.12 290 18:58 19.03.2022
4718 Clouds 24 1014 35 8000 4.63 290 18:23 19.03.2022
4719 Clouds 24 1014 35 8000 3.6 310 17:35 19.03.2022
4720 Clouds 24 1014 35 8000 3.6 300 15:44 19.03.2022
4721 Clouds 24 1015 38 8000 2.06 340 14:44 19.03.2022
4722 Clear 22 1016 43 8000 2.06 10 13:19 19.03.2022
4723 Clear 20 1016 60 8000 1.54 10 12:40 19.03.2022
4724 Clear 19 1016 68 8000 1.54 60 11:54 19.03.2022
4725 Clear 17 1016 77 8000 1.03 0 10:47 19.03.2022
4726 Mist 12 1015 94 3000 1.03 0 06:51 19.03.2022
4727 Clear 12 1016 87 10000 1.54 240 03:24 19.03.2022
4728 Clear 13 1016 76 10000 1.03 0 02:29 19.03.2022
4729 Clouds 17 1017 59 8000 2.06 20 23:44 18.03.2022
4730 Clouds 18 1017 52 8000 2.06 20 22:28 18.03.2022
4731 Clouds 18 1017 52 8000 2.57 10 21:45 18.03.2022
4732 Clouds 20 1015 49 8000 3.09 290 19:51 18.03.2022
4733 Clouds 20 1015 49 8000 3.09 300 19:21 18.03.2022
4734 Clouds 22 1015 43 8000 2.06 0 17:50 18.03.2022
4735 Clouds 21 1015 46 8000 2.06 0 16:48 18.03.2022
4736 Clouds 21 1016 46 8000 2.57 350 15:26 18.03.2022
4737 Clouds 20 1017 52 8000 1.54 0 14:22 18.03.2022
4738 Clear 17 1017 67 7000 2.06 50 12:27 18.03.2022
4739 Clear 15 1017 77 7000 2.57 70 10:52 18.03.2022
4740 Clear 11 1017 100 6000 0.51 0 09:30 18.03.2022
4741 Clear 9 1017 93 6000 1.03 0 08:32 18.03.2022
4742 Clear 10 1016 93 6000 2.06 80 06:35 18.03.2022
4743 Clear 11 1017 87 7000 1.03 0 02:57 18.03.2022
4744 Clouds 14 1018 77 6000 2.06 100 00:23 18.03.2022
4745 Mist 14 1018 77 4500 2.06 60 23:24 17.03.2022
4746 Mist 15 1017 72 4000 2.57 50 22:24 17.03.2022
4747 Mist 15 1017 72 4000 3.09 30 21:48 17.03.2022
4748 Mist 16 1017 67 4000 1.54 20 21:23 17.03.2022
4749 Mist 16 1017 67 4000 1.54 40 20:44 17.03.2022
4750 Mist 17 1016 63 4000 1.03 0 19:48 17.03.2022
4751 Mist 17 1016 63 4000 1.54 30 18:59 17.03.2022
4752 Mist 17 1016 63 4000 2.57 50 18:39 17.03.2022
4753 Mist 17 1016 63 4000 2.06 50 16:49 17.03.2022
4754 Clouds 17 1016 67 5000 1.54 0 15:44 17.03.2022
4755 Clouds 17 1017 67 5000 1.03 0 15:24 17.03.2022
4756 Clouds 16 1017 77 6000 1.03 0 14:28 17.03.2022
4757 Clouds 14 1018 82 7000 2.57 240 12:51 17.03.2022
4758 Clouds 13 1018 88 7000 2.57 230 12:23 17.03.2022
4759 Clouds 12 1018 94 7000 2.57 230 11:27 17.03.2022
4760 Drizzle 11 1018 100 7000 2.06 240 10:29 17.03.2022
4761 Clouds 11 1017 93 3500 1.54 290 08:34 17.03.2022
4762 Clouds 11 1016 93 7000 2.06 290 07:33 17.03.2022
4763 Clouds 11 1017 93 10000 0.51 0 05:47 17.03.2022
4764 Clouds 12 1017 87 8000 2.57 240 01:23 17.03.2022
4765 Clouds 12 1017 82 8000 2.57 240 23:46 16.03.2022
4766 Clouds 13 1017 76 8000 1.54 340 22:45 16.03.2022
4767 Clouds 13 1016 76 8000 1.54 10 22:21 16.03.2022
4768 Clouds 13 1015 76 8000 1.03 0 21:37 16.03.2022
4769 Clouds 15 1014 63 8000 3.09 300 19:41 16.03.2022
4770 Clouds 15 1014 63 8000 3.09 300 19:20 16.03.2022
4771 Clouds 15 1013 63 8000 3.09 260 18:36 16.03.2022
4772 Clouds 15 1013 63 8000 4.63 260 17:41 16.03.2022
4773 Clouds 15 1013 63 8000 6.17 250 16:56 16.03.2022
4774 Clouds 16 1014 59 8000 4.12 270 15:55 16.03.2022
4775 Clouds 13 1014 71 8000 4.12 250 14:25 16.03.2022
4776 Clouds 12 1015 82 8000 2.57 250 13:27 16.03.2022
4777 Clouds 12 1015 82 8000 3.09 270 11:54 16.03.2022
4778 Clouds 12 1015 82 8000 4.12 270 11:20 16.03.2022
4779 Clouds 10 1014 93 8000 2.57 270 10:22 16.03.2022
4780 Clouds 9 1013 93 8000 2.57 230 08:52 16.03.2022
4781 Clouds 9 1011 87 7000 2.06 240 04:45 16.03.2022
4782 Clouds 10 1011 81 7000 4.63 280 01:35 16.03.2022
4783 Clouds 11 1009 76 8000 5.14 280 22:38 15.03.2022
4784 Clouds 11 1009 71 8000 7.72 280 21:52 15.03.2022
4785 Clouds 13 1007 62 8000 7.72 280 20:18 15.03.2022
4786 Clouds 15 1005 51 8000 6.69 290 18:54 15.03.2022
4787 Clouds 16 1004 48 8000 4.12 320 16:55 15.03.2022
4788 Clouds 16 1005 51 8000 4.12 300 16:28 15.03.2022
4789 Clouds 17 1005 45 8000 2.06 0 14:57 15.03.2022
4790 Clouds 16 1005 44 8000 1.03 0 14:39 15.03.2022
4791 Clouds 15 1005 51 8000 3.09 80 13:28 15.03.2022
4792 Clouds 14 1006 62 8000 3.09 80 12:21 15.03.2022
4793 Clouds 12 1006 66 8000 5.14 90 11:29 15.03.2022
4794 Clouds 7 1005 93 8000 4.12 100 09:39 15.03.2022
4795 Clouds 6 1005 93 8000 3.09 80 08:42 15.03.2022
4796 Clouds 5 1005 93 8000 3.09 80 07:50 15.03.2022
4797 Clouds 6 1004 93 8000 3.09 100 06:54 15.03.2022
4798 Clouds 8 1006 87 8000 2.57 90 02:59 15.03.2022
4799 Clouds 9 1007 81 8000 2.57 60 23:40 14.03.2022
4800 Clouds 9 1007 81 8000 2.57 60 23:21 14.03.2022
4801 Clouds 10 1006 76 8000 1.54 20 22:26 14.03.2022
4802 Clouds 10 1006 81 8000 1.54 300 21:26 14.03.2022
4803 Clouds 10 1005 81 8000 2.57 210 20:35 14.03.2022
4804 Clouds 10 1005 81 8000 2.57 200 19:59 14.03.2022
4805 Clouds 9 1005 87 6000 3.09 270 18:42 14.03.2022
4806 Clouds 9 1004 87 5000 3.6 280 17:54 14.03.2022
4807 Clouds 9 1005 81 5000 5.66 260 16:58 14.03.2022
4808 Clouds 9 1005 87 5000 7.2 290 15:37 14.03.2022
4809 Clouds 9 1005 93 5000 7.72 300 14:38 14.03.2022
4810 Clouds 15 1004 72 8000 2.06 0 12:21 14.03.2022
4811 Clouds 13 1006 82 8000 2.06 200 10:51 14.03.2022
4812 Clouds 12 1007 87 6000 3.09 220 09:41 14.03.2022
4813 Clouds 12 1007 87 6000 4.12 200 09:21 14.03.2022
4814 Clouds 12 1007 87 6000 4.12 200 08:55 14.03.2022
4815 Clouds 11 1008 93 6000 3.6 190 07:28 14.03.2022
4816 Clouds 10 1009 93 3000 4.63 280 05:44 14.03.2022
4817 Clouds 14 1010 77 8000 3.09 260 01:52 14.03.2022
4818 Clouds 14 1010 77 8000 4.12 280 01:20 14.03.2022
4819 Clouds 17 1012 67 8000 3.6 310 22:43 13.03.2022
4820 Clouds 18 1012 63 8000 6.17 300 21:29 13.03.2022
4821 Clouds 19 1012 55 8000 5.66 290 20:55 13.03.2022
4822 Clouds 21 1011 46 8000 4.63 270 20:30 13.03.2022
4823 Clouds 21 1011 46 10000 4.63 270 19:49 13.03.2022
4824 Clouds 21 1011 43 10000 5.14 270 19:27 13.03.2022
4825 Clouds 22 1012 43 10000 5.14 280 18:59 13.03.2022
4826 Clouds 22 1012 43 10000 2.57 270 18:31 13.03.2022
4827 Clouds 23 1012 43 10000 2.57 0 17:40 13.03.2022
4828 Clouds 23 1012 43 10000 2.57 0 16:57 13.03.2022
4829 Clouds 22 1013 46 10000 3.09 270 16:29 13.03.2022
4830 Clouds 23 1013 46 8000 1.03 0 15:44 13.03.2022
4831 Clouds 21 1014 52 8000 2.06 0 14:51 13.03.2022
4832 Clear 20 1016 56 8000 1.54 0 13:33 13.03.2022
4833 Clouds 18 1017 63 8000 1.54 50 12:37 13.03.2022
4834 Clouds 17 1017 67 8000 2.06 30 11:51 13.03.2022
4835 Clouds 17 1017 67 8000 1.54 0 11:30 13.03.2022
4836 Clouds 16 1017 72 8000 1.03 0 10:46 13.03.2022
4837 Clouds 16 1017 72 8000 0.51 0 09:53 13.03.2022
4838 Clouds 13 1017 82 8000 0.51 0 09:29 13.03.2022
4839 Clouds 10 1017 87 8000 1.54 230 08:40 13.03.2022
4840 Clouds 10 1017 87 8000 1.54 250 07:37 13.03.2022
4841 Clouds 12 1017 82 8000 1.54 230 05:39 13.03.2022
4842 Clouds 13 1019 76 8000 2.06 240 02:27 13.03.2022
4843 Clouds 15 1020 67 8000 3.09 350 23:31 12.03.2022
4844 Clouds 18 1019 59 8000 2.06 250 21:49 12.03.2022
4845 Clouds 19 1018 48 8000 2.57 240 20:29 12.03.2022
4846 Clouds 21 1017 40 8000 4.12 250 19:47 12.03.2022
4847 Clouds 21 1017 40 8000 4.12 280 18:47 12.03.2022
4848 Clouds 22 1017 33 8000 3.09 270 18:20 12.03.2022
4849 Clouds 23 1018 35 8000 1.54 0 16:32 12.03.2022
4850 Clouds 21 1018 37 8000 1.54 0 15:55 12.03.2022
4851 Clouds 21 1018 40 8000 2.06 20 15:22 12.03.2022
4852 Clouds 19 1020 48 8000 2.06 0 13:54 12.03.2022
4853 Clouds 19 1021 55 8000 1.03 0 12:33 12.03.2022
4854 Clouds 18 1021 59 8000 1.54 0 11:55 12.03.2022
4855 Clouds 16 1021 67 8000 1.03 0 11:34 12.03.2022
4856 Clouds 15 1021 72 8000 1.03 0 10:32 12.03.2022
4857 Clouds 14 1020 82 8000 0.51 0 09:44 12.03.2022
4858 Clouds 9 1020 87 8000 1.03 0 08:24 12.03.2022
4859 Clouds 10 1020 87 8000 1.54 270 06:44 12.03.2022
4860 Clouds 12 1021 76 8000 1.54 270 01:44 12.03.2022
4861 Clouds 14 1021 67 8000 3.09 230 23:46 11.03.2022
4862 Clouds 16 1022 59 8000 2.57 290 22:36 11.03.2022
4863 Clouds 17 1020 55 8000 3.6 260 21:24 11.03.2022
4864 Clouds 17 1020 51 8000 3.6 270 20:48 11.03.2022
4865 Clouds 18 1020 52 8000 3.6 290 20:26 11.03.2022
4866 Clouds 20 1020 49 8000 5.66 280 19:35 11.03.2022
4867 Clouds 22 1019 37 8000 5.66 280 18:33 11.03.2022
4868 Clouds 22 1018 37 8000 3.6 290 17:26 11.03.2022
4869 Clouds 22 1018 40 8000 3.6 290 16:25 11.03.2022
4870 Clouds 22 1018 43 8000 2.57 340 15:36 11.03.2022
4871 Clouds 21 1020 52 8000 1.54 0 13:42 11.03.2022
4872 Clouds 19 1020 59 8000 2.06 0 12:41 11.03.2022
4873 Clouds 18 1021 63 8000 2.57 0 12:19 11.03.2022
4874 Clouds 16 1021 72 8000 1.03 0 10:53 11.03.2022
4875 Clear 12 1020 87 8000 1.54 200 09:35 11.03.2022
4876 Clear 9 1019 87 8000 1.54 270 08:28 11.03.2022
4877 Clear 10 1019 87 10000 0.51 0 07:48 11.03.2022
4878 Clear 11 1018 87 10000 1.03 0 06:42 11.03.2022
4879 Clear 11 1019 82 10000 1.54 250 04:40 11.03.2022
4880 Clear 14 1020 67 10000 1.54 240 01:29 11.03.2022
4881 Clear 17 1020 51 8000 2.06 310 22:32 10.03.2022
4882 Clear 17 1019 51 8000 1.54 270 21:54 10.03.2022
4883 Clear 17 1019 48 8000 2.06 270 21:25 10.03.2022
4884 Clear 19 1019 42 8000 2.57 250 20:36 10.03.2022
4885 Clouds 21 1019 40 8000 3.6 260 19:20 10.03.2022
4886 Clouds 22 1018 35 8000 3.09 300 17:51 10.03.2022
4887 Clouds 22 1019 43 8000 1.54 0 16:52 10.03.2022
4888 Clear 20 1019 52 8000 3.09 300 15:28 10.03.2022
4889 Clear 18 1020 72 6000 1.54 0 13:45 10.03.2022
4890 Clear 16 1021 77 5000 1.54 310 12:41 10.03.2022
4891 Clouds 13 1021 94 5000 0.51 0 11:28 10.03.2022
4892 Mist 10 1021 100 1200 0.51 0 09:42 10.03.2022
4893 Fog 10 1020 93 200 2.06 300 07:48 10.03.2022
4894 Clear 11 1020 87 8000 4.12 230 05:30 10.03.2022
4895 Clear 12 1020 82 10000 2.06 250 02:33 10.03.2022
4896 Clear 15 1020 67 10000 3.09 230 23:32 09.03.2022
4897 Clear 18 1018 55 10000 5.14 10 22:22 09.03.2022
4898 Clear 18 1018 55 10000 5.14 10 21:44 09.03.2022
4899 Clear 20 1017 42 10000 3.09 250 20:36 09.03.2022
4900 Clear 23 1016 33 10000 3.6 280 18:41 09.03.2022
4901 Clear 24 1016 31 10000 3.09 310 17:28 09.03.2022
4902 Clouds 24 1016 25 10000 3.09 0 16:39 09.03.2022
4903 Clear 22 1017 30 10000 2.06 0 15:32 09.03.2022
4904 Clear 22 1018 37 10000 1.54 0 14:19 09.03.2022
4905 Clear 20 1018 45 10000 1.54 40 12:59 09.03.2022
4906 Clear 19 1019 52 10000 1.03 0 12:20 09.03.2022
4907 Clear 18 1019 55 10000 1.03 0 11:45 09.03.2022
4908 Clear 16 1019 59 10000 0.51 0 10:49 09.03.2022
4909 Clear 10 1018 81 10000 0.51 0 09:22 09.03.2022
4910 Clear 10 1018 81 10000 0.51 0 08:42 09.03.2022
4911 Clear 10 1017 81 10000 1.54 140 04:49 09.03.2022
4912 Clear 14 1018 62 10000 3.09 20 00:55 09.03.2022
4913 Clear 15 1019 55 10000 2.57 80 23:21 08.03.2022
4914 Clear 15 1019 55 10000 2.57 80 22:45 08.03.2022
4915 Clear 17 1019 45 10000 3.6 60 21:28 08.03.2022
4916 Clear 18 1019 42 10000 4.12 50 20:54 08.03.2022
4917 Clear 19 1019 39 10000 4.63 40 19:55 08.03.2022
4918 Clear 21 1018 35 10000 4.12 30 18:45 08.03.2022
4919 Clear 22 1018 33 10000 3.09 10 17:50 08.03.2022
4920 Clear 22 1018 37 10000 2.06 0 16:35 08.03.2022
4921 Clear 18 1019 52 10000 2.57 60 14:23 08.03.2022
4922 Clear 16 1021 59 10000 2.57 40 12:44 08.03.2022
4923 Clear 14 1021 67 10000 3.09 70 11:53 08.03.2022
4924 Clear 14 1021 67 10000 2.57 0 11:34 08.03.2022
4925 Clouds 12 1020 76 10000 3.09 110 10:27 08.03.2022
4926 Clouds 9 1020 87 10000 2.06 120 08:28 08.03.2022
4927 Clouds 11 1019 76 8000 1.54 150 05:47 08.03.2022
4928 Clouds 9 1020 87 10000 2.06 250 01:48 08.03.2022
4929 Clouds 12 1019 71 10000 2.06 260 22:24 07.03.2022
4930 Clouds 14 1018 62 10000 1.54 240 21:35 07.03.2022
4931 Clouds 15 1018 58 10000 1.54 240 20:54 07.03.2022
4932 Clouds 15 1017 58 10000 2.06 270 20:22 07.03.2022
4933 Clear 16 1017 51 10000 2.57 280 19:38 07.03.2022
4934 Clouds 17 1017 48 10000 2.57 270 18:47 07.03.2022
4935 Clouds 17 1016 45 10000 3.6 300 17:58 07.03.2022
4936 Clouds 18 1016 45 10000 2.06 0 16:56 07.03.2022
4937 Clouds 18 1016 45 10000 2.06 0 16:30 07.03.2022
4938 Clouds 16 1016 55 10000 2.06 0 14:31 07.03.2022
4939 Clouds 14 1017 62 10000 1.54 0 12:33 07.03.2022
4940 Clear 14 1017 77 10000 0.51 0 10:45 07.03.2022
4941 Clear 13 1017 76 10000 0.51 0 10:24 07.03.2022
4942 Clouds 7 1015 93 6000 1.03 0 06:35 07.03.2022
4943 Clouds 10 1016 87 10000 1.54 250 00:24 07.03.2022
4944 Clouds 10 1016 87 10000 1.54 240 23:58 06.03.2022
4945 Clouds 10 1016 87 10000 1.54 240 23:18 06.03.2022
4946 Clouds 12 1016 76 10000 2.06 320 22:24 06.03.2022
4947 Clouds 12 1014 87 10000 3.09 290 20:56 06.03.2022
4948 Clouds 11 1014 87 10000 3.09 240 20:28 06.03.2022
4949 Clouds 12 1013 87 10000 4.63 230 19:31 06.03.2022
4950 Clouds 11 1012 93 8000 4.63 220 18:25 06.03.2022
4951 Clouds 11 1012 87 6000 2.06 260 17:22 06.03.2022
4952 Clouds 11 1012 87 6000 2.06 260 16:52 06.03.2022
4953 Clouds 12 1012 87 8000 3.6 220 16:20 06.03.2022
4954 Clouds 11 1012 87 8000 4.12 250 15:19 06.03.2022
4955 Clouds 12 1012 87 8000 4.63 190 14:41 06.03.2022
4956 Clouds 12 1013 87 8000 5.14 220 13:47 06.03.2022
4957 Clouds 12 1014 87 8000 5.66 220 12:36 06.03.2022
4958 Clouds 9 1013 93 6000 4.12 240 11:27 06.03.2022
4959 Clouds 10 1013 87 6000 3.6 250 10:29 06.03.2022
4960 Clouds 10 1013 87 8000 3.6 220 08:40 06.03.2022
4961 Clouds 10 1013 87 8000 3.6 220 08:20 06.03.2022
4962 Clouds 10 1013 76 10000 5.66 240 06:33 06.03.2022
4963 Clear 10 1016 66 10000 3.6 240 01:32 06.03.2022
4964 Clear 10 1017 62 10000 4.12 240 00:33 06.03.2022
4965 Clear 11 1017 58 10000 4.12 240 23:41 05.03.2022
4966 Clear 12 1017 54 10000 2.57 250 23:18 05.03.2022
4967 Clear 14 1017 51 10000 3.09 330 22:25 05.03.2022
4968 Clear 16 1017 39 10000 2.57 350 21:24 05.03.2022
4969 Clear 17 1016 31 10000 2.57 350 19:56 05.03.2022
4970 Clear 19 1016 27 10000 2.57 300 18:56 05.03.2022
4971 Clear 20 1016 26 10000 1.03 0 18:34 05.03.2022
4972 Clear 20 1017 28 10000 2.57 0 16:57 05.03.2022
4973 Clear 18 1017 34 10000 3.09 340 15:43 05.03.2022
4974 Clear 17 1018 42 10000 2.57 260 14:52 05.03.2022
4975 Clouds 16 1018 44 10000 2.06 330 14:34 05.03.2022
4976 Clouds 15 1020 47 10000 2.57 30 13:34 05.03.2022
4977 Clouds 13 1021 54 10000 2.57 80 11:55 05.03.2022
4978 Clouds 11 1021 62 10000 2.57 70 11:20 05.03.2022
4979 Clouds 11 1021 62 10000 2.06 60 10:23 05.03.2022
4980 Clouds 9 1021 66 10000 2.06 90 09:28 05.03.2022
4981 Clear 8 1021 71 10000 1.54 110 07:58 05.03.2022
4982 Clouds 9 1020 66 10000 1.54 70 05:43 05.03.2022
4983 Clouds 9 1020 66 10000 3.09 50 04:33 05.03.2022
4984 Clouds 11 1021 58 10000 6.17 40 23:38 04.03.2022
4985 Clouds 13 1021 54 10000 5.66 30 22:44 04.03.2022
4986 Clouds 13 1021 54 10000 5.66 30 22:23 04.03.2022
4987 Clouds 14 1020 47 10000 5.14 30 21:24 04.03.2022
4988 Clouds 16 1020 41 10000 4.12 40 20:28 04.03.2022
4989 Clouds 17 1019 36 8000 4.12 60 19:36 04.03.2022
4990 Clouds 17 1019 42 8000 4.63 40 18:46 04.03.2022
4991 Clouds 17 1019 42 8000 4.63 40 18:20 04.03.2022
4992 Clouds 18 1020 39 8000 2.57 0 17:28 04.03.2022
4993 Clouds 17 1021 45 8000 4.63 40 15:31 04.03.2022
4994 Clouds 16 1022 51 8000 4.63 70 14:36 04.03.2022
4995 Clouds 15 1023 51 8000 5.66 60 13:27 04.03.2022
4996 Clouds 13 1024 62 8000 5.14 80 11:56 04.03.2022
4997 Clouds 12 1024 66 8000 5.66 80 10:57 04.03.2022
4998 Clouds 12 1023 71 8000 4.63 70 10:18 04.03.2022
4999 Clouds 11 1023 71 8000 4.63 50 08:48 04.03.2022
5000 Clouds 11 1022 82 8000 5.66 40 07:41 04.03.2022
5001 Clouds 10 1022 71 10000 1.54 260 04:59 04.03.2022
5002 Clear 13 1024 67 10000 2.06 50 00:41 04.03.2022
5003 Clouds 15 1024 58 10000 1.54 40 22:53 03.03.2022
5004 Clouds 16 1023 55 10000 3.09 10 21:57 03.03.2022
5005 Clouds 16 1023 55 10000 3.6 360 21:34 03.03.2022
5006 Clouds 19 1022 39 10000 4.12 350 20:21 03.03.2022
5007 Clear 21 1021 35 10000 4.12 360 18:57 03.03.2022
5008 Clear 22 1021 30 10000 3.6 360 18:25 03.03.2022
5009 Clear 23 1021 28 10000 3.6 340 17:31 03.03.2022
5010 Clear 22 1021 35 10000 2.06 0 16:28 03.03.2022
5011 Clear 22 1021 43 10000 2.57 360 15:41 03.03.2022
5012 Clear 21 1022 43 10000 2.57 340 14:44 03.03.2022
5013 Clear 20 1022 45 10000 2.06 330 14:25 03.03.2022
5014 Clear 17 1024 55 10000 2.06 120 12:28 03.03.2022
5015 Clear 14 1025 67 10000 1.03 0 10:56 03.03.2022
5016 Clear 12 1025 71 10000 1.54 0 09:56 03.03.2022
5017 Clear 8 1024 76 10000 1.54 240 08:34 03.03.2022
5018 Clear 9 1023 66 10000 1.03 0 06:38 03.03.2022
5019 Clear 11 1023 66 10000 2.57 170 05:20 03.03.2022
5020 Clouds 15 1024 51 10000 3.6 40 23:45 02.03.2022
5021 Clouds 16 1024 44 10000 3.6 40 22:53 02.03.2022
5022 Clouds 16 1024 44 10000 3.6 40 22:53 02.03.2022
5023 Clouds 16 1024 48 10000 4.12 40 22:31 02.03.2022
5024 Clouds 19 1023 42 10000 6.17 360 20:59 02.03.2022
5025 Clouds 20 1022 42 10000 2.06 50 20:25 02.03.2022
5026 Clouds 22 1022 37 10000 1.03 0 19:37 02.03.2022
5027 Clouds 23 1022 35 10000 1.54 0 18:58 02.03.2022
5028 Clouds 23 1022 38 10000 2.06 140 18:26 02.03.2022
5029 Clouds 23 1022 38 10000 1.54 0 17:41 02.03.2022
5030 Clouds 22 1022 40 10000 1.54 0 16:52 02.03.2022
5031 Clouds 22 1022 43 10000 1.54 0 15:46 02.03.2022
5032 Clouds 19 1024 52 10000 3.09 340 13:52 02.03.2022
5033 Clear 18 1024 59 10000 2.57 300 12:56 02.03.2022
5034 Clear 17 1025 63 10000 2.06 330 12:34 02.03.2022
5035 Clear 15 1025 72 10000 1.54 330 11:27 02.03.2022
5036 Clouds 16 1024 49 10000 1.69 334 10:39 02.03.2022
5037 Clear 10 1024 87 10000 2.06 260 09:36 02.03.2022
5038 Clear 9 1023 81 10000 2.06 250 08:36 02.03.2022
5039 Clear 9 1023 87 10000 2.06 250 07:23 02.03.2022
5040 Clear 10 1023 81 10000 2.57 240 04:51 02.03.2022
5041 Clear 15 1023 51 10000 3.09 230 00:40 02.03.2022
5042 Clear 17 1022 48 10000 2.06 330 23:35 01.03.2022
5043 Clear 19 1021 34 10000 2.57 330 22:40 01.03.2022
5044 Clear 20 1021 32 10000 2.57 330 21:53 01.03.2022
5045 Clouds 21 1020 35 10000 3.09 260 20:41 01.03.2022
5046 Clouds 21 1020 35 10000 3.09 260 20:20 01.03.2022
5047 Clouds 24 1019 33 10000 3.6 330 18:58 01.03.2022
5048 Clouds 25 1019 31 10000 4.63 290 18:25 01.03.2022
5049 Clouds 25 1019 29 10000 4.12 300 17:54 01.03.2022
5050 Clouds 25 1019 36 10000 3.6 300 16:37 01.03.2022
5051 Clouds 25 1019 36 10000 2.57 280 15:48 01.03.2022
5052 Clouds 24 1020 38 10000 3.09 0 14:54 01.03.2022
5053 Clouds 24 1020 41 10000 2.06 310 14:31 01.03.2022
5054 Clouds 23 1021 43 10000 2.06 340 13:26 01.03.2022
5055 Clear 21 1022 49 10000 2.06 310 12:38 01.03.2022
5056 Clear 19 1022 55 10000 2.06 350 11:44 01.03.2022
5057 Clear 16 1021 63 9000 1.54 220 09:53 01.03.2022
5058 Clear 13 1021 67 9000 4.12 170 08:31 01.03.2022
5059 Clear 13 1021 67 9000 3.6 160 07:32 01.03.2022
5060 Clear 15 1019 58 10000 1.54 120 03:27 01.03.2022
5061 Clouds 17 1020 51 9000 2.06 80 00:58 01.03.2022
5062 Clouds 18 1020 52 9000 4.63 60 23:47 28.02.2022
5063 Clouds 19 1020 55 9000 5.14 40 22:50 28.02.2022
5064 Clouds 20 1019 56 10000 4.63 30 21:48 28.02.2022
5065 Clouds 20 1018 49 10000 1.54 60 20:56 28.02.2022
5066 Clouds 22 1018 46 10000 3.6 40 19:51 28.02.2022
5067 Clouds 22 1018 43 8000 3.6 60 19:22 28.02.2022
5068 Clouds 23 1018 43 8000 4.63 50 18:35 28.02.2022
5069 Clear 23 1016 37 10000 5.31 33 17:23 28.02.2022
5070 Clouds 24 1018 41 8000 4.12 50 16:32 28.02.2022
5071 Clouds 23 1018 40 8000 4.63 70 15:21 28.02.2022
5072 Clouds 22 1019 43 8000 4.12 40 14:29 28.02.2022
5073 Clouds 21 1020 56 8000 3.6 70 13:34 28.02.2022
5074 Clouds 19 1021 68 8000 2.57 70 12:31 28.02.2022
5075 Clouds 17 1021 72 7000 3.6 40 11:37 28.02.2022
5076 Clouds 16 1021 77 7000 2.57 50 10:24 28.02.2022
5077 Clouds 15 1020 82 7000 3.09 70 09:59 28.02.2022
5078 Clouds 15 1020 82 7000 3.09 110 09:27 28.02.2022
5079 Clouds 15 1019 82 6000 2.57 110 08:26 28.02.2022
5080 Clouds 15 1019 82 6000 2.57 110 08:26 28.02.2022
5081 Clouds 14 1019 88 6000 3.09 50 06:53 28.02.2022
5082 Clouds 14 1019 88 6000 2.06 60 04:31 28.02.2022
5083 Clouds 14 1019 88 6000 2.06 20 02:41 28.02.2022
5084 Clouds 14 1019 82 8000 0.51 0 23:26 27.02.2022
5085 Clouds 15 1018 82 8000 2.57 170 22:33 27.02.2022
5086 Clouds 16 1018 77 8000 2.57 160 21:47 27.02.2022
5087 Clouds 15 1018 77 8000 0.51 0 20:54 27.02.2022
5088 Clouds 16 1017 72 8000 0 0 20:27 27.02.2022
5089 Clouds 16 1017 77 8000 0.51 0 19:56 27.02.2022
5090 Clouds 17 1017 72 8000 1.03 0 19:26 27.02.2022
5091 Clouds 17 1017 72 6000 1.54 160 18:39 27.02.2022
5092 Clouds 17 1017 72 6000 1.54 180 17:54 27.02.2022
5093 Clouds 16 1016 77 6000 2.06 140 16:37 27.02.2022
5094 Clouds 16 1017 77 6000 2.57 70 15:55 27.02.2022
5095 Clouds 16 1017 82 5000 3.09 30 12:53 27.02.2022
5096 Clouds 15 1018 82 5000 3.6 30 12:29 27.02.2022
5097 Clouds 15 1017 88 5000 2.06 40 10:50 27.02.2022
5098 Clouds 15 1016 82 5000 3.09 30 09:58 27.02.2022
5099 Clouds 15 1016 88 5000 3.09 50 09:37 27.02.2022
5100 Clouds 15 1016 88 5000 3.09 50 09:18 27.02.2022
5101 Mist 14 1015 88 4000 1.03 0 06:43 27.02.2022
5102 Mist 13 1015 88 4000 1.03 0 05:36 27.02.2022
5103 Clouds 15 1016 82 5000 2.06 330 00:52 27.02.2022
5104 Clouds 16 1016 77 5000 1.54 240 22:56 26.02.2022
5105 Clouds 16 1015 77 5000 2.06 280 21:39 26.02.2022
5106 Clouds 16 1015 77 5000 1.54 280 20:52 26.02.2022
5107 Clouds 16 1015 77 5000 2.06 270 20:19 26.02.2022
5108 Mist 16 1014 77 3000 3.09 230 19:41 26.02.2022
5109 Clouds 16 1014 77 5000 3.09 230 18:49 26.02.2022
5110 Clouds 16 1014 77 5000 3.09 220 17:45 26.02.2022
5111 Clouds 17 1014 72 5000 4.63 260 16:49 26.02.2022
5112 Clouds 16 1013 77 5000 2.57 270 15:49 26.02.2022
5113 Clouds 16 1013 77 5000 2.06 290 15:22 26.02.2022
5114 Clouds 16 1013 77 5000 2.57 290 14:53 26.02.2022
5115 Clouds 15 1013 82 5000 2.57 270 14:33 26.02.2022
5116 Clouds 15 1014 82 5000 2.06 310 13:19 26.02.2022
5117 Clouds 15 1014 82 5000 2.06 310 13:19 26.02.2022
5118 Clouds 15 1015 82 5000 2.57 320 12:23 26.02.2022
5119 Clouds 15 1014 88 5000 2.57 320 11:28 26.02.2022
5120 Clouds 13 1015 94 5000 2.57 280 10:40 26.02.2022
5121 Mist 13 1013 94 2000 3.6 280 08:53 26.02.2022
5122 Mist 14 1012 94 2000 3.6 270 06:51 26.02.2022
5123 Clouds 17 1013 82 6000 1.54 0 00:56 26.02.2022
5124 Clouds 18 1014 77 6000 2.06 310 22:49 25.02.2022
5125 Clouds 20 1014 60 6000 2.57 310 21:43 25.02.2022
5126 Clouds 20 1014 60 6000 3.09 340 21:25 25.02.2022
5127 Clouds 22 1013 53 6000 3.09 330 20:33 25.02.2022
5128 Clouds 23 1012 46 6000 4.12 270 19:18 25.02.2022
5129 Clouds 25 1012 38 8000 3.09 290 17:29 25.02.2022
5130 Clouds 25 1012 38 8000 4.12 280 16:32 25.02.2022
5131 Clouds 25 1012 41 8000 3.6 300 15:48 25.02.2022
5132 Clouds 24 1013 43 8000 3.6 290 15:22 25.02.2022
5133 Clouds 24 1014 46 8000 3.09 300 14:42 25.02.2022
5134 Clouds 22 1014 49 8000 3.6 310 13:51 25.02.2022
5135 Clouds 22 1014 56 8000 3.09 310 13:18 25.02.2022
5136 Clouds 19 1014 63 8000 1.54 300 11:28 25.02.2022
5137 Clouds 16 1014 77 8000 1.54 280 10:43 25.02.2022
5138 Clouds 16 1014 77 8000 0.51 0 10:22 25.02.2022
5139 Clouds 14 1014 82 8000 1.03 0 09:30 25.02.2022
5140 Clouds 13 1013 82 8000 1.54 0 07:42 25.02.2022
5141 Clouds 14 1013 77 8000 3.6 230 05:51 25.02.2022
5142 Clouds 15 1013 67 8000 3.09 230 04:41 25.02.2022
5143 Clouds 18 1016 59 8000 6.69 90 00:27 25.02.2022
5144 Clouds 19 1016 63 6000 5.14 70 21:59 24.02.2022
5145 Thunderstorm 19 1017 59 6000 4.63 60 21:40 24.02.2022
5146 Clouds 20 1017 56 6000 2.57 40 21:20 24.02.2022
5147 Thunderstorm 21 1016 52 6000 3.6 30 19:53 24.02.2022
5148 Thunderstorm 22 1014 49 6000 5.14 40 18:45 24.02.2022
5149 Thunderstorm 23 1014 46 6000 5.66 30 18:19 24.02.2022
5150 Thunderstorm 24 1014 43 6000 5.14 360 17:40 24.02.2022
5151 Thunderstorm 25 1015 41 6000 4.12 350 16:50 24.02.2022
5152 Clouds 24 1015 46 4000 5.66 340 16:24 24.02.2022
5153 Dust 25 1015 38 2000 9.77 220 14:56 24.02.2022
5154 Dust 26 1015 34 2000 9.26 200 14:36 24.02.2022
5155 Clouds 23 1016 49 7000 3.09 80 13:41 24.02.2022
5156 Clouds 21 1016 52 7000 3.6 60 13:21 24.02.2022
5157 Clouds 15 1018 82 7000 2.06 40 10:41 24.02.2022
5158 Clouds 13 1017 88 7000 1.54 0 09:40 24.02.2022
5159 Clouds 12 1017 94 7000 0.51 0 08:42 24.02.2022
5160 Clouds 14 1016 88 10000 3.09 90 05:59 24.02.2022
5161 Clouds 14 1018 82 8000 3.09 260 02:59 24.02.2022
5162 Clouds 18 1020 63 8000 2.57 280 23:45 23.02.2022
5163 Clouds 20 1019 60 8000 3.09 120 21:55 23.02.2022
5164 Clouds 19 1019 63 8000 3.09 80 20:32 23.02.2022
5165 Clouds 20 1019 60 8000 5.14 110 19:55 23.02.2022
5166 Clouds 20 1019 60 8000 4.12 340 18:57 23.02.2022
5167 Clouds 21 1018 56 6000 5.14 310 17:46 23.02.2022
5168 Clouds 28 1017 28 8000 2.57 130 15:28 23.02.2022
5169 Clouds 28 1019 28 10000 1.03 0 13:34 23.02.2022
5170 Clouds 25 1021 33 10000 2.06 100 12:26 23.02.2022
5171 Clouds 22 1021 40 10000 3.09 90 10:45 23.02.2022
5172 Clouds 19 1020 45 10000 2.06 90 09:24 23.02.2022
5173 Clear 18 1019 48 10000 1.03 0 08:27 23.02.2022
5174 Clear 20 1019 42 10000 4.12 260 07:19 23.02.2022
5175 Clear 20 1019 42 10000 4.12 260 07:19 23.02.2022
5176 Clouds 22 1019 33 8000 4.12 160 01:22 23.02.2022
5177 Clouds 24 1020 22 8000 3.6 210 23:40 22.02.2022
5178 Clouds 22 1019 23 8000 3.09 170 22:59 22.02.2022
5179 Clouds 22 1019 23 8000 1.03 0 21:58 22.02.2022
5180 Clouds 23 1019 20 8000 2.57 90 21:40 22.02.2022
5181 Clouds 23 1019 20 8000 2.57 90 21:18 22.02.2022
5182 Clouds 24 1018 19 8000 1.03 0 20:31 22.02.2022
5183 Clouds 25 1018 16 8000 1.03 0 19:53 22.02.2022
5184 Clouds 26 1018 15 8000 1.03 0 19:33 22.02.2022
5185 Clouds 28 1018 14 8000 2.06 40 18:27 22.02.2022
5186 Clouds 28 1018 14 8000 1.54 360 17:26 22.02.2022
5187 Clouds 28 1019 14 8000 1.03 0 16:42 22.02.2022
5188 Clouds 28 1019 15 8000 2.06 0 15:59 22.02.2022
5189 Clouds 27 1020 18 8000 2.06 70 14:52 22.02.2022
5190 Clouds 24 1022 25 8000 3.09 70 12:52 22.02.2022
5191 Clouds 17 1023 36 8000 2.57 80 10:54 22.02.2022
5192 Clear 11 1022 46 10000 3.09 90 08:56 22.02.2022
5193 Clear 12 1021 43 10000 3.09 110 07:28 22.02.2022
5194 Clear 13 1021 41 10000 2.06 140 06:53 22.02.2022
5195 Clear 14 1022 41 10000 1.03 0 02:48 22.02.2022
5196 Clear 17 1022 34 10000 2.06 70 23:18 21.02.2022
5197 Clear 20 1022 28 10000 2.57 60 21:56 21.02.2022
5198 Clear 23 1021 23 10000 4.12 40 20:38 21.02.2022
5199 Clear 25 1020 22 10000 5.66 30 18:47 21.02.2022
5200 Clear 27 1020 21 10000 1.54 50 18:18 21.02.2022
5201 Clear 25 1021 31 10000 2.57 360 15:36 21.02.2022
5202 Clear 23 1022 40 10000 2.57 350 14:22 21.02.2022
5203 Clear 21 1023 46 10000 2.06 350 13:30 21.02.2022
5204 Clear 21 1023 49 10000 1.03 0 12:41 21.02.2022
5205 Clear 20 1023 52 10000 1.03 0 12:20 21.02.2022
5206 Clear 14 1024 67 10000 2.06 200 10:26 21.02.2022
5207 Clear 12 1020 62 10000 2.57 180 05:40 21.02.2022
5208 Clouds 15 1021 55 10000 2.57 200 00:30 21.02.2022
5209 Clouds 17 1020 48 10000 2.06 20 22:32 20.02.2022
5210 Clouds 17 1020 48 10000 1.54 360 21:43 20.02.2022
5211 Clouds 18 1020 45 10000 2.06 320 21:21 20.02.2022
5212 Clouds 19 1019 42 10000 1.54 340 20:43 20.02.2022
5213 Clouds 19 1019 45 10000 1.03 0 19:48 20.02.2022
5214 Clouds 20 1018 42 10000 2.57 70 18:55 20.02.2022
5215 Clouds 20 1018 42 10000 2.57 60 18:34 20.02.2022
5216 Clouds 20 1018 42 10000 2.57 60 17:55 20.02.2022
5217 Clouds 20 1018 45 10000 3.09 30 16:18 20.02.2022
5218 Clouds 18 1019 52 10000 2.57 50 14:53 20.02.2022
5219 Clouds 18 1019 52 10000 2.57 50 14:53 20.02.2022
5220 Clouds 16 1020 55 10000 2.57 350 13:58 20.02.2022
5221 Clouds 14 1021 58 10000 2.57 40 12:35 20.02.2022
5222 Clouds 13 1021 62 10000 3.09 70 10:52 20.02.2022
5223 Clouds 12 1021 66 10000 3.09 80 10:20 20.02.2022
5224 Clouds 12 1020 62 10000 2.57 80 08:58 20.02.2022
5225 Clouds 12 1022 71 10000 3.6 50 01:19 20.02.2022
5226 Clouds 12 1022 71 10000 4.63 50 00:30 20.02.2022
5227 Clouds 12 1022 71 10000 4.63 40 23:19 19.02.2022
5228 Clouds 12 1022 76 10000 4.63 40 22:23 19.02.2022
5229 Clouds 13 1021 71 10000 6.17 30 21:39 19.02.2022
5230 Clouds 14 1020 72 10000 5.14 30 19:58 19.02.2022
5231 Clouds 15 1020 67 10000 5.66 10 19:33 19.02.2022
5232 Clouds 17 1020 59 10000 6.17 20 18:38 19.02.2022
5233 Clouds 18 1019 52 10000 5.14 350 17:37 19.02.2022
5234 Clouds 18 1019 48 10000 1.54 0 16:34 19.02.2022
5235 Clouds 19 1020 45 10000 1.54 0 15:19 19.02.2022
5236 Clouds 18 1020 48 10000 1.54 0 14:52 19.02.2022
5237 Clouds 18 1021 55 10000 1.54 0 13:47 19.02.2022
5238 Clouds 14 1022 72 8000 2.57 100 11:39 19.02.2022
5239 Clouds 12 1022 82 8000 2.06 140 10:30 19.02.2022
5240 Clouds 10 1021 87 8000 2.06 260 07:56 19.02.2022
5241 Clouds 10 1020 81 8000 1.54 240 04:32 19.02.2022
5242 Clouds 14 1021 67 8000 3.09 250 23:45 18.02.2022
5243 Clouds 17 1020 55 8000 3.6 360 21:54 18.02.2022
5244 Clouds 18 1019 45 10000 3.09 240 20:57 18.02.2022
5245 Clouds 19 1019 42 10000 2.57 250 19:54 18.02.2022
5246 Clouds 21 1019 35 10000 4.63 280 18:50 18.02.2022
5247 Clouds 22 1019 33 10000 4.12 290 18:22 18.02.2022
5248 Clouds 22 1019 33 10000 4.12 290 17:55 18.02.2022
5249 Clouds 20 1019 49 10000 3.6 300 15:22 18.02.2022
5250 Clear 19 1021 55 10000 3.09 290 13:55 18.02.2022
5251 Clear 17 1021 51 10000 2.57 290 12:55 18.02.2022
5252 Clear 16 1022 51 10000 2.06 280 12:36 18.02.2022
5253 Clear 13 1022 47 10000 3.09 270 11:40 18.02.2022
5254 Clear 12 1021 40 10000 0.51 0 10:23 18.02.2022
5255 Clear 9 1020 66 10000 2.06 40 06:57 18.02.2022
5256 Clear 9 1020 66 10000 1.54 80 05:41 18.02.2022
5257 Clear 16 1021 55 10000 2.57 90 23:34 17.02.2022
5258 Clear 18 1020 13 10000 1.03 0 21:46 17.02.2022
5259 Clear 18 1020 13 10000 1.03 0 21:20 17.02.2022
5260 Clear 21 1020 10 10000 1.54 360 20:39 17.02.2022
5261 Clear 22 1020 10 10000 2.06 360 19:50 17.02.2022
5262 Clear 25 1019 9 10000 3.09 360 18:52 17.02.2022
5263 Clear 26 1020 10 10000 2.57 40 17:55 17.02.2022
5264 Clear 26 1020 10 10000 2.06 30 16:42 17.02.2022
5265 Clear 25 1021 10 10000 3.6 90 15:38 17.02.2022
5266 Clear 24 1023 14 10000 3.09 80 14:28 17.02.2022
5267 Clear 20 1025 22 10000 2.06 30 12:43 17.02.2022
5268 Clear 18 1026 25 10000 3.09 70 11:27 17.02.2022
5269 Clear 8 1025 49 10000 2.57 90 08:53 17.02.2022
5270 Clear 12 1026 37 10000 1.54 80 04:20 17.02.2022
5271 Clear 15 1028 36 10000 2.06 90 23:21 16.02.2022
5272 Clear 20 1027 26 10000 3.09 50 21:44 16.02.2022
5273 Clouds 22 1027 23 10000 3.6 30 19:57 16.02.2022
5274 Clouds 24 1026 20 10000 2.57 350 18:43 16.02.2022
5275 Clouds 25 1026 20 10000 3.09 350 17:53 16.02.2022
5276 Clear 24 1027 27 10000 2.06 340 15:40 16.02.2022
5277 Clear 24 1027 27 10000 2.06 340 15:19 16.02.2022
5278 Clear 20 1029 34 10000 2.06 360 13:28 16.02.2022
5279 Clear 17 1030 42 10000 2.06 30 12:20 16.02.2022
5280 Clear 15 1030 51 10000 1.03 0 11:28 16.02.2022
5281 Clear 12 1030 58 10000 1.03 0 10:34 16.02.2022
5282 Clear 7 1028 70 10000 1.54 260 08:20 16.02.2022
5283 Clear 7 1027 70 10000 1.03 0 06:29 16.02.2022
5284 Clouds 13 1026 54 10000 2.06 90 23:45 15.02.2022
5285 Clouds 16 1025 44 10000 3.6 30 22:30 15.02.2022
5286 Clouds 17 1025 45 10000 2.06 20 21:47 15.02.2022
5287 Clouds 17 1024 45 10000 2.06 30 21:27 15.02.2022
5288 Clouds 18 1024 42 10000 2.06 30 20:56 15.02.2022
5289 Clouds 18 1023 42 10000 2.06 50 19:57 15.02.2022
5290 Clouds 20 1023 40 10000 4.63 50 18:56 15.02.2022
5291 Clouds 20 1023 40 10000 4.63 40 18:22 15.02.2022
5292 Clouds 20 1023 40 10000 4.12 40 17:50 15.02.2022
5293 Clouds 21 1023 43 10000 5.14 50 17:19 15.02.2022
5294 Clouds 20 1024 42 10000 3.6 50 15:30 15.02.2022
5295 Clouds 18 1026 59 10000 2.06 350 13:28 15.02.2022
5296 Clear 15 1026 67 10000 2.06 20 12:37 15.02.2022
5297 Clear 13 1026 71 10000 3.09 50 11:40 15.02.2022
5298 Clear 10 1025 87 10000 0.51 0 09:31 15.02.2022
5299 Clear 9 1024 87 10000 1.03 0 06:59 15.02.2022
5300 Clear 10 1024 81 10000 1.54 120 05:32 15.02.2022
5301 Clear 14 1024 67 10000 3.6 40 23:33 14.02.2022
5302 Clear 17 1023 51 10000 3.6 10 21:47 14.02.2022
5303 Clouds 18 1022 36 10000 2.06 20 20:40 14.02.2022
5304 Clouds 20 1022 32 10000 1.54 310 19:36 14.02.2022
5305 Clouds 20 1022 32 10000 2.06 330 18:44 14.02.2022
5306 Clouds 20 1021 32 10000 1.54 320 18:23 14.02.2022
5307 Clouds 20 1021 32 10000 1.54 0 17:26 14.02.2022
5308 Clouds 23 1022 31 10000 1.54 0 16:25 14.02.2022
5309 Clouds 20 1023 40 10000 1.54 0 14:31 14.02.2022
5310 Clouds 18 1024 48 10000 2.06 0 13:33 14.02.2022
5311 Clouds 17 1024 48 10000 1.54 20 12:52 14.02.2022
5312 Clouds 14 1024 62 10000 2.06 330 11:54 14.02.2022
5313 Clear 13 1024 67 10000 1.03 0 10:56 14.02.2022
5314 Clear 9 1023 71 10000 1.03 0 08:45 14.02.2022
5315 Clear 10 1022 71 10000 2.06 220 07:32 14.02.2022
5316 Clear 10 1022 57 10000 2.06 260 02:27 14.02.2022
5317 Clear 16 1021 29 10000 2.57 90 22:42 13.02.2022
5318 Clear 16 1021 29 10000 2.57 90 22:24 13.02.2022
5319 Clear 17 1020 27 10000 2.06 50 21:32 13.02.2022
5320 Clear 19 1020 24 10000 1.54 10 20:36 13.02.2022
5321 Clear 20 1020 22 10000 2.06 350 19:45 13.02.2022
5322 Clear 21 1019 21 10000 2.57 350 18:54 13.02.2022
5323 Clear 22 1019 21 10000 3.09 340 18:35 13.02.2022
5324 Clear 22 1020 20 10000 3.09 340 16:34 13.02.2022
5325 Clear 22 1020 21 10000 1.54 0 15:24 13.02.2022
5326 Clear 21 1021 26 10000 2.57 0 14:36 13.02.2022
5327 Clear 20 1023 28 10000 0.51 0 12:51 13.02.2022
5328 Clouds 18 1023 36 10000 1.03 0 11:58 13.02.2022
5329 Clouds 15 1022 41 10000 0.51 0 10:35 13.02.2022
5330 Clouds 12 1022 54 10000 0.51 0 09:47 13.02.2022
5331 Clear 8 1021 61 8000 0.51 0 07:51 13.02.2022
5332 Clear 14 1022 54 10000 2.57 70 00:36 13.02.2022
5333 Clear 15 1022 55 10000 2.57 60 23:53 12.02.2022
5334 Clear 16 1022 48 8000 1.54 30 22:33 12.02.2022
5335 Clear 16 1021 31 8000 1.54 80 21:31 12.02.2022
5336 Clear 18 1021 27 8000 2.06 40 20:47 12.02.2022
5337 Clouds 20 1020 22 10000 4.12 60 19:35 12.02.2022
5338 Clouds 21 1020 19 10000 4.63 60 18:53 12.02.2022
5339 Clouds 21 1020 21 10000 4.12 60 18:35 12.02.2022
5340 Clouds 22 1019 21 10000 4.63 40 17:37 12.02.2022
5341 Clouds 22 1019 21 10000 5.14 50 16:43 12.02.2022
5342 Clouds 22 1020 28 10000 3.09 70 15:51 12.02.2022
5343 Clouds 21 1021 35 10000 3.6 40 14:44 12.02.2022
5344 Clouds 20 1022 37 10000 4.12 50 14:24 12.02.2022
5345 Clouds 16 1023 51 8000 1.03 0 11:18 12.02.2022
5346 Clouds 14 1023 54 8000 0.51 0 10:23 12.02.2022
5347 Clouds 9 1022 66 8000 3.6 100 09:32 12.02.2022
5348 Clouds 7 1022 76 8000 1.54 80 08:45 12.02.2022
5349 Clear 9 1021 71 10000 2.06 90 05:40 12.02.2022
5350 Clear 9 1021 66 10000 2.57 100 04:33 12.02.2022
5351 Clear 11 1022 66 10000 2.06 90 02:18 12.02.2022
5352 Clouds 14 1023 58 8000 1.54 100 22:55 11.02.2022
5353 Clouds 15 1023 55 8000 1.54 40 22:20 11.02.2022
5354 Clouds 16 1022 51 8000 3.09 40 20:52 11.02.2022
5355 Clouds 17 1022 45 8000 2.57 20 19:50 11.02.2022
5356 Clouds 18 1022 42 8000 3.6 30 19:27 11.02.2022
5357 Clouds 19 1021 42 8000 4.12 360 18:28 11.02.2022
5358 Clouds 20 1022 40 8000 2.06 340 17:26 11.02.2022
5359 Clouds 20 1022 32 8000 1.54 0 16:26 11.02.2022
5360 Clouds 20 1022 24 10000 4.78 26 14:57 11.02.2022
5361 Clouds 20 1022 24 10000 4.78 26 14:36 11.02.2022
5362 Clouds 20 1023 22 10000 3.98 43 14:18 11.02.2022
5363 Clouds 20 1023 22 10000 3.97 43 13:39 11.02.2022
5364 Clouds 15 1025 38 8000 1.03 0 12:19 11.02.2022
5365 Clouds 13 1024 38 10000 2.06 90 10:28 11.02.2022
5366 Clouds 12 1023 40 10000 1.03 0 09:19 11.02.2022
5367 Clouds 12 1023 35 10000 2.06 20 08:28 11.02.2022
5368 Clouds 12 1023 35 8000 1.03 0 07:34 11.02.2022
5369 Clouds 13 1024 35 8000 1.03 0 02:40 11.02.2022
5370 Clear 13 1024 35 8000 1.03 0 02:20 11.02.2022
5371 Clear 16 1025 33 8000 1.03 0 23:36 10.02.2022
5372 Clear 20 1024 24 8000 2.06 340 21:53 10.02.2022
5373 Clear 21 1024 21 8000 3.6 330 21:24 10.02.2022
5374 Clear 22 1024 17 8000 2.57 340 20:48 10.02.2022
5375 Clouds 24 1023 13 8000 3.09 330 19:26 10.02.2022
5376 Clouds 25 1023 12 8000 2.57 310 18:47 10.02.2022
5377 Clouds 26 1022 12 8000 3.6 300 17:39 10.02.2022
5378 Clouds 26 1022 12 8000 3.6 300 17:19 10.02.2022
5379 Clouds 26 1023 11 8000 3.6 300 16:20 10.02.2022
5380 Clouds 25 1023 18 8000 3.09 290 15:33 10.02.2022
5381 Clouds 26 1023 18 8000 3.09 290 14:49 10.02.2022
5382 Clouds 25 1024 19 8000 3.09 280 14:29 10.02.2022
5383 Clouds 23 1025 25 8000 2.06 320 13:33 10.02.2022
5384 Clouds 22 1025 30 8000 1.54 340 12:51 10.02.2022
5385 Clouds 20 1026 34 8000 1.03 0 11:38 10.02.2022
5386 Clouds 20 1026 34 8000 1.03 0 11:20 10.02.2022
5387 Clouds 17 1026 36 8000 4.12 180 10:18 10.02.2022
5388 Clouds 12 1025 47 8000 1.03 0 09:25 10.02.2022
5389 Clouds 13 1025 44 8000 1.54 150 07:40 10.02.2022
5390 Clear 14 1024 41 8000 0.51 0 05:52 10.02.2022
5391 Clear 17 1025 34 8000 4.12 230 01:57 10.02.2022
5392 Clouds 18 1025 36 8000 4.63 220 00:50 10.02.2022
5393 Clear 18 1025 36 8000 4.63 220 00:50 10.02.2022
5394 Clouds 19 1025 34 8000 3.6 210 00:29 10.02.2022
5395 Clouds 18 1025 34 8000 0.51 0 23:26 09.02.2022
5396 Clouds 20 1024 32 8000 3.6 230 22:37 09.02.2022
5397 Clouds 19 1024 34 8000 1.03 0 21:56 09.02.2022
5398 Clouds 20 1024 32 8000 1.03 0 21:32 09.02.2022
5399 Clouds 23 1023 27 8000 1.03 0 20:51 09.02.2022
5400 Clouds 23 1023 27 8000 1.03 0 20:31 09.02.2022
5401 Clouds 24 1023 25 8000 2.06 300 19:59 09.02.2022
5402 Clouds 25 1023 23 8000 3.09 300 19:38 09.02.2022
5403 Clouds 26 1023 22 8000 1.54 0 17:39 09.02.2022
5404 Clouds 26 1023 24 8000 2.06 310 16:53 09.02.2022
5405 Clouds 26 1023 24 8000 2.57 20 15:52 09.02.2022
5406 Clouds 26 1024 24 8000 2.06 0 14:42 09.02.2022
5407 Clear 23 1025 28 8000 1.54 360 12:30 09.02.2022
5408 Clear 22 1025 30 8000 0.51 0 11:19 09.02.2022
5409 Clear 17 1025 42 8000 1.03 0 10:30 09.02.2022
5410 Clear 12 1025 54 8000 1.03 0 09:40 09.02.2022
5411 Clear 12 1025 54 8000 1.03 0 09:19 09.02.2022
5412 Clear 12 1024 50 8000 1.54 100 07:55 09.02.2022
5413 Clear 15 1023 38 10000 1.1 155 05:30 09.02.2022
5414 Clear 16 1023 39 8000 2.57 170 03:50 09.02.2022
5415 Clouds 17 1024 39 8000 2.57 120 01:27 09.02.2022
5416 Clouds 19 1024 34 8000 2.06 0 23:34 08.02.2022
5417 Clouds 20 1023 32 8000 3.6 170 22:50 08.02.2022
5418 Clouds 21 1023 30 8000 4.12 150 22:22 08.02.2022
5419 Clouds 21 1023 30 8000 5.66 150 21:49 08.02.2022
5420 Clouds 22 1022 28 8000 6.17 140 21:21 08.02.2022
5421 Clouds 23 1022 23 8000 3.6 110 20:45 08.02.2022
5422 Clouds 24 1021 19 8000 3.09 50 19:46 08.02.2022
5423 Clouds 23 1020 17 10000 3.3 40 18:48 08.02.2022
5424 Clouds 27 1020 18 8000 1.54 0 17:43 08.02.2022
5425 Clouds 26 1020 13 10000 4.29 15 16:34 08.02.2022
5426 Clear 26 1020 13 10000 3.97 9 15:30 08.02.2022
5427 Clear 26 1022 22 8000 2.57 350 14:38 08.02.2022
5428 Clouds 25 1023 23 8000 1.54 0 13:24 08.02.2022
5429 Clouds 21 1023 35 8000 1.03 0 11:55 08.02.2022
5430 Clouds 14 1023 44 8000 1.54 70 10:23 08.02.2022
5431 Clouds 15 1023 41 8000 1.54 80 10:23 08.02.2022
5432 Clouds 14 1023 44 8000 1.54 70 09:45 08.02.2022
5433 Clear 12 1022 50 8000 2.57 110 07:55 08.02.2022
5434 Clouds 14 1021 47 10000 1.54 100 05:41 08.02.2022
5435 Clouds 17 1022 39 10000 2.06 0 04:39 08.02.2022
5436 Clouds 17 1022 39 10000 2.06 0 04:21 08.02.2022
5437 Clouds 16 1022 41 10000 0.51 0 03:36 08.02.2022
5438 Clouds 16 1022 41 10000 0.51 0 03:18 08.02.2022
5439 Clouds 16 1022 41 10000 1.54 130 02:59 08.02.2022
5440 Clouds 17 1022 39 10000 1.03 0 02:36 08.02.2022
5441 Clouds 17 1022 39 10000 1.03 0 02:18 08.02.2022
5442 Clouds 18 1022 36 10000 1.54 0 02:18 08.02.2022
5443 Clouds 19 1022 37 10000 3.6 210 01:44 08.02.2022
5444 Clouds 19 1022 37 10000 3.6 210 01:24 08.02.2022
5445 Clouds 17 1022 39 10000 2.06 250 00:54 08.02.2022
5446 Clear 18 1022 34 10000 2.57 240 23:57 07.02.2022
5447 Clear 19 1022 34 10000 2.57 210 23:39 07.02.2022
5448 Clear 19 1022 34 10000 2.57 210 23:18 07.02.2022
5449 Clouds 20 1022 30 8000 3.09 220 22:20 07.02.2022
5450 Clouds 21 1021 28 8000 3.6 180 21:55 07.02.2022
5451 Clouds 22 1021 26 8000 3.09 180 21:29 07.02.2022
5452 Clouds 20 1021 30 8000 1.54 230 20:59 07.02.2022
5453 Clouds 22 1020 24 8000 2.57 230 20:40 07.02.2022
5454 Clouds 22 1020 23 8000 1.03 0 19:54 07.02.2022
5455 Clouds 23 1020 21 8000 1.54 230 19:36 07.02.2022
5456 Clouds 25 1019 20 8000 2.06 330 18:18 07.02.2022
5457 Clouds 26 1019 19 8000 3.09 280 16:53 07.02.2022
5458 Clear 26 1019 22 8000 3.6 0 15:49 07.02.2022
5459 Clear 26 1020 22 8000 2.06 310 14:56 07.02.2022
5460 Clear 25 1021 33 8000 1.54 0 13:28 07.02.2022
5461 Clear 23 1021 35 8000 2.57 40 12:52 07.02.2022
5462 Clear 20 1021 42 8000 2.06 80 11:58 07.02.2022
5463 Clear 18 1021 48 8000 2.57 80 11:35 07.02.2022
5464 Clouds 17 1021 51 10000 2.06 50 10:50 07.02.2022
5465 Clouds 18 1021 52 10000 0.51 0 10:30 07.02.2022
5466 Clouds 15 1021 58 10000 2.06 130 09:53 07.02.2022
5467 Clouds 13 1020 62 10000 3.09 90 09:18 07.02.2022
5468 Clouds 12 1020 66 10000 1.03 0 08:36 07.02.2022
5469 Clear 13 1020 62 10000 0.51 0 06:54 07.02.2022
5470 Clear 13 1020 62 10000 1.54 120 06:34 07.02.2022
5471 Clear 15 1020 58 10000 1.54 80 02:59 07.02.2022
5472 Clouds 16 1021 55 10000 2.06 100 00:45 07.02.2022
5473 Clouds 16 1021 55 10000 2.06 100 00:45 07.02.2022
5474 Clouds 16 1021 55 10000 2.06 90 23:47 06.02.2022
5475 Clouds 18 1021 52 8000 2.57 60 22:48 06.02.2022
5476 Clouds 20 1021 42 8000 4.12 50 21:54 06.02.2022
5477 Clouds 19 1021 42 8000 2.06 70 21:35 06.02.2022
5478 Clouds 20 1020 40 8000 2.57 80 20:54 06.02.2022
5479 Clouds 21 1020 37 8000 3.09 80 20:31 06.02.2022
5480 Clouds 23 1019 33 8000 2.57 20 19:38 06.02.2022
5481 Clouds 24 1019 33 8000 2.57 10 18:40 06.02.2022
5482 Clouds 24 1019 33 8000 2.06 310 17:55 06.02.2022
5483 Clouds 25 1018 33 8000 2.06 320 17:19 06.02.2022
5484 Clouds 25 1019 31 8000 2.06 0 16:38 06.02.2022
5485 Clouds 24 1019 35 8000 1.54 0 15:48 06.02.2022
5486 Clouds 24 1019 33 10000 2.06 30 15:26 06.02.2022
5487 Clouds 23 1020 40 10000 1.54 0 14:36 06.02.2022
5488 Clouds 23 1020 40 10000 1.54 0 14:36 06.02.2022
5489 Clouds 20 1021 49 10000 2.06 50 13:25 06.02.2022
5490 Clouds 19 1021 52 10000 2.57 40 12:52 06.02.2022
5491 Clouds 16 1022 63 10000 2.57 70 11:32 06.02.2022
5492 Clouds 15 1022 67 10000 2.06 70 10:30 06.02.2022
5493 Clouds 14 1021 72 10000 3.09 80 08:53 06.02.2022
5494 Clouds 14 1021 72 10000 2.06 110 08:30 06.02.2022
5495 Clouds 15 1020 63 10000 0.51 0 05:31 06.02.2022
5496 Clouds 15 1021 63 10000 1.03 0 02:49 06.02.2022
5497 Clouds 15 1021 63 10000 1.03 0 02:24 06.02.2022
5498 Clouds 16 1021 59 10000 3.09 50 00:27 06.02.2022
5499 Clouds 19 1021 48 10000 5.14 40 22:22 05.02.2022
5500 Clouds 20 1020 37 10000 2.06 60 21:18 05.02.2022
5501 Clouds 21 1020 35 10000 2.57 50 20:24 05.02.2022
5502 Clouds 21 1020 35 10000 3.09 40 19:46 05.02.2022
5503 Clouds 22 1019 33 10000 4.12 40 18:52 05.02.2022
5504 Clear 23 1019 31 10000 3.09 360 17:39 05.02.2022
5505 Clear 23 1019 31 10000 3.09 360 17:39 05.02.2022
5506 Clear 24 1019 29 10000 4.12 30 16:48 05.02.2022
5507 Clear 25 1019 23 10000 3.09 50 15:34 05.02.2022
5508 Clear 24 1019 25 10000 3.09 50 14:53 05.02.2022
5509 Clouds 20 1022 34 8000 2.57 40 12:47 05.02.2022
5510 Clouds 19 1022 37 8000 2.57 50 11:49 05.02.2022
5511 Clouds 17 1022 39 8000 1.54 60 10:47 05.02.2022
5512 Clear 14 1022 51 10000 1.03 0 09:53 05.02.2022
5513 Clear 12 1021 54 10000 1.03 0 09:29 05.02.2022
5514 Clear 12 1021 50 10000 1.54 110 07:38 05.02.2022
5515 Clear 12 1021 50 10000 2.06 100 06:56 05.02.2022
5516 Clouds 14 1022 47 10000 1.54 110 04:28 05.02.2022
5517 Clouds 17 1022 36 10000 3.09 80 01:19 05.02.2022
5518 Clouds 17 1023 36 10000 3.09 90 00:51 05.02.2022
5519 Clouds 18 1022 34 10000 2.06 90 23:38 04.02.2022
5520 Clouds 18 1022 34 10000 2.06 90 23:20 04.02.2022
5521 Clouds 22 1022 26 10000 2.57 40 21:37 04.02.2022
5522 Clouds 22 1022 26 10000 2.57 40 21:18 04.02.2022
5523 Clouds 22 1022 26 10000 3.09 20 20:50 04.02.2022
5524 Clouds 24 1021 23 10000 2.57 20 19:33 04.02.2022
5525 Clouds 25 1020 23 10000 1.54 320 17:27 04.02.2022
5526 Clear 25 1021 22 10000 1.54 0 15:38 04.02.2022
5527 Clouds 24 1021 23 7000 2.06 0 14:52 04.02.2022
5528 Clouds 22 1023 30 6000 1.54 10 12:43 04.02.2022
5529 Clear 21 1023 32 10000 1.54 360 11:47 04.02.2022
5530 Clear 18 1023 36 10000 1.03 0 11:22 04.02.2022
5531 Clear 16 1023 41 10000 1.54 170 10:32 04.02.2022
5532 Clouds 14 1022 47 8000 2.06 130 08:34 04.02.2022
5533 Clear 14 1022 47 10000 2.06 90 05:19 04.02.2022
5534 Clear 15 1024 44 10000 1.03 0 02:39 04.02.2022
5535 Clear 17 1024 39 10000 4.12 220 00:26 04.02.2022
5536 Clouds 18 1024 42 8000 4.12 220 23:21 03.02.2022
5537 Clouds 18 1024 42 8000 4.12 230 22:26 03.02.2022
5538 Clouds 19 1024 39 8000 3.09 240 21:47 03.02.2022
5539 Clouds 22 1023 28 8000 4.63 230 20:26 03.02.2022
5540 Clouds 22 1023 26 8000 3.09 200 19:57 03.02.2022
5541 Clouds 22 1023 26 8000 2.57 200 19:23 03.02.2022
5542 Clouds 23 1022 25 8000 3.6 240 18:26 03.02.2022
5543 Clouds 24 1022 23 8000 3.6 260 17:27 03.02.2022
5544 Clouds 26 1022 21 8000 1.03 0 15:44 03.02.2022
5545 Clouds 25 1023 22 8000 1.54 360 14:22 03.02.2022
5546 Clouds 24 1024 25 8000 1.54 60 12:37 03.02.2022
5547 Clouds 11 1024 46 8000 1.03 0 09:29 03.02.2022
5548 Clear 11 1023 46 10000 2.06 130 08:19 03.02.2022
5549 Clear 14 1023 38 8000 1.03 0 02:56 03.02.2022
5550 Clouds 17 1024 31 8000 1.54 170 00:29 03.02.2022
5551 Clouds 20 1023 26 8000 2.57 210 22:42 02.02.2022
5552 Clouds 18 1023 29 8000 0.51 0 21:53 02.02.2022
5553 Clouds 19 1023 30 8000 1.54 250 21:29 02.02.2022
5554 Clouds 21 1022 26 8000 2.06 240 20:28 02.02.2022
5555 Clouds 21 1022 24 8000 1.54 260 19:49 02.02.2022
5556 Clouds 23 1022 23 8000 2.06 240 19:20 02.02.2022
5557 Clouds 25 1021 19 8000 3.09 270 18:25 02.02.2022
5558 Clear 26 1021 18 10000 2.06 290 17:23 02.02.2022
5559 Clear 26 1021 18 10000 3.09 310 16:59 02.02.2022
5560 Clear 27 1021 17 10000 2.57 320 15:49 02.02.2022
5561 Clear 22 1023 23 10000 2.57 80 12:50 02.02.2022
5562 Clear 18 1024 29 10000 2.57 80 11:51 02.02.2022
5563 Clear 18 1024 29 10000 2.57 80 11:51 02.02.2022
5564 Clear 16 1024 31 10000 2.57 110 11:30 02.02.2022
5565 Clear 9 1023 53 8000 2.06 70 09:22 02.02.2022
5566 Clouds 9 1023 53 8000 2.06 80 05:29 02.02.2022
5567 Clouds 17 1024 29 8000 2.57 100 22:36 01.02.2022
5568 Clear 20 1023 22 8000 3.09 50 20:58 01.02.2022
5569 Clear 23 1022 20 10000 4.12 30 19:39 01.02.2022
5570 Clear 26 1022 19 10000 2.57 0 17:37 01.02.2022
5571 Clear 26 1022 21 10000 2.06 0 16:31 01.02.2022
5572 Clouds 23 1025 31 8000 2.06 50 13:27 01.02.2022
5573 Clouds 20 1026 34 8000 1.54 90 12:28 01.02.2022
5574 Clouds 13 1025 54 8000 3.09 90 10:42 01.02.2022
5575 Clouds 13 1025 54 8000 2.06 60 02:24 01.02.2022
5576 Clouds 16 1025 48 8000 3.09 90 23:39 31.01.2022
5577 Clouds 17 1025 45 8000 3.6 100 22:42 31.01.2022
5578 Clouds 20 1024 37 8000 2.57 60 21:36 31.01.2022
5579 Clouds 21 1024 35 8000 1.54 90 20:35 31.01.2022
5580 Clouds 22 1024 33 8000 1.54 70 19:59 31.01.2022
5581 Clouds 24 1023 29 8000 2.06 50 18:47 31.01.2022
5582 Clouds 25 1023 27 8000 2.06 30 18:18 31.01.2022
5583 Clouds 25 1023 29 8000 1.54 30 17:24 31.01.2022
5584 Clouds 25 1024 29 8000 2.57 60 16:25 31.01.2022
5585 Clouds 25 1024 31 8000 2.57 80 14:53 31.01.2022
5586 Clouds 23 1026 40 8000 2.57 40 13:35 31.01.2022
5587 Clouds 21 1027 43 8000 2.57 40 12:38 31.01.2022
5588 Clouds 21 1026 43 8000 1.03 0 11:26 31.01.2022
5589 Clouds 17 1026 55 8000 2.06 50 10:48 31.01.2022
5590 Clouds 16 1025 55 8000 1.54 40 09:37 31.01.2022
5591 Clouds 15 1025 58 8000 2.57 90 08:56 31.01.2022
5592 Clouds 15 1025 55 8000 2.57 90 08:20 31.01.2022
5593 Clouds 15 1024 58 8000 1.03 0 07:40 31.01.2022
5594 Clouds 17 1023 48 8000 2.06 50 05:33 31.01.2022
5595 Clouds 21 1024 35 10000 5.14 200 00:36 31.01.2022
5596 Clouds 22 1023 28 10000 7.72 190 22:33 30.01.2022
5597 Clouds 22 1023 26 10000 4.12 200 21:46 30.01.2022
5598 Clouds 22 1022 26 7000 4.63 210 21:26 30.01.2022
5599 Clouds 22 1022 26 7000 5.66 210 20:54 30.01.2022
5600 Clouds 23 1021 23 7000 6.69 200 20:31 30.01.2022
5601 Clouds 23 1021 23 7000 7.2 200 19:56 30.01.2022
5602 Clouds 24 1020 22 7000 3.6 90 18:52 30.01.2022
5603 Clouds 24 1020 22 7000 3.09 100 18:22 30.01.2022
5604 Clouds 25 1020 19 7000 3.09 80 17:31 30.01.2022
5605 Clouds 25 1020 19 7000 3.09 80 17:31 30.01.2022
5606 Clouds 25 1020 19 7000 3.09 80 17:31 30.01.2022
5607 Clouds 25 1020 19 7000 3.09 90 16:44 30.01.2022
5608 Clouds 25 1021 19 8000 3.6 100 16:23 30.01.2022
5609 Clouds 25 1020 19 7000 3.09 80 16:23 30.01.2022
5610 Clouds 25 1021 19 8000 3.6 100 15:55 30.01.2022
5611 Clouds 25 1021 20 8000 2.06 70 15:33 30.01.2022
5612 Clouds 25 1022 20 8000 3.09 100 14:48 30.01.2022
5613 Clouds 23 1023 25 8000 1.54 0 13:49 30.01.2022
5614 Clouds 21 1024 30 10000 1.54 60 12:46 30.01.2022
5615 Clouds 14 1024 47 10000 1.54 90 11:23 30.01.2022
5616 Clouds 13 1024 50 10000 3.09 90 10:26 30.01.2022
5617 Clouds 10 1023 57 10000 0.51 0 09:23 30.01.2022
5618 Clouds 10 1023 53 10000 1.54 100 08:32 30.01.2022
5619 Clouds 12 1023 50 10000 1.54 90 02:55 30.01.2022
5620 Clouds 13 1023 47 10000 3.09 110 01:54 30.01.2022
5621 Clouds 14 1022 44 8000 1.54 260 23:49 29.01.2022
5622 Clouds 15 1022 41 10000 0.51 0 22:57 29.01.2022
5623 Clouds 18 1021 34 10000 1.54 110 21:35 29.01.2022
5624 Clouds 19 1021 32 10000 1.54 60 20:59 29.01.2022
5625 Clouds 21 1020 28 10000 2.06 40 20:20 29.01.2022
5626 Clouds 21 1020 28 10000 2.06 60 19:33 29.01.2022
5627 Clouds 23 1020 25 10000 1.54 40 18:44 29.01.2022
5628 Clouds 24 1019 22 10000 3.09 30 17:56 29.01.2022
5629 Clouds 24 1019 22 10000 4.12 360 17:19 29.01.2022
5630 Clouds 24 1020 22 10000 2.57 350 15:35 29.01.2022
5631 Clouds 24 1021 22 10000 1.54 0 13:58 29.01.2022
5632 Clouds 23 1021 23 10000 1.03 0 13:28 29.01.2022
5633 Clouds 23 1022 23 10000 2.06 140 12:59 29.01.2022
5634 Clouds 20 1022 30 8000 4.12 90 11:39 29.01.2022
5635 Clouds 20 1022 30 8000 4.12 90 11:39 29.01.2022
5636 Clouds 18 1021 36 8000 2.57 90 10:34 29.01.2022
5637 Clouds 16 1021 39 8000 2.06 10 08:20 29.01.2022
5638 Clouds 11 1020 58 8000 1.54 100 02:48 29.01.2022
5639 Clouds 14 1020 47 8000 0.51 0 00:32 29.01.2022
5640 Clouds 15 1020 44 8000 1.03 0 23:31 28.01.2022
5641 Clouds 15 1019 44 8000 0.51 0 22:47 28.01.2022
5642 Clouds 17 1019 36 8000 1.03 0 22:19 28.01.2022
5643 Clouds 17 1018 39 10000 1.54 270 20:41 28.01.2022
5644 Clouds 20 1018 30 10000 0.51 0 19:58 28.01.2022
5645 Clouds 21 1017 28 10000 1.54 360 18:52 28.01.2022
5646 Clouds 22 1017 24 8000 2.06 340 18:34 28.01.2022
5647 Clear 23 1017 25 10000 1.54 0 16:23 28.01.2022
5648 Clear 23 1018 27 10000 2.57 20 14:54 28.01.2022
5649 Clear 20 1019 32 10000 3.6 60 12:42 28.01.2022
5650 Clear 18 1020 39 10000 4.12 70 11:49 28.01.2022
5651 Clouds 14 1020 58 10000 2.06 50 10:27 28.01.2022
5652 Clouds 13 1020 62 10000 1.54 70 09:46 28.01.2022
5653 Clouds 12 1019 66 10000 2.57 80 07:41 28.01.2022
5654 Clouds 13 1019 67 10000 1.54 240 05:31 28.01.2022
5655 Clouds 14 1019 62 10000 2.06 30 03:51 28.01.2022
5656 Clouds 14 1019 58 10000 2.06 240 02:27 28.01.2022
5657 Clouds 15 1019 51 10000 2.06 220 01:37 28.01.2022
5658 Clouds 15 1019 51 10000 2.06 220 01:37 28.01.2022
5659 Clouds 14 1019 58 10000 3.09 130 00:42 28.01.2022
5660 Clouds 16 1018 48 10000 4.12 170 22:20 27.01.2022
5661 Clouds 17 1018 45 10000 3.09 190 21:34 27.01.2022
5662 Clouds 17 1017 42 10000 3.6 210 20:59 27.01.2022
5663 Clouds 18 1016 36 10000 2.06 200 19:37 27.01.2022
5664 Clouds 19 1016 37 10000 2.57 220 18:19 27.01.2022
5665 Clouds 20 1016 32 10000 2.06 270 16:45 27.01.2022
5666 Clouds 20 1018 34 10000 1.03 0 13:57 27.01.2022
5667 Clouds 18 1019 45 10000 1.54 0 12:49 27.01.2022
5668 Clouds 16 1020 59 10000 1.03 0 11:53 27.01.2022
5669 Clouds 10 1019 76 10000 1.54 100 09:48 27.01.2022
5670 Clouds 8 1018 81 10000 3.09 100 08:40 27.01.2022
5671 Clouds 9 1018 81 10000 2.06 80 07:31 27.01.2022
5672 Clouds 10 1019 87 10000 2.57 170 03:19 27.01.2022
5673 Clouds 10 1019 81 10000 1.54 260 00:23 27.01.2022
5674 Thunderstorm 12 1019 71 10000 0.51 0 22:27 26.01.2022
5675 Thunderstorm 14 1019 62 10000 1.54 150 21:44 26.01.2022
5676 Clouds 14 1018 67 10000 0.51 0 20:43 26.01.2022
5677 Clouds 14 1018 67 10000 0.51 0 20:24 26.01.2022
5678 Clouds 15 1018 63 10000 1.54 270 19:38 26.01.2022
5679 Clouds 16 1018 59 10000 2.06 280 18:47 26.01.2022
5680 Clouds 17 1018 55 10000 2.06 240 18:18 26.01.2022
5681 Clouds 16 1017 59 10000 2.06 290 17:33 26.01.2022
5682 Clouds 16 1017 63 10000 3.6 270 16:47 26.01.2022
5683 Clouds 17 1017 63 10000 3.09 280 15:56 26.01.2022
5684 Clouds 16 1018 63 10000 3.09 270 14:32 26.01.2022
5685 Clouds 14 1019 77 7000 1.03 0 12:18 26.01.2022
5686 Clouds 11 1019 87 7000 1.54 220 10:50 26.01.2022
5687 Clouds 8 1018 93 7000 1.03 0 09:52 26.01.2022
5688 Clouds 8 1018 87 7000 1.54 70 08:46 26.01.2022
5689 Clouds 9 1017 87 7000 2.06 40 06:28 26.01.2022
5690 Clouds 10 1022 93 6000 5.14 280 00:21 26.01.2022
5691 Clouds 10 1021 93 6000 5.66 270 23:37 25.01.2022
5692 Clouds 11 1021 87 6000 5.14 270 22:48 25.01.2022
5693 Clouds 11 1020 87 6000 5.14 270 22:18 25.01.2022
5694 Clouds 12 1020 76 6000 3.09 240 21:23 25.01.2022
5695 Clouds 13 1019 71 6000 3.09 0 20:45 25.01.2022
5696 Clouds 16 1018 59 6000 3.09 340 19:54 25.01.2022
5697 Thunderstorm 16 1017 59 6000 4.12 320 18:50 25.01.2022
5698 Clouds 18 1017 52 6000 1.54 310 17:47 25.01.2022
5699 Clouds 18 1017 52 6000 1.54 310 17:18 25.01.2022
5700 Clouds 18 1017 52 10000 2.06 20 16:34 25.01.2022
5701 Clouds 18 1018 59 6000 1.54 0 15:39 25.01.2022
5702 Clouds 18 1018 59 6000 1.54 0 15:18 25.01.2022
5703 Clouds 18 1018 59 6000 1.54 320 14:43 25.01.2022
5704 Clouds 15 1021 82 6000 1.03 0 11:52 25.01.2022
5705 Clouds 12 1020 94 6000 2.06 270 09:21 25.01.2022
5706 Clouds 13 1019 88 6000 1.03 0 07:46 25.01.2022
5707 Clouds 13 1019 88 6000 1.54 270 06:54 25.01.2022
5708 Clouds 12 1020 94 6000 0.51 0 05:23 25.01.2022
5709 Clouds 12 1020 94 6000 0.51 0 05:23 25.01.2022
5710 Clouds 12 1021 76 8000 3.09 240 00:28 25.01.2022
5711 Clouds 13 1021 71 8000 3.09 250 23:36 24.01.2022
5712 Clouds 13 1021 67 8000 3.09 250 23:18 24.01.2022
5713 Clouds 13 1021 67 8000 3.09 250 22:42 24.01.2022
5714 Clouds 15 1021 58 8000 2.57 260 21:57 24.01.2022
5715 Clouds 15 1020 58 8000 2.06 270 21:32 24.01.2022
5716 Clouds 17 1020 55 7000 3.6 230 20:34 24.01.2022
5717 Clouds 18 1020 52 7000 2.57 230 19:58 24.01.2022
5718 Clouds 19 1020 48 7000 3.09 240 19:37 24.01.2022
5719 Clouds 20 1019 45 7000 2.57 240 18:37 24.01.2022
5720 Clouds 20 1020 45 7000 2.06 330 17:24 24.01.2022
5721 Clouds 20 1020 45 7000 2.06 310 16:55 24.01.2022
5722 Clouds 20 1020 49 7000 3.09 310 16:29 24.01.2022
5723 Clouds 19 1020 55 7000 2.06 290 14:54 24.01.2022
5724 Clouds 18 1022 63 7000 1.03 0 13:38 24.01.2022
5725 Clouds 16 1022 77 7000 1.54 0 12:32 24.01.2022
5726 Clouds 15 1022 77 7000 2.06 130 11:21 24.01.2022
5727 Clouds 12 1022 82 7000 1.54 110 09:49 24.01.2022
5728 Clouds 12 1022 82 7000 1.03 0 09:20 24.01.2022
5729 Clouds 11 1021 87 8000 0.51 0 07:28 24.01.2022
5730 Clouds 11 1021 76 8000 2.06 250 01:34 24.01.2022
5731 Clouds 12 1021 71 8000 2.06 270 00:46 24.01.2022
5732 Clouds 12 1021 71 8000 2.06 250 00:27 24.01.2022
5733 Clouds 15 1021 63 8000 1.54 250 22:46 23.01.2022
5734 Clouds 17 1021 59 8000 2.06 330 21:50 23.01.2022
5735 Clouds 17 1020 55 8000 2.57 300 21:27 23.01.2022
5736 Clouds 18 1020 52 8000 2.57 300 20:54 23.01.2022
5737 Clouds 19 1020 45 8000 2.06 270 19:55 23.01.2022
5738 Clouds 21 1019 43 8000 3.09 290 18:52 23.01.2022
5739 Clouds 22 1019 37 8000 5.14 290 17:54 23.01.2022
5740 Clouds 23 1018 33 8000 4.63 300 16:52 23.01.2022
5741 Clouds 23 1019 33 8000 3.6 330 15:18 23.01.2022
5742 Clouds 22 1019 33 8000 3.6 330 14:33 23.01.2022
5743 Clouds 21 1020 37 6000 2.57 320 13:27 23.01.2022
5744 Clouds 21 1021 35 6000 0.51 0 12:36 23.01.2022
5745 Clouds 19 1021 39 6000 1.03 0 12:18 23.01.2022
5746 Clouds 19 1021 42 6000 0.51 0 11:24 23.01.2022
5747 Clouds 17 1021 45 6000 0.51 0 10:57 23.01.2022
5748 Clouds 15 1020 47 6000 1.03 0 10:21 23.01.2022
5749 Clouds 11 1020 58 8000 0.51 0 09:22 23.01.2022
5750 Clouds 14 1019 54 8000 1.54 260 05:59 23.01.2022
5751 Clouds 17 1018 39 8000 2.06 240 02:25 23.01.2022
5752 Clouds 18 1019 32 8000 2.06 210 01:35 23.01.2022
5753 Clouds 19 1019 27 8000 2.57 50 00:41 23.01.2022
5754 Clouds 21 1018 26 8000 3.6 40 23:57 22.01.2022
5755 Clouds 21 1019 26 8000 2.57 160 22:47 22.01.2022
5756 Clouds 22 1019 23 8000 0.51 0 21:58 22.01.2022
5757 Clouds 23 1018 23 8000 2.57 260 20:26 22.01.2022
5758 Clouds 25 1018 20 5000 4.12 200 19:34 22.01.2022
5759 Clouds 25 1017 20 5000 0.51 0 18:36 22.01.2022
5760 Clouds 26 1016 19 5000 1.54 340 17:42 22.01.2022
5761 Clouds 26 1016 19 5000 1.54 0 16:57 22.01.2022
5762 Clouds 26 1016 19 5000 3.09 60 16:20 22.01.2022
5763 Clouds 28 1016 17 5000 4.63 200 15:42 22.01.2022
5764 Clouds 25 1018 25 8000 3.6 60 13:59 22.01.2022
5765 Clouds 25 1018 25 8000 3.09 50 13:27 22.01.2022
5766 Clouds 21 1019 35 8000 2.57 50 12:32 22.01.2022
5767 Clouds 21 1019 32 8000 2.06 60 11:58 22.01.2022
5768 Clouds 14 1019 44 8000 2.06 60 10:39 22.01.2022
5769 Clouds 14 1019 44 8000 2.06 60 10:19 22.01.2022
5770 Clouds 13 1019 44 8000 1.03 0 08:54 22.01.2022
5771 Clouds 13 1018 44 8000 2.06 240 08:31 22.01.2022
5772 Clouds 14 1017 44 8000 5.14 100 05:20 22.01.2022
5773 Clouds 14 1018 41 8000 1.54 100 01:58 22.01.2022
5774 Clouds 14 1019 38 8000 1.54 130 23:49 21.01.2022
5775 Clouds 14 1019 38 8000 1.54 130 23:49 21.01.2022
5776 Clouds 15 1018 36 8000 1.54 120 22:58 21.01.2022
5777 Clear 18 1018 34 10000 2.06 360 20:48 21.01.2022
5778 Clear 20 1017 28 10000 1.03 0 19:20 21.01.2022
5779 Clouds 23 1017 25 10000 1.54 350 17:48 21.01.2022
5780 Clouds 23 1018 21 10000 2.06 20 15:48 21.01.2022
5781 Clear 22 1019 23 10000 2.06 360 14:37 21.01.2022
5782 Clear 19 1021 27 10000 1.03 0 12:43 21.01.2022
5783 Clear 17 1021 34 10000 0.51 0 11:29 21.01.2022
5784 Clear 12 1021 43 10000 0.51 0 10:27 21.01.2022
5785 Clear 7 1020 53 10000 1.54 80 08:50 21.01.2022
5786 Clear 7 1020 53 10000 3.09 50 07:48 21.01.2022
5787 Clear 10 1021 40 10000 0.51 0 01:48 21.01.2022
5788 Clear 14 1021 33 10000 1.03 0 22:47 20.01.2022
5789 Clear 14 1021 33 10000 2.06 100 21:48 20.01.2022
5790 Clouds 15 1021 31 10000 1.03 0 21:24 20.01.2022
5791 Clouds 17 1020 27 10000 1.54 260 19:46 20.01.2022
5792 Clouds 18 1020 25 10000 1.03 0 19:18 20.01.2022
5793 Clouds 21 1020 21 10000 2.57 300 17:37 20.01.2022
5794 Clouds 20 1020 22 10000 2.06 310 15:59 20.01.2022
5795 Clouds 20 1021 24 10000 2.57 340 15:29 20.01.2022
5796 Clouds 20 1022 26 10000 2.57 300 14:18 20.01.2022
5797 Clear 18 1023 29 10000 1.03 0 12:48 20.01.2022
5798 Clear 17 1024 31 10000 1.03 0 12:27 20.01.2022
5799 Clear 12 1023 43 10000 0.51 0 10:59 20.01.2022
5800 Clear 9 1023 49 10000 0.51 0 09:44 20.01.2022
5801 Clear 5 1022 60 10000 1.54 140 08:37 20.01.2022
5802 Clear 6 1022 52 10000 1.54 110 06:49 20.01.2022
5803 Clear 11 1025 37 10000 1.03 0 00:30 20.01.2022
5804 Clear 13 1024 28 10000 2.57 120 22:38 19.01.2022
5805 Clouds 15 1024 25 10000 1.54 70 21:33 19.01.2022
5806 Clouds 16 1024 23 10000 2.06 50 20:55 19.01.2022
5807 Clouds 17 1023 23 10000 2.06 50 20:30 19.01.2022
5808 Clouds 21 1023 19 10000 3.09 30 18:52 19.01.2022
5809 Clouds 22 1023 20 10000 2.06 20 17:51 19.01.2022
5810 Clouds 22 1023 21 10000 2.06 340 17:18 19.01.2022
5811 Clouds 22 1023 21 10000 2.06 340 17:18 19.01.2022
5812 Clouds 22 1023 21 10000 2.06 340 17:18 19.01.2022
5813 Clouds 21 1024 24 10000 1.54 330 15:31 19.01.2022
5814 Clear 19 1026 32 10000 1.03 0 13:20 19.01.2022
5815 Clear 16 1027 36 10000 2.06 40 11:58 19.01.2022
5816 Clear 15 1027 38 10000 1.54 70 11:38 19.01.2022
5817 Clear 7 1026 57 10000 2.06 100 09:35 19.01.2022
5818 Clear 7 1026 57 10000 2.06 80 08:33 19.01.2022
5819 Clear 11 1025 43 10000 2.06 30 05:19 19.01.2022
5820 Clear 11 1026 43 10000 1.03 0 00:18 19.01.2022
5821 Clear 10 1027 46 10000 1.54 260 23:18 18.01.2022
5822 Clear 14 1026 38 10000 1.54 80 21:44 18.01.2022
5823 Clear 17 1025 31 10000 2.06 30 20:22 18.01.2022
5824 Clear 18 1025 29 10000 2.57 20 19:45 18.01.2022
5825 Clear 18 1025 29 10000 3.09 10 19:25 18.01.2022
5826 Clear 19 1024 27 10000 3.6 320 18:18 18.01.2022
5827 Clear 20 1024 26 10000 3.09 310 17:31 18.01.2022
5828 Clear 22 1024 21 10000 2.06 0 16:20 18.01.2022
5829 Clear 21 1024 23 10000 2.06 0 15:25 18.01.2022
5830 Clear 19 1026 30 10000 2.06 40 14:22 18.01.2022
5831 Clear 14 1027 41 10000 2.06 100 11:31 18.01.2022
5832 Clear 9 1026 49 10000 1.54 60 09:59 18.01.2022
5833 Clouds 8 1025 53 10000 2.06 100 08:29 18.01.2022
5834 Clouds 9 1025 49 10000 2.06 80 07:42 18.01.2022
5835 Clouds 9 1025 49 10000 1.54 80 00:38 18.01.2022
5836 Clouds 11 1026 40 10000 2.57 110 22:39 17.01.2022
5837 Clouds 13 1026 41 10000 1.03 0 21:41 17.01.2022
5838 Clouds 13 1026 38 10000 2.06 250 20:44 17.01.2022
5839 Clouds 19 1024 26 10000 1.54 80 18:46 17.01.2022
5840 Clouds 19 1024 26 10000 1.54 80 18:24 17.01.2022
5841 Clear 20 1025 24 10000 2.06 360 17:19 17.01.2022
5842 Clear 20 1026 26 10000 1.03 0 15:54 17.01.2022
5843 Clear 18 1026 29 10000 1.54 350 14:58 17.01.2022
5844 Clear 18 1026 29 10000 1.54 310 14:31 17.01.2022
5845 Clouds 17 1028 36 8000 0.51 0 13:18 17.01.2022
5846 Clear 13 1028 44 10000 1.54 50 11:53 17.01.2022
5847 Clear 11 1029 46 10000 1.03 0 10:52 17.01.2022
5848 Clear 7 1028 49 10000 1.54 140 09:46 17.01.2022
5849 Clear 7 1027 53 10000 1.54 100 08:43 17.01.2022
5850 Clear 8 1027 49 10000 1.54 170 07:20 17.01.2022
5851 Clear 10 1025 43 10000 1.54 110 00:59 17.01.2022
5852 Clear 13 1025 38 10000 2.57 10 23:27 16.01.2022
5853 Clear 17 1025 25 10000 2.06 50 20:50 16.01.2022
5854 Clear 18 1024 25 10000 3.6 40 19:56 16.01.2022
5855 Clear 20 1024 24 10000 4.12 40 18:45 16.01.2022
5856 Clear 22 1023 21 10000 3.6 40 17:47 16.01.2022
5857 Clear 23 1023 21 10000 2.57 0 16:52 16.01.2022
5858 Clear 22 1024 26 10000 3.09 50 15:39 16.01.2022
5859 Clear 21 1025 30 10000 1.54 0 14:29 16.01.2022
5860 Clear 21 1025 30 10000 1.54 0 14:29 16.01.2022
5861 Clear 20 1026 30 10000 2.06 40 13:21 16.01.2022
5862 Clear 16 1027 41 10000 2.06 90 11:56 16.01.2022
5863 Clear 14 1027 47 10000 2.57 90 11:27 16.01.2022
5864 Clear 10 1027 57 10000 1.54 80 10:27 16.01.2022
5865 Clear 8 1026 61 10000 2.06 70 09:57 16.01.2022
5866 Clear 6 1026 65 10000 1.03 0 09:23 16.01.2022
5867 Clear 5 1026 70 10000 2.06 90 08:53 16.01.2022
5868 Clear 7 1025 65 10000 1.54 150 05:51 16.01.2022
5869 Clear 11 1025 43 10000 3.6 270 00:18 16.01.2022
5870 Clouds 14 1025 41 10000 2.57 130 22:38 15.01.2022
5871 Clouds 15 1024 36 10000 2.57 100 21:21 15.01.2022
5872 Clouds 17 1024 31 10000 3.09 50 20:43 15.01.2022
5873 Clouds 18 1023 29 10000 3.6 40 19:58 15.01.2022
5874 Clouds 20 1023 26 10000 3.6 30 19:23 15.01.2022
5875 Clouds 22 1023 24 10000 3.09 60 17:49 15.01.2022
5876 Clouds 22 1023 24 10000 3.6 40 16:42 15.01.2022
5877 Clouds 20 1025 30 10000 2.57 70 14:32 15.01.2022
5878 Clear 17 1026 39 10000 2.06 110 12:33 15.01.2022
5879 Clear 12 1026 50 10000 1.54 110 11:19 15.01.2022
5880 Clear 7 1026 61 10000 2.06 80 09:21 15.01.2022
5881 Clouds 13 1026 44 10000 0.51 0 00:52 15.01.2022
5882 Clear 15 1025 36 10000 2.06 90 21:57 14.01.2022
5883 Clear 17 1025 34 10000 3.09 40 20:51 14.01.2022
5884 Clear 18 1025 32 10000 2.57 40 20:23 14.01.2022
5885 Clear 19 1024 30 10000 3.09 30 19:48 14.01.2022
5886 Clouds 22 1023 24 10000 0.51 0 18:28 14.01.2022
5887 Clouds 22 1023 26 10000 1.54 360 16:51 14.01.2022
5888 Clouds 22 1023 28 10000 1.54 10 16:33 14.01.2022
5889 Clouds 21 1024 32 10000 2.57 350 14:47 14.01.2022
5890 Clouds 20 1025 32 10000 1.54 340 13:48 14.01.2022
5891 Clouds 18 1026 36 10000 1.03 0 12:34 14.01.2022
5892 Clouds 15 1026 44 10000 1.54 100 11:29 14.01.2022
5893 Clear 9 1025 57 10000 2.06 70 09:51 14.01.2022
5894 Clear 9 1025 53 8000 1.03 0 08:52 14.01.2022
5895 Clear 8 1024 57 8000 2.06 180 07:21 14.01.2022
5896 Clear 11 1024 54 8000 1.54 230 01:43 14.01.2022
5897 Clear 15 1024 38 10000 1.54 10 23:36 13.01.2022
5898 Clear 15 1023 36 10000 2.06 80 21:42 13.01.2022
5899 Clear 16 1023 33 10000 2.57 110 21:23 13.01.2022
5900 Clouds 19 1022 30 10000 2.57 30 19:41 13.01.2022
5901 Clouds 20 1021 28 10000 2.06 20 19:22 13.01.2022
5902 Clouds 23 1021 21 10000 2.57 50 17:56 13.01.2022
5903 Clouds 23 1021 23 10000 2.57 0 16:22 13.01.2022
5904 Clouds 22 1021 24 10000 3.09 60 15:38 13.01.2022
5905 Clouds 22 1021 26 10000 2.57 50 14:49 13.01.2022
5906 Clear 18 1023 34 10000 1.54 30 12:46 13.01.2022
5907 Clear 11 1023 54 10000 1.03 0 10:25 13.01.2022
5908 Clear 6 1022 61 10000 2.06 80 09:20 13.01.2022
5909 Clear 6 1022 61 10000 2.06 80 08:27 13.01.2022
5910 Clear 6 1021 61 10000 2.06 100 07:24 13.01.2022
5911 Clear 7 1021 61 10000 2.06 280 06:38 13.01.2022
5912 Clear 7 1021 61 10000 1.03 0 05:20 13.01.2022
5913 Clear 8 1021 57 10000 1.54 80 02:33 13.01.2022
5914 Clear 12 1021 47 8000 1.03 0 00:56 13.01.2022
5915 Clear 13 1021 44 8000 2.06 200 23:50 12.01.2022
5916 Clear 13 1021 44 8000 2.57 180 23:24 12.01.2022
5917 Clear 13 1021 47 10000 0.51 0 21:58 12.01.2022
5918 Clear 14 1020 44 10000 0.51 0 21:23 12.01.2022
5919 Clear 16 1020 39 10000 0.51 0 20:57 12.01.2022
5920 Clear 17 1020 36 10000 2.06 230 19:55 12.01.2022
5921 Clear 20 1019 30 10000 2.57 290 18:43 12.01.2022
5922 Clear 22 1019 23 10000 2.57 320 17:50 12.01.2022
5923 Clear 22 1018 28 10000 2.57 340 16:38 12.01.2022
5924 Clear 21 1019 30 10000 1.54 350 14:49 12.01.2022
5925 Clouds 20 1020 34 8000 1.03 0 13:34 12.01.2022
5926 Clear 16 1021 41 8000 2.06 90 12:34 12.01.2022
5927 Clear 4 1019 87 8000 2.06 90 08:45 12.01.2022
5928 Clear 5 1019 81 8000 1.03 0 07:52 12.01.2022
5929 Clear 5 1019 81 8000 1.54 150 07:32 12.01.2022
5930 Clouds 10 1019 62 8000 1.54 180 01:26 12.01.2022
5931 Clouds 11 1019 66 8000 1.03 0 23:25 11.01.2022
5932 Clouds 12 1019 62 8000 1.03 0 22:24 11.01.2022
5933 Clouds 14 1019 58 8000 1.54 190 21:25 11.01.2022
5934 Clouds 15 1019 58 8000 2.06 230 20:33 11.01.2022
5935 Clouds 17 1018 51 8000 3.6 280 18:52 11.01.2022
5936 Clouds 18 1017 42 8000 3.6 280 17:46 11.01.2022
5937 Clouds 18 1017 45 8000 3.6 300 16:39 11.01.2022
5938 Clouds 18 1017 45 8000 3.6 300 16:18 11.01.2022
5939 Clouds 17 1018 42 8000 3.09 300 14:44 11.01.2022
5940 Clouds 17 1018 42 8000 2.57 320 14:18 11.01.2022
5941 Clouds 16 1018 44 8000 2.06 320 13:42 11.01.2022
5942 Clouds 15 1019 47 8000 1.54 0 13:24 11.01.2022
5943 Clouds 14 1019 51 8000 2.06 260 12:23 11.01.2022
5944 Clouds 9 1018 49 8000 2.06 250 10:25 11.01.2022
5945 Clouds 9 1017 46 8000 1.54 180 07:35 11.01.2022
5946 Clouds 9 1018 49 8000 1.54 70 02:57 11.01.2022
5947 Clouds 11 1019 40 8000 0.51 0 00:24 11.01.2022
5948 Clouds 12 1019 37 8000 1.03 0 23:38 10.01.2022
5949 Clouds 12 1019 37 8000 1.54 240 22:20 10.01.2022
5950 Clouds 12 1019 37 8000 2.06 240 21:55 10.01.2022
5951 Clouds 13 1019 35 8000 1.54 290 21:32 10.01.2022
5952 Clouds 13 1019 35 8000 2.06 250 20:58 10.01.2022
5953 Clouds 14 1019 35 8000 1.54 280 20:29 10.01.2022
5954 Clouds 15 1019 31 8000 1.03 0 19:47 10.01.2022
5955 Clouds 16 1019 31 8000 1.03 0 19:23 10.01.2022
5956 Clouds 17 1019 27 8000 1.03 0 18:54 10.01.2022
5957 Clouds 18 1019 27 8000 1.03 0 18:34 10.01.2022
5958 Clouds 19 1019 27 8000 2.06 320 16:43 10.01.2022
5959 Clouds 19 1019 27 8000 2.06 290 16:18 10.01.2022
5960 Clouds 19 1020 27 8000 2.57 280 14:41 10.01.2022
5961 Clouds 15 1022 33 8000 1.54 350 12:43 10.01.2022
5962 Clouds 12 1022 40 8000 1.54 60 11:40 10.01.2022
5963 Clouds 11 1022 43 8000 2.06 110 10:45 10.01.2022
5964 Clear 4 1022 60 10000 1.54 110 08:59 10.01.2022
5965 Clouds 8 1022 46 10000 1.54 180 05:51 10.01.2022
5966 Clear 9 1023 46 10000 2.06 70 01:35 10.01.2022
5967 Clear 10 1023 43 10000 1.54 110 00:44 10.01.2022
5968 Clear 11 1024 40 10000 2.06 110 00:19 10.01.2022
5969 Clear 13 1024 35 10000 1.54 70 22:43 09.01.2022
5970 Clear 13 1024 33 10000 3.6 110 21:47 09.01.2022
5971 Clear 14 1024 33 8000 2.06 90 21:25 09.01.2022
5972 Clear 15 1024 31 8000 2.57 70 20:58 09.01.2022
5973 Clear 16 1024 29 8000 2.57 80 20:39 09.01.2022
5974 Clear 16 1024 29 8000 2.57 80 20:21 09.01.2022
5975 Clear 19 1024 24 8000 3.09 50 19:38 09.01.2022
5976 Clear 19 1024 24 8000 3.09 50 19:18 09.01.2022
5977 Clear 22 1023 21 10000 3.09 50 18:37 09.01.2022
5978 Clear 23 1024 17 10000 1.54 360 17:48 09.01.2022
5979 Clear 23 1024 18 10000 1.54 40 17:29 09.01.2022
5980 Clear 23 1024 20 10000 2.57 50 16:40 09.01.2022
5981 Clear 23 1025 21 10000 2.06 0 15:40 09.01.2022
5982 Clear 22 1025 23 10000 1.54 350 14:50 09.01.2022
5983 Clear 21 1026 26 10000 2.06 340 14:24 09.01.2022
5984 Clear 21 1026 28 10000 2.06 360 13:48 09.01.2022
5985 Clear 17 1028 34 10000 3.09 90 11:56 09.01.2022
5986 Clear 16 1028 36 10000 2.06 70 11:26 09.01.2022
5987 Clear 7 1027 61 10000 2.57 90 09:55 09.01.2022
5988 Clear 5 1027 65 10000 3.6 90 08:59 09.01.2022
5989 Clear 7 1026 57 10000 1.54 100 06:56 09.01.2022
5990 Clear 12 1026 40 10000 1.54 130 01:29 09.01.2022
5991 Clear 11 1026 43 10000 2.57 180 00:37 09.01.2022
5992 Clear 12 1026 37 10000 0.74 119 23:31 08.01.2022
5993 Clear 13 1026 41 10000 1.54 70 22:48 08.01.2022
5994 Clear 16 1025 36 10000 1.54 110 21:28 08.01.2022
5995 Clear 17 1025 34 10000 1.54 30 20:43 08.01.2022
5996 Clear 17 1025 34 10000 1.54 30 20:22 08.01.2022
5997 Clear 20 1025 30 10000 1.54 350 19:22 08.01.2022
5998 Clear 23 1024 25 10000 2.06 330 17:38 08.01.2022
5999 Clear 23 1024 27 10000 2.57 340 16:45 08.01.2022
6000 Clear 23 1024 28 10000 2.06 320 15:33 08.01.2022
6001 Clear 21 1025 35 10000 1.03 0 13:58 08.01.2022
6002 Clear 15 1026 51 10000 1.54 120 11:43 08.01.2022
6003 Clear 9 1025 66 10000 1.54 100 10:40 08.01.2022
6004 Clear 9 1025 66 10000 1.54 100 10:21 08.01.2022
6005 Clear 6 1025 75 10000 1.54 130 09:34 08.01.2022
6006 Clear 6 1023 75 10000 2.57 100 06:18 08.01.2022
6007 Clear 9 1024 66 10000 1.54 90 01:46 08.01.2022
6008 Clear 12 1023 54 10000 1.03 0 23:36 07.01.2022
6009 Clear 13 1023 50 10000 1.54 100 21:49 07.01.2022
6010 Clear 16 1022 44 10000 3.09 50 20:34 07.01.2022
6011 Clear 17 1021 45 10000 3.09 40 19:27 07.01.2022
6012 Clear 18 1021 45 10000 3.6 20 18:49 07.01.2022
6013 Clear 19 1021 42 10000 3.09 10 18:24 07.01.2022
6014 Clear 19 1021 45 10000 3.09 20 17:24 07.01.2022
6015 Clear 18 1021 48 10000 2.57 90 14:56 07.01.2022
6016 Clear 17 1022 51 10000 2.57 50 13:52 07.01.2022
6017 Clear 17 1022 51 10000 2.57 50 13:52 07.01.2022
6018 Clear 15 1023 55 10000 2.57 60 12:51 07.01.2022
6019 Clear 12 1023 66 10000 3.09 80 11:28 07.01.2022
6020 Clouds 8 1022 87 10000 2.06 110 04:56 07.01.2022
6021 Clouds 9 1021 81 10000 1.03 0 02:53 07.01.2022
6022 Clouds 11 1021 82 10000 3.09 150 01:50 07.01.2022
6023 Clouds 10 1021 81 10000 3.09 100 01:26 07.01.2022
6024 Clouds 11 1021 76 10000 2.06 80 00:31 07.01.2022
6025 Clouds 13 1021 71 10000 3.6 60 22:42 06.01.2022
6026 Clouds 15 1020 58 10000 4.63 50 20:54 06.01.2022
6027 Clouds 16 1020 55 10000 3.6 50 20:18 06.01.2022
6028 Clouds 17 1020 51 10000 4.12 50 19:39 06.01.2022
6029 Clouds 19 1019 42 10000 3.6 30 17:52 06.01.2022
6030 Clouds 19 1019 39 10000 3.6 30 17:28 06.01.2022
6031 Clouds 20 1020 28 10000 3.09 20 16:38 06.01.2022
6032 Clouds 19 1020 27 10000 2.57 360 15:44 06.01.2022
6033 Clouds 18 1020 32 10000 3.09 10 15:23 06.01.2022
6034 Clouds 17 1021 42 10000 2.06 20 14:20 06.01.2022
6035 Clouds 17 1022 42 10000 1.54 0 13:41 06.01.2022
6036 Clear 15 1023 51 10000 3.09 110 12:28 06.01.2022
6037 Clear 12 1023 66 10000 3.6 110 11:41 06.01.2022
6038 Clear 12 1023 66 10000 3.6 110 11:19 06.01.2022
6039 Clear 6 1022 81 10000 2.06 80 06:59 06.01.2022
6040 Clear 11 1022 71 10000 5.14 50 00:35 06.01.2022
6041 Clear 12 1022 62 10000 4.63 60 23:34 05.01.2022
6042 Clear 12 1022 58 10000 3.6 70 22:48 05.01.2022
6043 Clear 13 1022 58 10000 4.12 50 22:29 05.01.2022
6044 Clear 14 1022 51 10000 4.12 40 21:44 05.01.2022
6045 Clouds 15 1021 47 10000 4.63 40 20:44 05.01.2022
6046 Clouds 16 1021 48 10000 4.63 40 19:46 05.01.2022
6047 Clouds 18 1021 42 10000 4.63 30 18:27 05.01.2022
6048 Clouds 19 1020 45 10000 4.12 20 16:58 05.01.2022
6049 Clouds 19 1021 45 10000 4.12 40 16:21 05.01.2022
6050 Clouds 18 1021 52 10000 4.12 30 15:20 05.01.2022
6051 Clouds 17 1023 55 10000 4.63 60 13:35 05.01.2022
6052 Clouds 16 1023 67 10000 5.14 60 12:46 05.01.2022
6053 Clouds 11 1024 82 8000 2.57 90 08:47 05.01.2022
6054 Clouds 11 1024 82 8000 3.6 120 07:19 05.01.2022
6055 Clear 11 1023 71 10000 1.03 0 01:58 05.01.2022
6056 Clear 12 1024 71 10000 1.03 0 23:44 04.01.2022
6057 Clear 13 1025 67 10000 1.54 280 23:26 04.01.2022
6058 Clear 14 1025 67 10000 1.03 0 22:19 04.01.2022
6059 Clear 16 1024 59 10000 2.06 20 20:46 04.01.2022
6060 Clear 20 1022 28 10000 2.57 240 18:44 04.01.2022
6061 Clear 22 1022 23 10000 3.6 300 17:34 04.01.2022
6062 Clear 23 1022 21 10000 3.09 300 16:39 04.01.2022
6063 Clear 22 1022 24 10000 3.09 310 16:20 04.01.2022
6064 Clear 21 1023 28 10000 3.09 290 14:42 04.01.2022
6065 Clear 21 1023 30 10000 3.09 280 14:23 04.01.2022
6066 Clear 19 1025 32 10000 2.57 280 12:37 04.01.2022
6067 Clear 14 1024 44 10000 0.51 0 10:28 04.01.2022
6068 Clear 8 1023 53 10000 1.03 0 08:59 04.01.2022
6069 Clear 8 1022 57 10000 1.54 80 06:46 04.01.2022
6070 Clear 13 1024 41 10000 1.03 0 00:44 04.01.2022
6071 Clear 13 1025 41 10000 1.03 0 23:56 03.01.2022
6072 Clear 15 1024 36 10000 1.03 0 22:28 03.01.2022
6073 Clear 16 1024 36 10000 0.51 0 21:41 03.01.2022
6074 Clear 16 1024 33 10000 0.51 0 20:42 03.01.2022
6075 Clear 19 1024 30 10000 1.54 270 19:43 03.01.2022
6076 Clear 24 1024 20 10000 2.57 280 18:32 03.01.2022
6077 Clear 25 1024 20 10000 2.06 320 17:34 03.01.2022
6078 Clear 25 1024 22 10000 3.09 320 16:56 03.01.2022
6079 Clear 24 1025 25 10000 1.54 330 14:33 03.01.2022
6080 Clear 23 1026 27 10000 1.54 0 13:25 03.01.2022
6081 Clear 20 1027 32 10000 1.03 0 12:28 03.01.2022
6082 Clear 16 1026 41 10000 1.54 110 11:30 03.01.2022
6083 Clear 10 1026 53 10000 2.06 90 09:41 03.01.2022
6084 Clear 11 1025 46 10000 2.57 180 08:18 03.01.2022
6085 Clear 9 1025 57 10000 0.51 0 05:21 03.01.2022
6086 Clear 14 1027 44 10000 1.03 0 23:44 02.01.2022
6087 Clear 14 1026 44 10000 1.54 120 22:57 02.01.2022
6088 Clear 15 1026 41 10000 2.06 120 22:37 02.01.2022
6089 Clear 18 1026 36 10000 2.57 120 21:26 02.01.2022
6090 Clear 18 1026 34 10000 1.54 70 20:30 02.01.2022
6091 Clear 22 1025 28 10000 1.03 0 19:32 02.01.2022
6092 Clear 23 1025 27 10000 2.57 340 18:56 02.01.2022
6093 Clear 25 1025 23 10000 1.03 0 18:30 02.01.2022
6094 Clear 25 1025 23 10000 1.54 0 17:42 02.01.2022
6095 Clear 25 1025 20 10000 1.54 0 17:21 02.01.2022
6096 Clear 25 1025 20 10000 1.54 0 16:30 02.01.2022
6097 Clear 25 1025 22 10000 1.54 0 15:39 02.01.2022
6098 Clear 23 1027 23 10000 2.06 10 13:57 02.01.2022
6099 Clear 21 1028 24 8000 1.54 10 12:32 02.01.2022
6100 Clear 21 1028 26 8000 0.51 0 11:55 02.01.2022
6101 Clear 16 1028 33 8000 1.54 110 10:55 02.01.2022
6102 Clear 11 1028 50 8000 1.03 0 10:18 02.01.2022
6103 Clear 7 1026 61 8000 1.03 0 07:44 02.01.2022
6104 Clear 10 1026 53 8000 2.06 80 02:57 02.01.2022
6105 Clear 14 1027 44 8000 1.03 0 23:50 01.01.2022
6106 Clear 15 1027 38 8000 1.54 90 23:27 01.01.2022
6107 Clear 16 1027 36 8000 3.6 110 22:26 01.01.2022
6108 Clear 17 1027 36 8000 3.09 90 21:54 01.01.2022
6109 Clear 17 1026 36 8000 3.09 120 21:36 01.01.2022
6110 Clear 20 1026 30 8000 1.03 0 20:27 01.01.2022
6111 Clear 23 1025 23 8000 2.57 20 19:45 01.01.2022
6112 Clear 25 1025 20 8000 1.03 0 18:52 01.01.2022
6113 Clear 27 1025 17 8000 1.54 40 17:41 01.01.2022
6114 Clear 27 1025 17 8000 2.06 350 16:35 01.01.2022
6115 Clear 27 1025 18 8000 1.54 350 15:42 01.01.2022
6116 Clear 25 1026 22 8000 2.06 340 14:39 01.01.2022
6117 Clear 24 1026 27 8000 1.54 40 13:42 01.01.2022
6118 Clear 21 1027 30 8000 1.54 70 12:25 01.01.2022
6119 Clear 18 1027 34 8000 1.54 90 11:26 01.01.2022
6120 Clear 17 1027 39 8000 0.51 0 10:58 01.01.2022
6121 Clear 10 1026 57 8000 1.54 90 09:48 01.01.2022
6122 Clear 8 1025 57 10000 2.06 90 08:39 01.01.2022
6123 Clear 8 1025 57 10000 2.06 90 08:18 01.01.2022
6124 Clear 10 1025 53 10000 1.54 160 07:38 01.01.2022
6125 Clear 8 1025 61 10000 2.57 80 06:44 01.01.2022
6126 Clear 10 1025 57 10000 2.57 80 05:24 01.01.2022
6127 Clear 10 1025 57 10000 2.06 120 04:35 01.01.2022
6128 Clear 15 1025 41 8000 0.51 0 00:23 01.01.2022
6129 Clear 16 1025 44 8000 1.54 0 22:30 31.12.2021
6130 Clear 17 1025 42 8000 3.09 170 21:47 31.12.2021
6131 Clear 20 1024 37 8000 2.06 250 19:48 31.12.2021
6132 Clear 21 1024 35 8000 1.03 0 19:28 31.12.2021
6133 Clear 24 1023 29 8000 2.57 300 18:18 31.12.2021
6134 Clear 26 1023 25 8000 3.6 290 17:28 31.12.2021
6135 Clear 26 1022 24 8000 3.09 290 16:52 31.12.2021
6136 Clear 26 1022 25 8000 2.06 330 16:18 31.12.2021
6137 Clear 26 1022 25 8000 2.06 330 15:50 31.12.2021
6138 Clear 25 1022 27 8000 2.06 350 15:27 31.12.2021
6139 Clear 25 1023 29 8000 1.54 0 14:41 31.12.2021
6140 Clear 24 1023 29 8000 1.54 20 13:55 31.12.2021
6141 Clear 22 1024 35 8000 1.03 0 12:51 31.12.2021
6142 Clear 20 1024 40 8000 1.54 60 12:21 31.12.2021
6143 Clear 19 1025 42 8000 1.03 0 11:42 31.12.2021
6144 Clear 16 1025 48 10000 1.03 0 10:56 31.12.2021
6145 Clear 14 1024 54 10000 1.03 0 10:28 31.12.2021
6146 Clear 10 1024 66 10000 1.03 0 09:35 31.12.2021
6147 Clear 9 1024 71 10000 2.06 140 08:54 31.12.2021
6148 Clear 10 1023 62 10000 1.54 160 07:59 31.12.2021
6149 Clear 10 1024 66 10000 0.51 0 04:55 31.12.2021
6150 Clear 15 1024 51 10000 2.57 90 23:18 30.12.2021
6151 Clear 17 1024 45 10000 3.09 110 22:32 30.12.2021
6152 Clear 17 1024 45 10000 3.6 110 21:39 30.12.2021
6153 Clear 18 1024 42 10000 2.57 100 21:19 30.12.2021
6154 Clear 20 1024 37 10000 1.54 60 20:40 30.12.2021
6155 Clear 21 1024 35 10000 1.03 0 19:56 30.12.2021
6156 Clear 22 1023 33 10000 2.06 30 19:31 30.12.2021
6157 Clear 25 1023 25 10000 2.57 10 18:28 30.12.2021
6158 Clear 27 1022 24 10000 1.03 0 16:53 30.12.2021
6159 Clear 26 1022 25 10000 2.06 30 15:54 30.12.2021
6160 Clear 26 1022 25 10000 2.06 360 15:21 30.12.2021
6161 Clear 26 1022 27 10000 1.03 0 14:36 30.12.2021
6162 Clear 23 1023 38 10000 1.54 90 13:26 30.12.2021
6163 Clear 19 1024 48 10000 1.03 0 11:58 30.12.2021
6164 Clear 13 1023 67 10000 1.03 0 10:40 30.12.2021
6165 Clear 11 1023 71 10000 2.06 80 09:50 30.12.2021
6166 Clear 9 1023 71 10000 1.54 80 07:25 30.12.2021
6167 Clear 9 1022 76 10000 1.54 130 06:32 30.12.2021
6168 Clear 11 1022 66 10000 2.06 100 03:41 30.12.2021
6169 Clear 12 1022 66 10000 1.54 60 02:35 30.12.2021
6170 Clear 16 1023 51 10000 1.54 140 23:40 29.12.2021
6171 Clear 17 1023 48 10000 1.03 0 22:59 29.12.2021
6172 Clear 18 1023 45 10000 4.12 170 22:18 29.12.2021
6173 Clear 18 1022 48 10000 2.06 190 21:19 29.12.2021
6174 Clear 18 1022 48 10000 1.03 0 20:30 29.12.2021
6175 Clear 18 1022 48 10000 1.03 0 20:30 29.12.2021
6176 Clear 21 1022 40 10000 1.54 250 19:43 29.12.2021
6177 Clear 24 1022 33 10000 2.57 270 18:44 29.12.2021
6178 Clear 25 1022 29 10000 3.6 270 17:52 29.12.2021
6179 Clear 25 1022 29 10000 3.6 280 17:27 29.12.2021
6180 Clear 25 1021 33 10000 4.12 290 16:22 29.12.2021
6181 Clear 25 1021 33 10000 4.12 290 15:42 29.12.2021
6182 Clouds 24 1023 38 8000 1.03 0 13:53 29.12.2021
6183 Clouds 19 1024 55 8000 2.06 30 12:36 29.12.2021
6184 Clouds 17 1024 67 6000 2.06 80 11:26 29.12.2021
6185 Clouds 11 1024 87 6000 1.54 90 09:46 29.12.2021
6186 Clear 8 1023 87 10000 2.06 80 07:47 29.12.2021
6187 Clear 9 1023 87 10000 1.03 0 06:37 29.12.2021
6188 Clear 9 1023 81 10000 2.06 70 05:58 29.12.2021
6189 Clear 9 1023 87 10000 1.54 80 05:36 29.12.2021
6190 Clear 12 1024 82 10000 1.54 160 02:22 29.12.2021
6191 Clear 13 1024 76 10000 0.51 0 00:19 29.12.2021
6192 Clear 14 1024 72 10000 1.54 80 23:31 28.12.2021
6193 Clear 15 1024 72 10000 3.09 120 22:29 28.12.2021
6194 Clear 16 1024 67 10000 2.57 110 21:57 28.12.2021
6195 Clear 16 1024 67 10000 2.06 90 21:36 28.12.2021
6196 Clear 18 1023 59 10000 2.57 60 20:35 28.12.2021
6197 Clear 22 1023 49 10000 3.6 40 18:59 28.12.2021
6198 Clear 23 1023 43 7000 3.6 40 18:35 28.12.2021
6199 Clear 24 1022 41 10000 4.12 30 17:57 28.12.2021
6200 Clear 24 1022 41 7000 4.12 50 16:34 28.12.2021
6201 Clear 24 1022 41 7000 3.6 40 15:49 28.12.2021
6202 Clear 23 1022 43 7000 3.09 30 15:20 28.12.2021
6203 Clear 22 1023 46 7000 3.09 40 14:46 28.12.2021
6204 Clear 22 1023 49 7000 2.57 30 14:20 28.12.2021
6205 Clear 21 1024 52 7000 2.06 30 13:42 28.12.2021
6206 Clear 21 1024 52 7000 1.54 0 13:24 28.12.2021
6207 Clear 18 1025 68 7000 2.06 90 12:39 28.12.2021
6208 Clear 16 1026 77 7000 1.03 0 11:33 28.12.2021
6209 Clouds 10 1024 93 8000 3.09 120 07:41 28.12.2021
6210 Clouds 10 1023 87 8000 2.06 40 06:41 28.12.2021
6211 Clouds 13 1024 88 8000 1.54 110 23:43 27.12.2021
6212 Clouds 15 1024 82 8000 1.54 80 22:58 27.12.2021
6213 Clouds 16 1023 77 7000 2.06 90 21:33 27.12.2021
6214 Clouds 17 1023 77 7000 2.06 50 20:57 27.12.2021
6215 Clouds 19 1022 63 7000 2.57 50 19:58 27.12.2021
6216 Clouds 20 1022 60 7000 3.09 40 19:39 27.12.2021
6217 Clouds 22 1021 49 7000 2.06 30 18:23 27.12.2021
6218 Clouds 22 1021 49 8000 2.57 50 17:46 27.12.2021
6219 Clouds 22 1021 53 8000 2.57 30 16:38 27.12.2021
6220 Clouds 22 1021 53 8000 2.57 20 15:51 27.12.2021
6221 Clouds 21 1022 60 8000 2.57 130 14:32 27.12.2021
6222 Clouds 19 1023 77 6000 2.06 80 13:39 27.12.2021
6223 Mist 15 1023 88 4000 3.09 360 11:53 27.12.2021
6224 Mist 14 1022 94 4000 1.54 210 10:29 27.12.2021
6225 Mist 12 1022 100 4000 2.57 170 09:47 27.12.2021
6226 Clouds 10 1021 100 8000 0.51 0 07:35 27.12.2021
6227 Clouds 11 1021 93 8000 1.03 0 06:56 27.12.2021
6228 Clouds 13 1021 94 8000 2.57 120 02:18 27.12.2021
6229 Clouds 15 1022 88 8000 1.03 0 23:58 26.12.2021
6230 Clouds 15 1022 88 8000 0.51 0 23:35 26.12.2021
6231 Clouds 16 1021 82 10000 0.51 0 21:59 26.12.2021
6232 Clouds 17 1021 77 10000 1.03 0 20:54 26.12.2021
6233 Clouds 18 1020 77 10000 1.03 0 19:47 26.12.2021
6234 Clouds 18 1020 77 10000 1.03 0 19:47 26.12.2021
6235 Clouds 20 1019 68 10000 1.03 0 18:24 26.12.2021
6236 Clouds 21 1019 68 10000 2.06 20 16:55 26.12.2021
6237 Clouds 20 1020 77 10000 1.54 0 14:28 26.12.2021
6238 Clouds 19 1021 82 8000 1.03 0 13:40 26.12.2021
6239 Clouds 19 1021 82 8000 1.03 0 13:19 26.12.2021
6240 Clouds 17 1022 88 8000 1.03 0 12:33 26.12.2021
6241 Clouds 16 1021 94 8000 0.51 0 10:34 26.12.2021
6242 Clouds 14 1020 100 8000 1.03 0 09:21 26.12.2021
6243 Clouds 14 1020 94 8000 1.03 0 08:44 26.12.2021
6244 Clouds 15 1019 94 8000 1.54 220 07:49 26.12.2021
6245 Clouds 15 1018 94 8000 1.03 0 01:27 26.12.2021
6246 Clouds 15 1019 88 8000 1.03 0 23:56 25.12.2021
6247 Clouds 15 1019 88 8000 0.51 0 23:27 25.12.2021
6248 Clouds 15 1019 88 8000 2.06 260 22:26 25.12.2021
6249 Clouds 15 1018 88 6000 1.54 90 20:59 25.12.2021
6250 Clouds 15 1017 82 5000 1.54 150 19:26 25.12.2021
6251 Clouds 15 1017 82 5000 2.06 130 18:55 25.12.2021
6252 Clouds 16 1017 77 5000 1.03 0 17:37 25.12.2021
6253 Clouds 15 1017 77 5000 1.54 200 16:36 25.12.2021
6254 Clouds 14 1017 82 5000 4.12 180 15:18 25.12.2021
6255 Clouds 16 1018 63 5000 2.57 210 13:31 25.12.2021
6256 Clouds 17 1018 59 8000 2.57 280 11:51 25.12.2021
6257 Clouds 14 1017 77 7000 2.06 180 09:57 25.12.2021
6258 Clouds 14 1017 72 8000 2.06 240 09:37 25.12.2021
6259 Clear 14 1016 77 10000 2.06 150 04:34 25.12.2021
6260 Clouds 14 1016 77 10000 1.54 180 01:25 25.12.2021
6261 Clouds 13 1017 82 10000 0 0 23:42 24.12.2021
6262 Clouds 18 1016 52 10000 1.03 0 19:46 24.12.2021
6263 Clouds 18 1016 52 10000 1.03 0 19:23 24.12.2021
6264 Clouds 21 1016 43 10000 2.57 290 16:59 24.12.2021
6265 Clouds 22 1016 43 10000 2.06 280 16:22 24.12.2021
6266 Clouds 22 1016 43 10000 1.54 280 15:48 24.12.2021
6267 Clouds 21 1016 46 10000 1.03 0 15:18 24.12.2021
6268 Clouds 22 1017 49 10000 1.54 0 14:31 24.12.2021
6269 Clouds 22 1016 31 10000 4.34 287 13:42 24.12.2021
6270 Clouds 20 1019 42 10000 4.12 310 12:49 24.12.2021
6271 Clouds 18 1019 52 10000 1.54 100 12:21 24.12.2021
6272 Clouds 16 1019 59 10000 2.06 110 11:30 24.12.2021
6273 Clouds 14 1019 67 10000 1.54 100 10:59 24.12.2021
6274 Clouds 13 1018 67 10000 1.54 80 10:31 24.12.2021
6275 Clear 10 1018 81 10000 2.06 60 08:36 24.12.2021
6276 Clear 10 1018 76 10000 2.06 80 07:58 24.12.2021
6277 Clear 10 1018 76 10000 1.03 0 06:18 24.12.2021
6278 Clear 14 1019 67 10000 0.51 0 00:20 24.12.2021
6279 Clear 15 1019 63 10000 0.51 0 23:33 23.12.2021
6280 Clear 16 1019 63 10000 2.57 170 22:44 23.12.2021
6281 Clear 16 1019 63 10000 2.57 170 22:22 23.12.2021
6282 Clear 17 1019 59 10000 1.03 0 21:39 23.12.2021
6283 Clouds 17 1019 59 10000 1.03 0 20:22 23.12.2021
6284 Clouds 19 1019 52 10000 2.06 300 19:27 23.12.2021
6285 Clouds 21 1019 46 10000 3.09 300 17:58 23.12.2021
6286 Clouds 22 1019 43 10000 2.06 320 17:18 23.12.2021
6287 Clouds 23 1019 46 10000 1.54 0 16:26 23.12.2021
6288 Clouds 22 1019 49 10000 2.06 0 15:32 23.12.2021
6289 Clouds 22 1019 49 10000 1.54 0 14:58 23.12.2021
6290 Clouds 21 1020 52 10000 1.54 360 14:38 23.12.2021
6291 Clear 20 1021 56 10000 2.57 340 13:25 23.12.2021
6292 Clouds 15 1022 77 10000 1.03 0 11:20 23.12.2021
6293 Clouds 12 1021 87 10000 1.03 0 09:53 23.12.2021
6294 Clouds 10 1021 87 10000 1.54 100 09:33 23.12.2021
6295 Clouds 10 1021 87 10000 1.54 90 08:25 23.12.2021
6296 Clouds 11 1021 87 10000 1.54 100 05:23 23.12.2021
6297 Clouds 16 1022 72 10000 1.03 0 00:34 23.12.2021
6298 Clouds 17 1022 67 10000 1.03 0 22:50 22.12.2021
6299 Clouds 18 1022 63 10000 2.57 350 21:59 22.12.2021
6300 Clouds 18 1022 63 10000 2.06 350 21:30 22.12.2021
6301 Clouds 19 1021 59 10000 1.03 0 20:58 22.12.2021
6302 Clouds 19 1021 59 10000 1.03 0 20:40 22.12.2021
6303 Clouds 19 1021 59 10000 1.03 0 19:42 22.12.2021
6304 Clouds 21 1020 52 10000 2.06 250 18:25 22.12.2021
6305 Clouds 21 1020 52 10000 2.06 300 17:38 22.12.2021
6306 Clouds 22 1020 46 10000 2.57 310 15:50 22.12.2021
6307 Clouds 21 1021 49 10000 2.06 360 13:57 22.12.2021
6308 Clouds 20 1021 52 10000 1.54 10 12:53 22.12.2021
6309 Clouds 17 1021 72 8000 1.03 0 11:39 22.12.2021
6310 Clouds 14 1021 82 8000 1.54 100 09:52 22.12.2021
6311 Clouds 14 1020 82 8000 1.54 110 07:56 22.12.2021
6312 Clouds 16 1019 67 8000 1.54 60 05:51 22.12.2021
6313 Clouds 17 1020 63 8000 3.6 170 05:33 22.12.2021
6314 Clouds 17 1020 63 8000 3.6 180 04:55 22.12.2021
6315 Clouds 15 1020 77 8000 1.54 90 04:35 22.12.2021
6316 Clouds 15 1020 72 8000 3.09 100 03:37 22.12.2021
6317 Clouds 15 1021 72 8000 3.09 100 03:18 22.12.2021
6318 Clouds 16 1022 77 8000 1.54 80 23:47 21.12.2021
6319 Clouds 16 1022 72 8000 2.57 230 22:36 21.12.2021
6320 Clouds 16 1022 72 8000 2.06 270 21:55 21.12.2021
6321 Clouds 18 1021 59 8000 2.57 310 21:31 21.12.2021
6322 Clouds 21 1019 40 6000 5.14 200 20:24 21.12.2021
6323 Clouds 21 1019 40 6000 5.14 190 19:52 21.12.2021
6324 Clouds 20 1019 45 6000 4.63 210 19:31 21.12.2021
6325 Clouds 21 1019 43 6000 3.6 190 18:23 21.12.2021
6326 Dust 21 1019 43 4000 7.2 260 17:52 21.12.2021
6327 Clouds 24 1018 33 10000 4.12 300 16:47 21.12.2021
6328 Clouds 25 1017 31 10000 4.63 330 15:34 21.12.2021
6329 Clouds 25 1018 33 10000 4.12 110 13:55 21.12.2021
6330 Clouds 24 1019 33 10000 3.09 110 13:36 21.12.2021
6331 Clouds 22 1020 37 10000 1.54 150 12:25 21.12.2021
6332 Clouds 15 1020 55 10000 1.03 0 10:38 21.12.2021
6333 Clouds 14 1019 58 10000 1.54 0 09:42 21.12.2021
6334 Clouds 11 1019 66 8000 2.57 90 08:55 21.12.2021
6335 Clouds 11 1019 66 8000 3.6 110 07:42 21.12.2021
6336 Clouds 11 1018 66 8000 2.06 70 07:19 21.12.2021
6337 Clouds 15 1019 55 8000 2.06 100 03:24 21.12.2021
6338 Clouds 16 1020 48 8000 4.63 90 01:19 21.12.2021
6339 Clouds 18 1021 45 8000 2.57 150 23:54 20.12.2021
6340 Clouds 18 1020 45 8000 1.54 90 22:35 20.12.2021
6341 Clouds 19 1020 42 8000 2.06 80 21:51 20.12.2021
6342 Clouds 20 1020 40 10000 2.57 150 21:24 20.12.2021
6343 Clouds 19 1020 39 10000 1.54 70 20:50 20.12.2021
6344 Clouds 20 1019 40 10000 2.06 70 19:55 20.12.2021
6345 Clouds 20 1019 40 10000 2.06 70 19:55 20.12.2021
6346 Clouds 22 1019 35 10000 2.06 50 19:36 20.12.2021
6347 Clouds 22 1019 35 10000 2.06 50 19:18 20.12.2021
6348 Clouds 24 1019 31 10000 2.57 30 18:28 20.12.2021
6349 Clouds 25 1019 29 10000 2.06 20 17:49 20.12.2021
6350 Clouds 26 1019 25 10000 2.57 30 16:44 20.12.2021
6351 Clouds 26 1019 25 10000 3.6 40 15:52 20.12.2021
6352 Clouds 25 1019 29 10000 3.6 50 15:31 20.12.2021
6353 Clouds 23 1020 35 8000 3.09 70 13:31 20.12.2021
6354 Clouds 17 1021 48 8000 3.09 80 11:36 20.12.2021
6355 Clouds 10 1021 71 8000 2.57 70 09:56 20.12.2021
6356 Clouds 9 1021 76 8000 2.57 90 09:32 20.12.2021
6357 Clear 8 1021 76 8000 1.54 90 08:43 20.12.2021
6358 Clouds 8 1020 76 8000 2.06 80 07:57 20.12.2021
6359 Clouds 9 1020 71 8000 2.06 70 07:31 20.12.2021
6360 Clear 9 1020 71 8000 1.54 80 05:25 20.12.2021
6361 Clear 13 1020 62 8000 1.54 140 00:19 20.12.2021
6362 Clear 14 1020 54 8000 1.03 0 22:55 19.12.2021
6363 Clear 17 1020 51 8000 2.06 330 21:55 19.12.2021
6364 Clear 18 1020 45 8000 2.57 310 21:31 19.12.2021
6365 Clear 18 1019 39 8000 1.54 250 20:34 19.12.2021
6366 Clear 19 1018 37 8000 2.06 280 19:52 19.12.2021
6367 Clouds 20 1018 32 8000 2.57 250 19:32 19.12.2021
6368 Clouds 23 1017 28 8000 5.14 260 18:30 19.12.2021
6369 Clouds 25 1017 33 8000 3.09 300 17:53 19.12.2021
6370 Clouds 26 1016 31 8000 2.57 320 17:21 19.12.2021
6371 Clouds 26 1016 29 8000 2.06 170 16:27 19.12.2021
6372 Clouds 26 1017 29 7000 4.63 210 15:43 19.12.2021
6373 Clouds 26 1017 29 7000 7.2 220 15:21 19.12.2021
6374 Clouds 25 1017 31 5000 7.72 180 14:42 19.12.2021
6375 Clouds 19 1019 45 5000 1.54 70 13:24 19.12.2021
6376 Clouds 18 1019 45 5000 2.06 50 12:46 19.12.2021
6377 Clouds 18 1019 45 5000 2.06 50 12:23 19.12.2021
6378 Clouds 20 1019 45 6000 2.57 190 11:26 19.12.2021
6379 Clouds 13 1019 44 6000 1.03 0 10:28 19.12.2021
6380 Clouds 13 1018 44 6000 1.03 0 09:48 19.12.2021
6381 Clear 10 1018 50 10000 2.57 90 08:43 19.12.2021
6382 Clear 10 1016 50 10000 1.54 0 04:45 19.12.2021
6383 Clear 12 1018 40 10000 1.03 0 01:33 19.12.2021
6384 Clear 12 1018 40 10000 2.06 90 00:52 19.12.2021
6385 Clouds 16 1018 31 10000 3.09 100 22:42 18.12.2021
6386 Clouds 16 1018 31 10000 4.63 100 21:58 18.12.2021
6387 Clouds 16 1018 31 10000 4.12 100 21:36 18.12.2021
6388 Clouds 17 1018 29 10000 5.14 100 20:44 18.12.2021
6389 Clouds 16 1017 29 10000 2.57 90 20:19 18.12.2021
6390 Clouds 19 1017 24 10000 2.06 70 19:25 18.12.2021
6391 Clouds 23 1016 18 10000 3.09 60 18:22 18.12.2021
6392 Clouds 23 1016 18 10000 3.09 60 17:48 18.12.2021
6393 Clouds 24 1016 17 10000 3.6 40 16:26 18.12.2021
6394 Clouds 23 1017 20 10000 4.12 50 15:27 18.12.2021
6395 Clouds 23 1017 20 10000 4.12 40 14:48 18.12.2021
6396 Clouds 20 1019 26 10000 3.09 80 13:28 18.12.2021
6397 Clouds 15 1021 38 10000 2.57 80 11:22 18.12.2021
6398 Clear 6 1020 65 10000 2.57 100 09:40 18.12.2021
6399 Clear 5 1020 70 10000 3.09 90 08:47 18.12.2021
6400 Clouds 6 1020 65 8000 3.09 100 08:24 18.12.2021
6401 Clouds 11 1020 50 8000 4.12 170 03:58 18.12.2021
6402 Clear 12 1020 47 8000 1.03 0 00:29 18.12.2021
6403 Clear 12 1020 50 8000 1.54 160 23:46 17.12.2021
6404 Clear 15 1020 47 8000 2.06 100 21:58 17.12.2021
6405 Clear 15 1020 44 8000 2.06 80 21:19 17.12.2021
6406 Clear 16 1020 39 8000 0.51 0 20:40 17.12.2021
6407 Clouds 17 1019 36 8000 1.54 270 19:28 17.12.2021
6408 Clouds 20 1019 32 8000 1.03 0 18:39 17.12.2021
6409 Clouds 21 1019 30 8000 2.06 330 17:33 17.12.2021
6410 Clouds 21 1019 28 8000 1.54 350 16:49 17.12.2021
6411 Clouds 21 1019 28 8000 2.06 0 16:22 17.12.2021
6412 Clouds 21 1019 30 8000 2.57 340 15:25 17.12.2021
6413 Clouds 20 1019 30 8000 2.57 340 14:40 17.12.2021
6414 Clear 20 1021 34 8000 1.03 0 13:21 17.12.2021
6415 Clear 15 1021 51 8000 1.03 0 11:50 17.12.2021
6416 Clear 11 1021 62 8000 1.54 110 10:37 17.12.2021
6417 Clear 7 1021 76 8000 2.06 100 09:34 17.12.2021
6418 Clear 7 1020 70 10000 1.54 80 08:30 17.12.2021
6419 Clear 8 1020 66 10000 1.54 150 06:47 17.12.2021
6420 Clear 10 1019 62 10000 1.54 230 02:54 17.12.2021
6421 Clear 12 1018 62 10000 1.54 270 23:40 16.12.2021
6422 Clouds 13 1018 62 10000 1.03 0 22:24 16.12.2021
6423 Clouds 13 1018 62 10000 1.03 0 22:24 16.12.2021
6424 Clouds 14 1018 54 10000 2.06 110 21:50 16.12.2021
6425 Clouds 15 1017 55 10000 1.54 60 21:25 16.12.2021
6426 Clouds 16 1017 48 8000 2.06 40 20:31 16.12.2021
6427 Clouds 17 1016 45 8000 2.06 50 19:44 16.12.2021
6428 Clouds 20 1016 40 8000 1.03 0 18:39 16.12.2021
6429 Clouds 20 1016 40 8000 1.03 0 17:56 16.12.2021
6430 Clouds 21 1016 37 8000 0.51 0 17:31 16.12.2021
6431 Clouds 21 1016 40 8000 2.06 0 16:22 16.12.2021
6432 Clouds 20 1016 40 8000 2.06 0 14:50 16.12.2021
6433 Clouds 18 1018 45 10000 1.54 0 13:29 16.12.2021
6434 Clouds 16 1019 51 10000 1.03 0 11:20 16.12.2021
6435 Clouds 14 1018 54 8000 2.06 120 10:59 16.12.2021
6436 Clouds 11 1018 66 8000 2.57 120 10:20 16.12.2021
6437 Clouds 10 1018 66 10000 2.06 270 07:48 16.12.2021
6438 Clouds 12 1017 58 8000 1.54 210 06:21 16.12.2021
6439 Clouds 13 1017 54 8000 1.54 160 01:25 16.12.2021
6440 Clouds 13 1017 54 8000 1.03 0 23:33 15.12.2021
6441 Clouds 12 1017 58 6000 0.51 0 22:43 15.12.2021
6442 Clouds 12 1017 58 6000 0.51 0 21:56 15.12.2021
6443 Clouds 13 1017 58 6000 0.51 0 21:27 15.12.2021
6444 Clouds 14 1016 54 8000 1.54 60 20:18 15.12.2021
6445 Clouds 15 1016 51 8000 0.51 0 19:50 15.12.2021
6446 Clouds 16 1016 48 10000 1.03 0 18:37 15.12.2021
6447 Clouds 17 1016 45 10000 0.51 0 17:53 15.12.2021
6448 Clouds 17 1016 45 10000 0.51 0 17:34 15.12.2021
6449 Clouds 17 1016 45 10000 1.03 0 16:28 15.12.2021
6450 Clouds 16 1016 48 10000 2.57 260 15:46 15.12.2021
6451 Clouds 16 1016 48 10000 2.57 260 15:27 15.12.2021
6452 Clouds 15 1017 51 10000 1.54 300 14:29 15.12.2021
6453 Clouds 13 1018 54 10000 1.03 0 12:37 15.12.2021
6454 Clouds 12 1018 58 10000 2.57 80 10:42 15.12.2021
6455 Clouds 7 1017 70 10000 2.06 100 08:55 15.12.2021
6456 Clear 8 1017 66 10000 1.54 160 07:25 15.12.2021
6457 Clear 12 1018 54 10000 0.51 0 01:20 15.12.2021
6458 Clear 15 1018 47 10000 3.09 230 23:42 14.12.2021
6459 Clear 15 1018 47 10000 1.54 280 22:49 14.12.2021
6460 Clouds 16 1018 44 10000 2.06 250 22:24 14.12.2021
6461 Clouds 18 1018 39 10000 1.54 240 20:29 14.12.2021
6462 Clouds 18 1017 42 10000 1.54 250 19:43 14.12.2021
6463 Clouds 19 1017 39 10000 2.06 280 19:19 14.12.2021
6464 Clouds 20 1017 37 10000 3.6 250 18:25 14.12.2021
6465 Clouds 21 1017 32 10000 3.6 270 17:33 14.12.2021
6466 Clouds 22 1017 33 10000 1.54 10 16:40 14.12.2021
6467 Clouds 22 1017 33 10000 1.54 320 15:36 14.12.2021
6468 Clouds 21 1019 35 8000 1.54 350 13:31 14.12.2021
6469 Clouds 17 1020 45 8000 1.54 20 11:59 14.12.2021
6470 Clouds 16 1020 48 8000 1.54 140 11:24 14.12.2021
6471 Clouds 12 1020 58 8000 2.06 70 10:23 14.12.2021
6472 Clouds 10 1020 62 10000 1.03 0 09:43 14.12.2021
6473 Clouds 8 1020 66 10000 0.51 0 08:27 14.12.2021
6474 Clouds 9 1020 61 10000 0.51 0 07:43 14.12.2021
6475 Clouds 13 1021 50 10000 1.03 0 02:37 14.12.2021
6476 Clouds 16 1021 41 10000 2.06 70 22:56 13.12.2021
6477 Clouds 18 1022 36 10000 3.6 150 21:53 13.12.2021
6478 Clouds 16 1021 41 10000 1.54 160 21:32 13.12.2021
6479 Clouds 15 1022 44 10000 2.57 110 20:43 13.12.2021
6480 Clouds 18 1021 36 10000 1.54 240 19:53 13.12.2021
6481 Clouds 19 1021 34 10000 1.54 240 18:33 13.12.2021
6482 Clouds 20 1021 30 10000 2.57 270 17:26 13.12.2021
6483 Clouds 20 1021 32 10000 3.09 240 15:54 13.12.2021
6484 Clouds 21 1021 30 10000 3.09 270 15:32 13.12.2021
6485 Clouds 20 1022 30 10000 1.54 220 13:45 13.12.2021
6486 Clouds 19 1023 32 10000 0.51 0 12:49 13.12.2021
6487 Clouds 17 1023 36 10000 1.03 0 11:59 13.12.2021
6488 Clouds 14 1023 44 10000 2.06 100 11:35 13.12.2021
6489 Clouds 13 1023 47 10000 1.03 0 10:47 13.12.2021
6490 Clouds 8 1022 61 10000 2.06 80 09:32 13.12.2021
6491 Clear 7 1022 61 10000 1.54 70 07:53 13.12.2021
6492 Clear 8 1021 53 10000 1.54 140 05:36 13.12.2021
6493 Clear 10 1021 46 10000 1.54 120 03:28 13.12.2021
6494 Clear 13 1022 41 10000 2.06 160 23:22 12.12.2021
6495 Clear 14 1022 41 10000 1.54 120 21:40 12.12.2021
6496 Clear 18 1021 34 10000 2.06 240 19:57 12.12.2021
6497 Clear 21 1021 28 10000 2.57 250 18:43 12.12.2021
6498 Clear 24 1020 22 10000 2.57 300 17:38 12.12.2021
6499 Clear 25 1020 23 10000 2.57 320 16:28 12.12.2021
6500 Clear 25 1020 25 10000 3.09 320 15:46 12.12.2021
6501 Clear 25 1020 25 10000 3.09 320 15:25 12.12.2021
6502 Clear 24 1020 29 10000 2.57 330 14:34 12.12.2021
6503 Clear 22 1021 33 10000 1.54 350 13:26 12.12.2021
6504 Clear 20 1022 34 10000 1.54 90 12:30 12.12.2021
6505 Clear 17 1022 48 10000 1.03 0 11:44 12.12.2021
6506 Clear 15 1022 55 10000 1.03 0 11:20 12.12.2021
6507 Clear 12 1021 62 10000 1.54 80 10:22 12.12.2021
6508 Clear 8 1021 71 10000 2.06 100 09:38 12.12.2021
6509 Clear 7 1020 70 10000 2.06 70 07:57 12.12.2021
6510 Clear 7 1020 70 10000 2.06 100 05:57 12.12.2021
6511 Clear 8 1020 66 10000 1.54 110 04:56 12.12.2021
6512 Clear 8 1020 66 10000 2.57 110 03:27 12.12.2021
6513 Clear 12 1020 62 10000 1.03 0 23:39 11.12.2021
6514 Clear 14 1020 58 10000 1.54 150 22:22 11.12.2021
6515 Clear 14 1020 58 10000 1.54 150 21:51 11.12.2021
6516 Clear 15 1020 55 10000 1.03 0 20:51 11.12.2021
6517 Clear 18 1019 48 10000 1.54 20 19:23 11.12.2021
6518 Clear 19 1019 42 10000 3.09 20 18:52 11.12.2021
6519 Clear 21 1019 37 10000 3.6 50 18:21 11.12.2021
6520 Clear 22 1019 35 10000 2.06 340 17:20 11.12.2021
6521 Clear 22 1019 40 10000 1.03 0 15:53 11.12.2021
6522 Clear 21 1020 43 10000 2.06 350 15:27 11.12.2021
6523 Clear 16 1022 55 10000 2.57 30 12:50 11.12.2021
6524 Clear 16 1022 55 10000 2.57 30 12:50 11.12.2021
6525 Clear 13 1023 62 10000 2.57 40 11:25 11.12.2021
6526 Clear 9 1022 76 10000 2.57 80 09:45 11.12.2021
6527 Clear 7 1022 81 10000 3.6 90 07:49 11.12.2021
6528 Clear 10 1024 71 10000 3.6 60 02:23 11.12.2021
6529 Clear 11 1025 71 10000 1.54 80 23:58 10.12.2021
6530 Clear 12 1025 66 10000 2.06 70 23:20 10.12.2021
6531 Clear 12 1024 58 10000 2.57 110 21:56 10.12.2021
6532 Clear 14 1025 54 10000 2.57 80 20:57 10.12.2021
6533 Clear 16 1024 44 10000 1.54 40 19:21 10.12.2021
6534 Clear 20 1024 40 10000 3.6 30 17:59 10.12.2021
6535 Clear 20 1024 40 10000 2.57 30 16:56 10.12.2021
6536 Clear 20 1024 40 10000 3.09 40 16:28 10.12.2021
6537 Clear 19 1025 45 10000 2.57 0 15:40 10.12.2021
6538 Clear 19 1025 45 10000 2.57 0 15:21 10.12.2021
6539 Clear 17 1026 51 10000 3.09 40 13:51 10.12.2021
6540 Clear 16 1026 55 10000 2.57 30 13:26 10.12.2021
6541 Clear 14 1026 58 10000 2.06 20 12:36 10.12.2021
6542 Clear 13 1026 67 10000 2.06 90 11:28 10.12.2021
6543 Clear 11 1027 71 10000 1.54 60 10:26 10.12.2021
6544 Clear 6 1026 81 10000 2.06 90 08:52 10.12.2021
6545 Clear 7 1025 81 10000 1.54 70 06:22 10.12.2021
6546 Clear 10 1024 71 10000 2.57 70 02:48 10.12.2021
6547 Clear 11 1025 66 10000 2.06 80 23:54 09.12.2021
6548 Clear 12 1025 66 10000 2.06 70 23:20 09.12.2021
6549 Clear 14 1025 58 10000 3.09 50 22:24 09.12.2021
6550 Clear 14 1025 58 10000 2.57 50 21:59 09.12.2021
6551 Clear 15 1025 55 10000 3.6 40 20:44 09.12.2021
6552 Clear 16 1025 51 10000 3.09 40 20:21 09.12.2021
6553 Clear 16 1024 48 10000 2.06 90 19:21 09.12.2021
6554 Clear 18 1024 45 10000 4.12 60 18:46 09.12.2021
6555 Clear 19 1024 42 10000 5.14 60 17:52 09.12.2021
6556 Clear 19 1024 42 10000 6.17 40 17:26 09.12.2021
6557 Clear 19 1023 45 10000 5.66 40 16:54 09.12.2021
6558 Clouds 19 1023 48 10000 5.14 60 15:34 09.12.2021
6559 Clouds 18 1024 55 10000 6.17 60 14:46 09.12.2021
6560 Clouds 16 1026 63 10000 3.6 70 13:20 09.12.2021
6561 Clouds 15 1026 63 10000 3.6 100 12:37 09.12.2021
6562 Clouds 13 1027 71 10000 2.57 90 11:24 09.12.2021
6563 Clouds 9 1026 81 7000 2.06 80 09:21 09.12.2021
6564 Clouds 11 1025 82 7000 2.57 80 06:44 09.12.2021
6565 Clouds 12 1026 71 7000 2.06 40 03:40 09.12.2021
6566 Clear 10 1026 66 10000 1.54 110 23:44 08.12.2021
6567 Clear 11 1026 62 10000 1.03 0 23:21 08.12.2021
6568 Clear 11 1026 62 10000 1.03 0 22:48 08.12.2021
6569 Clear 13 1026 58 10000 1.03 0 21:42 08.12.2021
6570 Clear 14 1025 54 10000 1.54 30 21:24 08.12.2021
6571 Clear 16 1024 44 10000 1.54 10 19:58 08.12.2021
6572 Clear 16 1024 44 10000 1.03 0 19:33 08.12.2021
6573 Clear 17 1024 42 10000 1.03 0 18:45 08.12.2021
6574 Clear 19 1024 39 10000 2.06 20 17:36 08.12.2021
6575 Clear 19 1024 39 10000 2.06 20 17:36 08.12.2021
6576 Clear 19 1024 39 10000 2.06 0 15:51 08.12.2021
6577 Clear 18 1024 42 10000 1.54 340 15:28 08.12.2021
6578 Clear 17 1024 45 10000 2.06 360 14:31 08.12.2021
6579 Clear 13 1026 58 10000 1.54 140 11:19 08.12.2021
6580 Clear 12 1026 62 10000 0.51 0 10:31 08.12.2021
6581 Clear 12 1026 62 10000 0.51 0 10:31 08.12.2021
6582 Clear 5 1025 75 10000 1.54 130 08:56 08.12.2021
6583 Clear 7 1025 70 10000 3.09 350 07:25 08.12.2021
6584 Clear 6 1025 70 10000 1.03 0 04:24 08.12.2021
6585 Clear 12 1025 54 10000 3.09 210 23:33 07.12.2021
6586 Clear 12 1025 47 10000 1.54 270 21:43 07.12.2021
6587 Clear 13 1025 44 10000 2.06 270 21:23 07.12.2021
6588 Clear 14 1024 41 10000 1.03 0 20:20 07.12.2021
6589 Clear 19 1024 27 10000 1.54 300 18:43 07.12.2021
6590 Clear 19 1024 27 10000 2.06 290 17:52 07.12.2021
6591 Clear 20 1024 26 10000 2.06 300 17:19 07.12.2021
6592 Clear 20 1024 24 10000 3.09 300 16:31 07.12.2021
6593 Clear 21 1024 24 10000 3.09 310 15:33 07.12.2021
6594 Clear 22 1025 26 10000 1.54 20 14:18 07.12.2021
6595 Clear 20 1025 32 10000 1.54 10 12:49 07.12.2021
6596 Clear 16 1026 41 10000 1.03 0 11:29 07.12.2021
6597 Clear 12 1026 58 10000 1.54 90 10:33 07.12.2021
6598 Clear 4 1025 75 10000 2.57 90 08:26 07.12.2021
6599 Clear 5 1024 75 10000 3.09 100 06:19 07.12.2021
6600 Clear 5 1024 75 10000 1.54 110 05:33 07.12.2021
6601 Clear 10 1024 62 10000 0.51 0 23:47 06.12.2021
6602 Clear 11 1024 58 10000 0.51 0 22:57 06.12.2021
6603 Clear 12 1024 54 10000 1.03 0 22:35 06.12.2021
6604 Clear 11 1024 54 10000 1.54 160 21:51 06.12.2021
6605 Clear 15 1024 38 10000 1.03 0 20:33 06.12.2021
6606 Clear 16 1024 39 10000 1.54 40 19:56 06.12.2021
6607 Clear 17 1024 36 10000 2.57 50 19:21 06.12.2021
6608 Clear 20 1023 34 10000 3.6 30 18:28 06.12.2021
6609 Clear 21 1023 32 10000 4.63 30 17:40 06.12.2021
6610 Clear 21 1023 32 10000 4.63 30 17:40 06.12.2021
6611 Clear 22 1023 24 10000 3.6 70 16:48 06.12.2021
6612 Clear 21 1023 43 10000 2.06 290 15:39 06.12.2021
6613 Clear 17 1026 48 10000 3.09 70 13:46 06.12.2021
6614 Clear 14 1027 58 10000 2.06 90 12:39 06.12.2021
6615 Clear 12 1027 71 10000 2.06 100 11:36 06.12.2021
6616 Clear 5 1026 93 10000 3.09 90 08:46 06.12.2021
6617 Clear 5 1026 87 10000 2.57 110 06:42 06.12.2021
6618 Clear 11 1026 58 10000 2.06 20 23:38 05.12.2021
6619 Clear 12 1026 54 10000 2.57 110 21:51 05.12.2021
6620 Clear 12 1026 54 10000 3.09 110 21:19 05.12.2021
6621 Clear 13 1026 47 10000 2.06 90 20:19 05.12.2021
6622 Clear 16 1025 39 10000 2.57 50 19:33 05.12.2021
6623 Clear 17 1025 39 10000 2.57 50 18:47 05.12.2021
6624 Clear 19 1025 34 10000 3.6 40 18:19 05.12.2021
6625 Clear 19 1025 34 10000 4.12 60 17:48 05.12.2021
6626 Clear 20 1025 34 10000 5.14 40 16:47 05.12.2021
6627 Clear 20 1025 34 10000 4.12 50 16:26 05.12.2021
6628 Clear 20 1025 37 10000 3.09 50 15:48 05.12.2021
6629 Clear 18 1026 48 10000 2.06 10 14:41 05.12.2021
6630 Clear 17 1027 48 10000 4.12 40 14:23 05.12.2021
6631 Clear 17 1027 48 10000 3.09 40 13:22 05.12.2021
6632 Clear 15 1027 55 10000 2.06 90 12:40 05.12.2021
6633 Clear 15 1027 55 10000 2.06 90 12:18 05.12.2021
6634 Clear 11 1028 66 10000 3.6 80 11:29 05.12.2021
6635 Clear 7 1027 81 10000 3.09 90 09:59 05.12.2021
6636 Clear 4 1027 87 10000 2.57 90 08:24 05.12.2021
6637 Clear 6 1026 81 10000 2.06 80 03:27 05.12.2021
6638 Clear 9 1026 71 10000 1.54 120 23:45 04.12.2021
6639 Clear 12 1026 58 10000 3.6 100 21:55 04.12.2021
6640 Clear 13 1026 54 10000 2.06 70 20:57 04.12.2021
6641 Clear 14 1025 51 10000 2.57 30 20:20 04.12.2021
6642 Clear 16 1025 48 10000 1.54 20 19:32 04.12.2021
6643 Clear 19 1025 37 10000 0.51 0 18:21 04.12.2021
6644 Clear 20 1025 37 10000 0.51 0 17:39 04.12.2021
6645 Clear 19 1025 37 10000 1.54 60 16:51 04.12.2021
6646 Clear 19 1025 39 10000 1.54 0 16:31 04.12.2021
6647 Clear 19 1025 37 10000 1.54 350 15:40 04.12.2021
6648 Clear 14 1027 58 10000 1.03 0 11:54 04.12.2021
6649 Clear 13 1027 62 10000 0.51 0 11:32 04.12.2021
6650 Clear 11 1027 71 10000 1.03 0 10:53 04.12.2021
6651 Clear 3 1026 87 10000 2.06 80 08:49 04.12.2021
6652 Clear 3 1025 93 10000 1.54 70 06:42 04.12.2021
6653 Clear 4 1024 87 10000 2.57 100 04:42 04.12.2021
6654 Clear 8 1025 71 10000 1.54 70 00:35 04.12.2021
6655 Clear 10 1024 71 10000 2.06 20 23:27 03.12.2021
6656 Clear 9 1024 71 10000 2.06 110 22:48 03.12.2021
6657 Clear 10 1024 66 10000 2.06 110 21:42 03.12.2021
6658 Clear 11 1024 62 10000 1.54 60 20:55 03.12.2021
6659 Clear 12 1024 58 10000